ECMWFFLT1_850_temp_000.txt.gz
Temp
23 23 23 23 24 24 24 25 25 25 25 24 24 24 23 23 23 23 23 23 24 24 24 23 23 22 22 22 22 22 22 21 21 21 21 20 20 19 19 19 19 18 18 17 17 17 17 16 16 16 16 15 15 15 15 15 15 15 15 15 14 14 14
23 23 23 23 23 24 24 25 26 25 25 25 24 24 24 23 23 23 23 24 24 24 24 24 23 23 23 23 23 23 22 21 21 21 21 20 20 19 19 19 19 19 18 18 18 17 17 17 17 17 16 16 16 15 15 15 15 15 15 15 14 14 14
23 23 23 23 23 24 24 25 26 26 25 25 25 24 24 24 23 23 24 24 24 25 25 24 24 24 24 24 23 23 22 21 21 21 21 21 20 19 19 20 20 19 18 18 18 18 17 17 17 17 16 16 16 16 15 15 15 15 15 15 15 15 15
24 24 23 23 23 24 24 25 26 26 26 26 25 25 24 24 24 24 24 24 24 25 25 25 25 24 24 24 23 23 22 21 21 21 21 21 20 20 20 20 20 19 19 18 18 18 17 17 17 17 17 16 16 16 16 15 15 15 15 15 15 15 15
24 24 24 23 23 23 23 24 25 26 26 26 26 25 25 25 24 24 23 24 24 24 25 25 25 24 24 24 24 23 23 22 22 21 21 21 21 21 21 21 20 20 19 19 18 18 17 17 17 17 17 17 16 16 16 16 16 15 15 15 15 14 14
23 24 24 23 23 23 24 24 25 26 27 27 26 26 26 25 25 24 24 24 24 24 25 25 25 25 24 24 24 24 23 23 22 22 22 22 22 22 22 21 21 20 20 19 19 18 18 17 17 17 17 17 16 16 16 16 15 15 15 15 14 14 14
24 24 24 24 24 24 24 24 25 26 26 27 27 26 26 25 25 25 24 24 24 24 24 25 25 25 25 24 24 24 24 23 23 23 22 22 22 22 22 21 21 20 19 19 18 18 18 18 17 17 17 16 16 16 15 15 15 15 15 14 14 14 14
25 25 25 26 25 25 25 24 25 25 25 26 26 26 25 25 25 25 25 24 24 24 24 25 25 25 25 25 24 24 24 24 23 23 23 22 22 22 22 22 21 20 20 19 19 18 18 18 17 17 17 16 16 15 15 15 15 14 14 14 14 14 14
25 26 27 27 26 26 25 26 26 25 25 25 25 26 26 25 25 25 25 25 25 24 24 25 25 25 25 25 25 25 24 24 23 23 23 22 22 22 22 22 22 21 20 19 19 19 18 18 17 17 16 16 16 15 15 15 14 14 14 14 14 14 14
25 25 26 26 26 26 26 26 25 24 25 25 25 25 26 26 26 25 25 25 24 25 25 25 25 25 25 25 25 25 24 24 23 23 23 22 22 22 22 22 22 21 20 20 19 19 19 18 17 17 16 16 16 15 15 15 14 14 14 14 14 14 14
25 24 25 25 25 26 26 26 25 24 24 25 25 25 25 25 25 25 25 25 24 25 25 25 25 25 25 25 25 24 24 24 23 23 22 22 22 22 22 22 21 21 20 19 19 19 19 18 18 17 17 17 16 16 15 15 15 15 15 15 15 15 15
24 24 25 26 26 26 26 26 25 25 25 25 25 25 25 25 25 24 24 24 25 25 25 25 25 25 25 25 25 24 24 23 23 22 22 22 21 21 21 21 21 21 20 19 19 19 19 19 18 18 17 17 17 16 15 15 15 15 15 15 15 15 15
24 24 25 26 26 26 26 26 26 26 26 26 25 26 26 25 25 24 24 24 25 25 25 25 24 25 25 25 25 24 23 22 22 22 22 21 20 20 20 21 22 21 19 19 19 19 19 19 18 18 18 17 17 16 15 15 15 15 15 15 15 15 15
23 23 25 25 25 25 25 26 27 27 26 26 26 26 26 25 25 25 24 25 25 25 25 25 24 24 24 24 24 24 23 22 22 22 21 20 20 19 19 21 21 20 19 18 18 18 19 19 18 18 18 17 17 16 16 15 15 15 15 15 15 15 15
23 24 26 25 25 25 25 27 28 27 27 27 26 26 25 25 24 24 24 24 24 24 25 24 24 24 24 24 24 24 23 22 20 19 18 18 18 19 19 20 20 19 19 18 17 18 18 18 18 18 18 18 17 16 16 16 16 16 16 16 15 15 15
24 26 27 27 26 26 27 29 29 28 28 28 27 27 26 26 26 25 26 26 25 25 25 24 24 23 23 22 22 22 21 20 17 17 16 16 17 18 18 18 18 18 18 18 17 17 18 17 17 18 18 18 17 16 16 16 16 16 16 16 16 15 15
25 27 27 26 26 27 28 29 28 28 28 29 29 28 28 28 27 26 26 26 25 26 26 24 23 22 22 22 22 21 20 18 16 16 15 14 15 18 19 18 18 17 17 17 16 16 17 17 17 18 18 18 17 16 16 16 16 16 16 16 15 15 15
26 27 26 27 28 28 29 29 29 29 30 30 30 29 29 29 28 27 27 26 26 26 25 23 22 21 22 22 22 21 19 18 16 15 15 15 15 17 18 18 18 18 17 17 17 16 16 16 17 18 18 17 17 17 16 16 16 16 16 16 16 15 15
26 26 28 30 31 30 30 30 30 30 31 31 30 30 30 28 27 27 27 26 26 25 23 22 22 21 20 20 21 20 19 18 17 16 15 16 16 17 17 17 18 18 18 18 18 17 16 16 17 18 18 18 17 17 17 17 17 16 16 16 16 15 15
25 26 29 31 31 31 31 31 30 30 30 30 30 29 28 27 26 26 25 24 24 23 22 23 22 20 19 19 19 19 18 18 18 16 16 16 17 17 17 17 18 19 18 18 18 17 17 17 17 17 17 17 17 17 17 17 17 16 16 16 15 15 15
24 27 29 31 31 31 30 29 29 29 29 29 29 28 27 27 27 26 24 24 23 23 23 23 21 20 19 19 18 18 17 17 17 17 17 17 17 17 18 18 19 19 18 18 18 17 17 17 17 17 17 17 17 17 17 17 16 16 16 16 15 15 15
26 29 30 31 30 30 29 29 28 29 29 29 29 28 28 28 27 26 25 24 23 23 22 22 21 20 19 19 18 17 17 17 18 18 17 16 16 17 18 18 18 19 18 18 17 17 17 18 18 18 17 16 16 16 17 17 16 16 16 15 15 15 15
28 30 30 29 29 29 29 29 29 29 29 29 29 28 28 28 28 27 26 25 24 23 22 21 20 20 19 19 18 17 17 17 17 16 15 15 16 17 18 17 18 18 18 18 17 17 18 18 18 17 16 16 16 16 16 16 16 16 15 15 15 15 15
27 28 28 28 27 28 29 29 29 29 28 28 28 28 28 28 27 27 27 26 25 24 23 22 21 20 19 19 18 17 17 17 16 15 15 16 16 17 17 16 17 17 17 17 17 17 18 18 17 16 15 15 15 15 16 16 16 16 15 15 15 15 15
27 27 27 27 28 28 28 29 28 28 28 28 27 27 27 27 27 27 27 26 26 25 24 23 21 20 19 18 18 18 17 17 17 16 16 17 17 16 16 16 16 16 17 17 17 17 17 17 16 15 14 14 15 15 15 15 15 15 14 14 15 15 14
26 27 28 28 28 28 28 28 28 27 27 27 27 27 26 26 26 26 26 26 25 25 24 22 21 20 19 19 18 17 17 17 17 18 18 17 17 17 16 16 16 17 17 17 17 17 16 15 15 14 14 14 14 15 15 15 15 15 14 14 14 14 14
26 27 27 27 27 27 27 27 27 27 27 26 26 26 26 26 26 26 25 25 25 24 23 21 20 19 19 18 18 17 17 17 18 18 17 16 16 17 17 16 17 17 17 17 17 15 15 15 15 14 14 14 14 15 16 15 15 16 16 15 14 14 14
26 26 26 26 26 26 26 26 26 26 26 26 26 25 25 25 25 25 25 24 23 23 21 20 19 19 18 18 17 17 17 17 17 17 16 16 16 17 16 16 16 17 17 17 16 15 15 15 15 15 15 16 16 16 16 16 15 16 15 15 14 14 14
25 25 25 25 25 25 25 25 25 26 25 25 25 25 25 25 25 24 24 23 22 21 20 20 19 18 18 18 18 17 17 16 16 16 16 15 16 16 15 15 15 16 16 16 15 16 16 17 17 17 17 17 17 16 16 15 15 15 15 14 14 14 14
24 24 24 24 24 24 24 24 24 25 25 24 24 25 25 24 24 23 23 22 21 21 20 19 19 18 18 18 17 17 16 16 16 16 16 16 16 15 15 14 14 15 16 16 16 17 17 17 17 17 17 16 16 16 16 15 15 15 14 14 14 14 14
23 23 23 23 23 23 24 24 24 24 24 24 24 24 24 24 23 22 22 22 21 20 20 19 19 18 17 17 17 16 16 16 16 16 17 17 16 16 16 15 15 16 16 16 17 17 17 17 17 17 16 16 15 15 15 15 15 15 14 14 14 14 14
23 23 23 24 24 24 24 24 24 24 24 24 24 23 23 23 22 22 21 21 20 20 19 19 18 18 17 16 16 16 16 16 16 16 17 17 16 16 16 16 16 17 17 17 17 17 17 17 17 16 16 16 15 15 15 15 15 14 14 14 14 14 14
22 23 23 23 23 24 24 24 24 24 24 23 23 23 23 22 22 21 20 20 20 19 19 19 18 17 16 16 16 16 15 15 16 17 17 16 16 17 17 17 17 17 17 17 17 17 16 16 16 16 16 15 15 14 14 14 14 14 14 14 14 14 13
22 22 23 23 23 23 23 23 23 23 23 22 22 22 22 21 21 20 20 20 20 19 19 19 19 18 17 16 16 15 15 15 16 17 17 16 16 17 17 17 17 17 17 17 17 17 17 17 17 16 16 15 15 14 14 14 14 14 14 14 14 13 13
22 22 22 23 23 23 23 23 23 22 22 21 21 21 21 21 21 20 20 20 20 20 20 19 19 18 17 17 16 15 15 15 16 17 16 16 17 17 17 17 17 17 17 17 17 17 17 17 17 16 15 15 15 15 14 14 14 14 14 14 13 13 12
22 22 22 23 23 23 23 22 22 21 21 21 22 22 21 21 20 20 20 20 20 21 20 20 19 19 17 17 16 16 15 16 16 16 16 17 17 18 18 18 18 17 17 17 17 17 17 16 16 15 15 15 15 15 14 14 14 14 14 13 13 12 12
22 22 22 22 22 22 22 21 21 21 21 22 22 22 21 21 21 20 20 20 21 21 21 21 20 19 18 16 16 16 16 16 16 16 16 17 17 17 17 17 17 17 17 18 17 17 16 16 15 15 15 15 14 14 14 14 14 13 13 13 12 12 11
21 21 21 21 21 21 21 20 20 20 21 21 21 21 21 21 21 20 20 20 20 20 20 20 20 19 18 16 16 16 16 16 16 16 16 16 16 16 17 17 17 17 17 17 17 16 16 16 15 15 15 15 14 14 14 13 13 13 13 12 12 11 11

ECMWFFLT1_850_temp_003.txt.gz
Temp
24 23 23 23 24 25 25 26 26 26 26 25 25 24 24 24 24 23 23 23 23 22 23 23 22 22 22 21 21 21 20 20 20 20 20 20 20 20 19 19 18 18 18 18 18 18 18 17 17 17 17 16 16 15 15 15 15 15 15 15 15 15 14
24 24 23 23 24 25 25 26 26 26 26 26 25 25 24 24 24 24 24 23 23 23 23 23 23 23 23 22 21 21 21 20 20 20 20 20 20 20 20 19 18 18 18 19 18 18 18 18 18 17 16 16 16 16 15 15 15 15 15 15 15 15 14
25 24 24 24 24 25 26 26 27 26 26 26 26 26 25 25 25 24 24 24 24 23 23 23 24 23 23 22 22 21 21 21 21 21 21 21 21 20 20 19 19 19 19 19 18 18 18 18 18 17 17 16 16 16 16 16 16 15 15 15 15 15 14
25 25 24 25 25 25 26 27 27 27 26 26 26 26 26 26 25 25 25 24 24 24 24 24 24 24 23 23 22 22 21 21 21 21 21 21 21 20 20 19 19 19 19 19 18 19 19 19 18 17 17 17 17 17 16 16 16 16 15 15 15 15 15
25 25 24 24 24 25 25 26 26 26 26 26 27 27 27 26 26 25 25 25 24 24 24 24 24 24 24 23 23 22 22 21 21 22 22 21 21 20 19 19 19 20 20 19 19 19 19 19 19 18 18 17 17 17 17 17 16 16 16 15 15 15 15
25 24 25 25 25 25 25 26 27 26 26 27 27 27 27 27 26 26 25 25 25 24 24 24 24 24 24 24 23 23 22 22 22 22 22 22 21 20 19 19 19 19 19 19 19 19 19 19 18 18 18 18 17 17 17 16 16 16 16 15 15 15 15
25 24 25 25 25 25 26 26 26 26 26 27 27 27 27 27 27 26 26 25 25 25 24 24 24 24 24 24 24 24 23 23 23 23 23 22 21 20 19 19 19 19 19 19 19 19 19 19 18 18 18 18 18 17 17 16 16 16 16 15 15 15 15
25 25 25 26 26 26 26 26 25 25 26 26 27 27 27 27 27 27 26 26 25 25 24 24 24 24 25 25 24 24 23 23 23 23 23 22 21 20 19 19 18 18 18 19 19 19 19 19 19 18 18 18 17 17 17 16 16 16 16 15 15 15 15
26 26 26 26 26 26 26 26 25 25 26 27 27 27 27 27 27 27 27 26 26 25 25 24 24 24 24 24 24 24 24 23 23 23 22 22 21 20 19 19 19 18 18 18 18 18 19 19 18 18 17 18 17 17 16 16 16 16 16 15 15 15 15
26 25 25 25 25 25 25 25 26 26 26 26 27 27 27 27 27 27 27 27 26 26 26 25 25 24 24 24 24 24 23 23 23 23 22 22 21 20 20 20 19 18 18 18 18 18 18 18 18 17 17 17 17 17 16 16 16 16 16 16 16 15 15
27 25 25 25 25 25 25 25 26 26 26 26 26 27 27 27 27 27 27 27 26 26 26 26 25 25 25 24 24 23 23 23 24 23 23 23 22 21 20 20 19 19 18 19 18 18 18 18 17 17 17 17 17 17 17 16 16 16 16 16 16 16 15
27 25 25 25 25 25 25 26 26 26 26 27 27 27 27 27 27 26 27 27 27 27 27 26 26 25 25 25 24 23 23 24 24 23 23 23 22 21 20 20 20 19 18 18 18 18 18 17 17 17 17 17 17 17 17 17 17 16 16 16 16 17 16
26 26 25 25 25 25 25 26 26 26 27 27 27 27 27 27 27 26 27 27 27 27 27 26 26 26 25 25 24 24 24 24 23 23 23 23 22 20 19 20 20 18 18 17 17 17 17 17 17 17 17 16 16 17 17 17 17 16 16 15 16 17 16
24 25 25 25 25 26 27 27 26 26 26 26 26 26 27 27 26 26 27 27 27 27 26 26 26 26 25 25 24 24 23 22 22 23 23 23 22 20 19 19 19 17 17 16 16 17 18 18 18 17 17 16 16 16 16 17 17 17 16 16 16 17 16
23 23 24 25 27 28 28 28 27 27 27 27 26 26 26 26 26 27 27 27 27 26 26 26 26 26 25 24 23 22 22 21 20 21 22 22 22 21 19 18 17 17 17 17 17 18 19 18 17 17 17 16 16 16 16 16 17 17 16 16 16 16 16
24 24 24 26 29 30 29 28 28 28 28 27 27 27 27 27 27 28 27 27 27 27 26 26 26 25 24 22 21 21 20 20 19 20 20 21 21 21 20 19 17 17 18 18 18 19 19 17 16 17 17 16 16 16 16 16 17 17 17 16 16 16 16
25 25 26 29 31 30 28 28 28 28 28 28 28 28 28 28 29 28 28 27 26 26 25 24 24 24 22 21 20 20 19 19 19 19 19 19 19 19 19 18 18 17 18 18 18 18 17 16 16 17 17 16 16 16 16 16 16 17 17 16 16 16 15
27 29 30 31 31 30 28 29 30 30 30 30 29 29 29 29 28 28 27 25 24 24 23 23 23 22 21 20 19 19 18 18 18 18 17 17 16 16 16 17 17 17 17 17 17 17 16 16 16 17 16 16 17 16 16 16 16 16 16 16 15 15 15
28 29 28 29 29 29 29 30 31 31 30 30 30 29 29 28 27 26 25 24 24 23 22 22 22 21 20 20 19 18 18 18 17 17 16 16 16 16 17 17 17 17 17 16 17 17 16 16 16 16 16 16 17 17 16 16 16 16 16 16 15 15 15
24 24 24 23 24 24 26 28 29 29 29 29 28 28 27 27 26 26 25 24 24 23 22 22 21 21 20 20 19 18 18 17 17 16 16 16 17 17 17 17 17 17 16 16 16 16 16 16 16 16 16 16 16 16 16 16 16 16 15 15 15 15 15
24 24 24 23 23 25 26 27 26 26 27 27 27 27 27 26 26 26 25 25 24 23 22 21 21 21 20 20 19 19 18 17 17 16 16 16 17 17 17 16 16 16 16 16 15 15 15 16 16 16 16 15 16 16 17 17 16 16 15 15 15 15 15
26 26 26 26 27 28 30 29 27 26 26 26 26 26 26 26 26 26 26 26 26 25 23 22 22 21 21 20 19 19 18 17 17 17 16 16 16 17 16 16 16 16 15 15 15 15 15 15 15 15 15 15 16 17 17 17 16 15 15 15 15 15 15
28 28 27 27 27 28 28 28 28 27 26 26 26 26 27 27 27 27 27 27 26 26 25 24 23 22 21 20 20 19 18 18 18 17 17 16 16 17 18 18 17 16 15 15 14 14 15 15 15 15 15 16 17 17 17 16 15 15 15 15 16 16 15
27 27 26 26 26 26 26 27 28 27 26 26 27 27 27 26 27 27 27 26 26 26 25 24 23 23 22 21 20 20 19 19 18 18 17 17 17 18 18 18 17 16 15 15 14 14 14 14 14 15 16 17 17 17 17 16 15 16 16 16 16 16 15
26 26 26 26 26 25 26 27 27 27 26 26 26 26 26 26 26 26 26 26 26 26 25 25 24 23 22 21 21 20 20 19 18 18 18 17 18 18 17 17 16 16 16 15 15 14 15 14 15 16 17 17 17 17 17 16 16 17 16 16 16 16 15
25 25 26 26 26 26 27 27 27 26 26 26 26 26 26 26 26 26 25 25 25 25 25 25 24 23 22 22 21 20 20 19 18 18 18 18 17 17 16 16 16 16 15 15 15 15 15 15 15 16 17 17 16 16 16 16 17 17 17 16 16 16 16
25 25 26 26 26 27 27 26 26 26 25 25 25 26 26 26 26 25 25 25 25 25 25 24 24 23 22 21 21 20 19 18 18 18 17 17 17 16 16 16 16 15 15 14 14 14 15 15 16 16 17 17 17 17 17 17 17 16 16 16 16 16 16
25 25 26 26 26 26 26 26 25 25 25 25 26 26 26 26 25 25 24 24 24 24 24 24 23 22 22 21 20 20 19 18 18 17 17 17 16 16 17 16 16 15 14 14 14 14 15 15 16 16 16 17 17 17 17 17 16 15 15 16 16 16 16
24 24 24 25 25 25 25 25 25 25 25 25 25 26 26 26 25 25 25 24 24 24 24 23 23 22 22 21 20 20 19 18 17 17 17 17 17 17 17 17 16 15 15 15 15 15 15 16 16 16 17 17 18 18 17 16 15 15 16 16 16 15 15
23 23 24 24 24 24 24 24 24 25 25 25 25 26 26 26 26 25 25 25 24 24 23 23 23 22 22 21 20 20 19 18 17 17 17 17 17 17 17 16 16 15 15 16 15 15 16 16 16 17 17 17 17 17 16 15 15 16 16 16 15 15 15
23 23 23 24 24 24 24 24 24 24 25 25 25 25 26 26 26 25 25 25 25 24 24 23 22 22 21 20 19 19 18 18 17 17 17 17 17 17 16 16 16 16 16 16 16 16 16 16 17 17 17 17 16 16 16 16 16 16 16 15 15 14 14
22 23 23 23 23 23 24 24 24 24 24 25 25 25 25 25 25 25 25 24 24 24 23 22 21 20 20 19 19 18 18 17 17 17 17 17 17 17 17 16 16 15 15 15 16 16 16 16 17 17 17 17 16 16 16 16 16 15 15 15 14 14 14
22 22 23 23 23 23 23 23 23 23 23 24 24 24 24 24 24 24 23 23 22 22 21 20 20 19 19 19 18 18 17 17 17 17 17 17 17 17 17 16 16 15 15 15 15 16 16 17 17 17 17 17 17 17 16 16 15 15 15 14 14 14 14
22 23 23 23 23 23 23 23 23 23 23 23 23 23 23 23 22 22 22 21 21 21 20 20 19 19 19 18 18 17 17 17 16 16 16 16 17 17 17 16 15 15 15 15 15 16 16 17 17 17 17 17 17 16 16 15 15 15 15 14 14 14 14
23 23 23 23 23 23 23 23 23 23 23 23 23 22 22 22 21 21 21 20 20 20 20 19 19 18 18 17 17 17 17 16 16 16 16 16 16 16 17 16 15 15 16 16 16 16 16 17 17 17 17 17 16 16 15 15 15 15 14 14 14 14 14
22 22 23 23 23 23 23 23 23 23 23 23 23 22 22 22 21 21 20 20 19 19 19 19 18 18 17 17 17 17 16 16 16 16 15 15 15 16 16 16 16 16 16 16 16 17 17 17 17 17 17 16 16 15 15 15 15 14 14 14 14 14 13
22 22 22 22 22 22 22 23 23 23 23 23 23 22 22 22 21 21 20 19 19 19 18 18 18 18 18 18 17 17 16 16 16 15 15 15 15 15 16 16 16 16 17 17 17 17 17 17 17 17 16 16 16 15 15 15 14 14 13 13 13 13 13
21 21 21 21 22 22 22 22 22 22 23 23 22 22 22 21 21 20 20 19 19 18 18 18 18 19 19 18 18 17 16 16 16 15 15 15 15 16 16 17 17 17 17 17 17 17 17 17 17 16 16 16 16 15 15 14 14 14 13 13 13 13 12

ECMWFFLT1_850_temp_006.txt.gz
Temp
29 28 28 27 26 26 26 25 24 24 24 25 25 25 25 24 24 24 24 24 23 23 23 22 22 22 22 22 22 21 21 21 21 21 21 21 20 20 20 20 20 20 19 18 18 18 17 17 17 16 16 16 17 17 16 16 16 15 15 15 15 15 14
30 29 28 27 27 26 26 26 26 26 26 25 25 25 25 25 24 24 24 24 24 23 23 23 22 22 22 22 22 22 22 21 21 21 21 21 20 20 20 20 20 20 19 19 19 18 17 17 17 16 16 16 16 16 16 16 16 15 15 15 15 14 14
30 29 29 27 27 26 26 27 27 27 27 26 26 26 25 25 25 25 24 24 24 24 23 23 23 23 23 22 22 22 22 21 21 21 21 21 21 21 21 20 20 20 20 19 19 19 18 17 17 16 16 16 16 16 15 15 15 15 15 14 14 14 14
30 30 29 28 27 26 27 28 29 28 27 26 26 26 26 26 25 25 25 25 24 24 24 23 23 23 23 23 23 22 22 22 22 22 21 21 21 21 21 20 20 20 20 19 19 18 18 17 17 17 17 17 16 15 15 15 15 15 15 14 14 14 14
30 29 29 28 27 26 26 27 28 29 28 26 26 27 26 26 26 26 25 25 25 24 24 24 24 23 23 23 23 23 23 23 22 22 21 21 21 21 21 20 20 20 20 19 19 18 18 18 18 18 18 17 16 15 15 15 15 15 15 14 14 14 14
30 29 29 29 28 27 26 27 28 29 28 27 26 27 27 27 26 26 26 25 25 25 25 24 24 23 24 24 23 23 23 23 22 22 22 22 21 21 21 21 21 20 20 19 19 18 19 18 18 18 18 17 16 15 15 15 15 14 14 15 15 15 15
31 30 29 28 28 27 27 27 27 28 28 27 26 27 28 27 27 26 26 26 26 25 25 25 24 24 24 24 24 23 23 23 22 22 22 22 22 22 21 21 21 20 19 19 19 18 19 19 18 18 18 17 16 15 15 16 15 15 15 15 15 15 15
31 30 29 28 28 28 27 27 27 27 27 27 26 27 28 27 27 26 26 26 26 26 25 25 24 25 25 24 24 24 23 23 23 23 23 22 22 22 22 22 22 21 20 19 18 18 18 18 18 18 18 18 17 16 16 16 16 16 15 15 15 15 15
31 29 28 28 28 28 28 27 27 27 26 26 26 27 28 28 27 26 26 26 25 25 25 25 24 25 25 24 24 24 24 24 24 23 23 23 23 23 22 22 22 21 20 19 18 18 18 18 18 18 18 17 17 16 16 16 16 16 16 15 15 15 15
30 29 28 28 28 28 28 27 27 26 26 25 25 26 27 28 27 26 26 26 25 25 25 25 24 24 25 25 25 25 25 24 24 24 24 24 23 23 22 22 22 21 20 19 19 18 18 18 18 18 18 18 18 17 16 16 16 16 16 15 15 15 15
29 28 27 27 28 28 27 27 27 26 25 25 25 26 27 27 27 27 26 26 26 25 25 25 24 24 25 26 25 25 25 25 25 25 24 24 24 22 22 22 22 22 20 19 19 18 18 18 18 18 18 18 19 18 17 17 17 16 16 16 16 16 16
28 27 26 26 27 27 27 26 26 25 25 26 26 26 26 26 27 27 26 26 25 25 25 25 25 24 24 26 26 25 25 25 25 25 25 24 23 21 21 21 22 21 20 20 19 18 18 18 19 18 18 19 20 20 19 18 17 16 16 16 16 16 16
27 27 26 26 26 26 26 25 25 25 25 26 26 26 26 26 26 26 26 26 25 25 25 25 24 24 24 25 25 25 26 25 25 25 24 22 20 20 21 22 22 21 20 20 20 19 19 20 19 19 18 18 19 20 20 18 17 17 16 16 16 16 16
28 27 26 26 25 25 25 24 24 25 25 26 27 26 26 26 26 26 26 26 26 25 24 24 24 24 23 23 23 24 25 25 24 23 21 20 20 21 21 21 21 21 20 20 20 20 20 20 20 19 19 18 18 19 19 18 17 17 16 16 16 16 15
28 27 27 26 25 25 25 25 25 25 26 27 26 26 26 26 26 26 26 26 26 25 24 24 24 23 23 22 22 22 23 23 21 20 18 18 20 21 20 21 21 21 20 21 21 21 20 19 20 20 19 19 18 17 18 18 18 17 17 17 17 16 16
30 29 28 28 27 26 26 27 26 25 26 27 27 26 27 27 27 27 27 27 27 26 24 23 23 23 22 22 22 21 21 21 19 18 18 18 19 20 21 22 22 21 21 21 21 20 19 19 19 19 19 19 17 16 17 18 18 18 18 17 17 17 16
31 30 29 29 29 27 25 26 27 26 27 28 28 27 27 27 28 28 27 26 26 25 24 23 23 22 22 22 21 20 20 19 19 19 19 20 20 20 21 21 22 22 22 21 21 20 19 18 19 19 19 19 17 16 16 17 18 18 18 17 17 16 16
31 30 29 28 28 26 25 25 26 27 28 28 27 27 27 28 28 27 26 24 24 23 23 22 22 22 21 21 21 20 19 19 19 20 20 20 20 20 20 21 21 21 21 21 20 20 20 18 18 18 18 18 17 16 16 17 18 18 17 17 16 16 16
30 29 28 27 26 26 25 25 25 25 26 25 24 25 26 26 26 25 24 23 23 23 22 22 22 22 21 21 20 20 19 18 19 21 20 19 19 19 19 19 19 20 20 20 20 20 20 18 18 18 18 18 17 16 16 17 17 17 17 16 15 15 15
28 28 27 26 26 26 25 25 24 24 25 24 24 24 24 23 23 23 24 23 24 24 23 22 22 21 21 20 20 19 19 18 19 20 19 19 19 18 18 18 18 18 19 19 20 20 19 18 17 17 17 17 17 16 16 17 17 17 16 15 15 15 15
27 27 26 26 25 25 25 24 24 24 25 24 24 24 24 24 24 24 24 24 24 24 24 23 22 21 20 20 20 19 19 19 19 19 19 19 18 18 18 18 18 18 18 18 18 18 18 17 17 17 17 16 16 15 16 16 17 16 15 15 15 15 16
28 26 26 26 26 26 26 25 25 25 25 25 25 26 26 26 25 24 24 24 25 25 24 24 23 21 20 20 20 20 19 20 19 19 19 19 18 18 18 18 18 17 17 17 17 17 17 16 16 17 16 15 15 15 15 16 16 15 15 15 15 15 16
27 27 26 26 26 26 27 26 25 26 27 27 27 27 27 27 26 25 25 25 25 26 25 24 23 21 20 20 20 20 20 20 20 20 19 19 18 18 18 18 18 17 16 16 16 16 16 16 16 16 16 15 15 15 15 16 16 15 15 15 15 16 17
26 26 26 25 25 25 26 25 24 26 27 26 26 27 28 28 27 26 26 26 26 26 25 24 24 23 21 21 22 22 22 21 20 20 20 19 18 18 17 17 17 16 16 15 15 15 15 15 15 15 15 14 14 15 15 15 15 15 16 16 16 17 17
25 25 25 25 25 24 25 24 24 25 26 25 25 26 27 27 27 26 26 26 26 25 25 24 24 24 23 23 23 23 23 21 20 20 19 19 18 18 17 16 16 16 15 15 15 15 15 15 15 15 14 14 14 15 15 15 15 16 16 16 17 17 16
24 24 24 24 24 24 24 24 25 25 25 25 25 26 26 26 26 26 25 25 25 24 24 24 24 24 23 24 24 24 23 22 21 20 19 19 19 18 17 16 15 15 15 15 15 15 14 14 15 14 14 14 14 15 15 15 16 16 16 16 17 17 16
23 23 24 23 24 24 25 25 25 25 25 25 26 26 26 25 25 25 25 25 24 24 24 24 24 24 24 24 24 24 23 21 20 19 18 18 18 17 16 15 15 15 16 15 15 15 14 15 15 14 15 15 14 14 15 15 15 16 16 16 16 16 16
23 23 23 23 24 25 25 25 25 25 25 25 25 25 25 25 25 24 25 25 24 24 25 25 25 25 25 24 24 23 21 19 18 18 17 16 16 16 15 15 16 17 17 16 15 15 14 14 15 15 15 15 15 14 15 15 15 16 16 17 16 16 16
23 23 24 24 24 24 24 25 25 25 25 25 25 25 25 25 25 25 25 25 25 25 25 25 25 25 24 24 23 22 21 19 18 17 16 16 16 15 16 17 17 17 17 16 15 14 14 14 15 15 15 15 15 14 14 15 16 17 17 16 16 16 16
25 25 25 25 25 24 24 24 24 24 24 24 25 25 25 25 26 26 25 25 25 25 25 25 25 25 24 24 22 22 21 19 18 18 18 17 16 16 17 17 17 17 16 15 14 14 14 14 14 15 15 15 15 15 15 16 17 17 17 16 16 16 16
25 25 25 24 24 24 24 24 24 24 24 24 24 24 24 25 25 25 25 25 25 25 25 25 25 24 24 23 22 21 21 20 19 19 18 17 17 17 17 17 16 16 16 15 14 14 14 14 14 15 15 15 15 15 16 17 17 17 17 16 16 15 15
23 23 23 23 23 23 23 23 24 24 24 24 24 24 24 24 24 25 25 25 25 25 25 24 24 24 23 22 22 21 20 20 19 18 18 17 17 17 17 16 16 16 16 15 14 14 15 15 15 15 15 15 15 16 16 17 16 16 16 16 15 15 15
23 23 23 24 24 23 23 23 23 24 24 24 24 24 24 23 24 24 24 24 24 24 23 23 23 22 22 22 21 21 20 19 18 17 17 17 17 16 16 16 16 16 16 15 14 14 15 15 15 15 15 15 15 15 16 16 16 16 16 15 15 15 15
23 23 23 23 24 24 23 23 23 24 24 24 24 24 23 23 23 23 23 23 23 22 22 22 22 21 21 21 21 20 19 18 18 17 17 17 16 15 15 15 15 15 15 15 14 14 14 14 15 15 15 15 15 14 15 15 15 15 15 14 14 15 15
22 23 23 23 23 24 24 23 23 23 23 23 23 23 23 23 23 23 23 22 22 22 21 21 21 20 20 20 20 19 18 17 17 17 16 16 16 15 15 15 15 15 15 15 15 15 14 14 15 15 15 15 15 15 15 15 15 15 14 14 14 15 15
21 22 22 22 23 23 23 23 23 23 23 23 23 23 22 22 22 22 21 21 21 21 21 20 20 19 19 19 18 18 17 17 16 16 16 16 16 16 16 16 16 16 15 15 15 15 14 15 15 15 15 15 15 15 15 15 15 15 15 15 15 15 15
20 20 21 21 22 22 23 23 23 22 22 22 22 22 22 22 21 21 20 20 20 20 20 20 20 19 18 18 17 17 17 16 16 16 15 15 16 16 16 16 16 16 16 16 15 15 15 15 15 15 15 15 15 15 15 16 16 16 15 15 15 15 14
20 20 19 19 21 21 22 22 21 21 21 21 21 21 21 21 20 20 20 20 20 20 20 20 19 19 18 18 18 17 17 16 16 16 15 15 15 15 16 16 16 16 16 16 16 15 16 16 16 16 15 15 15 16 16 16 16 15 15 15 15 14 14

ECMWFFLT1_850_temp_009.txt.gz
Temp
31 31 31 29 29 29 28 27 27 26 26 25 24 24 24 24 24 23 23 22 22 22 23 23 23 23 23 22 22 22 22 22 22 22 22 22 21 21 20 20 20 20 19 19 19 19 19 18 18 18 18 17 16 16 17 17 17 16 16 17 17 16 15
31 31 31 30 29 29 28 28 27 26 26 25 25 24 24 24 24 23 23 22 22 23 23 23 23 23 23 23 22 22 22 22 22 22 22 22 21 21 20 20 20 20 20 20 19 19 18 18 18 18 17 17 16 16 17 17 18 17 16 16 17 16 15
32 31 31 30 30 29 29 28 27 26 26 26 25 25 24 24 24 23 23 22 22 23 23 23 23 23 23 23 23 22 22 22 22 22 22 22 21 21 21 21 21 21 21 20 19 19 18 18 17 17 17 17 16 17 17 17 17 17 16 16 16 16 15
33 32 31 31 31 29 29 28 27 27 27 26 26 25 25 24 24 24 23 23 22 23 23 23 23 23 23 23 23 23 22 22 22 22 22 22 21 21 21 21 21 21 20 20 19 19 19 18 18 18 17 17 16 16 16 16 16 17 17 16 16 15 15
34 32 30 30 31 30 29 29 28 27 27 27 26 25 25 24 24 24 24 23 23 23 24 24 23 23 23 23 23 23 23 22 22 22 22 22 21 21 21 21 21 20 19 19 19 19 19 19 18 17 17 17 17 16 16 16 16 16 16 16 16 15 15
35 32 30 30 31 30 29 29 28 28 28 27 27 25 25 25 24 24 24 24 23 23 24 24 23 23 23 23 23 23 23 23 22 22 22 22 22 22 21 21 20 20 19 19 19 19 20 19 18 17 17 17 17 16 16 16 16 16 16 16 16 16 15
35 33 31 31 31 31 30 29 29 28 28 28 27 26 26 25 25 25 24 24 24 23 23 24 23 23 23 23 23 23 23 23 23 22 22 22 22 22 21 21 21 20 19 19 20 20 20 19 18 18 18 17 17 17 17 17 16 16 16 17 17 16 16
35 34 33 32 31 31 30 30 29 29 29 29 28 27 26 26 26 26 25 25 25 24 24 24 24 23 23 23 23 23 23 23 23 23 22 22 21 21 21 21 21 21 20 20 20 20 20 19 19 19 20 19 18 18 18 17 16 16 17 18 19 18 17
36 34 33 32 31 32 31 30 30 30 29 29 29 28 27 27 27 26 26 26 26 25 25 25 24 23 23 24 24 24 24 23 23 23 22 22 21 21 21 21 21 21 21 21 21 21 20 20 20 21 21 20 19 19 18 17 17 17 17 18 18 19 18
35 34 33 32 31 32 32 31 30 30 29 29 29 28 27 27 27 27 27 27 27 26 26 26 26 24 23 24 24 24 24 24 23 22 22 21 21 21 21 21 21 22 22 22 21 21 21 21 21 22 21 20 20 20 19 18 18 18 18 18 18 19 19
34 33 33 32 31 32 32 31 30 29 29 29 29 28 27 27 28 28 28 28 27 27 27 26 26 25 24 23 24 24 24 24 23 22 21 21 22 22 21 21 22 22 22 23 22 22 22 22 23 23 22 20 20 20 20 19 18 18 18 17 17 18 19
33 33 32 31 31 31 31 31 30 29 29 29 28 28 28 27 28 28 28 28 28 28 28 27 27 26 25 23 23 23 24 24 23 21 22 22 22 23 23 22 22 23 23 23 23 23 23 23 23 23 21 20 20 20 20 19 18 18 18 17 16 18 19
32 31 30 30 30 30 30 30 29 29 28 28 28 28 27 27 28 28 28 28 28 29 28 27 27 27 25 24 23 23 23 23 22 22 23 23 23 24 23 22 22 23 23 23 24 24 24 23 22 22 21 20 20 20 20 19 18 18 17 17 16 17 19
32 31 30 29 29 29 29 29 29 28 28 27 27 27 27 27 27 28 28 28 28 29 29 28 27 27 26 25 24 23 22 22 22 23 24 24 24 24 23 23 23 24 24 24 24 25 24 23 22 22 22 20 19 20 20 19 18 18 18 17 17 17 18
32 31 30 30 29 29 29 28 28 28 27 27 27 26 26 27 27 28 28 27 28 28 29 28 27 27 26 25 24 23 22 22 22 23 24 24 24 24 24 24 24 24 24 24 24 24 24 23 22 22 22 21 19 19 20 19 18 18 18 18 18 17 18
34 33 32 31 30 29 29 28 27 27 26 26 26 26 26 26 26 27 27 27 27 28 29 28 27 27 26 25 24 23 22 22 22 22 22 23 24 25 25 25 25 25 25 25 24 24 24 23 22 21 21 21 19 19 19 19 18 18 18 18 18 18 18
35 35 35 34 31 29 29 28 26 26 26 25 25 25 26 26 26 26 26 27 27 28 28 28 27 26 26 25 24 23 22 22 21 21 21 22 23 24 24 24 25 24 24 24 24 24 23 23 22 21 21 20 19 18 19 19 18 18 18 18 18 18 18
35 35 35 34 33 30 29 28 27 26 26 25 25 25 25 25 25 26 26 27 27 27 28 27 26 25 25 25 24 23 22 22 21 21 22 22 22 22 23 23 23 23 23 23 23 23 23 23 22 21 21 20 19 18 18 18 18 18 18 18 18 17 18
35 35 35 34 33 31 29 28 28 27 26 25 25 25 25 25 25 25 26 26 26 27 27 26 25 24 24 24 23 22 22 22 22 22 21 22 22 21 21 22 22 22 22 22 22 22 22 22 22 21 21 20 18 18 18 17 17 17 18 18 17 17 17
34 34 34 33 32 32 29 28 28 27 26 26 26 26 25 25 25 25 26 26 26 26 26 26 25 24 23 23 23 22 22 22 22 21 21 22 22 21 20 20 20 21 21 21 21 21 21 21 21 21 20 19 18 18 17 16 16 16 17 17 17 17 17
34 34 33 32 32 31 29 28 28 27 26 26 26 26 25 25 25 25 26 26 25 25 25 25 24 23 23 23 22 22 22 22 21 21 21 21 21 20 20 19 19 19 20 20 20 20 20 20 20 20 19 19 18 17 17 16 16 16 16 17 17 17 16
35 33 32 31 31 30 29 28 29 28 27 26 26 26 26 26 26 26 26 26 25 24 24 24 23 23 23 22 22 21 22 21 20 21 21 21 20 19 19 19 19 19 19 19 19 19 19 18 18 18 18 18 17 16 16 16 15 16 16 17 17 16 16
34 33 32 31 30 29 29 29 28 28 27 26 26 26 26 26 26 26 26 25 24 24 23 23 23 22 22 22 21 20 20 20 20 20 21 20 20 19 19 19 19 18 18 18 17 18 17 17 16 16 16 16 16 16 15 16 16 16 16 16 16 16 15
33 32 32 31 29 28 28 27 28 27 26 26 26 26 26 26 25 25 25 24 24 23 23 23 22 22 22 21 21 20 20 19 20 20 21 20 19 19 18 18 18 17 17 17 17 17 17 17 17 16 16 16 16 16 15 16 16 16 15 16 16 16 15
32 32 31 30 29 28 27 27 27 26 26 26 26 26 26 25 25 25 25 24 23 23 23 22 22 22 21 20 20 20 20 20 20 20 20 20 19 18 17 17 17 17 17 16 16 17 17 17 17 16 16 16 16 15 15 15 15 15 15 15 15 15 15
30 30 30 30 29 28 26 26 26 26 26 26 26 26 26 25 25 25 24 23 23 23 22 22 22 22 21 21 21 21 21 20 19 19 19 20 19 18 17 17 17 17 16 16 16 16 16 16 16 16 16 15 15 15 15 15 15 15 15 15 15 15 15
29 29 29 29 28 27 25 25 25 25 25 26 26 26 25 25 24 24 23 23 22 22 22 22 23 24 24 24 24 23 21 19 18 18 18 18 18 17 17 17 17 17 16 17 17 17 16 16 16 16 16 15 15 15 15 15 15 15 15 15 15 15 15
28 28 28 28 27 25 24 24 25 25 25 25 25 25 25 24 23 23 22 22 23 23 24 25 25 25 25 25 24 23 21 19 19 18 18 17 17 17 17 17 17 17 17 17 18 17 17 16 16 16 16 16 15 15 15 15 15 15 15 15 15 15 15
27 27 27 26 25 24 25 25 25 25 25 24 24 24 23 23 22 23 23 24 24 25 26 26 25 25 25 24 24 24 21 19 19 20 19 17 17 17 17 17 18 18 17 17 17 17 16 16 16 16 16 16 16 15 15 15 15 15 15 15 15 15 16
26 26 26 25 25 25 25 25 24 24 24 24 24 24 24 24 25 25 24 24 24 25 25 25 25 24 24 24 23 22 20 18 19 19 18 17 17 17 17 18 18 18 18 17 17 16 16 16 16 16 16 16 16 16 15 15 15 15 15 16 16 16 16
26 26 26 26 26 25 25 24 24 24 24 24 24 25 25 26 26 24 23 23 24 24 25 25 23 22 22 21 21 20 18 17 18 18 17 17 17 17 18 18 18 18 18 17 17 16 15 15 15 16 16 16 17 16 16 15 15 16 16 16 16 16 16
26 26 26 26 25 25 24 24 24 24 24 24 23 24 24 24 24 23 24 24 25 25 25 24 23 22 20 19 18 18 18 17 17 17 17 17 16 17 18 19 18 18 18 17 16 16 15 15 16 16 16 16 17 17 16 15 15 16 16 16 16 16 15
25 25 25 25 24 24 24 24 23 23 23 23 23 24 24 23 24 25 25 25 25 24 24 24 23 21 19 18 18 18 18 17 17 17 17 16 16 17 18 18 17 17 17 17 16 16 16 16 16 16 16 17 17 17 16 15 15 15 16 16 16 15 15
22 22 23 24 24 25 24 24 24 24 23 23 24 24 23 23 24 25 25 24 24 24 24 22 21 19 18 18 19 18 18 17 17 17 17 17 16 17 17 17 17 16 16 16 16 16 16 16 17 17 17 17 17 16 16 15 15 15 15 15 16 16 16
22 21 21 22 22 23 24 24 23 23 22 22 23 22 22 23 24 24 24 23 23 23 22 20 19 19 19 19 19 18 18 17 17 17 17 17 17 17 17 17 17 17 16 16 16 17 16 16 16 17 17 17 17 16 16 15 15 15 15 16 16 16 15
21 21 21 21 21 21 22 22 21 21 21 21 21 22 22 22 22 22 22 21 21 21 21 20 19 19 19 19 19 18 18 17 17 17 17 17 17 17 17 16 16 16 16 16 16 16 16 16 16 16 16 17 17 16 16 15 15 15 16 16 16 16 15
21 21 21 21 22 22 22 21 21 21 21 20 20 21 21 22 21 21 21 20 20 20 21 20 20 20 20 20 19 18 18 18 18 18 18 17 17 16 16 16 16 16 16 16 16 16 16 16 16 16 16 16 16 16 16 16 16 16 16 16 16 16 15
20 20 20 20 21 21 22 21 21 21 21 21 20 20 20 20 20 20 20 20 20 21 21 20 20 20 20 20 19 18 18 18 18 18 18 17 17 16 16 16 16 16 16 16 16 16 16 16 15 15 15 16 16 16 16 16 16 16 16 16 15 15 15

ECMWFFLT1_850_temp_012.txt.gz
Temp
31 30 29 29 29 28 28 28 27 27 27 26 26 25 24 24 24 23 23 23 22 22 21 22 22 23 23 23 23 22 22 22 21 21 21 22 21 20 20 20 21 21 21 21 21 21 20 20 19 19 19 19 20 20 20 20 20 19 19 18 18 17 17
31 30 30 29 29 29 28 28 28 27 27 27 26 25 24 24 24 24 23 23 22 22 22 22 23 23 23 23 23 22 22 22 22 22 22 22 21 21 20 21 21 21 21 21 21 21 21 20 20 19 19 20 20 21 21 20 20 19 19 19 18 18 18
31 31 31 30 30 29 29 29 28 28 27 27 26 25 25 24 24 24 24 23 22 22 22 22 23 23 23 23 23 23 22 22 22 22 22 22 22 21 20 20 21 21 20 20 20 21 21 21 20 19 20 20 20 21 21 20 20 19 19 19 19 18 18
32 32 31 31 31 30 29 29 28 28 28 27 27 26 25 24 24 24 24 23 23 22 22 21 22 23 23 23 23 23 23 22 22 22 22 22 22 22 21 20 20 20 21 21 21 21 21 21 20 20 20 20 20 21 21 20 20 20 19 19 19 18 18
32 32 31 31 31 31 30 29 28 28 28 28 27 26 25 25 24 24 24 24 23 23 22 21 22 23 23 23 23 23 23 23 22 22 22 22 22 22 22 21 20 21 21 22 21 21 22 21 21 21 21 20 20 20 20 20 20 20 19 19 19 18 18
32 32 32 32 32 31 30 29 29 29 28 28 27 26 25 25 24 24 24 24 23 23 22 22 22 23 23 23 23 23 23 23 23 22 22 22 22 22 22 21 21 21 22 22 21 21 22 22 21 21 21 21 20 20 20 20 20 20 20 19 19 18 18
32 32 32 32 32 31 31 30 30 30 29 28 28 27 26 25 25 24 24 24 23 22 22 22 22 23 24 23 23 23 23 23 23 22 22 22 22 22 22 21 21 22 22 22 22 22 22 22 22 22 21 21 20 20 20 20 20 20 20 20 19 18 18
34 32 32 32 32 32 31 30 30 30 29 28 28 27 26 25 25 25 25 24 23 23 22 22 22 23 24 23 23 23 23 23 23 22 23 23 22 22 22 22 22 22 22 22 22 22 22 22 22 22 21 21 20 20 19 20 20 20 20 20 19 18 18
35 33 33 32 32 31 31 30 30 29 29 28 28 28 27 26 26 25 25 24 24 23 23 23 23 23 24 23 23 23 23 22 22 23 23 23 22 22 22 22 22 22 23 22 22 22 22 22 22 22 21 21 21 20 19 19 20 19 19 19 19 19 18
34 33 33 32 31 31 31 30 30 30 30 28 28 28 27 26 26 26 25 25 24 24 23 23 23 23 23 23 23 23 23 22 22 23 23 22 23 23 23 22 23 23 23 23 23 23 23 22 22 22 21 21 21 20 19 19 19 19 19 19 19 19 19
33 32 32 32 32 32 31 30 30 30 30 29 28 28 28 27 26 26 26 25 25 25 24 24 24 23 23 23 23 23 23 23 22 22 22 22 23 23 24 23 23 23 23 23 23 23 23 23 22 22 22 21 21 20 19 19 19 19 19 19 19 19 19
33 33 32 32 32 31 31 31 30 30 29 29 28 28 28 27 26 26 26 26 26 25 25 24 25 24 23 23 23 23 23 23 23 22 22 22 22 23 24 23 23 24 24 24 23 23 23 23 22 22 22 22 21 20 20 19 19 20 20 20 19 19 18
33 33 33 32 32 31 31 31 30 30 30 29 29 29 28 27 27 27 27 26 26 26 26 25 25 25 24 23 23 23 23 23 23 22 22 22 22 23 23 23 23 24 25 24 24 23 23 22 22 22 21 21 21 21 20 19 19 20 20 20 20 19 18
33 33 32 32 32 31 31 31 31 31 30 30 29 29 29 28 27 27 27 27 27 27 27 26 26 25 25 24 23 24 24 23 23 23 23 23 23 23 23 23 24 24 24 24 24 24 23 23 22 22 21 21 21 21 20 19 19 19 20 20 20 19 18
33 33 32 32 31 31 31 31 31 31 30 30 29 29 29 28 28 27 27 27 27 28 27 27 26 26 26 25 24 24 24 23 23 23 23 23 23 23 23 24 24 24 24 24 24 24 23 23 22 22 21 21 21 20 20 19 19 19 20 20 20 19 18
34 34 32 31 31 31 31 31 31 31 30 30 29 29 29 28 28 28 28 28 28 28 28 27 27 27 26 26 25 25 24 24 23 23 23 23 23 23 24 24 24 24 24 24 24 23 23 22 22 22 22 21 21 20 19 19 19 19 19 20 20 19 18
35 35 33 32 31 31 31 31 31 31 30 30 29 29 29 29 28 28 28 28 28 28 29 28 27 27 27 26 26 25 25 24 23 23 23 23 23 23 24 24 24 23 23 24 23 23 22 22 22 22 21 21 21 20 20 19 19 19 19 19 20 19 18
36 35 34 33 32 31 30 30 30 30 30 29 29 29 28 28 28 28 28 28 28 28 29 29 28 28 27 27 26 26 25 24 24 23 23 23 23 23 23 23 23 23 23 23 22 22 22 21 21 21 20 20 20 20 20 19 19 19 19 19 19 19 18
35 35 34 34 33 32 30 30 30 30 30 29 29 28 28 28 28 28 28 28 28 29 29 29 29 28 28 27 27 26 26 25 24 23 23 23 23 23 23 22 22 22 22 22 22 22 22 21 21 20 20 20 20 19 19 18 19 19 19 19 19 18 18
35 35 35 34 33 32 31 29 29 30 30 29 29 29 28 27 27 27 27 28 29 29 29 29 29 28 28 27 27 26 25 24 24 23 23 23 22 22 22 22 23 23 22 22 22 22 21 21 21 20 20 20 19 19 18 18 18 18 18 18 18 18 18
34 34 35 34 33 31 30 29 29 29 29 29 29 29 27 27 27 27 27 28 28 28 29 29 29 28 28 27 27 26 25 24 24 23 23 22 22 22 22 22 22 22 22 22 22 21 21 21 21 20 20 19 19 18 18 17 17 17 17 17 17 17 17
34 34 34 35 34 32 32 31 30 30 30 29 29 28 27 27 27 26 27 27 28 28 28 29 29 28 27 27 26 26 25 25 24 24 23 22 22 22 22 22 22 22 22 22 21 21 21 20 20 20 20 19 18 18 17 17 17 17 16 16 16 17 17
34 34 34 35 34 34 33 33 32 31 30 29 29 29 28 27 26 26 27 27 27 27 28 28 28 28 27 26 26 26 25 25 24 24 23 23 22 22 22 21 21 21 21 21 20 20 20 20 20 19 19 18 17 17 17 16 16 16 16 16 16 16 16
34 34 34 34 34 34 33 33 33 31 30 29 29 29 29 28 27 27 26 27 27 27 27 28 28 27 26 26 26 26 25 25 24 24 23 22 22 22 21 21 20 20 20 20 20 20 19 19 19 18 18 17 17 16 16 16 16 16 16 16 16 16 16
34 34 34 34 34 34 33 33 32 31 30 29 29 29 28 28 27 26 26 27 27 26 27 27 27 26 25 25 25 25 24 24 23 23 23 23 22 22 21 20 19 19 19 19 19 19 18 18 18 18 17 17 17 16 16 16 16 16 16 16 16 15 15
33 33 34 34 34 34 32 31 31 31 29 29 29 29 28 27 27 26 27 27 26 26 26 26 26 26 25 24 24 24 23 23 23 23 23 23 22 21 20 20 19 18 18 18 18 18 18 18 17 17 17 17 16 16 16 16 16 16 16 15 15 15 15
31 32 33 33 33 33 31 30 30 30 29 29 29 28 28 27 27 27 27 27 26 26 26 26 25 25 24 23 23 23 23 23 22 22 22 22 22 21 20 20 19 18 18 18 18 17 17 17 17 17 17 17 16 16 16 16 16 16 16 15 15 15 14
30 31 32 33 33 32 31 30 29 29 29 28 28 28 27 27 27 27 27 26 25 25 25 25 24 24 23 22 22 22 22 22 22 23 24 24 23 22 22 21 20 19 18 18 17 17 17 17 17 17 17 16 16 16 16 16 16 16 16 15 15 15 15
30 30 30 31 31 31 30 29 28 28 28 27 27 27 27 26 26 26 26 25 25 24 24 24 24 23 22 22 22 22 22 22 23 24 24 24 24 23 22 22 21 19 18 18 17 17 17 17 17 17 16 16 16 16 16 16 16 16 16 16 16 16 15
30 29 29 29 29 29 28 28 27 28 27 27 27 27 26 26 26 25 25 24 24 24 23 23 23 22 22 21 21 20 20 20 21 21 22 22 21 20 19 19 18 18 18 18 18 17 17 17 17 17 16 16 16 16 16 15 16 16 16 16 16 16 16
29 28 29 29 28 27 27 27 27 27 26 26 26 26 26 26 25 24 24 24 23 23 23 22 22 22 21 20 19 19 19 18 19 21 21 20 18 18 18 17 17 17 17 17 17 17 17 17 17 17 17 17 17 16 16 16 16 16 16 16 16 16 16
26 27 27 28 27 26 26 26 26 26 26 26 26 26 25 25 24 24 23 23 22 22 21 21 21 20 20 20 20 20 19 19 20 20 19 18 18 18 17 17 17 17 17 17 17 17 17 17 16 16 17 17 17 16 16 16 16 16 16 16 16 16 16
25 26 25 25 25 25 26 25 26 26 25 24 24 24 24 23 23 23 22 22 22 21 21 22 22 22 22 22 21 20 19 19 19 19 18 17 18 17 17 17 18 18 18 18 17 17 16 16 16 16 16 17 17 17 16 16 17 16 16 16 16 16 16
23 23 22 22 23 25 25 25 25 25 24 23 23 23 23 23 23 22 22 21 21 22 23 24 24 24 24 22 20 19 19 19 19 18 17 17 18 17 17 17 18 18 18 17 17 16 16 16 16 16 16 17 17 17 17 17 17 17 17 17 17 17 17
21 21 20 21 23 24 24 24 24 24 23 23 23 22 22 22 22 21 21 21 22 24 25 24 23 22 21 20 19 19 19 19 18 18 18 17 18 18 17 17 17 17 17 17 16 16 16 16 16 17 17 17 17 17 17 17 17 17 17 17 17 17 17
19 20 21 22 23 24 24 24 23 23 23 22 22 22 22 22 21 21 21 22 23 25 24 22 20 19 19 19 19 19 19 18 18 18 18 18 18 18 17 17 17 17 17 17 17 17 16 17 17 17 18 18 18 18 17 17 17 17 17 17 17 17 16
19 20 21 21 22 22 22 22 22 22 22 22 22 22 22 22 21 21 22 22 23 24 23 22 20 19 19 19 19 19 19 18 18 19 18 18 18 17 17 17 17 17 17 17 17 17 17 17 17 17 17 18 18 17 17 17 17 17 17 17 16 16 16
19 19 20 20 20 21 21 21 21 21 21 22 22 22 22 22 22 21 21 22 22 23 23 22 21 20 20 20 19 19 18 18 18 18 18 18 18 17 17 17 17 17 17 17 17 17 17 17 17 17 17 17 17 17 17 17 17 16 16 16 16 16 16

ECMWFFLT1_850_temp_015.txt.gz
Temp
31 31 31 31 30 30 29 29 28 28 27 26 26 25 25 24 24 23 23 22 22 22 22 21 21 21 21 22 22 23 23 23 23 22 22 21 21 21 21 21 21 21 21 21 21 21 21 21 21 21 20 20 20 20 20 19 19 20 20 19 19 19 18
31 31 31 31 31 30 30 29 29 28 28 27 26 26 25 25 24 24 23 23 22 22 22 21 21 21 21 22 22 22 23 23 23 22 22 22 21 21 21 21 21 21 22 22 21 21 21 21 21 21 20 20 20 20 20 20 20 21 21 20 20 19 19
31 31 31 31 31 31 30 29 29 28 28 27 26 26 25 25 24 24 23 23 23 22 22 22 21 21 21 21 21 22 23 23 23 22 22 22 22 21 21 21 21 22 22 22 21 21 21 20 21 20 20 20 21 20 20 21 21 21 21 20 20 20 19
31 31 31 31 31 31 30 30 29 28 28 27 27 26 25 25 24 24 24 23 23 22 22 22 22 21 21 21 21 22 22 23 23 22 22 22 22 22 21 21 21 22 22 22 22 21 21 20 20 20 20 20 21 20 20 21 21 21 21 21 20 20 19
31 31 31 31 30 30 30 30 29 29 28 28 27 26 26 25 25 24 24 24 23 23 23 22 22 21 21 21 21 21 22 23 23 23 22 22 22 22 21 21 22 22 22 22 22 21 21 21 21 20 20 20 20 21 21 21 21 21 22 21 20 20 20
32 31 31 31 30 30 30 30 29 29 28 28 27 26 26 25 25 25 24 24 23 23 23 22 22 22 21 21 21 21 22 23 23 23 22 22 22 22 22 22 22 22 22 22 22 22 21 21 21 21 21 21 21 21 21 21 21 21 22 21 21 20 20
32 31 31 31 30 30 30 30 29 29 28 28 27 27 26 26 25 25 24 24 24 23 23 22 22 22 21 21 21 21 21 23 23 23 22 22 22 22 22 22 22 22 22 22 22 22 22 21 21 21 21 21 21 21 21 21 21 21 21 22 21 21 20
32 31 31 31 30 30 31 30 30 29 28 28 27 27 26 26 26 25 25 24 24 23 23 23 22 22 22 21 21 21 22 23 23 23 22 22 22 22 22 22 22 22 22 22 22 22 22 22 21 21 21 21 21 21 21 21 21 21 21 22 21 21 20
32 32 31 31 31 31 31 30 30 29 28 28 27 27 27 26 26 25 25 24 24 24 23 23 23 22 22 21 21 21 22 23 23 23 22 22 22 23 23 22 22 22 23 23 23 22 22 22 22 21 21 21 21 21 21 21 21 21 21 21 22 21 21
32 32 32 31 31 31 31 30 29 29 28 28 27 27 27 26 26 25 25 25 24 24 24 23 23 22 22 21 21 21 21 22 23 23 22 22 23 23 23 23 23 23 23 23 23 22 22 22 22 22 22 21 21 21 21 21 21 21 21 21 21 21 21
32 32 32 31 31 30 30 30 29 29 28 28 28 28 27 27 26 26 25 25 25 24 24 24 23 22 22 22 21 21 21 22 22 23 23 23 23 23 23 23 23 23 23 23 23 23 22 22 22 22 22 22 21 21 21 21 21 21 21 21 21 21 21
32 32 31 31 31 31 30 30 30 29 29 29 28 28 27 27 26 26 25 25 25 24 24 24 23 22 22 22 21 21 21 22 22 23 23 23 23 24 23 23 23 23 23 23 23 23 23 22 22 22 22 22 22 21 21 21 21 21 20 20 21 21 21
32 31 31 31 31 31 31 31 30 30 29 29 29 28 27 27 26 26 25 25 25 25 24 24 23 23 22 22 22 21 21 22 22 23 23 24 24 24 23 23 23 23 24 24 24 23 23 23 23 22 22 22 22 22 21 21 20 20 20 20 20 21 21
31 31 31 31 31 31 31 31 30 30 30 29 29 28 28 27 27 26 26 25 25 25 25 24 24 23 22 22 22 22 22 22 23 23 24 25 25 24 23 23 23 23 24 24 24 24 24 24 23 23 22 22 22 21 21 20 20 20 19 19 20 20 21
30 30 30 30 31 31 31 31 31 30 30 29 29 28 28 27 27 26 26 26 25 25 25 25 24 23 23 22 22 22 22 23 23 23 24 25 25 24 24 24 23 23 23 23 24 24 24 24 23 23 22 22 21 21 21 20 20 19 19 19 19 20 20
30 30 31 31 31 31 32 32 32 31 30 30 29 29 28 28 27 27 26 26 26 25 25 25 24 23 23 23 23 22 22 23 23 23 24 24 25 25 24 24 23 23 23 23 23 23 23 23 23 22 22 22 21 21 20 20 19 19 19 19 19 19 20
31 31 31 31 31 31 32 32 32 31 31 31 30 30 29 28 28 27 26 26 26 26 26 25 25 24 23 23 23 23 23 23 23 23 23 24 24 24 24 24 23 23 22 22 22 22 22 22 22 22 21 21 21 20 20 20 19 19 19 18 18 19 19
31 31 31 31 30 31 32 32 31 31 31 31 31 30 29 29 28 27 27 26 26 26 26 26 25 25 24 24 23 23 23 23 23 23 23 23 24 24 24 23 23 22 22 22 22 22 21 21 21 21 21 21 20 20 20 20 19 19 19 18 18 18 18
32 31 32 32 32 32 32 32 32 32 32 31 31 31 30 29 28 27 27 27 27 26 26 26 26 25 25 24 24 24 23 23 23 23 23 23 23 23 23 22 22 22 22 22 22 21 21 21 21 21 21 20 20 20 20 19 19 19 18 18 18 17 18
32 32 32 33 33 32 32 32 32 32 32 32 31 31 31 30 29 28 28 27 27 27 26 26 26 26 25 25 25 24 24 24 24 23 23 23 23 23 23 22 22 22 21 21 21 21 21 21 21 21 21 20 20 20 20 19 19 18 18 18 17 17 17
34 33 32 32 33 32 32 32 32 32 32 32 31 31 31 30 30 29 28 27 27 27 27 27 26 26 26 25 25 25 25 24 24 23 23 23 23 23 22 22 22 22 21 21 22 22 22 21 21 21 21 20 20 20 19 19 18 18 18 17 17 17 17
34 34 33 32 32 32 32 32 32 32 32 32 31 31 30 30 30 29 28 27 27 27 27 27 27 27 26 26 26 26 25 25 24 24 23 23 23 23 22 22 22 22 22 22 22 22 21 21 21 21 21 20 20 20 19 18 18 18 17 17 17 17 17
33 33 34 33 33 32 32 33 33 33 33 32 31 31 30 30 29 28 28 28 27 27 27 27 27 27 27 27 27 26 26 25 25 24 23 23 23 23 22 22 22 22 22 22 22 22 21 21 21 21 21 20 20 19 19 18 18 17 17 17 17 17 17
34 34 34 34 34 33 33 33 33 33 33 32 31 31 31 30 29 28 28 28 28 27 27 27 27 27 27 27 27 27 26 25 25 24 23 23 24 23 23 22 22 22 22 22 22 22 21 21 21 21 20 20 19 19 18 18 18 18 17 17 17 17 17
33 34 34 33 34 33 33 33 32 32 33 32 32 32 31 30 30 29 28 28 28 27 27 28 28 28 28 28 28 27 26 26 25 24 24 24 24 24 23 23 22 23 23 22 22 22 21 21 20 20 19 19 19 18 18 18 18 17 17 17 16 16 16
31 32 33 33 33 33 33 32 33 33 32 32 32 31 30 30 29 29 28 28 28 27 28 28 28 28 28 28 28 27 26 26 25 24 24 24 24 24 23 23 23 23 22 22 21 21 20 20 19 19 19 19 18 18 18 17 17 17 17 16 16 16 16
30 31 31 32 33 33 32 32 32 33 33 32 32 31 30 30 29 29 29 28 27 27 28 28 28 28 28 28 28 27 27 26 25 24 24 24 24 24 23 23 23 23 22 21 20 20 19 19 19 18 18 18 18 17 17 17 17 17 16 16 16 16 15
30 30 30 30 31 32 33 32 31 32 32 33 32 31 29 29 29 29 29 28 28 28 28 27 27 28 28 28 27 27 26 25 24 24 24 24 24 23 23 23 23 22 21 21 20 19 19 18 18 18 18 17 17 17 17 17 16 16 16 16 16 15 15
29 30 30 30 30 31 32 32 31 31 31 31 30 29 28 28 28 28 28 28 28 28 27 26 27 27 27 26 26 25 24 24 24 24 24 24 23 23 23 22 21 21 20 19 19 18 18 18 18 17 17 17 17 16 16 16 16 16 16 16 15 15 15
27 28 29 30 29 30 30 30 30 30 29 28 29 29 28 28 28 28 28 28 27 27 26 26 26 26 26 25 24 23 22 23 23 23 23 23 23 23 22 22 21 20 19 18 18 18 18 18 17 17 17 17 17 16 16 16 16 16 16 16 15 15 15
25 26 27 28 29 29 29 29 28 28 28 27 28 28 29 29 28 28 28 27 26 26 26 26 26 26 25 23 22 22 22 22 23 23 22 22 22 22 22 21 20 19 18 18 18 18 17 17 17 17 17 17 17 16 16 16 16 16 16 16 15 15 15
24 25 26 26 27 28 29 29 28 28 28 27 27 26 26 26 28 28 27 26 26 26 26 25 25 24 23 22 21 22 22 22 22 22 22 22 21 21 21 20 20 19 18 18 18 17 17 17 17 17 17 17 17 16 16 16 16 16 16 16 15 15 15
23 24 24 25 25 25 26 28 28 27 27 27 26 26 24 23 25 26 26 26 26 25 25 24 23 22 21 21 21 21 21 22 22 21 21 20 20 20 20 20 20 19 19 18 18 17 17 17 17 17 17 16 16 16 17 17 16 16 16 16 16 16 15
21 22 23 23 23 23 24 26 26 26 26 26 26 26 25 22 22 23 24 24 24 23 23 22 21 20 20 19 19 19 20 20 21 21 20 20 19 19 19 19 19 19 19 18 18 17 17 16 17 17 17 16 16 16 17 17 16 16 16 16 16 16 16
19 21 22 22 23 23 23 24 25 25 25 25 24 24 23 21 20 20 20 20 20 20 20 19 19 19 19 19 19 19 19 19 20 21 21 20 20 20 19 19 19 19 18 18 17 17 17 17 17 17 17 17 17 17 17 17 17 17 17 16 17 17 17
19 20 20 19 20 20 21 22 22 23 23 22 21 21 20 19 19 19 18 19 19 20 20 20 20 20 20 19 19 18 18 18 19 21 21 21 21 20 19 18 18 18 18 17 17 17 17 17 18 18 18 17 16 16 17 17 17 17 17 17 17 17 17
18 19 19 17 17 18 19 20 20 21 20 20 19 19 18 18 18 18 18 19 20 20 21 20 20 19 19 19 18 18 19 19 20 20 20 20 20 19 19 18 17 17 17 17 17 17 17 18 18 17 17 17 17 17 17 17 17 17 17 17 17 17 17
16 18 19 18 17 16 17 18 19 19 19 19 19 18 18 18 19 19 19 19 20 20 20 19 19 19 19 19 19 19 19 20 20 19 19 18 18 18 18 18 17 17 17 17 17 17 17 17 17 16 16 16 17 17 17 17 17 17 17 17 17 17 17

ECMWFFLT1_850_temp_021.txt.gz
Temp
26 26 26 26 25 25 25 25 25 25 25 25 25 25 24 24 24 24 23 23 23 23 23 23 23 23 23 22 22 22 22 21 21 21 21 22 22 21 22 22 22 22 22 22 22 22 22 21 21 21 20 20 20 19 20 20 20 20 20 20 20 20 20
27 26 26 26 26 26 26 26 25 25 25 25 25 25 25 25 24 24 24 23 23 23 23 23 23 23 23 23 23 22 22 22 21 21 21 21 22 21 21 21 22 22 22 22 22 22 21 21 21 21 20 20 20 20 20 20 20 20 20 20 20 20 20
27 27 27 26 26 26 26 26 26 26 26 25 25 25 25 25 25 25 24 24 24 23 23 23 23 23 23 23 23 22 22 22 22 21 21 21 22 22 22 21 21 22 22 22 22 22 21 21 21 21 21 20 20 20 20 20 20 20 20 20 20 20 21
27 27 27 27 27 26 26 26 26 26 26 26 26 26 26 25 25 25 24 24 24 24 23 23 23 23 23 23 23 23 22 22 22 22 22 22 22 22 22 22 21 21 21 21 21 21 21 21 21 21 21 21 21 20 20 20 20 20 20 20 20 20 21
27 28 27 27 27 26 26 26 26 26 26 26 26 26 26 26 25 25 24 24 25 24 25 24 24 24 23 23 23 23 23 23 22 22 22 22 22 22 22 22 22 21 21 21 21 21 21 21 21 21 21 21 21 20 20 20 20 20 20 20 20 20 21
27 28 28 27 27 27 27 27 27 27 27 27 27 26 26 25 24 24 24 24 24 24 24 24 24 24 24 23 23 23 23 22 22 22 22 22 22 22 23 23 22 22 21 21 21 21 21 21 21 21 21 21 21 20 20 20 20 20 20 20 20 21 21
28 28 28 28 28 27 27 28 28 28 28 28 27 26 25 25 25 25 24 24 24 24 24 24 24 24 24 24 23 23 23 22 22 22 22 22 22 22 23 23 23 22 22 21 21 21 21 21 21 21 21 21 21 21 20 20 20 21 21 20 21 21 21
29 28 29 28 28 28 28 28 28 28 28 27 27 26 25 25 25 25 24 24 24 24 24 24 24 24 24 23 23 23 23 23 22 22 22 22 22 22 23 23 23 23 22 21 21 21 21 21 21 21 21 21 21 21 20 21 21 21 21 21 21 21 21
29 29 29 29 28 28 28 29 29 28 28 27 26 26 25 25 25 25 25 24 24 24 24 24 24 24 24 23 23 23 23 23 23 22 22 22 22 22 23 23 23 23 22 22 21 21 21 21 21 21 21 21 21 21 20 20 21 21 21 21 21 21 21
30 29 30 30 29 28 29 29 29 28 27 27 26 26 26 25 25 25 25 24 24 24 25 24 24 23 23 23 23 23 23 23 23 22 22 22 22 22 23 23 23 23 23 22 22 21 21 21 21 21 21 21 21 21 20 20 21 21 21 21 21 21 21
29 29 29 29 29 29 29 28 28 28 27 27 27 26 26 26 26 25 25 25 25 25 25 24 23 23 23 23 23 23 23 23 23 23 23 22 22 22 22 23 23 23 23 22 22 22 21 21 21 21 21 21 21 21 21 21 20 21 21 21 20 20 21
29 29 29 29 29 29 29 29 28 28 28 28 27 27 26 26 26 25 25 25 25 25 25 24 23 23 23 23 23 24 24 24 23 23 23 23 22 22 22 22 23 23 23 23 22 22 21 21 21 21 21 21 21 21 21 21 21 21 21 21 20 20 20
30 29 29 29 29 29 29 29 28 28 28 28 28 27 27 26 26 26 26 25 25 25 24 24 23 23 23 23 23 24 24 24 24 24 23 23 23 22 22 22 23 23 23 23 23 22 22 21 21 21 21 21 21 21 21 21 20 21 21 21 21 20 20
30 29 29 29 29 29 29 28 29 28 28 28 28 28 27 27 26 26 26 26 25 24 24 24 23 23 23 23 23 24 24 24 24 24 24 24 23 22 22 22 22 23 23 23 23 22 22 22 21 21 21 21 21 21 21 20 20 20 20 20 20 20 20
29 29 29 29 29 29 29 29 29 29 29 29 28 28 27 27 27 26 26 26 25 25 25 24 24 24 24 23 23 24 24 24 24 24 24 24 23 23 22 22 22 22 23 23 23 23 22 22 21 21 21 21 21 21 20 20 20 21 20 20 20 20 20
30 30 29 29 30 30 29 29 29 29 29 29 28 28 28 28 27 27 26 26 25 25 25 24 24 24 24 24 24 24 24 24 24 24 24 24 23 23 22 22 22 21 22 23 24 23 23 22 22 21 21 21 21 21 21 21 21 21 20 20 20 20 20
29 30 30 30 31 30 30 30 29 29 29 29 28 28 28 28 28 27 27 26 26 25 25 24 24 24 24 25 25 24 23 23 23 24 24 24 23 23 23 22 21 21 22 22 23 23 23 22 22 21 21 21 21 21 21 21 21 21 20 20 20 19 19
29 30 30 30 31 30 30 30 29 29 29 29 29 28 28 29 28 27 26 26 26 26 25 24 24 24 25 25 24 23 23 23 23 23 24 24 23 23 23 22 21 21 21 21 22 23 23 23 22 22 21 21 21 21 21 21 21 20 20 20 20 19 19
31 31 31 30 30 30 30 30 30 30 30 30 30 29 29 29 28 28 27 27 27 26 25 24 25 25 25 24 23 23 23 23 23 23 23 23 23 23 22 22 22 21 21 21 22 23 23 23 23 22 22 21 21 21 21 21 21 20 20 20 20 19 19
29 29 29 29 29 29 30 30 29 30 30 30 30 30 30 29 29 29 29 28 27 26 25 25 25 25 25 24 24 23 23 23 23 23 23 23 23 22 22 22 22 22 22 21 21 22 23 24 23 23 22 22 22 22 22 21 21 20 20 20 19 19 19
27 27 28 28 29 29 30 31 30 30 30 30 30 30 29 29 29 29 29 28 26 26 26 26 26 25 25 25 24 24 23 23 23 23 23 22 22 22 22 22 22 22 21 21 21 22 23 23 24 24 23 23 22 22 22 21 21 21 20 20 20 19 19
27 28 28 28 29 29 30 31 31 32 32 31 30 29 29 29 29 29 29 28 27 27 27 27 26 26 26 25 25 24 24 24 23 23 23 22 22 22 22 22 22 22 22 21 22 22 22 23 24 24 24 23 22 22 22 22 21 21 20 20 20 19 19
27 28 28 29 29 29 29 29 30 30 31 31 30 29 30 30 30 29 29 28 27 27 26 26 26 26 26 25 25 25 24 24 23 23 23 22 22 22 22 22 22 22 22 22 22 22 22 23 24 24 24 23 23 22 22 22 21 21 20 20 20 19 19
26 27 28 29 29 29 29 29 29 29 28 28 29 29 30 30 30 29 29 28 27 27 26 26 27 27 26 26 26 25 25 24 24 23 23 22 22 22 22 22 22 22 22 22 22 22 23 23 23 24 24 23 23 23 23 22 22 21 20 20 20 19 19
27 27 27 28 29 29 29 29 29 29 28 28 28 29 29 29 29 29 29 28 28 27 27 27 27 27 27 27 27 26 25 24 24 23 23 23 23 23 23 23 23 22 22 22 22 23 23 23 23 23 24 24 23 23 22 21 21 21 20 20 20 19 19
27 28 28 28 28 28 29 29 28 28 28 28 29 29 28 29 29 28 29 29 29 28 28 29 29 29 28 28 27 26 25 24 24 24 24 24 23 23 23 23 22 22 22 22 22 22 22 22 22 23 23 23 23 22 22 21 21 21 20 20 20 19 19
27 27 28 28 28 29 29 29 28 28 28 28 28 28 28 28 28 28 28 28 28 29 30 31 31 30 28 27 26 25 25 24 24 24 24 24 24 23 23 23 23 22 22 22 22 21 21 21 21 22 22 22 22 22 21 21 21 21 20 20 19 19 18
27 27 28 28 28 29 29 29 29 29 28 28 28 28 28 28 27 28 28 27 28 30 32 32 31 30 28 27 26 25 25 24 24 24 24 24 24 23 23 23 23 22 22 22 21 21 21 21 21 21 21 21 21 21 21 21 21 20 20 19 19 18 18
26 27 27 28 28 28 29 29 29 29 29 29 29 29 28 28 28 28 27 27 28 30 31 31 30 29 28 27 26 25 25 24 24 24 24 24 24 24 23 23 22 22 22 22 21 21 21 21 20 20 20 20 20 20 20 20 20 20 19 19 18 18 18
25 26 26 27 27 27 28 28 29 29 29 29 29 29 29 28 28 27 27 28 29 29 29 29 29 28 27 27 27 26 25 24 24 24 23 24 24 23 23 22 22 22 22 22 21 21 21 20 20 19 20 20 19 19 19 19 19 19 19 18 18 18 18
24 24 25 26 26 26 27 27 28 28 28 29 28 28 28 28 28 27 28 29 29 28 28 28 28 27 27 27 26 26 25 25 24 24 24 23 23 23 22 21 21 21 22 21 21 21 20 20 19 19 19 19 19 19 19 18 18 18 18 18 18 18 18
22 23 24 24 25 25 25 26 26 27 27 27 28 28 28 28 27 28 29 29 28 28 28 27 27 27 27 26 26 26 25 25 24 24 24 23 23 23 22 21 21 21 21 21 20 20 20 19 18 19 18 18 19 19 19 18 18 18 18 18 18 18 17
21 22 22 23 24 24 24 25 25 25 26 26 26 26 27 27 27 27 28 28 27 27 27 27 26 26 26 26 26 26 25 25 25 25 24 24 23 23 22 21 21 21 22 21 21 20 19 19 19 19 19 20 20 20 18 17 17 18 18 18 18 17 17
20 21 21 22 22 23 23 23 23 24 24 25 25 25 25 26 26 26 26 26 26 26 26 26 26 26 26 26 26 26 25 25 25 24 24 23 23 22 22 22 21 21 21 22 23 21 19 19 19 19 21 21 21 19 18 17 18 18 18 18 18 17 17
20 20 21 22 22 22 22 22 22 22 22 23 23 24 24 25 25 25 24 24 24 24 24 25 26 26 26 26 26 26 26 25 25 24 24 23 23 22 22 22 22 21 21 22 24 23 22 22 21 20 21 22 21 20 19 18 18 18 18 18 18 18 17
19 20 21 22 22 22 22 21 22 22 21 22 22 22 22 23 24 24 24 23 23 23 23 24 24 25 25 25 25 25 26 25 25 25 24 24 23 23 22 21 21 21 21 22 23 23 23 23 22 22 23 22 20 20 20 19 19 19 18 17 17 17 17
19 19 20 21 21 21 21 21 21 21 20 20 20 20 20 20 21 22 23 23 23 23 22 22 23 23 24 24 25 25 25 25 25 25 25 24 24 24 23 21 20 20 20 21 21 21 20 20 21 22 22 21 20 19 19 19 19 18 17 17 17 16 16
18 18 18 19 20 20 20 20 20 19 18 18 18 18 18 18 19 20 21 21 22 22 21 21 21 22 22 23 24 24 24 24 24 23 22 22 22 22 22 21 20 19 19 19 19 20 20 20 20 20 20 20 19 18 18 18 18 17 17 17 17 16 16

ECMWFFLT1_850_temp_024.txt.gz
Temp
25 25 24 24 24 24 24 24 24 24 24 24 24 24 24 24 23 23 23 23 23 24 23 23 23 23 23 23 22 22 22 22 22 22 22 22 22 22 22 22 22 22 22 22 22 21 21 21 21 20 20 20 20 20 20 20 20 20 20 20 20 19 19
25 25 25 24 24 24 24 24 24 24 24 24 25 25 25 25 24 24 24 24 24 24 24 23 23 23 23 23 22 22 22 22 22 22 22 22 22 22 22 22 22 22 22 22 22 22 21 21 21 20 20 20 20 20 20 20 20 20 20 20 20 20 20
26 25 25 25 25 25 25 25 24 24 24 24 25 25 25 25 25 25 24 24 24 24 24 23 23 23 23 23 23 22 22 22 22 22 22 22 22 22 22 22 22 22 22 22 22 22 22 21 21 20 20 20 20 20 20 20 20 20 20 20 20 20 20
27 26 26 25 25 25 25 25 25 25 25 25 25 25 26 26 26 26 25 24 24 24 24 24 24 23 23 23 23 23 22 22 22 22 22 22 22 22 22 22 22 22 22 22 22 22 22 21 21 21 20 20 20 20 20 20 20 20 20 20 20 20 20
27 27 26 26 25 25 25 25 25 25 25 25 25 25 26 26 26 25 25 24 24 25 25 25 25 24 23 23 23 23 23 23 22 22 22 22 22 22 22 22 22 22 22 22 22 22 22 22 21 21 20 20 20 20 20 20 20 20 20 20 20 20 20
27 27 27 26 26 26 26 26 25 25 26 26 26 26 26 25 24 24 24 24 24 24 24 24 24 24 24 24 23 23 23 23 23 22 22 22 22 22 22 22 22 22 22 22 22 22 22 22 22 21 21 21 20 20 20 20 20 20 21 20 20 20 20
28 27 27 27 27 27 26 26 26 26 26 26 26 26 26 25 24 24 24 24 24 24 24 24 24 24 24 24 23 23 23 23 23 23 22 22 22 22 22 22 22 22 21 21 22 22 22 22 22 22 21 21 21 21 21 20 20 20 21 21 21 20 20
28 28 28 28 28 28 27 26 26 26 26 26 26 25 25 24 24 24 24 24 24 24 24 25 25 25 24 24 23 23 23 23 23 23 23 22 22 22 22 22 22 22 21 21 21 22 22 22 22 22 21 21 21 21 20 20 20 21 21 21 21 21 20
28 28 28 28 28 28 27 27 26 26 26 26 26 25 25 25 24 24 24 24 24 24 25 26 26 25 25 24 24 24 24 23 23 23 23 23 22 22 22 22 22 22 21 21 21 22 22 22 22 22 22 21 21 21 20 21 21 21 21 21 21 21 21
28 28 29 29 28 28 27 26 26 26 26 26 26 26 25 25 25 24 24 24 24 24 25 26 25 25 24 24 24 24 24 23 23 23 23 23 23 23 22 22 22 22 22 21 21 21 22 22 22 22 22 22 21 21 20 21 21 21 21 21 21 21 21
28 29 29 29 28 27 27 26 26 26 26 26 26 26 25 25 25 25 24 24 24 25 25 25 25 24 24 24 24 23 23 24 23 23 23 23 23 23 23 23 22 22 22 21 21 21 22 22 22 22 22 22 22 21 21 21 21 21 21 21 21 21 20
30 30 30 29 29 28 27 27 27 27 27 27 26 26 26 25 25 25 25 25 25 25 25 25 25 24 24 23 23 23 23 24 23 23 23 23 23 23 23 23 22 22 22 22 21 21 21 22 22 22 22 22 22 21 21 21 21 21 21 21 21 21 20
30 30 30 30 29 28 27 27 27 28 27 27 27 26 26 26 26 25 25 25 25 25 25 25 25 24 24 23 23 23 23 24 24 24 24 24 23 23 23 23 23 22 22 22 21 21 22 22 22 22 23 23 22 22 21 21 21 21 21 21 21 21 21
28 29 29 29 28 28 27 27 28 28 28 27 27 27 27 26 26 26 26 26 26 25 25 25 25 24 24 23 23 23 24 24 24 24 24 24 24 24 23 23 23 22 22 22 22 22 22 22 23 23 23 23 22 22 22 21 21 21 21 21 21 21 21
30 30 30 29 28 28 28 28 29 28 28 28 28 27 27 27 26 26 26 26 26 26 25 25 25 25 25 24 24 24 24 24 24 24 24 23 23 23 23 23 23 22 22 22 22 22 22 22 23 23 23 23 22 22 22 21 21 21 21 21 21 21 21
32 32 31 30 29 29 29 29 29 29 29 28 28 28 27 27 27 26 26 26 26 26 26 25 25 25 25 25 25 25 24 24 24 24 24 23 24 23 23 23 23 22 22 22 22 22 22 22 23 23 23 23 22 22 22 22 22 22 22 21 21 21 21
31 32 32 32 31 29 29 29 29 29 29 28 28 28 28 28 28 27 27 27 27 27 26 25 25 25 25 25 25 25 24 24 23 23 23 24 24 24 24 23 23 23 23 22 22 22 22 22 23 23 23 23 23 22 22 22 22 22 22 22 21 21 21
32 33 32 33 32 31 30 29 29 29 29 29 29 29 29 29 28 28 28 27 27 27 26 25 25 25 25 26 25 24 24 24 23 23 23 24 24 24 24 23 23 23 23 23 22 22 22 22 23 23 23 23 23 23 22 22 23 23 22 22 22 21 21
31 32 32 31 31 30 30 29 29 29 29 29 29 29 30 30 29 29 29 29 28 27 26 25 25 25 25 25 24 24 24 24 23 23 23 24 24 24 24 24 24 24 23 23 23 22 22 23 23 23 23 22 23 23 23 23 23 23 23 22 22 21 21
29 30 30 29 29 30 30 29 29 29 29 30 30 30 30 30 29 30 30 29 28 27 26 26 26 26 26 25 25 24 24 23 23 23 23 23 23 24 24 24 24 24 24 24 23 23 22 23 23 22 22 22 23 23 23 23 23 23 23 22 22 22 21
27 27 28 29 29 29 30 30 29 29 29 30 29 29 28 28 29 29 29 28 27 27 27 27 27 27 26 26 25 24 24 23 23 23 23 23 23 23 23 24 24 24 24 24 24 23 23 23 23 23 22 22 23 23 23 23 23 23 23 22 22 22 21
26 26 26 28 29 29 29 30 29 29 29 29 29 29 28 28 28 28 28 28 28 27 27 27 26 26 26 25 25 25 24 24 23 23 23 22 22 22 23 24 24 24 24 24 24 23 23 23 23 22 22 22 22 22 23 24 23 23 23 22 22 21 21
24 25 25 26 27 28 29 29 29 29 29 29 29 29 28 28 28 28 27 27 27 27 27 26 26 25 26 26 25 25 25 24 23 22 22 22 22 23 23 24 24 24 24 24 24 24 23 23 22 22 22 22 22 23 23 23 23 23 23 23 22 21 20
24 25 25 25 26 27 28 28 29 28 28 28 28 29 29 28 27 27 27 26 26 26 26 26 26 26 26 26 26 25 25 24 23 23 23 23 23 23 24 24 24 24 24 24 24 24 23 23 22 22 22 22 22 23 23 23 23 23 23 22 22 21 20
25 25 25 25 26 27 28 28 28 28 28 28 27 28 28 28 27 27 26 26 26 26 26 26 27 27 27 27 26 26 25 24 24 24 24 24 24 23 23 24 24 24 24 24 24 24 23 23 22 21 21 21 22 22 22 22 22 22 22 22 21 21 21
25 25 25 26 26 26 27 27 28 28 28 28 27 27 27 27 27 27 26 26 26 26 26 27 27 28 28 28 27 26 25 25 24 24 24 24 24 23 23 23 23 24 24 24 23 23 22 22 21 21 21 21 21 21 21 21 21 21 21 21 21 21 21
25 25 26 26 26 26 26 27 27 28 27 27 27 27 27 26 27 26 26 26 25 26 27 28 28 28 27 26 25 25 25 25 24 25 24 24 23 23 23 24 24 24 23 23 23 22 22 21 21 20 21 21 21 21 21 21 20 20 20 20 21 21 20
25 25 26 26 26 27 27 27 27 27 27 27 27 27 26 26 26 26 26 26 26 27 27 27 27 26 26 25 25 25 25 25 25 25 24 24 23 23 24 24 24 23 23 23 22 22 22 21 21 20 20 20 20 20 20 19 19 19 19 20 21 21 20
25 26 26 26 27 27 27 27 28 28 28 27 27 26 26 25 25 25 26 26 27 28 27 27 26 26 26 25 25 24 24 24 25 25 25 24 24 23 24 24 24 24 23 23 22 22 22 22 21 21 20 20 19 19 19 18 18 19 20 20 20 20 20
25 25 26 27 27 27 27 27 27 27 27 27 27 27 26 25 25 24 25 25 26 26 26 26 26 26 26 25 25 25 25 24 24 25 24 24 23 23 23 23 23 23 23 22 22 22 21 22 21 21 20 20 19 19 18 18 18 19 19 20 20 20 20
24 24 25 26 26 26 27 27 27 26 26 26 26 26 25 25 25 24 24 25 25 25 25 25 25 25 25 26 26 26 26 25 25 25 25 24 23 23 23 22 22 21 21 21 21 20 20 20 21 21 21 21 20 19 18 18 18 19 19 20 20 20 19
23 24 25 25 26 26 26 26 26 26 26 25 25 25 24 24 23 23 24 24 24 24 24 24 24 24 25 25 25 25 26 25 25 25 25 24 23 23 23 22 22 22 21 21 21 20 20 19 19 20 21 21 20 19 18 18 19 19 20 20 20 19 19
22 23 24 25 25 26 26 26 27 27 27 26 26 25 25 24 23 23 23 23 24 24 24 24 24 24 24 24 25 25 25 25 25 24 24 24 23 22 22 22 22 22 22 21 21 21 20 19 19 19 20 20 19 19 19 20 19 19 20 20 19 19 18
22 22 22 23 23 24 25 25 26 26 26 26 26 26 26 25 25 24 24 23 23 23 23 24 23 23 23 23 24 24 24 25 25 24 24 24 23 22 22 22 22 22 22 23 23 22 21 20 19 19 20 20 19 19 20 20 20 20 20 20 19 19 18
21 21 22 22 22 23 23 24 24 25 25 25 26 26 26 26 25 25 25 24 23 23 22 22 22 22 22 22 22 22 23 23 24 24 24 24 23 23 23 23 23 23 23 24 24 23 23 23 22 22 21 20 19 19 19 20 20 21 21 20 19 19 19
20 21 21 21 21 22 22 22 23 23 24 24 25 25 25 25 25 25 24 24 24 23 23 22 22 22 21 21 21 21 21 21 22 22 23 23 23 23 23 23 23 23 23 23 23 23 23 23 24 24 23 20 19 20 21 22 22 21 20 20 19 19 19
20 20 20 21 21 21 21 22 22 22 22 23 23 23 23 23 23 23 23 23 23 23 23 22 22 22 21 21 21 21 21 21 21 21 21 22 22 22 22 22 22 22 22 22 22 22 22 22 22 23 23 22 20 20 20 21 21 20 20 20 19 19 19
19 19 20 20 21 21 20 20 20 20 21 21 21 21 21 20 20 20 21 21 20 21 21 21 21 21 21 21 20 20 20 20 20 21 21 21 21 21 21 21 22 21 21 21 21 20 21 21 20 21 22 21 20 19 19 19 20 19 19 19 19 18 18

ECMWFFLT1_850_temp_027.txt.gz
Temp
25 25 24 24 24 24 24 24 25 26 26 25 25 25 25 25 25 24 24 23 23 22 22 22 23 23 23 23 23 23 23 22 23 23 23 23 23 23 23 23 23 23 23 23 22 22 22 22 22 22 21 21 21 21 20 20 20 19 20 20 20 20 20
26 25 25 24 24 24 24 24 25 26 27 26 26 26 25 25 26 25 25 24 24 23 23 23 23 23 24 24 23 23 23 23 23 22 22 22 22 23 23 23 23 23 23 23 23 22 22 22 22 22 21 21 21 21 21 20 20 20 20 20 20 20 20
26 26 25 25 24 24 24 24 24 25 26 26 27 27 26 26 27 26 26 25 25 25 24 24 23 24 24 24 24 24 23 23 23 23 22 22 22 22 22 22 23 23 23 23 23 23 22 22 22 22 21 21 21 21 21 20 20 20 20 20 20 20 20
27 26 26 25 25 25 24 25 25 25 25 26 27 28 28 28 28 27 26 26 26 26 25 25 25 24 24 24 24 24 24 23 23 23 23 23 22 22 22 22 22 22 22 22 22 22 22 22 22 22 22 21 21 21 21 21 20 20 20 20 20 20 21
27 27 26 25 25 25 24 25 25 25 25 25 26 27 28 28 28 27 27 26 26 26 26 25 25 25 24 24 24 24 24 24 24 24 23 23 23 22 22 22 22 22 22 22 22 22 22 22 22 22 22 22 21 21 21 21 21 20 20 20 20 20 21
28 27 26 26 26 25 25 25 25 25 26 26 26 27 28 28 27 27 27 26 26 26 25 25 25 25 25 25 24 24 24 24 24 24 24 23 23 23 22 22 22 22 22 22 22 22 22 22 22 22 22 22 22 22 22 21 21 21 20 20 20 20 21
29 28 27 27 27 26 26 26 25 25 26 26 26 26 26 26 26 27 27 27 27 26 26 25 25 24 25 25 24 24 24 24 24 24 24 23 23 23 23 23 22 22 22 22 22 22 22 22 22 22 22 22 22 22 22 22 21 21 21 21 21 21 21
30 29 28 28 28 27 27 26 26 25 25 25 25 25 25 25 25 26 26 27 27 26 26 26 26 25 25 25 25 25 25 24 24 24 24 24 23 23 23 23 23 22 22 22 22 22 22 22 22 22 22 22 22 22 22 22 22 21 21 21 21 21 21
29 28 28 28 27 27 27 27 26 25 25 25 25 26 26 25 25 25 26 27 26 26 26 27 26 26 26 26 25 25 25 24 24 24 24 24 23 23 23 23 23 23 23 22 22 22 22 22 22 22 22 22 22 22 22 22 22 21 21 21 21 21 21
29 29 28 27 27 27 27 27 26 26 25 25 25 25 25 25 25 25 26 26 26 26 27 27 26 26 26 26 26 25 25 24 24 24 24 23 23 23 23 23 23 23 23 23 22 22 22 22 22 22 22 22 22 22 22 22 22 22 22 21 21 21 21
30 29 29 28 28 27 27 27 27 26 26 26 25 25 25 25 25 25 25 25 26 26 27 26 25 25 26 26 25 25 25 25 25 24 24 23 23 23 23 23 23 23 23 23 22 22 22 22 22 22 22 22 22 22 22 22 22 22 22 21 21 21 21
28 28 29 30 29 28 27 27 27 27 27 26 26 26 25 25 25 25 25 25 26 26 26 25 25 25 25 26 25 25 25 26 25 25 24 24 24 24 24 23 23 23 23 23 23 23 23 22 22 22 22 22 22 22 22 22 22 22 22 22 21 21 21
28 29 30 30 29 28 27 27 27 27 27 27 26 26 26 26 25 25 25 26 26 25 25 25 25 25 25 25 25 25 26 26 26 25 25 25 25 25 25 24 24 24 24 24 23 23 23 23 22 22 22 22 22 23 23 22 22 22 22 22 22 21 21
29 31 31 31 30 29 29 28 28 28 28 27 27 27 26 26 26 26 26 27 27 26 25 25 25 25 25 25 25 25 26 26 26 26 25 26 26 26 25 25 24 24 24 24 23 23 23 23 23 22 22 22 22 23 23 22 22 22 22 22 22 22 21
30 31 32 32 31 31 31 30 29 29 28 27 27 27 26 26 26 26 26 27 27 26 26 26 26 26 26 25 25 26 26 26 25 26 26 26 26 25 25 25 25 24 24 24 24 23 23 23 23 22 22 22 22 22 22 22 22 22 22 22 22 22 22
30 31 32 32 32 31 31 31 30 30 29 28 27 27 27 26 26 26 26 27 27 27 26 26 26 26 25 25 26 26 26 25 25 25 25 25 25 25 25 25 25 25 24 24 24 24 23 23 23 22 22 22 22 23 22 22 22 23 23 22 22 22 22
32 33 32 32 31 31 31 30 29 29 29 28 28 28 27 27 27 27 27 27 27 27 27 27 27 26 26 26 27 26 25 25 25 25 25 25 25 25 25 25 25 25 25 24 24 24 23 23 23 22 22 22 22 23 23 22 23 23 23 23 22 22 22
32 33 32 31 31 31 31 30 29 29 29 29 28 28 28 28 27 27 27 27 28 28 27 27 27 27 27 27 26 25 25 25 24 25 25 25 24 24 24 24 24 24 24 24 24 24 23 23 23 22 22 22 22 22 23 23 23 23 23 23 23 22 22
32 32 32 32 31 31 32 32 31 30 29 29 29 29 29 28 28 28 28 28 28 28 27 27 28 28 27 27 26 25 25 25 24 24 24 24 24 24 23 24 24 24 24 24 24 24 24 23 23 23 22 22 22 22 23 23 23 24 23 23 23 22 22
31 32 32 32 32 32 31 32 32 31 30 30 29 29 29 28 28 29 28 28 27 26 26 27 27 27 27 26 26 25 25 25 25 25 24 24 24 23 23 24 24 24 24 24 24 24 23 23 23 23 22 22 22 22 23 23 24 24 24 23 23 22 22
30 30 31 31 32 32 31 31 32 32 32 30 29 28 28 28 28 28 28 27 27 27 26 26 26 26 26 25 25 25 24 24 24 24 24 24 23 23 23 23 24 24 24 23 23 23 23 23 23 23 23 22 22 22 23 23 24 24 24 23 23 23 22
29 29 29 30 31 31 31 31 31 32 31 30 29 29 29 29 28 27 27 27 27 27 27 26 26 26 25 25 24 24 24 24 23 23 23 23 23 23 23 23 23 24 23 23 23 22 22 22 22 22 22 23 23 22 23 24 24 24 24 23 23 23 22
28 28 28 28 29 30 30 30 30 31 30 30 30 30 29 28 27 27 27 27 27 27 27 27 26 26 26 25 25 24 24 24 23 23 23 23 23 23 23 24 24 24 24 24 23 22 22 22 21 21 21 22 23 23 23 24 24 24 24 24 23 23 22
26 26 26 27 27 28 28 29 29 30 30 30 30 30 28 27 27 27 27 27 27 27 27 27 27 27 27 26 26 25 25 26 25 25 24 24 24 24 24 24 24 24 24 24 24 24 24 23 21 20 21 22 23 23 23 24 24 25 24 24 24 23 23
24 25 25 26 26 27 28 29 29 29 30 30 29 29 28 27 27 27 27 27 27 27 27 27 28 28 28 27 26 26 26 26 26 25 24 24 24 24 24 24 24 24 24 23 23 23 23 22 21 20 21 22 23 23 24 24 24 24 24 24 24 23 23
23 24 25 25 26 27 28 28 29 29 29 29 29 28 27 26 26 26 26 27 27 27 27 28 28 28 27 26 26 26 25 25 25 25 24 24 24 24 23 23 23 23 23 23 23 22 22 21 20 21 21 22 22 23 24 24 23 24 24 24 24 23 22
22 23 24 25 25 27 27 28 28 28 28 28 28 27 26 26 26 26 26 26 26 26 27 27 27 27 26 25 25 25 25 25 25 25 24 24 24 24 23 23 23 23 23 23 22 22 21 20 20 20 20 21 21 21 23 24 24 24 24 24 23 23 22
19 21 23 23 24 26 27 27 28 28 27 27 26 26 26 25 25 25 25 25 26 26 26 26 26 26 25 25 25 25 25 25 25 25 24 24 23 23 23 23 22 22 22 22 22 21 20 20 19 19 19 19 19 20 22 24 24 24 24 24 23 23 22
19 20 21 22 23 24 26 27 27 28 27 27 26 26 25 25 25 25 25 25 25 25 25 25 25 25 25 25 25 25 25 25 25 25 24 24 24 23 23 22 22 22 22 22 21 20 20 20 19 19 19 19 19 20 22 23 24 24 24 24 23 23 23
18 18 19 20 22 23 25 26 27 27 27 27 26 25 25 24 24 24 24 24 24 24 24 24 24 24 24 24 24 25 25 25 25 25 24 24 24 24 23 23 22 22 22 22 22 21 20 20 20 20 19 19 19 19 20 22 24 25 24 23 23 23 23
16 17 17 19 20 22 23 24 25 25 25 25 25 24 24 23 23 23 23 23 23 24 24 24 24 24 24 24 24 24 24 24 24 24 24 24 23 23 23 23 22 22 22 22 22 21 21 20 20 21 20 20 19 19 19 20 22 24 24 23 23 23 22
15 16 17 19 20 21 22 23 24 24 24 24 24 23 23 23 23 23 23 23 24 24 24 24 24 24 24 24 24 23 23 23 23 23 23 23 22 22 23 22 22 22 22 21 21 21 21 20 20 21 22 22 21 20 19 18 19 21 22 22 22 21 21
15 16 18 19 19 19 19 21 22 23 23 23 23 23 23 23 23 23 23 24 24 24 24 24 24 24 24 23 23 23 22 22 22 22 22 22 22 22 22 22 22 22 21 21 21 20 20 20 20 20 20 21 21 20 20 19 19 19 19 19 19 19 20
15 16 17 18 18 17 17 17 19 21 22 23 23 23 23 23 23 24 24 24 24 24 24 24 24 23 23 23 23 22 22 21 21 22 22 22 22 22 22 22 22 22 22 21 21 21 20 20 20 20 20 20 20 19 19 19 19 19 20 19 19 19 19
15 15 16 17 17 17 16 16 17 19 20 21 21 21 22 22 23 23 23 24 24 24 24 24 23 23 23 22 22 21 21 21 21 21 21 21 21 21 21 21 21 22 22 22 22 22 21 21 21 21 22 22 21 19 19 20 21 22 23 22 20 20 20
14 15 15 16 16 16 15 16 16 18 19 20 20 20 21 21 21 22 22 22 22 22 22 23 23 22 22 22 22 21 21 20 20 19 20 20 20 20 21 21 21 21 21 21 21 21 21 21 21 21 22 22 22 21 22 23 24 24 24 23 23 22 21
15 15 15 16 17 16 16 16 16 17 18 19 19 20 20 20 21 21 21 21 21 21 21 21 21 22 22 22 22 21 21 21 20 20 20 20 20 20 20 20 20 20 20 20 21 21 20 21 21 21 21 21 21 21 22 23 23 22 21 22 22 21 20
15 15 16 17 18 18 17 17 16 16 16 17 17 18 19 19 20 20 20 20 21 21 21 21 21 22 21 21 21 21 21 21 21 21 20 20 20 19 19 19 20 20 20 20 20 20 20 20 20 20 20 20 20 20 20 21 21 21 20 20 20 20 20

ECMWFFLT1_850_temp_030.txt.gz
Temp
30 30 29 28 27 26 26 25 24 24 24 23 24 25 25 25 24 24 25 25 25 25 24 24 24 23 23 23 23 23 23 23 23 23 23 23 23 23 23 23 23 23 23 23 23 23 23 22 22 22 22 22 22 22 21 21 21 21 20 20 20 20 20
31 30 29 28 27 26 26 25 25 25 24 24 25 26 25 25 25 25 25 26 26 25 25 24 24 24 23 23 23 23 23 23 23 23 23 23 23 23 23 23 23 23 23 23 23 23 23 23 22 22 22 22 22 22 22 21 21 21 21 20 20 20 20
32 31 30 29 28 27 26 26 25 25 25 25 26 26 26 26 26 26 26 26 26 26 25 25 24 24 24 24 23 23 23 23 23 23 23 23 23 23 23 23 23 23 23 23 23 23 23 23 23 23 22 22 22 21 21 21 21 21 21 21 21 20 20
32 31 31 29 29 27 27 26 25 25 25 26 27 28 28 28 28 27 27 27 26 26 26 25 25 25 24 24 24 23 23 23 23 23 23 23 23 23 23 23 23 23 23 23 23 23 23 23 23 23 23 22 22 21 21 21 21 21 21 21 21 21 20
32 31 31 30 29 28 27 26 26 26 25 26 27 28 28 28 28 28 27 27 27 27 27 26 26 25 25 25 24 24 24 24 24 23 23 23 23 23 23 23 23 23 23 23 23 23 23 23 23 23 23 23 22 22 21 21 21 21 21 21 21 21 20
32 31 31 30 30 29 28 27 27 26 26 26 26 26 27 27 27 28 28 28 27 27 27 27 26 26 25 25 25 24 24 24 24 23 23 23 23 23 23 23 23 23 23 23 23 23 23 23 23 23 23 23 23 22 22 21 21 21 22 21 21 21 21
33 32 31 30 30 29 29 28 27 27 27 27 26 26 26 26 27 27 27 27 28 27 27 27 27 26 26 26 25 25 25 24 24 24 24 24 24 23 23 23 23 23 23 23 23 23 23 23 23 23 23 23 23 22 22 22 21 21 21 21 21 21 21
34 32 31 31 30 30 29 28 28 28 27 27 27 26 25 25 26 26 26 26 27 27 27 28 27 27 26 26 26 26 25 25 25 24 24 24 24 24 24 24 23 23 23 23 23 23 23 23 23 23 23 23 23 22 22 22 22 21 21 22 22 21 22
34 32 31 31 31 30 30 29 28 28 27 27 27 27 26 25 26 26 26 26 26 26 27 28 27 27 27 27 27 26 26 26 25 25 25 25 25 24 24 24 24 24 24 23 23 23 23 23 22 22 22 22 22 22 22 22 22 21 21 21 22 22 22
33 31 30 30 30 30 30 29 28 28 27 27 26 26 26 26 26 26 26 26 26 27 27 27 26 26 27 28 27 27 27 26 26 26 26 25 25 25 25 25 25 24 24 24 24 23 23 23 23 22 22 22 22 22 22 22 22 22 21 21 22 22 22
31 30 30 29 30 29 29 29 29 28 27 27 26 26 26 26 26 26 26 26 26 27 27 27 26 25 26 28 28 27 27 27 27 26 26 26 26 25 25 25 25 25 25 24 24 24 23 23 23 23 22 22 22 22 22 22 22 22 22 21 21 22 22
30 29 29 29 29 28 28 28 28 28 28 28 27 26 26 26 26 26 26 26 26 26 26 26 25 25 26 27 28 27 28 27 27 27 26 26 26 25 25 25 25 24 25 25 24 24 24 23 23 23 23 22 22 22 22 22 22 22 22 21 21 22 22
29 29 29 29 29 28 28 28 28 28 28 28 27 26 26 26 26 26 26 25 26 26 25 25 25 25 25 26 26 27 28 28 28 28 27 27 26 25 25 25 25 24 24 25 25 24 24 24 24 23 23 23 22 22 22 22 22 22 22 22 21 22 22
30 30 29 29 29 29 29 29 28 28 28 28 27 26 26 26 26 26 26 26 25 26 26 25 25 25 25 25 25 26 28 29 28 28 28 27 27 26 26 26 25 25 24 24 25 25 24 24 24 24 23 23 23 22 22 22 22 22 22 22 21 22 22
31 32 31 30 30 30 30 29 29 29 28 28 27 26 26 26 26 26 26 26 25 25 26 25 24 25 25 25 26 27 27 27 27 28 28 27 27 27 27 26 26 25 24 24 25 25 25 24 24 24 24 23 23 23 22 22 22 22 22 21 21 22 22
32 33 33 32 31 31 32 31 31 30 29 29 28 27 26 26 26 26 25 25 25 25 25 25 24 25 25 25 26 26 26 26 26 27 27 27 27 27 27 26 26 25 24 24 24 25 25 25 24 24 24 24 23 23 23 22 22 22 22 22 22 23 23
32 32 33 32 31 32 32 32 32 32 31 31 29 28 27 26 26 26 26 26 25 25 25 25 24 24 25 25 26 25 25 26 27 27 27 27 27 27 26 26 26 25 25 24 24 24 25 24 24 24 24 24 24 23 23 23 22 22 22 22 22 23 23
32 31 32 32 32 32 32 32 32 32 32 32 31 29 28 27 26 26 26 26 26 25 25 25 25 25 25 25 25 25 26 26 27 27 27 27 26 26 26 26 25 25 25 24 24 23 24 24 24 24 24 23 23 24 23 23 23 23 22 22 22 23 23
31 32 32 32 31 31 32 32 31 31 32 32 31 31 30 28 27 27 27 26 26 25 25 25 25 25 25 25 24 25 26 26 26 27 27 26 26 25 25 25 25 25 24 24 23 23 23 23 23 23 23 23 22 23 24 23 23 23 23 23 23 23 23
31 31 31 31 30 30 31 31 31 31 31 32 31 30 30 29 29 28 27 26 26 26 25 25 25 25 25 25 25 25 25 26 26 26 26 25 25 24 24 25 25 25 24 24 23 22 22 22 21 22 23 22 21 22 23 23 23 23 23 23 23 23 23
30 30 30 30 30 29 30 31 31 31 31 31 31 30 30 30 29 27 26 26 26 26 26 25 25 25 25 26 26 26 26 26 26 26 25 24 24 24 24 24 25 24 24 23 23 23 23 22 21 22 22 21 20 20 22 22 23 23 23 23 23 23 23
29 29 28 28 28 29 29 30 30 30 30 30 30 30 30 29 28 26 26 26 26 26 26 26 25 25 25 26 28 28 28 28 27 26 25 25 25 25 25 25 25 25 24 23 23 23 23 23 22 22 21 20 20 20 20 21 23 24 23 23 24 24 23
27 27 27 27 27 28 28 29 29 29 30 30 30 30 29 28 27 27 27 26 26 25 25 26 26 26 26 27 28 28 28 28 28 27 27 26 26 26 26 26 26 25 24 24 23 23 23 23 23 22 21 20 21 21 21 20 22 23 23 24 24 24 24
25 25 26 26 27 27 26 27 28 28 29 29 29 30 29 28 27 27 26 26 26 25 25 26 27 27 27 28 28 28 28 27 27 27 27 27 27 27 27 26 26 25 24 24 23 23 22 22 22 22 22 21 20 21 21 21 21 22 23 24 24 24 24
23 23 24 25 25 25 25 26 27 28 28 28 29 29 29 28 27 26 26 26 26 25 25 27 28 28 27 27 27 27 27 26 26 27 27 27 27 27 26 26 25 25 25 24 24 23 22 21 21 21 21 21 20 20 20 20 20 21 22 23 24 24 24
21 22 23 23 23 24 26 26 26 26 25 26 27 28 28 28 27 26 25 25 25 25 26 27 27 27 26 26 26 26 26 26 27 27 27 27 26 26 26 25 25 24 24 24 23 22 22 21 21 21 21 21 21 20 20 20 20 20 21 22 23 23 24
20 20 21 21 22 24 25 24 24 23 23 25 27 27 27 27 27 25 25 25 25 25 25 25 26 26 26 26 26 26 27 27 27 27 27 26 26 25 25 25 24 24 23 23 22 21 21 21 21 21 21 21 21 21 20 20 20 19 20 21 22 23 23
19 20 20 21 22 23 23 22 21 22 23 24 25 26 26 27 26 25 24 24 25 25 25 24 25 26 26 27 27 26 27 27 27 26 26 25 25 25 24 24 23 23 23 22 21 21 21 21 21 21 21 21 21 21 21 20 20 20 19 20 21 22 23
19 19 20 20 20 20 21 21 20 21 22 24 24 24 25 25 25 25 24 24 24 25 24 24 24 25 25 26 26 26 26 26 26 26 25 25 25 24 24 24 23 23 22 22 21 21 21 21 21 21 21 21 21 21 21 21 20 20 19 19 20 21 22
18 18 19 19 19 20 20 19 19 20 21 23 24 24 24 24 24 24 23 23 24 24 23 23 23 24 25 25 25 25 24 24 24 25 25 25 24 24 24 24 24 23 22 22 21 21 21 21 21 21 21 21 21 21 21 21 20 20 20 19 20 20 20
16 17 17 18 18 19 19 18 18 18 19 22 24 24 23 23 23 24 23 23 24 24 24 23 24 24 24 24 24 24 24 24 24 24 24 24 24 23 23 23 23 23 22 22 21 21 21 21 21 21 21 21 21 21 21 21 21 20 20 20 20 20 20
16 16 16 17 17 17 18 18 18 18 18 19 21 23 23 23 23 23 24 24 24 24 24 24 24 24 24 24 24 24 24 23 23 23 23 23 23 23 23 23 22 22 22 22 21 20 21 21 21 21 21 21 20 21 21 21 21 20 20 20 20 20 21
16 16 16 16 16 16 17 17 18 17 17 18 19 20 22 22 22 23 23 23 23 23 23 24 24 24 24 23 23 23 23 22 22 22 22 22 22 22 22 22 21 21 21 21 21 21 21 21 21 21 21 21 21 21 21 21 20 20 20 20 20 19 20
16 16 15 15 16 16 16 17 17 17 17 17 17 18 19 20 21 22 22 22 22 22 22 22 22 22 22 22 22 21 21 21 21 21 22 22 22 22 22 22 21 21 21 21 21 21 21 21 21 21 21 21 21 21 21 21 21 21 20 21 21 20 20
16 16 16 16 16 16 16 16 16 16 16 17 17 18 19 20 21 20 20 21 22 21 20 20 20 20 20 21 21 21 21 21 21 21 21 21 22 22 22 22 22 22 21 21 21 21 21 22 22 22 22 22 21 21 21 21 21 21 21 21 21 20 20
15 15 15 15 16 16 16 16 16 16 16 16 16 17 18 19 19 19 18 19 19 20 19 19 19 19 20 20 21 21 21 21 21 21 21 21 21 21 21 21 21 21 21 21 21 21 21 21 21 21 22 22 22 21 21 21 21 21 21 20 21 21 21
15 15 15 15 15 16 16 16 16 16 16 16 16 16 17 17 17 17 17 17 17 18 18 18 19 19 20 21 21 21 21 21 20 20 20 20 20 20 21 21 21 21 21 20 20 20 20 20 20 20 21 21 21 21 21 21 21 21 21 21 21 21 21
15 15 15 15 15 15 16 16 16 16 16 16 16 16 16 16 16 16 17 16 17 18 20 20 20 21 21 21 22 22 21 20 19 19 18 18 19 19 19 19 20 20 20 19 19 19 20 20 19 19 20 20 20 20 20 20 20 20 20 20 20 20 20

ECMWFFLT1_850_temp_033.txt.gz
Temp
32 33 32 31 30 29 29 28 27 27 26 25 24 24 24 24 24 23 23 25 26 26 26 25 25 24 24 24 24 24 24 23 23 23 23 23 23 22 22 22 23 23 23 22 23 23 23 23 22 21 21 22 22 21 21 21 21 21 21 20 20 20 20
32 33 33 31 30 29 29 28 27 27 26 25 25 25 25 24 24 23 24 25 26 26 26 26 25 25 25 24 24 24 24 24 24 23 23 23 23 23 23 22 23 23 23 23 22 23 23 23 23 22 22 23 23 22 21 21 21 21 21 21 21 20 20
32 33 33 32 30 30 29 28 27 27 27 26 25 25 25 25 25 25 25 25 26 26 26 26 26 25 25 25 24 24 24 24 24 24 24 24 23 23 23 23 23 23 23 23 23 22 22 23 23 23 23 23 23 22 22 21 21 21 21 21 21 20 20
32 33 34 33 31 30 29 29 28 27 27 26 26 25 25 25 25 26 26 26 27 27 27 26 26 26 25 25 25 25 24 24 24 24 24 24 24 24 23 23 23 23 23 24 24 23 22 22 23 23 23 23 23 23 22 22 21 21 21 21 21 21 20
34 34 34 33 32 31 30 29 28 27 27 27 26 25 25 25 24 25 26 26 27 27 27 27 26 26 26 25 25 25 25 25 25 24 24 24 24 24 24 24 24 24 24 24 24 24 23 22 22 23 23 23 23 23 23 22 22 21 21 21 21 21 21
35 34 34 34 33 31 30 29 29 28 28 27 27 26 25 25 24 25 25 26 26 27 27 27 27 26 26 26 26 25 25 25 25 25 24 24 24 24 24 24 24 24 24 24 24 24 24 23 23 23 23 23 23 23 22 23 22 22 21 21 21 21 21
35 34 33 33 32 31 30 30 29 29 28 28 27 26 26 25 25 25 25 25 26 26 26 27 27 27 27 26 26 26 26 26 25 25 25 25 24 24 24 25 24 24 24 24 24 24 24 24 24 23 23 23 23 23 22 22 23 22 22 22 21 21 21
35 34 33 32 32 31 31 31 30 30 29 29 28 27 26 26 26 25 25 25 25 25 26 26 27 27 27 27 27 26 26 26 26 26 25 25 25 25 25 25 25 24 24 24 24 24 24 24 24 23 23 23 23 23 22 22 23 23 22 22 22 21 22
35 34 33 33 33 32 32 31 31 30 29 29 29 28 27 27 27 26 26 26 25 25 25 26 27 27 28 27 27 27 27 26 26 26 26 25 25 25 25 24 24 24 24 24 24 24 24 24 24 24 23 23 23 23 22 22 23 23 22 22 22 22 21
36 35 34 34 34 33 32 32 31 31 30 29 29 28 28 27 27 27 26 26 26 26 26 26 26 26 27 28 28 27 27 27 26 26 26 26 25 25 24 24 24 24 25 25 24 24 24 24 24 23 23 23 23 23 23 23 23 23 23 22 22 22 22
35 34 34 33 34 34 33 32 31 30 30 29 28 29 28 28 27 27 27 27 27 27 26 26 26 25 26 28 28 28 27 27 27 27 26 26 26 25 25 24 23 23 24 25 25 24 23 24 24 23 23 23 23 23 23 23 23 23 23 23 22 22 22
33 32 32 32 32 33 33 33 31 30 30 29 29 29 28 28 28 28 28 27 27 27 27 26 26 26 25 26 27 28 28 28 27 27 27 27 27 26 25 24 23 23 23 24 25 24 23 23 24 24 24 24 23 23 23 23 23 23 23 23 23 22 22
32 32 31 31 32 31 31 32 31 30 29 29 29 29 28 28 28 28 28 28 28 28 27 27 27 26 25 25 26 27 28 28 28 28 27 27 27 26 26 25 24 23 23 23 24 25 24 23 24 24 24 24 24 23 23 23 23 23 23 23 23 22 22
33 32 31 31 31 30 30 30 30 29 29 28 29 29 28 28 28 28 28 28 28 28 28 27 27 26 26 25 25 26 28 28 28 28 28 27 27 27 26 25 24 24 23 23 24 24 24 24 24 25 25 24 24 24 23 23 23 23 23 23 23 22 22
34 34 32 31 31 30 30 29 29 29 28 28 29 29 28 28 28 28 28 28 28 28 28 28 27 27 26 25 25 27 27 27 27 28 28 27 27 27 26 25 25 24 24 23 23 24 24 24 23 24 25 25 25 24 24 23 23 23 23 23 23 23 22
34 35 34 32 31 30 30 30 30 30 29 28 28 28 28 28 28 28 28 28 28 28 28 28 28 27 26 25 25 26 27 26 26 27 28 28 27 27 27 26 25 25 25 24 23 23 24 23 22 22 23 25 25 25 25 24 23 23 23 23 23 23 22
33 34 34 33 32 31 30 30 30 31 30 30 29 29 28 28 28 28 28 28 28 28 28 28 28 27 26 26 25 25 26 26 26 27 27 28 27 27 27 26 25 25 25 24 24 23 23 23 23 22 22 23 24 25 25 25 24 24 23 23 23 23 23
33 33 33 33 33 32 31 30 30 30 30 30 30 29 29 28 28 28 28 28 28 28 28 28 28 27 26 26 25 25 25 26 26 27 27 27 27 27 26 26 25 25 25 25 24 23 23 23 23 23 22 22 22 24 25 25 25 24 24 24 24 23 23
32 32 33 33 33 33 32 31 31 30 30 30 29 29 29 28 28 28 28 28 28 28 28 28 28 27 26 25 25 25 25 25 26 26 27 27 27 26 26 25 25 25 25 24 24 23 23 23 24 24 23 22 22 22 23 24 25 25 25 24 24 24 23
31 31 32 32 32 32 32 31 30 30 30 30 30 30 29 28 28 28 28 28 28 28 28 28 28 27 26 26 25 25 24 25 26 26 26 26 26 25 25 25 25 25 25 24 24 23 23 24 24 24 23 23 22 22 22 23 23 24 25 25 24 24 24
31 31 31 31 30 30 29 29 28 28 29 29 29 30 30 29 28 28 28 28 28 27 27 27 27 27 27 26 25 25 24 25 26 26 26 26 25 25 26 26 26 26 25 24 24 24 24 23 23 23 23 23 23 22 22 22 22 23 24 25 25 24 24
32 31 31 30 29 28 28 29 28 28 28 29 29 29 29 30 29 29 28 28 28 27 27 27 27 27 27 26 25 25 24 24 25 25 25 26 26 26 27 27 27 26 25 24 23 23 23 23 23 23 23 23 24 23 23 22 22 22 23 24 25 24 24
31 30 29 28 27 27 27 27 27 27 28 29 29 29 29 30 30 30 29 28 28 27 27 27 27 26 26 26 25 25 24 24 24 25 25 25 26 27 27 27 26 25 25 24 23 23 23 23 23 23 23 23 23 24 24 23 22 22 22 23 23 24 24
28 28 27 26 26 26 26 25 26 27 27 28 29 29 29 29 29 30 29 29 28 28 27 27 26 26 26 26 25 24 24 24 24 24 25 25 26 27 27 26 25 25 25 24 24 23 22 22 22 22 22 22 22 23 23 23 22 22 22 21 22 23 24
25 25 25 25 25 25 24 25 26 26 27 27 27 27 28 28 29 29 29 28 28 28 27 27 26 26 26 25 25 25 24 24 24 24 25 26 26 26 26 25 25 25 24 24 23 22 22 22 22 22 22 22 22 22 22 23 22 22 22 22 21 22 22
23 23 23 24 24 23 23 25 25 25 25 26 26 26 26 27 27 28 28 28 28 28 27 27 26 26 25 25 25 25 25 25 25 25 25 26 26 26 25 25 24 24 23 23 23 22 22 22 22 22 22 22 22 22 22 22 22 22 22 22 22 21 21
22 22 23 23 23 23 23 23 23 23 23 24 25 26 26 25 26 27 27 27 27 28 28 27 26 25 25 25 25 24 25 25 25 25 25 25 25 25 25 24 23 23 23 23 22 22 22 22 22 22 22 22 22 22 22 22 22 22 22 22 22 22 21
21 22 22 22 22 22 22 23 22 22 22 23 23 24 25 25 25 25 26 26 26 27 27 27 26 25 25 25 24 24 24 24 24 24 25 25 25 25 24 24 23 23 23 22 22 22 22 22 22 22 22 22 22 22 22 22 22 22 22 22 22 22 21
20 20 21 22 22 21 21 22 21 21 22 22 22 23 24 24 25 24 25 25 25 25 26 26 26 25 25 24 24 24 24 24 24 24 25 25 24 24 23 23 23 23 22 22 22 22 22 22 22 22 22 22 22 22 22 22 22 22 22 21 21 22 21
20 20 20 21 21 21 21 21 21 21 21 21 21 23 23 24 24 24 24 24 24 24 25 25 25 25 24 24 24 24 24 24 23 23 24 24 23 23 23 23 23 22 22 22 22 22 22 22 22 22 22 22 22 23 23 22 22 22 22 22 21 21 21
19 19 20 20 20 20 20 21 21 21 21 20 20 22 23 23 23 23 23 23 23 23 24 24 24 24 24 23 23 23 24 24 23 23 23 22 22 22 22 22 22 22 22 22 22 22 22 22 22 22 22 22 22 23 23 23 23 22 22 22 22 21 21
19 19 19 19 19 19 20 21 21 20 20 20 20 21 22 21 21 21 21 21 21 22 22 23 23 23 23 23 23 23 23 23 23 23 22 22 22 22 22 22 22 22 22 22 22 22 22 22 22 22 22 22 22 23 23 23 23 23 23 22 22 22 22
18 18 18 18 18 18 19 20 20 20 20 20 19 19 20 20 20 20 20 20 21 21 22 22 22 22 22 23 23 23 23 23 23 23 23 22 22 22 22 22 22 22 22 22 22 22 22 22 22 23 23 22 22 22 22 23 23 23 23 22 22 22 22
18 18 18 18 18 18 18 19 19 19 19 19 18 18 19 19 19 19 19 20 20 21 21 22 22 22 22 22 22 22 22 22 23 23 23 23 23 23 23 23 23 23 23 23 23 23 23 23 23 23 23 22 23 23 22 22 22 22 23 23 22 22 22
17 17 17 18 18 18 18 19 19 19 19 18 18 18 18 18 19 19 19 19 19 20 21 21 21 22 22 22 22 22 22 22 22 23 23 24 24 23 23 23 23 23 23 23 23 23 23 23 23 23 22 22 22 22 22 22 22 22 22 22 22 22 22
17 17 17 17 18 18 18 18 18 18 18 18 17 18 18 18 18 18 19 19 19 20 20 21 21 22 22 22 23 23 23 23 23 23 23 23 24 24 23 23 23 23 23 23 22 22 22 22 22 22 22 22 22 22 22 22 22 22 22 22 22 21 21
16 17 17 17 17 17 17 18 18 18 18 18 17 17 18 18 18 18 18 18 19 19 19 20 21 22 22 22 23 23 23 23 24 23 23 23 23 23 23 23 23 23 23 22 22 22 21 21 22 22 22 22 22 22 22 22 22 22 22 22 21 21 21
16 16 16 16 16 16 17 17 17 17 17 18 18 18 18 18 18 18 17 18 18 18 18 19 20 20 20 20 21 22 22 22 22 22 22 22 22 22 22 23 22 22 22 21 21 22 22 21 21 21 21 22 22 22 22 22 22 22 22 22 22 21 21

ECMWFFLT1_850_temp_036.txt.gz
Temp
32 31 30 30 29 28 28 27 27 26 25 25 24 24 24 24 23 23 22 22 23 23 23 23 23 23 23 23 23 23 23 23 23 23 23 23 23 23 22 22 22 22 21 22 22 23 22 22 22 22 22 23 23 22 22 22 22 21 21 21 20 20 20
32 31 30 29 29 29 28 28 27 26 26 25 25 24 24 24 23 23 22 22 23 24 24 24 24 24 24 24 23 23 23 23 24 24 24 24 23 23 23 23 23 22 22 22 22 23 23 22 22 22 22 22 23 23 22 22 22 22 21 21 21 20 20
33 32 31 29 29 29 28 28 27 27 27 26 25 25 25 24 24 24 23 23 23 23 25 25 25 25 25 25 24 24 24 24 24 24 24 24 24 24 24 23 23 22 22 22 21 22 22 22 22 22 21 21 22 23 23 22 22 22 21 21 21 21 21
32 33 32 30 29 29 29 28 27 27 27 26 26 25 25 25 24 24 23 23 23 24 25 26 26 26 26 26 25 25 25 25 25 25 24 24 24 24 24 24 23 22 22 22 22 21 21 22 22 22 22 21 22 22 23 23 22 22 22 21 21 21 21
33 34 33 30 30 29 28 28 28 27 26 26 26 25 25 25 24 24 23 23 24 25 26 26 26 26 26 26 26 26 26 25 25 25 25 25 25 24 24 24 24 23 22 22 22 22 22 22 22 22 22 22 22 22 22 23 23 22 22 22 21 21 21
33 33 33 31 30 29 29 29 28 28 27 27 26 26 25 25 24 24 23 23 23 24 25 26 26 26 26 26 26 26 26 26 26 25 25 25 25 25 25 24 24 23 23 22 22 22 22 22 22 22 22 22 22 22 22 23 23 23 22 22 22 22 21
33 33 33 32 31 31 30 30 29 28 28 28 27 26 26 26 25 24 24 23 23 23 24 25 26 26 26 26 26 26 26 26 26 26 25 25 25 25 25 24 24 23 23 23 23 23 23 23 23 22 22 22 22 22 22 23 23 23 23 23 22 22 22
33 33 33 33 33 32 31 30 30 29 28 28 28 27 26 26 26 25 24 24 23 24 24 24 25 26 27 27 27 26 26 26 26 26 25 25 25 25 24 24 24 24 23 23 23 23 23 23 23 23 22 22 22 22 22 22 23 23 23 23 23 23 22
33 33 34 34 33 33 32 31 30 30 29 28 28 28 27 26 26 25 25 24 24 24 24 25 25 26 27 27 27 27 26 26 26 26 26 25 25 25 25 24 24 24 24 23 23 23 23 23 23 23 23 22 22 22 22 22 22 23 23 23 23 23 23
34 33 34 34 34 34 32 31 30 30 29 28 28 28 27 27 26 26 26 25 25 24 24 25 25 26 26 26 26 26 26 26 26 26 26 26 25 25 25 25 25 24 24 24 23 23 23 23 23 24 24 23 22 22 22 22 22 22 22 23 23 24 23
34 33 34 34 34 33 32 31 30 30 29 29 29 28 28 27 27 27 26 26 25 25 25 25 25 25 26 27 27 27 27 26 26 26 26 26 26 26 26 25 25 25 24 24 23 23 23 23 23 23 24 24 23 23 23 22 22 22 22 22 23 23 23
34 34 34 34 34 33 32 31 31 30 30 29 29 29 28 27 27 27 27 26 26 26 25 25 25 25 25 26 27 27 27 27 26 26 26 26 26 26 26 25 25 24 24 24 24 24 23 23 24 24 24 24 24 24 23 23 22 22 22 22 22 23 23
33 33 33 33 33 33 32 31 31 31 30 30 29 29 29 28 27 27 27 27 27 27 26 26 25 25 25 25 26 26 26 27 27 26 26 27 27 26 26 25 25 24 24 25 24 24 24 23 24 24 25 25 25 24 24 23 23 22 22 22 22 22 22
33 33 33 32 32 32 32 31 31 31 30 30 30 29 29 29 28 28 28 27 27 27 27 26 26 26 25 25 25 26 26 27 27 27 27 27 27 26 25 25 24 24 24 24 24 24 24 24 24 24 25 25 25 25 24 24 23 23 23 23 22 22 22
33 33 32 32 32 32 32 31 31 31 30 30 30 29 29 29 28 28 28 28 28 27 28 27 27 26 26 26 25 26 26 26 27 27 27 27 27 27 26 25 25 24 24 24 24 24 24 24 23 24 24 24 24 25 24 24 24 23 23 23 23 22 22
34 33 32 32 31 31 31 31 31 30 30 30 30 29 29 29 29 29 28 28 28 28 28 28 27 27 27 26 26 26 25 25 26 27 27 27 27 27 26 26 25 25 24 24 24 24 24 24 23 23 23 23 24 24 24 24 24 24 24 24 23 23 22
35 34 32 31 31 31 31 31 31 30 30 30 29 29 29 29 29 29 29 28 28 28 28 28 28 27 27 27 26 26 26 26 26 26 27 27 27 27 27 26 25 25 25 24 24 24 24 24 24 23 23 23 23 23 24 24 24 24 25 25 24 24 23
34 33 33 32 31 31 31 31 31 31 30 30 29 29 29 29 29 29 29 29 28 28 28 28 28 28 27 27 27 26 26 26 26 26 26 27 27 27 27 26 26 25 25 25 24 24 24 24 24 24 23 23 23 23 23 24 24 25 25 25 25 25 24
32 33 33 32 32 32 31 30 30 30 30 29 29 29 29 29 29 29 29 29 29 29 28 28 29 28 28 28 27 27 26 26 26 26 26 27 27 27 27 26 26 26 25 25 25 24 24 24 24 24 24 23 23 23 23 23 24 25 25 25 25 25 25
32 32 33 33 32 31 31 30 30 30 30 30 29 29 29 29 29 29 29 29 29 29 29 28 29 29 28 28 27 27 26 26 26 26 26 26 26 26 26 26 27 26 26 25 25 25 25 24 24 25 24 24 24 23 23 23 23 24 25 25 25 25 25
32 32 32 32 31 29 29 30 30 29 30 30 30 30 30 29 29 29 28 28 29 29 29 29 29 29 29 28 28 27 26 26 26 26 25 25 25 26 26 26 27 26 26 25 25 25 25 25 24 24 24 24 24 24 24 23 23 23 24 24 25 25 25
31 31 30 29 29 29 29 29 29 29 29 29 29 30 30 30 30 29 29 29 28 28 29 28 28 28 29 28 28 27 27 26 25 25 25 25 25 25 25 26 26 26 26 25 25 25 25 25 24 24 24 24 24 24 24 24 24 23 23 23 24 24 24
28 28 28 27 27 28 28 28 28 28 28 28 28 28 29 30 30 30 29 29 29 28 28 28 28 28 28 28 28 27 27 26 26 25 25 25 25 25 25 25 25 25 25 25 24 24 24 24 24 24 24 24 24 24 24 24 24 23 23 23 23 23 23
26 26 26 26 26 25 26 26 27 27 27 27 27 27 28 29 30 30 30 30 29 29 28 28 28 28 28 28 28 27 27 26 26 25 25 25 25 24 25 25 24 24 24 24 24 24 24 24 24 24 24 24 24 24 24 24 24 23 23 22 22 22 22
25 25 25 26 25 24 25 26 26 26 26 26 26 26 26 27 29 30 30 30 29 29 28 28 28 28 28 28 27 27 27 26 26 25 25 25 24 24 24 24 24 24 24 24 24 24 23 23 23 23 23 23 23 23 23 23 23 23 23 22 22 22 22
23 24 24 25 24 24 25 25 25 24 25 25 25 25 25 26 27 29 29 29 29 29 29 28 28 28 27 27 27 27 27 26 26 25 25 24 24 24 24 24 24 24 23 23 23 23 23 23 23 23 23 22 22 23 23 23 23 23 23 23 22 22 22
22 23 23 24 24 23 24 24 24 23 24 24 25 25 25 25 26 27 28 29 29 29 29 28 28 28 27 27 27 26 26 26 26 25 24 24 24 23 23 23 23 23 23 23 23 23 23 23 23 23 23 22 22 22 22 22 22 22 23 23 22 22 22
22 22 22 23 24 23 23 23 23 23 23 23 23 24 24 24 25 26 26 27 28 28 28 28 28 28 27 27 26 26 26 25 25 25 24 24 23 23 23 23 23 23 23 22 22 22 22 22 23 23 23 23 23 22 22 22 22 22 22 22 22 22 22
21 21 21 22 23 22 22 22 22 22 22 22 22 23 24 24 24 25 25 26 26 27 27 28 28 28 27 27 26 26 26 25 25 24 24 24 23 23 23 23 23 22 22 22 22 22 22 22 22 22 23 23 23 23 23 23 22 22 22 22 22 22 22
20 20 21 21 22 21 21 22 22 22 22 21 21 23 24 24 24 24 24 25 25 25 26 27 27 27 27 26 26 26 25 25 24 24 24 23 23 23 23 23 23 23 22 22 22 22 22 22 22 22 22 22 23 23 23 23 23 23 22 22 22 22 22
19 20 20 20 20 20 20 21 22 22 22 21 21 22 23 23 23 24 23 24 24 24 25 26 26 26 26 26 25 25 25 25 24 24 23 23 23 23 22 22 22 23 22 22 22 22 22 22 22 22 22 22 22 22 23 23 23 23 23 23 22 22 22
19 19 19 20 20 19 20 21 21 22 22 21 20 21 22 22 22 22 22 22 23 24 24 25 25 25 25 25 25 25 25 24 24 24 23 23 23 23 22 22 22 22 22 22 22 22 22 22 22 22 22 22 22 22 22 23 23 23 23 23 23 23 23
18 18 19 19 19 19 19 20 21 21 21 20 19 20 20 21 21 21 22 22 22 23 23 24 24 24 24 24 24 24 24 24 24 24 24 23 23 23 22 22 22 22 22 22 22 22 22 22 22 22 22 22 22 22 22 23 23 23 23 23 23 23 23
18 18 18 18 18 19 19 20 20 20 20 19 19 19 19 20 20 20 21 21 21 22 22 23 23 23 23 23 23 23 23 23 24 24 24 23 23 23 23 23 23 23 22 22 22 22 22 22 22 22 22 22 22 23 23 23 23 23 23 23 22 22 22
18 18 18 18 18 18 19 19 20 19 19 18 19 19 19 19 19 19 20 20 21 21 22 22 22 23 23 23 23 23 23 23 23 24 24 24 24 24 24 23 23 23 23 23 23 23 23 23 23 22 22 22 22 23 23 23 23 22 22 22 22 22 21
17 18 18 18 18 18 18 19 19 19 18 18 18 18 19 19 19 19 19 20 21 21 21 22 22 22 22 23 23 23 23 23 23 24 24 24 24 24 24 24 23 23 23 23 23 23 23 23 23 22 22 22 22 22 23 23 22 22 22 21 21 21 21
17 17 17 17 17 18 18 18 18 18 18 18 18 18 18 19 19 19 19 20 20 21 21 21 22 22 22 22 22 23 23 23 24 24 24 24 24 23 23 24 23 23 23 23 23 23 23 23 23 23 22 22 22 22 22 22 22 22 22 21 21 21 21
17 17 17 17 17 17 17 17 18 18 18 18 18 18 18 18 19 19 19 19 20 20 21 21 21 22 22 22 22 23 23 23 23 23 23 23 23 23 23 23 23 23 22 22 22 22 22 22 22 22 22 22 22 22 22 22 22 21 21 21 21 21 21

ECMWFFLT1_850_temp_039.txt.gz
Temp
28 28 28 27 27 26 26 26 26 25 25 25 24 24 24 23 23 22 22 22 21 21 21 21 21 21 22 23 24 24 24 23 24 24 24 23 23 23 23 23 23 22 22 22 22 22 23 22 22 22 22 22 22 22 21 21 21 21 21 21 21 21 21
29 28 28 27 27 27 26 26 26 26 25 25 25 24 24 23 23 23 22 22 21 21 21 21 21 22 22 23 24 24 24 24 24 24 24 24 23 23 23 23 23 23 22 22 22 22 22 22 22 22 22 22 22 22 22 22 21 21 21 21 21 21 21
29 28 28 28 27 27 27 26 26 26 26 25 25 24 24 24 23 23 22 22 21 21 21 21 22 22 22 23 24 24 24 24 24 24 24 24 24 23 23 23 24 24 23 22 22 22 21 22 22 22 22 23 23 22 22 22 22 22 22 21 21 21 21
29 29 28 28 27 27 27 27 26 26 26 25 25 25 24 24 23 23 22 22 22 21 21 21 22 22 22 23 23 24 24 24 24 24 24 24 24 24 23 23 23 24 23 23 22 22 21 21 22 22 22 22 23 23 22 22 22 22 22 22 21 21 21
30 29 29 28 28 27 27 27 27 26 26 26 25 25 25 24 23 23 23 22 22 22 22 22 21 21 21 22 23 24 24 25 25 24 24 24 24 24 24 23 23 24 24 23 23 22 22 22 22 22 22 22 22 23 23 22 22 22 22 22 22 21 21
30 29 29 29 28 28 28 27 27 27 26 26 26 25 25 24 24 23 23 23 22 22 22 21 21 21 21 21 21 23 24 24 25 25 25 25 24 24 24 24 24 24 24 24 23 23 22 22 22 22 22 22 22 23 23 23 23 23 23 22 22 22 21
30 30 29 29 29 29 28 28 27 27 27 26 26 25 25 25 24 24 23 23 23 22 22 21 21 21 21 21 21 22 23 24 24 24 25 25 25 25 25 24 24 24 24 24 24 23 23 23 22 22 22 22 22 23 23 23 23 23 23 23 23 22 22
30 30 30 30 30 29 29 28 28 27 27 26 26 25 25 25 25 24 24 23 23 23 22 22 22 21 21 21 21 22 23 23 24 24 24 25 25 25 25 25 25 24 24 24 24 24 23 23 23 22 22 22 22 22 23 23 23 23 23 23 23 23 22
31 30 30 30 30 30 29 28 28 28 27 27 26 26 25 25 25 24 24 24 23 23 23 22 22 22 22 21 21 22 23 23 23 24 24 24 25 25 25 25 25 25 24 24 24 24 24 23 23 22 22 22 22 22 23 23 23 23 24 24 23 23 23
31 30 30 30 30 30 29 28 28 27 27 27 26 26 25 25 25 25 24 24 24 23 23 23 22 22 22 22 22 22 22 23 23 23 24 24 24 25 25 25 25 25 25 25 24 24 24 24 23 23 22 22 22 22 23 23 23 23 24 24 24 24 24
31 31 30 30 30 29 29 28 28 27 27 27 27 26 26 25 25 25 25 24 24 24 23 23 23 22 22 22 22 22 22 23 23 23 24 24 24 25 25 25 25 25 25 25 24 24 24 24 23 23 22 22 23 23 23 23 23 24 24 24 24 24 24
31 31 30 30 30 29 29 28 28 28 28 27 27 27 26 26 25 25 25 25 24 24 23 23 23 22 22 22 22 22 23 23 23 23 24 24 25 25 25 25 25 25 25 25 25 24 24 24 24 23 23 23 23 23 23 23 23 24 24 24 24 24 24
31 31 30 30 30 30 29 29 29 29 28 28 28 27 27 26 26 25 25 25 25 24 24 23 22 22 22 22 22 22 23 23 24 24 24 25 25 25 25 25 25 25 25 25 25 24 24 24 24 24 24 24 24 24 24 24 24 24 24 24 24 23 23
31 30 30 30 30 30 30 30 29 29 29 29 28 27 27 27 26 26 26 25 25 25 24 23 23 23 22 22 22 22 23 24 24 25 25 25 25 25 25 25 25 25 25 25 25 25 25 25 25 25 25 25 24 24 24 24 23 23 24 23 23 23 23
31 31 30 30 30 30 30 30 30 29 29 29 28 28 27 27 27 26 26 26 26 25 25 24 24 23 23 23 22 23 23 24 24 25 25 25 25 25 25 25 25 25 25 25 25 25 25 25 25 25 25 25 25 24 24 23 23 23 24 24 24 23 23
31 30 30 30 30 30 30 30 30 29 29 28 28 28 28 27 27 27 26 26 26 26 25 25 24 24 24 23 23 23 23 24 24 25 25 25 25 26 26 26 25 25 25 25 25 25 25 25 24 24 25 25 25 24 24 23 24 24 24 24 24 24 24
31 30 30 30 30 30 30 30 30 30 29 29 29 28 28 27 27 27 27 26 26 26 26 26 25 25 24 24 24 24 24 24 24 25 25 26 26 26 26 26 26 25 25 25 25 25 25 25 24 24 24 24 24 24 24 24 24 24 24 24 24 24 24
31 31 31 30 30 30 30 30 30 30 30 29 29 29 28 28 28 27 27 27 27 27 26 26 26 26 25 25 25 24 24 24 24 24 25 26 26 26 26 26 26 26 25 25 25 25 25 25 25 24 24 24 24 24 24 24 25 25 24 24 24 24 24
31 31 31 30 30 30 30 30 30 30 30 30 30 29 29 28 28 28 28 28 27 27 27 27 26 26 26 26 25 25 25 25 24 24 25 25 25 26 26 26 26 26 25 25 25 25 25 26 25 25 24 24 24 24 24 25 25 25 25 24 24 24 24
30 30 30 30 30 30 30 30 29 29 29 29 29 29 29 29 28 28 28 28 28 28 27 27 27 27 27 26 26 26 25 25 25 25 25 25 25 25 25 25 26 26 25 25 25 25 26 26 26 25 25 24 24 25 25 25 25 25 25 25 24 24 24
28 28 28 29 29 29 29 29 29 29 29 29 29 29 29 29 29 29 29 29 28 28 28 28 27 27 27 27 27 26 26 26 26 26 26 25 25 25 25 25 25 25 25 25 25 26 26 26 26 26 26 26 25 25 25 26 26 25 25 25 24 24 23
26 26 26 27 28 28 29 29 29 29 29 29 29 29 29 29 29 29 29 29 29 28 28 28 28 28 28 27 27 27 26 26 26 26 26 26 26 25 25 25 25 25 25 25 25 25 25 25 26 26 26 26 26 25 26 26 26 25 24 24 23 23 23
25 25 25 25 26 27 28 29 29 30 30 29 29 29 29 29 29 29 29 29 29 29 28 28 28 28 28 28 28 27 27 27 26 26 26 26 26 26 26 25 25 25 25 24 24 24 25 25 25 26 26 26 26 26 26 26 25 24 24 23 23 22 22
24 24 24 25 25 26 26 28 28 28 29 30 30 30 29 29 28 28 29 29 29 29 28 28 28 28 28 28 28 28 28 27 27 26 26 26 26 26 26 26 25 25 25 25 24 24 24 24 25 25 25 25 25 26 26 25 24 24 23 23 22 22 22
24 24 24 24 25 25 25 26 26 26 26 27 28 28 29 28 28 28 28 28 28 29 29 29 28 28 28 28 28 28 28 27 27 27 26 26 26 26 26 26 26 25 25 25 25 24 24 24 24 24 24 24 25 25 24 24 24 23 23 23 22 22 22
23 24 24 24 24 24 24 24 25 25 25 25 25 25 26 27 28 28 28 28 28 28 28 29 29 29 28 28 28 28 28 28 27 27 26 26 26 26 26 26 26 25 25 25 24 24 24 24 24 24 24 24 24 24 23 23 23 23 23 23 22 22 22
22 23 23 22 22 24 24 23 24 24 24 24 25 25 25 26 27 27 27 27 28 28 28 28 29 29 29 28 28 28 28 28 27 27 26 26 26 26 25 26 26 25 25 24 24 24 24 24 24 24 24 24 23 23 23 23 23 23 23 22 22 22 22
21 22 23 22 22 23 23 22 23 24 23 23 24 25 24 25 26 27 27 27 27 27 27 28 28 28 29 28 28 28 28 28 27 27 26 26 26 25 25 25 25 25 25 24 24 24 23 23 23 23 23 23 23 23 23 23 23 23 22 22 22 22 22
20 21 21 21 21 22 22 22 22 22 22 22 23 24 24 24 24 25 25 26 26 27 27 28 28 28 28 28 28 28 28 27 27 27 26 26 26 25 25 25 25 25 24 24 24 23 23 23 23 23 23 23 23 23 23 22 22 22 22 22 22 22 22
19 19 20 20 20 21 22 22 21 21 21 21 22 23 23 23 23 24 24 25 26 26 27 27 27 28 28 28 28 28 28 27 27 26 26 26 25 25 25 24 24 24 24 24 23 23 23 23 23 23 23 22 22 22 22 22 22 22 22 22 22 22 22
18 18 19 19 19 20 21 21 21 21 21 21 21 22 22 22 23 23 24 24 24 25 26 26 27 27 27 27 27 27 27 27 26 26 26 25 25 25 24 24 24 24 23 23 23 22 22 22 22 22 22 22 22 22 22 22 22 22 22 22 22 22 22
18 18 18 18 18 19 20 21 21 21 21 20 20 21 21 21 22 22 23 23 24 24 25 26 26 26 26 26 27 27 27 26 26 25 25 25 25 25 24 24 23 23 23 23 22 22 22 22 22 22 22 22 22 22 22 22 22 22 22 22 22 22 22
18 18 18 18 18 18 19 20 20 20 20 20 20 21 21 21 21 21 22 22 23 23 24 25 25 25 25 26 26 26 26 26 25 25 25 24 24 24 24 24 23 23 22 22 22 22 22 22 22 22 22 22 22 22 22 22 22 22 22 22 22 22 22
18 18 18 18 18 18 19 19 19 19 19 19 19 20 20 20 20 21 21 22 22 23 24 24 24 24 24 25 25 25 25 25 25 24 24 24 24 24 23 23 23 23 22 22 22 22 22 22 22 22 22 22 22 22 22 22 22 22 22 22 22 22 22
17 17 17 18 18 18 19 19 18 18 19 19 19 19 19 19 19 20 21 21 21 22 23 23 23 23 24 24 24 24 24 24 24 24 24 24 23 23 23 23 23 22 22 22 22 22 22 22 22 22 22 22 22 22 22 22 22 22 22 22 22 22 22
17 17 17 17 17 18 18 18 18 18 18 18 18 19 19 19 19 19 20 20 21 21 22 22 23 23 23 23 23 23 23 24 24 24 23 23 23 23 23 23 22 22 22 22 22 22 22 22 22 22 22 22 22 22 22 22 21 21 21 21 21 21 21
17 17 17 17 17 17 18 18 18 18 18 18 18 18 18 18 19 19 19 20 20 21 21 21 22 22 23 23 23 23 23 23 23 23 23 23 23 23 23 23 22 22 22 22 22 22 22 21 21 21 21 21 22 22 21 21 21 21 21 21 21 21 21
17 17 17 17 17 17 17 17 18 18 18 18 18 18 18 18 19 19 19 20 20 20 20 21 21 22 22 22 22 22 23 23 23 23 23 23 23 23 23 23 22 22 21 21 21 21 21 21 21 21 21 21 21 21 21 21 21 21 20 20 20 20 21

ECMWFFLT1_850_temp_042.txt.gz
Temp
27 26 26 25 25 25 25 25 25 24 24 24 24 24 23 23 23 22 22 22 22 22 22 21 21 21 21 21 21 21 21 22 22 22 22 22 23 23 23 23 23 23 23 23 23 23 23 23 22 22 22 22 22 22 22 22 21 21 21 21 20 20 20
27 26 26 26 25 25 25 25 25 24 24 24 24 24 23 23 23 23 22 22 22 22 22 22 22 22 22 21 21 21 21 21 22 22 22 22 22 22 23 23 23 23 23 23 23 23 23 23 22 22 22 22 22 22 22 22 21 21 21 21 21 20 20
27 27 26 26 26 25 25 25 25 25 24 24 24 24 24 23 23 23 23 23 22 22 22 22 22 22 22 22 22 21 21 21 22 22 22 22 22 22 22 23 23 23 23 23 23 23 23 23 22 22 22 22 22 22 22 22 22 21 21 21 21 21 21
27 27 27 26 26 25 25 25 25 25 25 24 24 24 24 24 23 23 23 23 23 22 22 22 22 22 22 22 22 22 22 22 22 22 23 23 23 23 22 23 23 23 23 23 23 23 23 23 23 22 22 22 22 22 22 22 22 22 21 21 21 21 21
27 27 27 26 26 25 25 25 25 25 25 24 24 24 24 24 23 23 23 23 23 22 22 22 22 21 21 21 21 22 22 22 22 23 23 23 23 23 23 23 23 23 23 23 23 23 23 23 23 23 22 22 22 22 22 22 22 22 21 21 21 21 21
27 27 27 26 26 26 25 25 25 25 25 24 24 24 24 24 23 23 23 23 23 23 22 22 22 21 21 21 21 21 21 21 22 22 23 23 23 23 23 23 23 23 23 23 23 23 23 23 23 23 23 23 22 22 22 22 22 22 22 22 22 22 21
27 27 27 27 26 26 26 25 25 25 25 25 25 24 24 24 23 23 23 23 23 22 22 22 22 21 21 21 21 21 21 21 21 22 22 22 22 23 23 23 23 23 23 23 23 23 23 23 23 23 23 23 23 23 22 22 22 22 22 22 22 22 22
28 27 27 27 27 26 26 26 25 25 25 25 24 24 24 24 24 23 23 23 23 22 22 22 22 22 22 21 21 21 21 21 22 22 22 22 22 22 23 23 23 23 23 23 23 23 23 23 23 23 23 23 23 23 23 23 23 23 22 22 22 22 22
28 28 28 27 27 26 26 26 25 25 25 25 24 24 24 24 24 23 23 23 23 22 22 22 22 22 22 22 22 22 22 21 22 22 22 22 22 22 22 23 23 23 23 23 24 24 24 24 24 24 24 23 23 23 23 23 23 23 23 23 23 23 23
29 28 28 28 27 27 26 26 26 25 25 25 24 24 24 24 24 24 24 23 23 23 23 23 22 22 22 22 22 22 21 21 21 22 22 22 22 22 22 23 23 23 23 23 23 24 24 24 24 24 24 24 24 24 24 24 24 24 23 23 23 23 23
29 28 28 27 27 27 26 26 26 25 25 25 25 25 25 24 24 24 24 23 23 23 23 22 22 22 22 22 22 21 21 21 22 22 22 23 23 23 23 23 23 23 23 23 23 24 24 24 24 24 24 24 24 24 24 24 24 24 24 24 24 24 24
28 28 28 27 27 27 26 26 26 26 25 25 25 25 25 25 25 24 24 23 23 23 23 22 22 22 22 22 22 21 21 21 22 22 23 23 23 23 23 23 23 23 23 23 23 24 24 24 24 24 24 24 24 24 24 24 24 24 24 24 24 24 24
29 28 27 27 27 27 27 26 26 26 26 26 26 25 25 25 25 24 24 23 23 23 23 23 22 22 22 22 22 21 21 21 22 22 23 23 23 23 23 23 23 23 23 24 24 24 24 24 24 24 24 24 24 24 24 24 24 24 24 24 24 24 24
28 28 28 28 28 27 27 27 26 26 26 26 26 25 25 25 25 24 24 24 23 23 23 23 23 23 22 22 22 22 21 22 22 23 23 24 24 24 23 23 23 23 24 24 24 24 24 24 25 25 25 25 25 25 24 24 24 24 24 24 24 24 24
28 28 28 28 28 28 28 27 27 26 26 26 26 26 25 25 25 25 24 24 24 24 23 23 23 23 23 22 22 22 22 22 22 23 24 24 24 24 23 23 23 23 23 24 24 24 25 25 25 25 25 25 25 25 24 24 24 24 24 24 24 24 24
28 28 28 28 28 28 28 28 27 27 26 26 26 26 25 25 25 25 25 25 24 24 24 23 23 23 23 23 23 23 23 23 23 23 23 23 23 24 24 23 23 23 23 24 24 25 25 25 25 25 25 25 25 25 24 24 25 25 25 25 25 24 24
28 28 28 28 28 28 28 28 27 27 27 27 27 27 26 26 25 25 25 25 25 24 24 24 23 23 23 23 23 23 23 23 23 23 23 23 23 23 23 23 23 23 23 23 24 24 25 25 25 25 25 25 25 25 24 25 25 25 25 25 25 24 24
29 29 28 28 28 28 28 28 27 27 27 28 28 28 28 27 26 25 25 25 25 24 24 24 24 24 24 24 24 23 23 23 23 23 23 23 22 23 23 23 23 22 22 23 23 24 24 24 25 25 25 25 25 25 25 25 25 25 25 25 25 24 23
28 28 28 28 28 28 28 28 28 28 28 28 29 29 29 28 27 26 26 26 25 25 25 24 24 24 24 24 24 24 24 24 24 23 23 23 22 22 22 22 22 22 22 22 23 23 24 24 25 25 25 25 25 25 25 26 26 25 25 25 25 24 23
27 27 27 27 28 28 28 28 28 28 28 28 29 29 28 28 28 28 27 27 26 26 25 25 25 24 24 24 24 24 24 24 24 24 24 23 23 23 22 22 22 22 22 22 22 23 23 24 24 25 25 25 25 26 26 26 26 26 25 25 25 24 23
26 26 27 27 27 27 27 27 27 27 27 27 27 27 27 27 27 27 27 27 27 26 26 26 25 25 25 25 25 25 25 25 24 24 24 24 24 23 23 23 23 23 22 22 22 23 23 24 24 24 25 25 25 25 26 26 26 26 25 25 25 24 23
24 25 26 26 27 27 27 27 27 27 27 26 26 26 26 26 26 27 27 27 26 26 26 26 26 25 25 25 25 25 25 25 25 25 25 25 24 24 24 23 23 23 23 23 23 23 23 23 24 24 24 25 25 24 25 26 26 25 25 25 24 24 23
24 24 25 25 26 26 26 27 27 27 27 27 27 27 27 27 27 27 27 27 27 27 27 26 26 26 26 26 26 26 25 25 25 25 25 25 25 25 24 24 24 24 24 24 23 23 23 23 24 24 24 24 24 24 25 25 25 24 24 24 23 23 22
23 24 24 24 25 26 26 26 27 27 27 27 27 27 27 27 27 27 27 27 27 27 27 27 27 27 26 26 26 26 26 26 26 26 26 25 25 25 25 25 25 25 25 24 24 24 24 24 24 24 24 24 24 24 24 24 24 23 23 23 22 22 22
23 23 24 24 25 25 25 26 26 27 27 28 28 27 27 27 27 27 27 27 27 27 27 27 27 27 27 27 27 27 27 26 26 26 26 26 26 26 26 26 26 26 25 25 25 25 25 25 24 24 25 24 24 24 24 23 23 23 23 22 22 22 22
22 22 23 24 25 25 25 26 26 26 27 27 27 27 27 27 27 27 27 27 27 27 27 27 27 27 27 27 27 27 27 27 27 27 26 26 26 26 26 26 26 26 25 25 25 25 25 24 24 24 25 25 24 24 24 24 23 23 22 22 22 22 22
21 22 22 23 24 25 25 25 26 26 26 26 26 26 27 27 27 27 27 27 27 27 27 27 27 27 27 27 27 27 27 27 27 27 27 27 27 27 27 26 26 26 26 26 25 25 25 25 24 24 24 24 24 24 24 24 23 23 23 23 23 22 22
21 22 22 22 23 24 25 25 26 26 26 26 26 27 27 27 26 26 26 27 27 27 27 27 27 27 28 28 28 28 28 28 27 27 27 27 27 27 26 26 26 26 26 26 25 25 25 25 25 24 24 24 24 24 23 23 23 23 23 23 23 22 22
20 20 21 22 22 23 23 25 26 26 25 24 25 26 26 26 26 26 26 26 26 27 27 27 27 27 28 28 28 28 28 28 28 28 27 27 27 26 26 26 26 26 26 25 25 25 25 25 24 24 24 24 23 23 23 23 22 22 22 22 22 22 22
19 19 20 21 21 22 22 23 24 24 24 23 24 24 24 25 25 25 24 24 25 26 26 27 27 27 27 28 28 28 28 28 28 28 27 27 27 26 26 26 26 25 25 25 25 25 25 24 24 24 24 23 23 23 23 22 22 22 22 22 22 22 22
18 18 19 20 21 21 21 22 22 22 22 22 22 23 23 23 23 23 23 23 24 24 25 26 26 27 27 27 28 28 28 28 28 28 27 27 27 26 26 26 25 25 25 25 25 25 24 24 24 24 23 23 23 23 22 22 22 22 22 22 22 22 22
17 18 18 19 19 20 20 20 21 20 20 20 20 21 22 22 21 21 22 22 23 23 24 24 25 26 26 27 28 28 28 28 28 28 27 27 26 26 26 25 25 25 25 25 24 24 24 24 23 23 23 23 23 22 22 22 22 22 22 22 21 21 22
17 17 18 18 18 19 19 19 20 19 19 19 20 20 21 21 21 21 21 21 22 22 23 23 24 25 26 26 27 27 27 27 27 27 27 26 26 25 25 25 25 25 24 24 24 24 23 23 23 23 23 22 22 22 22 22 22 22 21 21 21 21 21
17 17 18 18 18 19 19 19 19 19 19 19 20 20 20 21 21 20 21 21 21 22 23 23 23 24 25 26 26 27 27 27 27 27 26 26 25 25 25 24 24 24 24 24 24 23 23 23 23 23 22 22 22 22 22 21 21 21 21 21 21 21 21
17 17 17 18 18 18 18 18 18 19 19 19 19 19 19 19 19 20 20 20 21 21 22 23 23 23 24 25 26 26 26 26 26 26 26 25 25 24 24 24 24 24 23 23 23 23 23 22 22 22 22 22 22 21 21 21 21 21 21 21 21 21 21
17 17 17 18 18 18 18 18 18 18 19 19 18 18 18 18 19 19 19 19 20 21 22 22 22 23 23 24 25 25 25 25 25 25 25 25 24 24 24 24 23 23 23 23 23 22 22 22 22 22 22 22 21 21 21 21 21 21 21 21 21 21 21
17 17 17 18 18 18 18 18 17 18 18 18 18 18 18 18 18 18 19 19 19 20 21 21 22 22 23 23 24 24 24 24 24 24 24 24 24 24 23 23 23 23 23 22 22 22 22 22 21 21 21 21 21 21 21 21 21 21 21 21 21 21 21
16 17 17 18 17 17 17 17 17 17 17 18 18 18 18 18 18 18 19 19 19 20 20 21 21 22 22 23 23 23 23 23 23 23 23 23 23 23 23 23 23 22 22 21 21 21 21 21 21 21 21 21 21 21 21 21 21 20 20 20 20 20 20

ECMWFFLT1_850_temp_045.txt.gz
Temp
26 25 25 24 24 24 24 24 24 23 23 23 23 22 22 22 22 21 22 22 22 22 22 21 21 21 21 21 21 21 21 20 20 20 21 21 22 22 22 22 22 22 22 22 22 22 22 22 22 22 21 21 22 21 21 21 21 21 20 20 20 20 20
26 25 25 25 24 24 24 24 24 24 23 23 23 23 22 22 22 22 22 22 22 22 22 22 22 21 21 21 21 21 21 20 20 20 20 21 21 22 22 22 22 22 22 22 22 22 22 22 22 22 22 21 22 21 21 21 21 21 21 20 20 20 20
26 26 25 25 25 25 24 24 24 24 24 23 23 23 23 22 22 22 22 22 22 22 22 22 22 22 22 21 21 21 21 20 21 21 21 21 21 22 22 22 22 22 22 22 22 22 22 22 22 22 22 22 22 22 21 21 22 21 21 21 21 21 21
26 26 26 25 25 25 25 25 24 24 24 24 23 23 23 23 22 22 22 22 22 22 22 22 22 22 22 22 21 21 21 20 21 21 21 21 22 22 22 22 22 21 21 22 22 22 22 22 22 22 22 22 22 22 22 22 22 22 21 21 21 21 21
26 26 26 25 25 25 25 25 24 24 24 24 24 23 23 23 22 22 22 22 22 22 23 22 22 22 22 22 22 21 21 21 21 21 21 21 21 21 22 22 22 22 22 22 22 22 22 22 22 22 22 22 22 22 22 22 22 22 22 21 21 21 21
27 26 26 26 25 25 25 25 25 25 24 24 24 24 23 23 22 22 22 22 22 22 22 22 22 22 22 22 22 21 21 21 21 21 21 21 21 21 22 22 22 22 22 22 22 22 22 22 23 22 22 22 22 22 22 22 22 22 22 22 22 21 21
27 27 26 26 26 25 25 25 25 25 24 24 24 23 23 23 22 22 22 22 22 22 22 22 22 22 22 22 22 22 21 21 21 21 21 21 21 21 22 22 22 22 22 22 22 22 22 22 22 22 23 23 23 23 22 22 22 22 22 22 22 22 21
27 27 26 26 26 25 25 25 25 25 24 24 24 23 23 23 23 22 22 22 22 22 22 22 22 22 22 22 22 22 22 21 21 21 21 21 21 21 22 22 22 22 22 22 22 22 22 23 23 22 23 23 23 23 23 23 22 22 22 22 22 22 22
28 27 27 27 26 26 25 25 25 25 24 24 24 24 23 23 23 22 22 22 22 22 22 22 22 22 22 22 22 22 22 22 22 21 21 21 21 21 22 22 22 22 22 22 22 22 23 23 23 22 23 23 23 23 23 23 23 22 22 22 22 22 22
28 28 27 27 26 26 25 25 25 25 24 24 24 24 23 23 23 23 22 22 22 22 22 22 22 22 22 22 22 22 22 22 22 22 21 21 21 22 22 22 22 22 22 22 22 22 23 23 23 23 23 23 23 23 23 23 23 23 23 23 22 22 22
28 28 27 27 26 26 25 25 25 25 25 24 24 24 23 23 23 23 22 22 22 22 22 22 22 22 22 22 22 22 22 22 22 21 21 21 21 22 22 22 22 22 22 22 22 23 23 23 23 23 23 23 23 23 23 23 23 23 23 23 23 23 23
28 27 27 27 26 26 25 25 25 25 25 25 24 24 24 23 23 23 23 22 22 22 22 22 22 22 22 22 22 22 22 22 22 22 21 21 21 22 22 22 22 22 23 23 23 23 23 23 23 23 23 23 23 23 24 24 23 23 23 23 23 23 23
27 27 27 27 27 26 26 25 25 25 25 25 24 24 24 24 23 23 23 23 22 22 22 22 22 22 22 22 22 22 22 22 22 22 22 22 22 22 22 22 22 22 23 23 23 23 23 23 23 23 23 23 23 24 24 24 24 24 24 24 24 24 24
27 27 27 27 26 26 26 25 25 26 25 25 25 24 24 24 24 23 23 23 22 22 22 22 22 22 22 22 22 22 23 23 23 22 22 22 22 22 22 22 22 22 22 23 23 23 23 23 23 24 24 24 24 24 24 24 24 24 24 24 24 24 24
27 27 26 26 26 26 26 25 25 26 25 25 25 24 24 24 24 23 23 23 23 22 22 22 22 22 22 22 22 23 23 23 23 23 23 22 22 22 22 22 22 22 22 22 23 23 24 24 24 24 24 24 24 24 24 24 24 24 24 24 24 24 24
27 27 26 26 26 26 26 26 26 26 25 25 25 24 24 24 24 24 23 23 23 22 22 22 22 22 22 22 22 23 23 23 23 23 22 22 22 22 22 22 21 21 21 22 22 23 23 24 24 24 24 24 24 24 24 24 24 24 24 24 24 24 24
27 27 26 27 26 26 26 26 26 25 25 25 25 25 25 24 24 24 24 23 23 23 23 22 22 22 22 22 23 23 23 23 23 22 22 22 22 22 22 22 22 21 21 21 22 23 23 24 24 24 24 24 24 24 24 24 24 25 24 24 24 24 24
27 27 27 27 26 26 26 26 25 25 25 25 25 25 25 25 25 24 24 24 23 23 23 22 22 22 22 22 23 23 23 22 22 22 22 22 22 22 22 22 22 22 21 21 22 22 23 23 24 24 24 24 24 25 25 25 25 25 25 25 25 24 24
27 27 27 27 27 26 26 26 26 26 26 26 26 26 27 26 26 25 25 24 24 23 23 22 22 22 22 23 23 23 23 23 22 22 22 22 22 22 22 22 22 22 22 21 21 22 22 23 24 24 24 24 24 25 25 25 25 25 25 25 25 25 24
27 27 27 27 27 26 26 26 26 26 26 26 26 27 27 27 26 26 26 24 23 23 23 23 22 22 23 23 24 23 23 23 23 23 23 23 23 22 22 22 22 22 22 22 21 21 22 23 24 24 25 25 25 25 25 25 25 25 25 25 25 25 24
27 27 26 26 26 26 26 26 26 26 26 26 26 26 26 26 25 25 24 24 24 24 23 23 23 23 24 24 24 24 24 24 23 23 23 23 23 23 22 22 22 22 22 22 22 22 23 23 24 24 25 25 25 25 25 25 25 25 25 25 25 24 23
26 26 26 26 26 26 26 26 26 26 26 26 26 25 25 25 25 25 25 25 24 24 24 24 24 24 24 24 24 24 24 24 24 24 24 23 23 23 23 23 23 23 22 22 22 22 23 23 24 25 25 25 25 24 25 25 25 25 25 25 24 23 22
25 26 26 26 26 26 26 26 26 26 26 26 25 25 25 25 25 25 25 25 24 25 24 24 24 24 25 25 25 25 25 24 24 24 24 24 24 23 23 23 23 23 23 23 23 23 23 24 24 25 25 25 25 25 25 25 25 25 25 24 24 23 22
23 24 25 26 26 26 26 26 26 26 26 26 26 26 26 25 25 25 25 25 25 25 24 24 24 24 25 25 25 25 25 25 25 25 25 24 24 24 24 24 24 24 24 23 23 24 24 24 24 25 25 25 25 25 25 25 25 25 24 24 23 23 22
21 22 23 25 25 26 26 26 26 25 26 26 25 25 26 26 26 25 25 25 25 25 25 25 25 25 25 25 26 26 26 26 25 25 25 25 25 25 25 25 25 25 24 24 24 24 24 24 24 24 25 25 25 25 24 24 25 24 24 24 23 23 22
20 21 22 23 24 24 24 25 25 25 25 25 25 25 25 26 26 25 25 26 26 26 26 25 25 26 26 25 26 26 26 26 26 26 25 25 25 25 25 25 25 25 25 24 24 24 24 24 24 24 24 24 24 24 24 24 24 24 24 24 23 23 23
20 21 22 22 23 23 24 24 25 25 25 25 25 25 25 25 26 25 25 25 25 25 25 25 25 25 25 25 25 25 25 25 25 26 26 26 26 26 26 25 25 25 25 25 25 25 24 24 24 24 24 24 24 24 24 24 24 24 24 23 23 23 23
20 20 21 23 24 24 25 25 25 25 25 25 25 25 25 25 25 25 25 25 25 24 24 24 25 25 25 25 25 25 25 25 25 25 25 26 26 26 26 26 26 25 25 25 25 25 25 25 24 24 24 24 24 24 24 24 24 24 23 23 23 23 22
19 19 20 21 22 24 25 26 26 26 26 26 26 26 26 26 25 25 25 25 25 25 25 25 25 25 25 25 25 25 25 25 25 25 25 25 26 26 26 26 26 26 25 25 25 25 25 25 24 24 24 24 23 23 24 24 24 23 23 23 23 23 22
18 19 19 19 20 22 24 26 26 25 25 25 26 26 27 27 27 26 25 25 25 25 25 25 25 25 25 26 26 26 26 26 26 26 26 26 26 26 26 26 26 25 25 25 25 25 25 25 24 24 23 23 23 23 23 23 23 23 23 23 23 23 22
18 18 18 18 19 19 21 22 23 23 24 24 24 25 26 26 26 26 26 26 25 25 25 25 25 26 26 26 26 26 27 27 27 27 26 26 26 26 26 26 25 25 25 25 25 25 25 25 24 24 24 23 23 23 23 23 23 23 23 23 22 22 22
17 17 18 18 18 18 19 20 20 21 22 22 23 24 24 25 25 25 25 25 25 25 25 25 25 26 26 26 26 27 27 27 27 27 27 27 26 26 26 26 25 25 25 25 25 25 24 24 24 24 24 23 23 23 23 23 23 23 23 22 22 22 22
17 17 17 17 18 18 19 19 20 20 20 21 21 22 22 23 24 24 24 24 24 24 24 24 24 25 25 25 26 26 27 27 27 28 27 27 27 26 26 26 25 25 25 25 25 24 24 24 24 23 23 23 23 23 23 23 23 22 22 22 21 21 21
16 17 17 17 17 18 18 19 19 19 20 20 20 20 21 21 22 22 23 23 23 23 23 23 23 23 24 24 25 26 26 27 27 27 27 27 26 26 26 25 25 24 24 24 24 24 24 24 23 23 23 23 23 23 22 22 22 22 22 21 21 21 21
16 16 16 16 17 17 18 18 18 19 19 19 19 19 20 20 21 21 22 22 23 23 23 23 22 22 22 23 24 25 26 26 26 26 26 26 26 26 26 25 25 24 24 24 24 23 23 23 23 23 23 23 23 22 22 22 22 22 21 21 21 21 21
16 16 16 16 17 17 17 17 18 18 18 18 18 19 20 20 20 20 21 21 22 22 23 23 22 22 22 22 23 24 25 25 25 25 25 26 26 26 26 25 25 24 24 23 23 23 23 22 22 22 22 22 22 22 22 21 21 21 21 21 21 21 21
16 16 16 17 17 16 17 17 17 18 18 18 18 19 19 19 19 19 19 20 20 21 21 21 22 22 22 22 22 23 24 25 25 25 25 25 25 25 25 25 24 24 23 23 23 22 22 22 22 22 22 21 21 21 21 21 21 21 21 21 21 21 21
16 16 17 17 17 16 16 17 17 17 17 17 18 18 18 18 18 19 19 19 19 19 20 20 21 21 21 21 22 22 23 24 24 24 24 24 24 24 24 24 24 24 23 22 22 22 22 22 22 22 21 21 21 21 21 21 21 21 21 21 20 20 20

ECMWFFLT1_850_temp_048.txt.gz
Temp
24 24 24 24 23 23 23 23 23 22 22 22 21 21 21 21 21 21 21 21 21 21 21 21 21 21 21 21 21 21 21 21 21 21 21 21 21 21 21 21 21 21 21 22 22 22 21 21 21 21 21 21 21 21 21 21 21 21 20 20 20 20 20
25 24 24 24 24 23 23 23 23 23 22 22 22 21 21 21 21 21 21 21 21 22 22 22 22 22 21 21 21 21 21 21 21 21 21 21 21 21 21 21 21 21 21 21 21 21 21 21 21 21 21 21 21 21 21 21 21 21 21 20 20 20 20
25 25 25 24 24 24 23 23 23 23 23 22 22 22 21 21 21 21 21 21 22 22 22 22 22 22 22 22 21 21 21 21 21 21 21 21 21 22 22 21 21 21 21 21 21 21 21 21 21 21 21 21 21 21 21 21 21 21 21 21 20 20 20
25 25 25 25 25 24 24 23 23 23 23 23 23 22 22 22 21 21 22 22 22 22 22 22 22 22 22 22 22 21 21 21 21 21 21 22 22 21 21 21 21 21 21 21 21 21 21 21 21 21 21 21 21 21 21 21 21 21 21 21 21 21 21
25 25 25 25 25 24 24 24 24 23 23 23 23 22 22 22 21 21 21 22 22 23 23 22 22 22 22 22 22 22 21 21 21 22 22 22 22 21 21 21 21 21 22 22 22 21 22 22 22 22 21 21 21 21 21 21 21 21 21 21 21 21 21
26 25 25 25 25 25 24 24 24 24 24 23 23 22 22 22 22 21 21 21 22 22 23 23 22 22 22 22 22 22 22 21 21 21 22 22 22 22 22 22 21 22 22 22 22 22 22 22 22 22 22 22 22 21 21 21 21 21 21 21 21 21 21
26 25 25 25 25 25 25 25 25 24 24 23 23 22 22 22 22 22 21 21 22 22 22 23 22 22 22 22 22 22 21 21 21 21 22 22 22 22 22 22 22 22 22 22 22 22 22 22 22 22 22 22 22 22 22 22 22 22 22 21 21 21 21
27 26 26 26 26 26 25 25 25 24 24 23 23 23 22 22 22 22 22 21 21 22 22 23 23 22 22 22 22 22 22 22 22 22 21 21 21 22 22 22 22 22 22 22 22 22 22 22 22 22 22 22 22 22 22 22 22 22 22 22 22 22 21
27 27 27 26 26 26 26 25 25 24 24 23 23 23 23 22 22 22 22 22 21 22 22 23 23 23 23 23 22 22 22 22 22 22 22 21 21 22 22 22 22 22 22 22 22 22 22 22 22 22 22 22 22 22 22 22 22 22 22 22 22 22 22
28 27 27 27 26 26 26 25 25 24 24 24 23 23 23 23 22 22 22 22 21 22 22 22 23 23 23 23 23 22 22 22 22 22 22 22 21 22 22 22 22 22 22 22 22 22 22 22 22 22 22 22 22 22 22 22 22 22 22 22 22 22 22
27 27 27 27 26 26 25 25 24 24 24 24 24 24 23 23 23 22 22 22 22 22 22 22 22 22 23 23 23 22 22 22 22 22 22 22 22 22 22 22 22 22 22 22 22 22 22 22 22 22 22 22 22 22 22 22 22 22 22 22 22 22 22
28 27 27 27 27 26 25 25 25 24 24 24 24 24 23 23 23 22 22 22 22 22 22 22 22 22 22 22 22 22 22 22 22 22 22 22 22 22 22 22 22 22 22 22 22 23 23 22 22 22 22 22 23 22 22 22 22 22 22 22 22 22 22
28 28 28 27 27 26 25 25 25 25 24 24 24 24 24 23 23 23 22 22 22 22 22 22 22 22 22 22 22 22 22 23 23 23 23 22 22 22 22 22 22 22 22 23 23 23 23 23 23 23 23 23 23 23 23 23 23 22 22 23 23 23 23
28 27 27 27 26 26 25 25 25 25 24 24 24 24 24 23 23 23 23 22 22 22 22 22 22 22 22 22 22 22 23 23 23 23 23 23 22 22 22 22 22 22 22 23 23 23 23 23 23 23 23 23 23 23 23 23 23 23 23 23 23 23 23
27 27 27 26 26 26 26 25 25 25 24 24 24 24 24 23 23 23 22 22 23 22 22 22 22 22 22 22 22 23 23 23 23 23 23 23 22 22 22 22 22 22 23 23 23 23 23 23 23 23 23 23 23 23 23 23 23 23 23 23 23 23 23
26 26 26 26 26 26 26 26 25 25 24 24 24 24 24 23 23 23 23 23 23 23 23 22 22 22 22 22 22 23 23 23 23 23 23 23 22 22 22 22 22 22 23 23 23 23 23 23 23 23 23 23 23 23 23 23 23 24 23 23 24 24 24
25 26 26 26 26 26 26 26 25 25 24 24 24 25 24 24 23 23 23 23 23 23 23 22 22 22 22 22 23 23 23 23 23 23 23 23 22 22 22 22 22 22 22 23 23 23 23 23 23 23 23 23 23 23 23 23 24 24 24 24 24 24 24
25 25 26 26 26 26 26 26 25 25 24 24 25 25 24 24 24 23 23 23 23 23 23 22 22 22 22 22 22 22 22 22 22 22 22 22 22 22 22 22 22 22 22 22 23 23 23 23 23 23 23 23 23 23 23 24 24 24 24 24 24 24 24
25 25 26 26 26 26 26 25 25 25 25 25 25 25 25 24 24 24 24 24 23 23 23 23 23 23 23 22 22 22 22 22 22 22 22 22 23 22 22 22 22 22 22 22 23 23 23 23 23 23 23 23 23 23 24 24 24 24 24 24 24 24 24
25 25 26 26 26 26 26 26 26 25 25 25 26 26 25 25 24 24 24 23 23 23 23 23 22 22 23 22 22 22 22 22 22 22 23 23 23 23 22 22 22 22 22 22 22 22 23 23 23 24 24 24 24 24 24 24 24 25 25 25 25 24 24
25 25 25 25 25 26 26 26 25 25 25 25 25 25 25 24 24 23 23 23 23 23 23 23 22 22 23 23 22 22 22 22 22 22 23 23 23 23 23 23 23 23 22 22 22 22 23 23 24 24 24 24 24 24 24 25 25 25 25 25 25 24 24
25 26 26 26 25 25 26 26 26 25 25 25 25 25 24 24 24 23 23 23 23 23 23 23 23 23 23 23 23 23 22 22 22 23 23 23 23 23 23 23 23 23 23 22 22 22 22 23 23 23 24 24 24 24 25 25 25 25 25 25 25 24 24
24 26 26 26 26 25 26 26 25 25 25 25 25 25 25 24 24 24 24 23 23 23 23 23 23 23 24 24 23 23 23 23 23 23 23 23 23 23 23 23 23 23 23 22 22 22 22 22 22 23 23 24 24 24 25 25 25 25 25 25 25 24 24
22 25 26 26 26 25 25 25 25 25 25 25 25 25 25 25 24 24 24 23 23 23 23 23 23 24 24 24 24 24 24 23 24 24 23 23 23 23 23 23 23 23 23 23 23 23 23 23 22 23 23 23 23 23 24 25 25 25 25 25 25 24 24
20 23 25 26 26 26 25 25 25 25 25 25 25 25 25 25 24 24 24 24 24 23 23 24 24 24 24 25 25 25 24 24 24 24 24 24 24 24 24 24 24 24 23 23 23 23 23 23 23 23 23 23 23 23 23 23 24 24 24 24 24 24 23
19 21 23 25 25 26 26 25 25 25 25 25 26 25 25 25 25 25 24 24 24 24 24 24 25 25 25 25 25 25 25 24 24 24 24 24 24 24 24 24 24 24 23 23 23 23 23 23 23 23 23 23 23 23 23 23 23 23 24 24 23 23 23
18 19 21 23 24 25 25 25 25 26 26 26 26 26 25 25 25 25 25 24 24 24 24 25 25 26 25 25 25 25 25 24 24 24 24 25 25 25 24 24 24 24 24 23 23 23 23 23 23 23 23 23 23 23 23 23 23 23 23 23 23 23 22
18 18 19 21 22 23 24 25 25 25 25 25 26 26 26 26 25 25 25 24 24 24 24 24 25 25 25 25 25 24 24 24 24 24 24 24 24 24 24 24 24 24 24 24 23 23 23 23 23 23 23 23 23 23 23 23 23 23 23 23 23 23 23
18 18 19 20 20 21 23 23 24 24 24 25 25 25 25 25 25 25 25 25 24 24 24 24 24 24 24 24 24 24 24 24 24 24 24 24 24 24 24 24 24 24 24 24 23 23 23 23 23 23 23 23 23 23 23 23 23 23 23 23 23 23 23
18 18 19 19 20 20 21 22 22 23 23 24 24 25 25 25 25 25 25 25 25 25 24 24 24 24 24 24 24 24 24 24 24 24 24 25 25 24 24 24 24 24 24 24 23 23 23 23 23 23 23 23 23 24 24 24 24 23 23 23 23 23 23
18 18 18 19 19 20 21 21 21 21 22 22 23 23 24 24 25 25 24 24 24 24 24 24 24 24 24 24 24 24 24 25 25 25 25 25 25 25 24 24 24 24 24 24 23 23 23 23 23 23 23 23 23 24 24 24 24 23 23 23 23 23 23
18 18 18 18 19 19 20 20 20 21 21 21 21 22 22 23 23 24 23 23 23 23 23 24 24 24 24 24 24 24 25 25 25 25 25 25 25 25 25 25 24 24 24 24 23 23 23 23 23 23 23 23 23 23 24 24 23 23 23 23 22 22 22
17 17 17 18 18 18 19 20 20 20 20 20 21 21 21 22 23 23 23 23 23 23 24 24 24 24 24 24 25 25 25 25 26 26 26 25 25 25 25 24 24 24 24 24 24 23 23 23 23 23 22 23 23 23 23 23 23 23 23 22 22 22 22
16 17 17 17 17 18 18 19 19 19 19 19 20 20 21 22 22 23 23 23 23 24 24 24 24 24 24 24 25 25 25 25 26 26 26 25 25 25 24 24 24 24 24 24 24 23 23 23 23 23 23 23 23 23 23 22 22 22 22 22 22 22 22
16 16 16 16 17 17 17 17 18 18 18 18 18 19 20 21 22 23 23 23 24 24 24 24 24 25 25 25 25 25 25 25 25 26 26 26 25 25 24 24 24 24 24 24 24 23 23 23 23 23 23 22 22 22 22 22 22 22 22 22 22 21 21
15 16 16 16 16 16 16 17 17 17 17 17 18 18 19 20 20 21 22 22 23 23 23 24 24 24 24 25 25 25 25 25 25 25 26 26 25 25 24 24 24 24 24 24 24 23 23 23 22 22 22 22 22 22 22 22 22 22 21 21 21 21 21
15 15 15 16 16 16 16 16 16 17 17 17 17 18 18 19 19 20 20 21 21 21 22 22 22 22 23 23 24 24 24 24 25 25 25 25 25 24 24 24 24 23 23 23 23 23 23 22 22 22 22 22 22 22 22 21 21 21 21 21 21 21 20
15 15 15 15 15 15 16 16 16 16 17 17 17 18 18 18 18 19 19 19 20 20 20 21 21 21 21 22 22 23 23 24 24 24 24 24 24 23 23 23 23 23 23 23 23 23 23 22 22 22 22 22 22 21 21 21 21 21 21 21 20 20 20

ECMWFFLT1_850_temp_051.txt.gz
Temp
25 24 24 23 23 22 22 22 22 21 21 21 22 21 21 21 21 21 21 22 21 21 21 21 21 21 21 21 21 21 22 22 22 21 21 22 22 22 22 22 22 22 22 22 22 22 22 21 21 21 21 21 20 20 20 20 20 20 20 20 20 20 20
26 25 25 24 23 23 23 22 22 22 21 22 22 22 21 21 22 22 22 22 22 21 21 21 21 21 21 21 21 21 21 22 21 21 21 21 22 22 22 22 22 22 22 22 22 22 21 21 21 21 21 21 21 21 20 20 21 21 21 20 20 20 20
26 26 25 24 24 23 23 22 22 22 22 22 22 22 22 22 23 23 23 22 22 21 21 21 21 21 21 21 21 21 21 21 21 21 21 21 22 22 22 22 22 22 22 22 22 22 21 21 21 21 21 21 21 21 21 21 21 21 21 21 20 20 20
26 26 25 25 24 24 23 23 23 23 22 22 22 22 22 23 23 23 23 23 23 22 22 22 22 22 22 22 21 21 21 21 21 21 21 21 22 22 22 22 22 22 22 22 22 22 21 21 21 21 21 21 21 21 21 21 21 21 21 21 21 21 21
27 26 26 25 24 24 23 23 23 23 23 22 22 22 22 23 23 23 23 23 23 23 23 22 22 22 22 22 22 22 22 21 21 21 21 21 21 21 22 22 22 22 22 22 22 22 22 21 21 21 21 21 21 21 21 21 21 21 21 21 21 21 21
27 26 26 25 25 24 24 24 24 24 23 23 22 22 22 22 22 23 23 23 22 22 22 22 22 22 22 22 22 22 22 22 22 21 21 21 21 21 22 22 22 22 22 22 22 22 22 21 21 21 21 21 21 21 21 21 21 21 21 21 21 21 21
27 26 26 26 25 25 24 24 24 24 24 23 22 22 22 22 22 22 22 22 22 22 22 22 22 22 23 23 22 22 22 22 22 22 21 21 21 21 22 22 22 22 22 22 22 22 22 22 22 22 22 22 22 21 21 21 21 21 21 21 21 21 21
27 27 27 26 26 25 25 24 24 24 23 23 22 22 22 22 22 22 22 22 22 22 23 22 22 22 23 23 22 23 22 22 22 22 22 21 21 21 21 22 22 22 22 22 22 22 22 22 22 22 22 22 22 22 21 21 21 21 21 21 21 21 21
27 28 28 27 26 26 25 25 24 24 23 23 23 23 23 23 22 22 22 22 22 22 23 23 23 23 23 23 23 23 23 22 22 22 22 22 22 22 21 22 22 22 22 22 22 22 22 22 22 22 22 22 22 22 22 22 21 21 21 21 21 21 21
27 27 28 27 26 26 25 25 24 24 23 23 23 23 23 23 23 22 22 22 22 23 23 23 23 23 23 23 23 23 23 23 22 22 22 22 22 22 22 22 22 22 22 22 22 22 22 22 22 22 22 22 22 22 22 22 22 21 21 21 21 21 21
27 27 27 26 26 26 25 25 24 24 24 24 24 23 23 23 23 23 23 23 23 23 23 23 23 23 23 23 23 22 23 23 23 23 22 22 22 22 22 22 22 22 22 22 22 22 23 22 22 22 22 22 22 22 22 22 22 22 22 22 22 22 21
26 26 26 26 26 25 25 25 25 25 24 24 24 24 23 23 23 23 23 23 23 23 23 23 23 23 23 23 22 22 23 23 23 23 23 22 22 22 22 22 22 22 22 22 22 23 23 23 23 22 22 22 22 22 22 22 22 22 22 22 22 22 22
27 27 26 26 25 25 25 25 25 25 24 24 24 24 24 24 23 23 23 23 23 23 23 23 23 23 23 23 23 22 23 23 23 23 23 23 23 22 22 22 22 22 22 22 22 23 23 23 23 23 23 23 23 23 23 22 22 22 22 22 22 22 22
27 27 27 26 26 25 25 25 25 25 24 24 24 24 24 24 23 23 23 23 22 22 22 23 23 23 23 23 23 23 23 23 23 24 23 23 23 23 22 22 22 22 22 22 22 23 23 23 23 23 23 23 23 23 23 23 23 22 22 22 22 22 22
26 26 26 26 26 26 26 26 26 25 25 24 24 24 24 24 23 23 22 22 22 22 22 23 23 23 23 23 23 23 24 24 24 24 24 23 23 23 23 23 22 22 22 22 23 23 23 23 23 23 23 23 23 23 23 23 23 23 23 23 23 22 22
25 27 27 26 26 27 27 27 26 26 25 24 24 24 24 24 24 23 23 23 23 23 23 23 23 23 23 23 23 24 24 24 24 24 24 24 23 23 23 23 23 22 22 23 23 23 23 23 23 23 23 23 23 23 23 23 23 23 23 23 23 23 23
23 25 27 27 27 27 28 27 27 26 25 25 24 24 24 24 24 24 23 23 23 23 23 23 23 23 23 23 24 24 24 24 24 24 24 24 23 23 23 23 23 23 22 22 23 23 23 23 23 23 24 24 23 23 23 23 23 23 23 23 23 23 23
21 23 25 27 27 27 27 27 27 26 25 25 25 24 24 24 24 24 23 23 23 23 23 23 23 23 23 23 23 24 24 24 24 24 24 24 24 24 23 23 23 23 23 22 22 22 23 23 23 24 24 24 24 24 23 24 24 24 24 23 23 23 23
20 21 23 25 27 26 26 26 27 27 26 26 25 25 25 25 25 24 24 23 23 23 23 23 23 23 23 23 23 24 24 24 24 24 24 24 24 23 23 23 23 23 23 22 22 22 22 22 23 24 24 24 24 24 24 24 24 24 24 24 24 24 24
19 20 21 24 25 26 26 26 26 27 27 26 26 25 25 25 25 24 24 23 23 23 23 23 23 23 23 23 23 24 23 23 23 24 24 24 24 23 23 23 23 23 23 23 22 22 22 22 22 23 23 24 24 24 24 24 24 25 25 24 24 24 24
18 19 20 23 24 25 25 25 26 26 26 26 25 24 24 24 24 24 23 23 23 23 23 24 24 23 23 23 23 23 23 23 23 23 24 24 23 23 23 23 23 23 23 23 22 22 22 22 22 22 23 23 24 24 24 24 24 25 25 25 24 24 24
19 18 20 22 23 24 25 25 26 26 26 25 24 24 24 24 24 24 23 23 23 23 23 24 24 24 23 23 23 23 23 24 24 24 24 24 24 23 23 23 23 23 23 23 23 22 22 22 22 22 22 23 23 23 24 24 25 25 25 25 24 24 24
18 18 20 23 23 24 25 25 25 25 25 24 24 24 24 24 24 23 23 23 23 23 23 23 23 24 24 23 23 23 24 24 24 24 24 24 24 24 24 24 24 23 23 23 23 22 22 22 22 22 22 22 22 23 23 24 25 25 25 25 24 24 24
18 18 21 23 24 24 25 25 25 25 24 24 24 24 24 24 24 23 23 23 23 23 23 23 23 24 24 24 24 24 24 24 24 24 24 24 24 24 24 24 24 24 23 23 23 23 23 23 23 22 22 22 22 22 23 23 24 24 24 24 24 24 24
18 19 21 23 23 23 25 25 25 25 24 24 24 24 24 24 24 23 23 23 23 23 23 24 24 24 25 24 24 24 24 24 24 24 24 24 24 24 24 24 24 24 23 23 23 23 23 23 22 22 22 22 22 22 22 23 23 23 24 23 23 23 23
18 19 21 23 23 23 25 25 25 24 24 24 24 24 24 24 24 24 24 24 24 24 24 25 25 25 25 25 25 25 25 24 24 24 24 24 24 24 24 24 24 24 23 23 23 23 23 22 22 22 22 22 22 22 22 22 23 23 23 23 23 23 23
17 18 20 22 22 23 24 24 25 25 25 25 25 25 24 24 24 23 24 23 24 24 25 26 26 26 26 25 25 25 24 24 24 24 24 24 24 24 24 24 24 23 23 23 23 23 23 23 22 22 22 22 22 22 22 22 22 23 23 23 23 23 22
17 17 19 21 22 22 23 23 24 24 25 25 25 25 24 24 24 24 23 24 24 25 26 26 26 26 25 25 24 24 24 24 24 24 24 24 24 24 23 23 23 23 23 23 23 23 23 23 23 22 22 22 22 22 22 23 23 23 23 23 23 22 22
17 17 18 19 21 21 22 23 23 24 24 24 24 25 25 24 24 24 24 24 25 26 26 26 26 25 25 25 24 24 24 24 24 24 24 24 24 23 23 23 23 23 23 23 23 23 23 23 22 22 22 22 22 22 23 23 23 23 23 23 23 23 23
17 17 17 18 19 20 21 22 23 23 23 23 24 24 24 24 24 24 24 25 25 25 26 26 25 25 25 25 24 24 25 25 25 24 24 24 24 24 24 23 23 23 23 23 23 23 22 22 22 22 22 22 22 23 23 24 24 24 24 23 23 23 23
17 17 17 18 18 19 20 21 21 22 23 23 23 23 24 24 24 24 25 25 25 25 25 25 25 25 25 25 25 25 25 25 25 25 24 24 24 24 24 24 23 23 23 23 23 22 22 22 22 22 22 22 23 23 24 24 24 24 24 24 23 23 23
17 17 18 18 18 18 19 19 20 21 22 22 22 22 23 23 24 24 24 25 25 25 25 25 25 25 25 25 25 25 25 25 25 24 24 24 24 24 24 24 23 23 23 23 23 23 22 22 22 22 22 22 23 23 24 24 24 24 24 23 23 23 23
17 17 17 17 18 18 18 19 19 19 20 21 21 21 22 22 23 23 24 24 24 25 25 25 26 26 26 25 25 25 25 24 24 24 24 24 24 24 24 24 23 23 23 23 23 22 22 22 22 22 22 22 23 24 23 23 23 23 23 23 23 23 22
16 16 17 17 17 18 18 18 18 19 19 19 20 21 21 22 22 22 23 23 23 24 24 24 25 26 26 26 25 25 25 24 24 24 24 24 24 24 24 23 23 23 23 23 23 22 22 23 23 23 23 23 23 23 23 23 23 23 23 23 23 22 22
16 16 16 16 17 17 17 18 18 18 19 19 19 20 20 20 21 21 22 22 22 23 23 23 23 24 25 25 25 25 25 25 25 24 24 24 24 24 24 24 24 23 23 23 23 23 22 23 23 23 23 23 22 22 22 22 22 22 22 22 22 22 22
16 16 16 16 16 16 17 17 17 18 18 18 19 19 19 20 20 20 20 21 21 22 22 22 22 23 23 23 23 24 24 25 25 25 25 24 24 24 24 24 24 24 24 24 23 23 22 22 22 22 22 21 21 21 21 21 21 22 22 21 21 21 21
15 15 15 16 16 16 16 17 17 17 18 18 18 19 19 19 20 20 20 20 21 21 21 21 22 22 23 23 23 23 24 24 25 25 25 25 25 24 24 24 24 24 23 23 23 23 22 22 22 22 21 21 21 21 21 21 21 21 21 21 20 20 20
14 15 15 15 15 15 16 16 17 17 17 17 18 18 18 19 19 20 20 20 20 21 21 21 21 22 22 23 23 23 23 24 24 25 25 25 25 25 24 24 24 23 23 23 23 22 22 22 22 21 21 21 21 21 20 20 20 20 20 20 20 20 20

ECMWFFLT1_850_temp_057.txt.gz
Temp
30 30 28 26 26 26 25 25 26 26 25 24 24 24 24 24 23 23 22 21 21 23 24 24 24 24 23 23 23 23 23 22 22 23 22 22 22 21 21 21 21 22 21 21 22 22 21 21 20 19 20 21 21 21 21 21 21 21 21 21 20 20 20
31 31 28 26 26 26 26 26 26 26 25 24 24 24 24 24 23 23 22 21 21 22 24 24 24 24 24 23 23 23 23 23 22 22 22 22 22 21 21 21 21 22 22 21 21 21 21 21 21 20 21 22 21 21 21 21 21 21 21 21 21 21 21
32 32 30 27 27 26 26 26 26 26 26 25 24 24 24 24 23 23 22 21 21 22 23 24 24 24 24 24 23 23 23 23 22 22 22 22 22 22 21 21 21 22 22 22 21 21 21 21 21 22 22 22 22 21 21 21 21 21 21 21 21 21 21
33 33 32 29 27 27 26 26 26 26 26 25 25 24 24 24 23 23 22 22 22 22 23 24 24 24 24 24 23 23 23 23 22 22 22 22 22 22 21 21 22 22 22 22 22 21 21 20 21 22 22 22 22 21 21 22 21 21 21 21 21 21 21
33 33 32 31 28 28 27 27 26 26 26 26 25 24 24 24 23 23 22 22 22 22 23 24 24 24 24 24 24 23 23 23 23 22 22 22 21 21 21 21 22 22 21 22 21 21 21 21 21 22 22 22 22 21 21 22 22 21 21 21 21 21 21
33 33 33 32 30 29 28 27 26 27 27 27 26 25 25 24 24 23 23 22 22 22 22 23 23 24 24 24 24 23 23 23 23 23 22 22 21 21 21 21 22 22 21 21 21 21 21 21 22 22 22 22 21 21 21 22 22 21 21 21 21 21 20
33 33 33 32 31 29 28 27 27 27 27 27 26 25 25 25 24 24 23 23 22 22 22 22 22 23 24 24 24 24 23 23 23 23 22 22 22 22 21 22 22 22 22 21 21 21 21 21 22 22 22 22 21 21 20 21 22 21 21 22 21 21 21
33 33 33 32 31 29 29 28 27 27 27 27 27 26 25 25 25 24 24 23 23 23 22 22 22 23 24 24 24 24 24 23 23 23 23 22 22 22 22 22 23 22 22 21 21 21 21 22 22 22 22 22 21 21 21 20 21 21 21 21 22 21 21
34 34 33 33 32 30 29 28 28 27 27 27 27 27 26 26 25 25 25 24 24 23 23 23 23 23 24 24 24 24 24 23 23 23 23 22 22 22 22 22 22 22 22 21 21 21 21 21 22 22 22 22 21 21 21 21 21 22 21 21 22 22 21
34 34 33 33 32 31 30 29 29 28 27 27 27 27 26 26 26 26 25 25 24 24 24 24 23 23 23 24 24 24 23 23 23 23 22 22 21 22 22 22 22 22 22 22 22 21 21 21 21 21 22 23 22 22 22 21 22 22 22 22 22 22 22
34 33 33 33 33 32 31 30 29 29 28 28 27 27 27 26 26 26 26 25 25 25 25 24 24 23 23 23 24 23 23 23 23 22 22 22 22 22 22 22 22 21 22 22 22 22 21 21 21 21 22 23 23 22 23 22 22 23 22 22 22 22 22
33 33 33 33 32 33 32 31 30 29 29 28 27 27 27 26 26 26 26 26 26 26 25 25 25 24 23 23 23 23 23 23 23 22 22 22 22 22 22 22 22 22 22 22 22 22 21 21 21 21 22 23 23 23 23 23 23 23 23 22 21 22 22
31 32 32 32 32 32 32 32 31 30 29 28 28 28 27 26 26 27 26 26 26 26 26 25 25 24 23 23 23 23 23 23 23 23 22 22 22 23 23 23 23 23 22 22 22 22 22 21 21 21 22 23 23 23 23 23 23 23 23 22 21 21 22
31 31 31 31 30 31 31 31 30 29 28 28 28 28 28 27 27 27 26 26 26 26 26 26 25 25 24 23 23 23 23 23 23 23 23 22 23 23 23 23 23 23 23 22 22 22 22 22 21 21 22 23 23 23 23 23 23 23 23 23 22 21 21
31 31 31 31 30 30 30 30 30 29 28 28 28 28 28 27 27 27 27 26 26 27 27 26 25 25 24 23 23 23 24 24 23 23 23 23 23 23 23 23 23 23 23 22 22 22 22 22 22 21 22 23 23 23 23 23 23 23 23 23 23 22 21
29 29 29 30 29 29 29 29 29 28 28 28 28 28 28 27 27 27 27 26 26 27 27 26 25 25 24 24 24 24 24 24 23 23 23 23 23 23 23 23 23 23 23 22 22 22 22 22 22 22 21 22 23 23 23 23 24 24 24 23 23 23 22
28 27 27 27 27 27 28 28 29 28 27 27 27 27 28 27 27 27 27 27 26 26 27 26 25 25 24 24 24 23 23 23 23 23 24 23 23 23 23 23 22 23 23 22 22 22 22 22 22 22 22 21 22 23 23 23 24 24 24 24 24 24 23
27 27 26 26 25 26 26 27 28 28 28 27 27 27 27 27 27 27 27 27 27 27 27 26 25 25 24 24 23 23 23 24 23 23 24 24 24 24 23 23 22 22 22 22 21 22 22 22 22 22 22 22 21 22 22 23 23 24 24 24 24 24 24
26 25 25 25 25 25 26 26 27 27 28 28 27 27 27 27 27 27 27 27 27 27 27 26 26 25 24 24 23 23 23 24 23 23 24 24 24 24 24 23 22 22 22 22 21 22 22 23 22 22 22 22 22 21 22 22 23 23 24 24 24 24 24
23 23 23 23 23 24 25 25 25 25 26 27 27 27 27 27 27 27 27 27 27 26 27 26 26 25 24 24 23 23 23 23 23 23 24 24 24 24 24 24 23 22 22 21 21 22 23 23 23 22 22 22 22 21 22 22 22 23 24 24 24 24 24
21 21 21 22 22 22 22 23 24 24 25 25 26 27 28 28 28 27 27 27 27 26 26 26 26 25 24 23 23 22 22 23 23 23 24 24 24 24 24 24 24 23 22 22 21 22 23 23 23 22 23 23 22 21 22 22 22 22 23 24 25 24 24
19 19 20 20 21 21 21 22 23 24 24 24 25 26 28 28 28 28 27 27 27 26 26 26 26 25 24 23 23 22 22 22 23 23 23 24 24 24 25 25 24 24 23 22 22 22 22 23 23 22 23 23 23 22 22 22 22 22 22 24 25 24 24
18 18 18 19 20 20 21 22 23 24 24 24 24 25 27 28 28 28 28 27 27 27 26 26 25 25 24 23 23 22 22 22 22 23 23 24 24 25 25 25 25 24 24 23 22 22 22 22 23 22 22 23 23 23 22 22 22 23 23 24 24 24 24
16 17 18 18 19 21 22 22 23 24 24 24 25 25 27 28 29 28 28 28 27 27 26 26 25 24 24 23 23 22 22 22 22 23 23 23 24 25 25 25 25 24 24 24 23 22 22 22 22 22 22 22 23 24 23 22 22 23 24 24 24 24 24
15 16 18 19 20 21 22 22 23 23 23 24 25 26 26 28 29 28 28 27 27 27 26 25 25 24 23 23 23 22 22 22 22 23 23 24 24 25 25 25 25 24 24 24 24 23 23 22 22 22 22 22 22 23 24 23 23 23 24 24 24 24 24
14 16 18 19 20 21 22 22 23 23 23 24 25 26 27 28 28 28 27 27 27 27 26 25 25 24 23 23 23 22 22 22 22 23 23 24 24 24 24 24 24 24 24 24 24 23 23 23 23 22 22 22 22 22 23 24 23 23 24 24 24 24 24
14 15 17 18 20 21 21 22 23 23 24 25 25 26 27 28 28 28 27 27 27 27 26 25 25 24 23 23 23 23 22 23 23 23 23 23 24 23 23 23 24 24 24 24 23 23 23 23 23 23 23 23 23 22 22 23 23 23 24 24 24 24 24
14 16 17 18 19 20 21 22 23 24 24 25 26 26 27 28 28 28 27 27 26 26 26 25 25 24 23 23 23 23 22 22 23 23 23 23 23 23 23 23 23 24 24 24 23 23 23 23 23 23 23 23 23 23 22 22 23 23 23 24 24 24 24
13 15 16 17 19 20 20 21 23 24 25 26 27 27 27 27 28 27 27 26 26 26 26 25 24 24 23 23 23 23 22 22 23 23 23 23 23 23 23 23 23 23 24 23 23 22 22 22 22 23 23 23 23 23 23 22 22 22 23 23 24 24 24
12 14 15 16 18 19 20 21 22 23 24 25 27 27 27 27 27 27 26 26 26 26 26 25 24 23 23 23 23 23 22 22 23 23 23 23 23 23 23 23 23 23 23 23 23 22 22 22 22 22 23 23 23 23 23 22 22 22 22 23 23 23 23
12 13 14 16 17 18 19 20 22 23 23 25 26 26 26 27 27 26 26 26 25 25 25 24 24 23 23 23 23 23 22 22 23 23 23 23 23 23 24 23 23 23 23 23 23 22 22 22 22 22 22 22 23 23 23 22 22 22 22 22 23 23 23
11 13 14 16 17 18 18 20 22 23 23 24 26 26 26 26 26 26 25 25 25 25 25 24 23 23 23 22 23 23 22 22 23 23 22 22 22 23 23 23 23 23 23 23 22 22 22 22 22 22 22 22 22 22 23 23 22 22 22 22 22 22 22
10 12 14 15 16 17 18 20 21 22 22 23 24 25 25 26 26 25 24 24 24 24 24 24 23 23 22 22 22 22 23 23 23 22 22 22 22 22 22 23 23 23 22 22 22 22 22 22 22 22 22 22 22 22 23 23 22 22 23 22 22 22 22
10 11 13 15 16 17 18 19 20 20 21 22 22 23 24 24 24 24 23 23 24 24 24 23 23 22 22 22 22 22 22 22 22 22 22 22 22 22 22 22 22 22 22 22 22 22 22 22 22 22 22 22 22 22 22 22 22 22 23 23 23 22 22
9 10 12 15 16 16 17 18 19 20 20 21 21 22 23 23 23 23 23 23 23 24 23 22 22 22 22 22 22 22 22 22 22 23 23 23 23 23 23 22 22 22 22 22 22 22 22 22 22 22 23 23 23 22 22 22 23 23 23 23 23 22 22
9 9 12 14 15 16 16 18 18 19 19 20 20 21 21 22 22 23 22 23 23 23 23 22 22 22 22 22 23 23 23 23 23 23 23 23 23 23 23 23 22 22 22 22 22 22 22 23 23 23 23 23 23 23 23 23 23 23 23 22 22 22 22
8 9 11 13 15 15 16 17 18 18 19 19 20 20 20 20 21 21 22 22 23 23 23 22 22 23 23 23 24 24 23 23 24 24 23 24 23 23 23 23 22 22 22 22 22 22 22 22 22 22 22 22 22 23 23 22 23 23 23 22 22 22 22
9 9 10 12 14 15 16 16 17 17 18 18 18 19 19 19 20 21 21 21 22 22 22 22 22 23 23 23 24 24 23 24 24 24 23 24 23 23 23 23 22 22 22 22 22 22 22 22 22 22 22 22 22 22 23 23 23 23 22 22 22 22 21

ECMWFFLT1_850_temp_060.txt.gz
Temp
27 27 26 26 26 25 25 25 24 24 24 24 24 24 24 24 24 23 22 21 21 22 22 22 23 23 24 24 24 24 24 24 24 23 23 23 23 22 22 22 22 22 22 23 23 23 22 22 21 21 22 22 21 21 21 21 21 21 21 21 21 21 21
28 27 27 26 26 25 25 25 25 25 24 24 24 24 24 24 24 24 23 22 21 21 22 22 22 23 24 24 24 24 24 24 24 24 23 23 23 22 22 22 22 22 23 22 23 23 22 22 21 21 22 23 22 22 22 21 21 21 21 21 21 21 21
28 28 27 26 26 25 25 25 25 24 24 24 24 24 24 24 24 24 23 22 21 21 21 22 22 23 24 24 24 24 24 24 24 24 23 23 23 23 22 22 22 22 22 22 22 22 22 22 22 22 23 23 22 22 22 22 22 22 21 21 21 21 21
29 29 28 27 26 26 25 25 25 24 24 24 24 24 24 24 24 24 23 23 22 21 21 22 22 23 24 24 24 24 24 24 24 24 23 23 23 23 22 22 22 22 22 22 22 21 21 21 21 22 23 23 23 22 22 22 22 22 22 22 22 22 22
30 30 29 28 27 26 26 25 25 25 25 25 25 24 24 24 24 24 23 23 22 21 22 22 22 22 23 24 24 24 24 24 24 24 23 23 23 23 22 22 22 22 22 22 22 21 21 21 21 22 22 23 23 23 22 22 22 22 22 22 22 22 22
31 30 30 28 27 26 26 25 25 25 25 25 25 24 24 24 24 24 23 23 22 21 21 22 22 22 23 24 24 24 24 24 24 23 23 23 22 22 22 22 22 22 22 22 22 22 21 21 21 21 22 23 23 23 22 22 22 22 22 22 22 22 22
33 30 29 28 28 27 27 26 26 26 25 25 25 24 24 24 24 23 23 23 22 21 21 21 21 22 22 23 24 24 24 24 24 24 23 23 22 22 22 22 22 22 22 22 22 22 21 21 21 21 22 23 23 23 22 23 23 22 22 22 22 22 22
34 31 29 29 28 28 28 27 27 26 26 25 25 24 24 24 24 24 23 23 22 22 21 21 21 22 22 23 24 24 24 24 24 24 23 23 23 22 22 22 22 22 22 22 22 22 22 21 21 21 21 22 23 23 22 22 23 23 23 22 22 22 22
34 32 30 29 29 28 28 28 27 27 26 26 25 25 25 24 24 24 24 23 23 22 22 21 22 22 23 23 24 24 24 24 24 24 24 23 23 23 22 22 22 22 22 22 22 22 22 21 21 21 21 22 22 22 22 22 23 23 23 23 23 22 22
34 33 31 30 29 29 29 28 28 27 26 26 25 25 25 25 24 24 24 23 23 23 22 22 22 22 22 23 24 24 24 24 24 24 24 24 23 23 23 23 22 22 22 22 22 22 22 22 21 21 21 21 22 22 22 22 22 22 23 23 23 23 23
34 34 33 32 30 30 29 28 28 27 26 26 26 26 25 25 24 24 24 24 23 23 23 22 22 22 22 23 24 24 24 24 24 24 24 24 23 23 23 22 22 22 22 22 22 22 22 22 22 21 21 21 21 22 22 22 22 22 22 23 23 23 23
32 33 33 33 32 30 29 28 28 27 27 26 26 26 25 25 25 24 24 24 24 24 23 23 23 22 22 23 23 23 24 24 24 24 24 24 24 23 23 22 22 22 22 22 22 22 22 22 22 22 21 22 21 22 22 22 22 22 22 23 23 24 23
32 33 33 33 32 30 29 29 28 27 27 27 26 26 26 26 25 25 25 24 24 25 24 24 23 23 22 22 23 23 23 24 24 24 24 24 24 23 23 22 22 22 23 23 23 22 22 22 22 22 22 22 22 21 22 22 22 22 22 22 22 23 23
32 32 31 31 30 29 29 29 28 28 28 27 27 27 27 26 26 25 25 25 25 25 25 24 24 24 23 22 23 23 24 24 25 24 24 24 23 23 23 23 22 22 22 22 23 23 22 22 22 22 22 22 22 22 21 21 22 22 22 23 22 22 23
30 30 29 27 27 27 28 28 28 28 28 28 27 27 27 27 26 26 26 26 26 26 26 25 24 24 23 23 23 23 24 24 24 24 24 23 23 23 23 23 23 23 23 22 22 22 22 22 22 22 22 22 22 22 21 21 21 22 22 23 23 22 22
28 28 28 27 26 26 27 27 27 27 27 27 27 28 28 28 27 27 27 27 26 26 26 26 25 25 24 23 23 24 24 24 24 24 24 24 23 23 23 23 23 23 23 23 23 22 22 22 22 22 22 22 22 21 21 21 21 22 23 23 23 23 23
27 27 27 26 25 25 26 26 26 26 26 25 25 26 27 28 28 27 27 27 26 26 27 26 26 25 24 24 24 24 24 23 24 24 24 24 24 24 23 23 23 23 23 23 23 22 22 23 23 22 22 22 21 21 22 21 21 22 23 23 24 24 23
25 25 25 25 25 25 25 25 25 25 24 24 24 24 24 26 27 27 27 27 27 27 27 27 26 25 25 24 24 24 24 23 23 24 24 24 24 24 24 23 23 23 23 23 23 23 22 22 23 23 22 22 21 21 22 22 21 22 23 23 24 24 24
24 24 24 23 24 24 24 25 25 24 24 24 25 24 24 24 25 26 27 27 27 27 27 27 27 26 25 25 24 24 24 23 23 23 24 24 24 24 24 24 23 23 23 23 23 23 23 22 23 23 22 22 22 21 21 22 22 22 23 23 24 24 24
22 22 22 22 22 22 22 24 25 25 24 24 24 25 25 25 26 26 27 27 27 27 27 27 27 26 26 25 24 24 24 24 23 23 23 24 24 24 24 24 23 23 23 23 23 23 23 22 22 23 23 22 22 22 22 22 21 22 22 23 24 24 24
20 20 20 20 20 21 21 22 23 23 24 24 24 25 25 25 26 27 26 26 26 26 26 27 27 27 26 25 25 24 24 24 24 23 23 24 23 23 24 24 24 23 23 23 23 23 23 22 22 22 22 23 23 22 22 22 22 22 22 22 23 24 24
18 18 18 18 19 19 19 20 21 22 23 24 24 24 25 25 26 27 27 26 25 26 26 26 27 27 26 26 25 24 24 24 24 23 23 23 23 23 23 23 24 23 23 23 23 23 23 22 22 22 22 22 23 22 22 22 22 22 22 22 23 23 23
17 17 17 17 17 18 19 19 20 21 21 23 23 24 24 25 25 26 27 27 26 26 26 27 27 27 26 26 25 24 24 24 24 23 23 23 23 23 23 23 23 23 23 23 23 23 22 22 22 22 22 22 22 22 22 22 22 22 22 22 23 23 23
15 15 16 16 17 18 18 19 20 21 21 22 23 24 24 24 25 26 27 27 26 26 26 27 27 27 27 26 25 25 24 24 24 23 23 23 23 23 23 23 23 23 23 23 23 22 22 22 22 22 22 22 22 23 23 23 22 22 22 22 23 23 22
14 14 15 15 16 17 17 19 20 21 22 22 23 24 24 24 25 25 26 27 27 27 27 27 27 27 27 26 25 25 24 24 23 23 23 23 23 23 23 23 23 23 23 23 23 22 22 22 22 22 22 22 22 23 23 23 23 22 22 23 23 22 22
13 13 14 15 16 16 18 19 20 20 21 22 23 24 24 25 25 25 26 27 27 27 27 27 27 27 26 26 25 25 24 23 23 23 23 23 23 23 23 23 23 23 23 23 23 23 23 22 22 22 22 22 22 22 23 23 23 23 23 23 23 23 22
12 13 14 15 15 16 17 18 19 19 20 22 22 23 24 25 25 25 26 27 27 27 27 27 27 27 26 26 25 25 24 23 23 23 23 23 22 22 22 22 22 22 23 22 23 23 23 23 22 22 22 22 22 22 23 23 23 23 23 23 23 23 22
12 13 14 15 16 17 17 18 19 20 21 22 22 23 24 25 25 26 26 27 27 28 28 28 27 27 26 26 25 24 24 23 23 23 23 22 22 22 22 22 22 22 22 22 22 23 23 23 23 23 23 23 23 22 22 23 23 23 23 23 23 23 23
12 13 13 14 16 16 16 17 18 19 21 21 22 22 23 25 26 26 26 27 28 28 28 28 27 27 26 26 25 24 24 23 23 23 22 22 22 22 22 22 22 22 22 22 22 23 23 23 23 23 23 23 23 23 23 23 23 23 23 23 23 23 23
12 12 13 14 15 15 16 16 17 19 20 20 21 22 23 24 25 26 27 27 27 28 28 28 27 27 26 26 25 24 24 23 23 22 22 22 22 21 22 22 22 22 22 22 23 23 23 23 23 23 24 23 23 23 23 23 23 23 23 23 23 22 23
12 12 12 13 14 15 15 15 17 18 19 20 21 23 24 24 25 26 27 27 28 28 28 28 27 27 26 25 25 24 24 23 23 22 22 22 22 22 21 22 22 22 22 22 23 23 23 23 23 23 24 24 24 23 23 23 23 23 23 23 23 23 23
12 12 12 12 13 14 15 15 16 18 18 19 21 23 23 24 25 26 27 27 27 28 28 27 27 26 26 25 25 24 24 23 23 22 22 22 22 22 21 22 22 22 22 22 23 23 23 23 23 23 23 23 24 24 24 24 23 23 23 23 23 23 23
11 12 12 12 12 13 14 15 16 17 18 19 20 22 23 24 25 26 27 27 27 27 27 27 27 26 26 25 24 24 24 23 23 23 22 22 22 22 22 22 22 22 22 23 23 23 23 23 23 23 23 23 23 24 24 24 24 24 23 24 24 24 23
11 11 12 12 12 12 14 15 15 17 18 18 20 21 22 23 25 26 26 27 27 27 27 27 26 26 25 25 24 24 23 23 23 23 22 22 22 22 22 22 22 22 23 23 23 23 23 23 23 23 23 23 23 24 24 24 24 24 24 24 25 25 24
11 11 11 12 11 12 13 14 15 16 17 18 19 20 21 23 24 25 26 26 26 26 26 26 26 25 25 24 24 24 23 23 23 23 23 23 23 23 22 22 22 22 23 23 24 24 24 24 24 24 24 23 23 24 24 24 24 24 24 25 25 25 24
11 11 11 12 11 12 13 15 15 16 18 18 19 20 21 22 24 25 25 25 25 26 26 26 25 25 24 24 24 24 23 23 23 23 23 23 23 22 22 22 22 22 22 23 23 23 23 24 24 24 24 23 23 24 24 24 25 24 24 24 24 24 24
10 11 11 11 12 12 13 14 15 16 17 18 19 20 20 21 22 24 24 24 24 25 25 25 25 24 24 24 24 24 23 23 23 23 23 23 23 22 22 22 22 22 22 22 22 23 23 23 23 23 23 23 24 24 24 24 24 24 24 23 23 23 23
11 11 10 11 11 11 12 13 15 15 17 18 18 19 19 20 21 22 23 24 24 24 24 24 24 24 24 24 24 23 23 23 23 23 23 23 23 22 22 22 22 22 22 22 22 22 23 23 23 23 23 23 23 24 23 23 23 23 23 23 23 23 23

ECMWFFLT1_850_temp_063.txt.gz
Temp
24 24 25 25 25 25 25 25 25 25 25 24 24 24 23 23 23 22 22 21 21 21 21 21 21 22 23 23 23 23 23 23 23 23 22 23 23 23 23 22 22 23 23 23 23 23 23 23 23 23 22 22 22 22 22 21 21 20 20 20 20 20 20
25 25 25 25 25 25 25 25 25 25 25 24 24 24 24 23 23 22 22 22 21 21 21 21 21 22 23 23 24 24 23 23 23 23 23 23 23 23 23 23 23 23 23 23 23 23 23 23 23 23 23 22 22 22 22 22 21 21 21 21 20 20 21
25 25 25 25 25 25 25 25 25 25 25 25 24 24 24 24 23 23 22 22 22 21 21 21 21 21 22 23 24 24 24 23 23 23 23 23 23 23 23 23 23 23 23 23 23 23 23 23 23 23 23 23 22 22 22 22 22 21 21 21 21 21 21
26 26 26 26 26 25 25 25 25 25 25 25 24 24 24 24 23 23 22 22 22 21 21 21 21 21 21 22 23 24 24 24 24 24 23 23 23 23 23 23 23 23 23 23 23 23 23 23 23 23 23 23 23 23 23 22 22 22 22 22 21 21 21
26 27 26 26 26 25 25 25 25 25 25 25 24 24 24 24 23 23 23 22 22 22 22 21 21 21 21 21 22 23 24 24 24 24 24 24 23 23 23 23 23 23 23 23 23 23 22 22 22 22 23 23 23 23 23 23 22 22 22 22 22 22 22
27 27 27 26 26 26 25 25 25 25 25 25 24 24 24 24 24 23 23 23 22 22 22 21 21 21 21 21 22 23 24 24 24 24 24 24 24 23 23 23 24 24 24 23 23 23 22 22 22 22 23 23 23 23 23 22 22 22 22 22 22 22 22
28 27 27 26 26 26 26 25 25 25 25 25 24 24 24 24 24 23 23 23 23 22 22 21 21 21 21 21 21 22 23 24 24 24 24 24 24 24 24 24 24 24 24 24 23 23 22 22 22 22 22 23 23 23 23 23 23 23 23 22 22 22 22
28 27 27 27 26 26 26 25 25 25 25 25 24 24 24 24 24 23 23 23 23 22 22 22 22 21 22 22 21 21 22 23 24 24 24 24 24 24 24 24 24 24 24 24 23 23 22 22 22 22 22 22 23 23 23 23 23 23 23 23 23 23 23
28 27 27 27 26 26 26 26 25 25 25 25 24 24 24 24 24 24 23 23 23 23 22 22 22 22 22 22 22 21 21 22 23 24 24 24 24 24 24 24 24 24 24 23 23 23 22 22 22 22 22 22 22 23 23 23 23 23 23 23 23 23 23
28 27 27 27 26 26 26 26 26 25 25 25 24 24 24 24 24 24 24 23 23 23 23 22 22 22 22 22 22 22 21 21 22 23 23 23 23 24 24 24 24 23 23 23 23 23 23 22 22 22 22 22 22 23 23 23 23 23 23 23 23 23 23
29 28 28 27 27 27 26 26 26 25 25 25 24 24 24 24 24 24 24 24 23 23 23 22 22 22 22 22 21 21 21 21 21 22 23 24 24 24 23 23 23 23 23 23 23 23 23 22 22 22 22 22 23 23 23 23 23 23 23 23 23 23 23
28 28 28 28 28 27 27 26 26 25 25 25 24 24 24 24 24 24 24 24 24 23 23 22 22 22 21 21 21 21 21 21 21 22 23 24 24 24 24 23 23 23 23 23 23 22 22 22 22 22 22 22 23 23 23 24 24 24 23 23 23 23 23
26 27 27 27 27 27 27 26 26 26 26 26 25 25 25 25 25 25 24 24 24 23 23 23 22 22 22 21 21 21 21 21 21 22 23 24 24 24 24 23 23 23 23 23 23 22 22 22 22 22 22 23 23 23 23 23 23 24 24 24 24 24 23
25 25 24 24 25 26 26 26 26 26 26 26 26 26 26 25 25 25 25 24 24 24 23 23 23 22 22 21 21 21 21 21 21 21 22 23 24 24 24 23 23 23 23 23 23 22 22 22 22 22 22 23 23 23 23 23 23 23 23 23 23 24 24
23 23 23 22 22 23 23 23 24 25 26 26 25 26 26 25 25 25 24 24 24 23 23 23 23 22 22 22 21 21 21 21 21 21 21 22 23 23 23 23 23 23 23 23 23 23 22 22 22 22 22 22 23 23 23 23 22 23 23 23 23 23 23
22 22 22 21 21 21 21 21 22 23 24 25 25 24 25 24 24 24 23 23 23 23 23 23 23 23 22 22 22 22 21 21 21 21 21 22 23 23 23 23 23 23 22 23 23 23 22 22 22 22 22 22 23 22 22 22 22 22 23 23 23 23 23
20 20 20 20 20 20 21 20 20 20 21 23 24 25 24 24 24 24 23 23 23 23 22 22 23 23 23 22 22 22 21 21 21 21 21 22 22 23 23 23 23 23 22 23 23 22 22 22 22 22 22 22 23 22 22 22 22 22 23 23 23 23 23
18 18 19 19 19 20 20 20 20 19 19 20 22 23 24 24 24 24 24 24 24 23 22 21 21 22 23 23 22 22 22 21 21 21 21 21 22 23 23 23 23 23 22 22 22 22 22 22 22 22 22 22 22 22 22 22 23 23 23 23 23 23 23
17 17 17 17 17 18 19 19 20 20 19 19 19 21 23 24 24 24 24 24 24 25 24 22 21 20 21 22 22 22 22 22 21 21 21 21 22 22 23 23 23 23 23 22 23 22 22 22 22 22 22 22 22 22 22 23 23 23 23 24 24 24 23
16 16 16 16 16 16 17 19 20 20 21 20 20 21 22 24 24 25 24 24 24 25 25 24 23 22 21 21 22 23 23 22 22 22 22 22 22 22 22 23 23 23 23 23 23 22 22 22 22 22 22 22 22 22 22 23 23 23 23 24 24 24 23
15 15 15 15 15 15 16 17 18 20 22 22 21 21 22 22 24 24 24 24 24 25 25 25 25 24 24 23 23 23 23 23 22 22 22 22 22 22 22 22 23 23 23 22 22 22 23 22 22 22 22 22 22 22 22 22 23 23 23 23 24 24 23
14 14 14 14 14 15 15 16 17 19 21 22 21 22 22 22 23 24 24 24 25 25 25 25 25 25 25 25 24 23 23 24 23 23 22 22 22 22 22 22 22 22 22 22 22 22 23 22 22 22 22 22 22 22 22 22 22 23 23 23 23 23 23
13 13 14 14 14 15 15 16 17 18 19 20 21 22 22 22 23 23 24 24 24 25 25 25 25 25 25 25 24 23 23 24 24 23 23 23 22 22 22 22 22 22 22 22 22 22 22 22 22 22 22 22 22 22 22 22 22 22 22 23 23 23 22
13 13 14 14 14 15 16 16 17 19 19 20 21 22 23 23 23 23 23 24 24 24 25 25 26 25 25 25 24 24 24 24 24 24 23 23 23 23 22 22 22 23 23 22 22 22 22 23 22 22 22 22 22 22 22 22 22 22 22 23 23 22 22
13 13 14 14 14 14 15 16 17 18 19 20 21 22 23 23 23 23 23 24 24 24 24 25 26 26 25 25 25 24 24 24 24 24 24 24 23 23 23 23 22 23 23 22 22 22 22 23 22 22 22 22 22 22 22 22 22 22 22 22 22 22 22
13 13 14 14 13 14 14 15 16 17 19 20 21 22 23 23 23 23 23 23 24 24 24 25 25 26 26 26 25 24 24 24 24 24 24 24 24 23 23 23 23 23 23 23 23 22 22 22 22 22 22 22 22 22 22 22 22 22 22 22 22 22 22
12 13 13 13 13 14 14 15 16 16 17 19 20 21 22 22 22 22 23 23 23 24 24 25 25 26 26 26 25 25 25 25 25 24 24 24 24 24 23 23 23 22 22 23 22 22 22 22 22 22 22 22 22 22 22 22 22 22 22 22 22 22 22
12 13 13 13 13 13 14 15 16 16 17 18 19 20 21 21 22 22 23 22 22 23 24 25 25 25 26 26 26 26 25 25 25 24 24 24 24 24 23 23 23 22 22 22 22 22 22 22 22 22 22 22 22 22 22 23 23 22 22 22 22 22 22
12 12 13 13 13 13 13 14 14 16 16 17 18 20 20 20 21 22 22 22 23 23 24 24 25 25 26 26 26 26 26 25 25 24 24 24 24 24 23 23 23 22 22 22 22 22 22 22 23 22 22 22 22 22 22 22 22 23 23 23 23 23 22
11 12 12 13 13 13 13 13 13 15 16 17 18 19 20 20 20 21 22 23 23 24 24 24 25 25 26 26 26 26 26 25 25 25 24 24 24 24 23 23 23 22 22 22 22 22 22 22 22 22 22 22 22 22 22 22 22 22 23 23 23 23 23
11 11 12 12 12 13 13 13 13 14 15 16 17 19 20 20 20 20 22 23 23 23 23 24 24 25 26 26 26 27 26 26 25 25 24 24 23 23 23 23 22 22 22 22 22 22 22 22 22 22 22 22 22 22 22 22 22 22 23 23 23 23 23
11 11 11 12 12 13 13 14 13 14 15 16 17 18 20 21 20 20 22 23 23 23 23 24 25 25 26 26 26 27 26 26 25 25 24 24 23 23 23 23 22 22 22 22 22 22 22 22 22 22 22 22 22 22 22 22 22 22 23 23 23 23 23
10 11 11 11 12 12 13 14 14 14 14 15 17 18 20 21 21 21 22 22 22 23 24 24 25 26 26 27 26 26 26 26 25 25 24 24 23 23 23 23 22 22 22 22 22 22 22 22 22 22 22 22 22 22 22 22 22 22 23 23 23 23 23
10 10 11 11 12 12 13 13 14 13 14 14 15 17 19 20 21 21 21 22 22 23 24 25 25 26 27 27 27 26 26 26 25 25 24 24 23 23 22 22 22 22 22 22 22 22 22 22 22 22 22 22 23 23 23 23 23 23 23 23 23 23 23
10 10 10 11 11 12 13 13 13 13 13 14 15 16 17 19 20 21 21 21 22 23 23 24 26 26 27 27 27 26 26 26 25 25 24 24 23 23 22 22 22 22 22 22 21 21 21 21 22 22 22 23 23 23 23 23 23 24 24 24 24 24 24
10 10 10 10 11 12 13 13 13 13 14 14 15 15 16 17 19 20 20 20 21 22 22 23 25 26 26 27 26 26 26 26 25 25 24 24 23 23 22 22 22 22 22 21 21 21 21 21 21 22 22 23 23 24 24 24 24 25 25 25 25 24 24
10 10 10 10 10 12 13 13 13 14 13 13 14 14 16 17 18 19 19 19 21 21 22 23 24 25 26 26 26 26 26 25 25 24 24 24 23 23 22 22 22 22 22 21 21 21 21 21 21 22 22 23 23 24 24 24 25 25 25 25 25 24 24
10 10 10 10 10 11 12 12 13 13 13 12 13 13 15 17 17 18 18 19 20 21 22 22 23 24 25 25 25 25 25 24 24 23 23 23 23 22 22 22 22 22 21 21 21 21 21 21 21 22 22 22 23 23 24 24 24 24 24 25 25 24 24

ECMWFFLT1_850_temp_069.txt.gz
Temp
23 23 23 23 23 23 23 23 23 23 22 22 22 22 22 22 22 22 22 22 22 22 22 22 21 21 21 21 21 21 22 21 21 21 22 22 22 22 22 21 21 21 21 21 22 22 22 22 21 21 21 21 21 21 21 21 20 20 20 20 20 20 20
23 23 23 23 23 23 23 23 23 23 23 22 22 22 22 22 22 22 22 22 22 22 22 22 22 22 21 21 22 22 22 22 21 21 22 22 22 22 22 22 22 22 22 22 22 22 22 22 22 21 21 21 21 21 21 21 21 21 20 20 20 20 20
23 23 23 23 23 23 23 23 23 23 23 23 22 22 22 22 22 22 22 22 22 22 22 22 22 22 22 22 22 22 22 22 21 21 22 22 22 22 22 22 22 22 22 22 22 22 22 22 22 22 21 21 21 21 21 21 21 21 21 20 20 21 21
23 23 23 23 23 23 23 23 23 23 23 23 23 23 22 22 22 22 22 22 23 22 22 22 22 22 22 22 22 22 22 22 22 22 22 22 22 22 22 22 22 22 22 22 22 22 22 22 22 22 22 21 21 21 21 21 21 21 21 21 21 21 21
23 23 23 23 23 23 23 23 23 23 23 23 23 23 23 22 22 22 22 22 23 23 23 22 22 22 22 22 22 22 22 22 22 22 22 22 22 22 22 22 22 22 22 22 22 22 22 22 22 22 22 22 22 21 21 21 21 21 21 21 21 21 21
23 23 23 23 23 23 23 23 23 23 23 23 23 23 23 22 22 22 22 22 22 22 23 22 22 22 22 22 22 22 22 22 22 22 22 22 22 22 22 22 23 23 23 23 22 22 23 23 23 22 22 22 22 22 21 21 21 21 21 21 21 21 21
24 23 23 23 23 23 23 24 24 24 23 23 23 23 22 22 22 22 22 22 22 22 22 22 22 22 22 22 22 22 22 23 22 22 22 22 22 22 22 22 22 23 23 23 22 22 22 23 23 23 23 22 22 22 22 22 22 22 21 21 21 21 21
24 24 23 23 23 23 23 24 24 24 23 23 23 23 23 22 22 22 22 22 22 22 22 22 22 22 22 22 22 22 22 22 23 22 22 22 21 22 22 22 22 22 22 22 22 22 22 23 23 23 23 23 23 22 22 22 22 22 22 21 21 21 21
22 23 23 23 23 23 23 23 24 23 23 23 23 23 23 22 22 22 22 22 22 22 22 22 22 22 22 22 22 22 22 22 22 22 22 22 22 22 22 22 22 22 22 22 22 22 22 23 23 23 23 23 23 23 23 23 22 22 22 22 22 21 21
18 20 22 23 23 23 23 23 23 23 23 23 23 23 23 23 23 22 22 22 22 22 22 22 22 22 22 22 22 22 22 22 22 22 22 22 22 22 22 22 21 21 22 22 22 22 22 23 23 23 23 23 23 23 23 23 23 22 22 22 22 22 22
15 16 18 20 21 23 23 23 23 23 23 23 23 23 23 23 23 22 22 22 22 22 22 22 22 22 22 22 22 22 22 22 22 22 22 22 23 23 23 22 22 21 21 22 22 22 22 23 23 23 23 23 23 23 23 23 23 23 22 22 22 22 22
14 15 15 16 18 19 20 22 22 22 23 23 23 23 23 23 23 22 22 22 22 22 22 22 22 22 22 22 22 22 22 22 22 22 22 22 23 23 23 23 23 22 22 22 22 22 22 22 23 23 23 23 23 23 23 23 23 23 23 23 23 22 22
14 14 14 15 16 17 17 19 20 21 22 22 22 23 23 23 23 22 22 22 22 22 22 21 21 21 21 21 22 22 22 22 22 22 22 22 22 22 23 23 23 23 23 22 22 22 22 22 23 23 23 23 23 23 23 23 23 23 23 23 23 23 22
14 14 14 15 15 16 16 16 17 18 20 21 21 22 22 22 22 22 22 22 22 22 21 21 21 21 21 21 21 22 22 22 22 22 22 22 22 22 22 22 23 23 23 23 23 23 23 23 23 23 23 23 24 24 23 23 23 23 23 23 23 23 23
14 14 14 14 14 15 15 16 16 16 17 18 20 21 21 22 22 22 22 22 22 22 21 21 21 21 21 21 21 21 22 22 22 22 22 22 22 22 22 22 22 22 23 23 23 23 23 23 23 23 23 23 24 24 23 23 23 23 23 23 23 23 23
13 13 14 14 14 14 15 16 16 16 16 17 18 19 20 21 21 22 22 22 22 22 22 21 21 21 20 21 21 21 22 22 22 22 22 22 22 22 22 22 22 21 22 22 22 22 22 22 22 22 23 23 23 23 23 23 23 23 23 23 23 23 23
12 13 13 14 15 15 15 16 16 16 16 17 17 17 18 18 20 21 21 22 22 22 21 22 22 21 21 20 21 21 21 21 21 21 21 22 22 22 22 22 22 22 21 21 21 21 22 22 22 22 22 23 23 23 23 23 23 23 23 23 23 23 23
11 11 12 14 15 15 15 16 16 16 16 17 17 16 17 17 18 19 20 21 22 22 21 21 21 22 22 22 21 20 20 21 21 21 21 21 22 22 22 21 21 21 21 21 21 21 21 21 21 22 22 22 22 23 23 23 23 23 23 23 23 23 23
11 11 11 12 14 15 16 16 16 16 16 16 17 16 16 16 17 18 19 20 21 21 21 21 21 21 22 22 23 22 21 21 21 21 21 22 22 22 22 21 21 21 21 21 21 21 21 21 21 21 21 21 22 22 23 23 24 23 23 23 23 23 23
12 12 12 12 12 13 15 15 16 16 16 16 16 16 16 16 16 17 18 19 20 20 20 21 21 21 21 22 23 23 22 21 21 21 21 22 22 22 22 22 22 21 21 21 21 21 20 20 20 20 21 21 21 22 22 23 24 23 23 23 23 23 23
12 12 13 13 12 12 13 14 15 16 16 16 16 17 17 17 17 17 17 18 19 19 20 20 21 22 22 21 22 23 22 22 22 22 22 22 22 22 22 22 22 22 22 21 21 21 21 20 20 20 20 20 21 21 22 23 24 23 23 23 23 23 23
11 11 12 12 13 12 13 13 14 15 16 16 16 16 17 17 17 17 17 18 18 18 19 19 19 20 21 21 21 21 22 22 23 23 23 22 21 21 21 21 22 22 22 21 21 21 21 21 20 20 20 20 20 21 21 23 23 23 23 23 23 23 22
11 11 11 12 12 13 13 13 13 14 16 17 16 16 17 17 17 17 17 18 18 18 18 18 19 19 19 20 20 21 21 21 21 22 22 21 21 21 21 21 21 21 22 21 21 21 21 22 21 21 21 21 21 21 21 23 23 23 24 23 23 22 22
11 10 11 11 12 13 13 13 13 14 15 17 17 17 16 17 18 18 17 18 19 19 19 18 19 19 19 19 19 20 20 21 21 21 21 21 21 21 21 21 21 21 21 22 21 21 21 22 22 22 21 21 21 21 22 23 23 24 24 23 23 22 22
11 11 11 11 11 12 13 13 14 14 15 16 18 18 17 16 17 18 18 18 19 19 19 19 19 19 19 19 19 20 20 20 20 21 21 21 21 21 21 21 21 21 21 21 22 22 22 21 21 21 21 21 22 22 22 22 23 23 23 23 23 22 22
10 11 11 11 11 11 12 12 13 14 15 16 17 18 18 17 17 17 18 19 19 19 20 20 19 19 19 19 19 20 20 20 20 20 20 21 21 21 21 21 22 22 21 21 22 22 22 21 21 21 21 21 21 21 21 22 22 23 23 23 23 23 22
10 10 11 11 11 11 11 12 12 13 14 15 16 17 17 18 18 18 18 19 19 19 20 20 20 20 20 20 20 20 20 21 21 21 21 21 21 21 21 21 21 22 22 21 21 21 22 22 22 21 21 21 21 21 21 22 22 22 23 23 23 23 22
10 10 10 11 11 12 12 12 12 12 13 14 15 16 17 17 18 18 18 18 18 19 20 20 20 20 20 20 20 20 20 21 21 21 21 21 21 21 21 21 21 22 22 21 21 21 22 22 22 22 21 21 21 21 21 21 22 22 23 23 23 23 22
9 10 10 10 11 12 12 12 12 12 13 14 14 15 16 17 17 18 18 18 18 18 20 20 20 20 21 21 21 21 21 20 20 20 20 20 21 21 21 21 21 21 21 21 21 21 21 22 22 21 21 21 21 21 21 21 21 22 22 23 23 23 23
9 9 9 10 10 11 11 12 12 12 12 13 14 15 15 16 16 17 18 18 18 18 19 20 20 20 21 21 21 21 21 20 20 20 20 20 21 21 21 22 22 22 22 21 21 21 21 21 22 21 21 21 21 21 21 21 22 22 22 22 23 23 23
9 9 9 9 10 10 10 11 12 13 13 13 13 14 15 15 15 16 17 17 18 18 18 19 20 20 20 21 21 21 21 20 20 20 20 20 21 21 22 22 22 22 22 21 21 21 21 21 22 22 22 22 22 22 22 22 22 22 22 22 22 22 23
9 9 9 9 9 10 10 10 11 12 13 13 13 14 14 15 15 16 16 17 17 17 17 18 20 20 20 20 20 20 19 20 21 21 21 21 21 21 22 22 22 22 22 22 21 21 22 22 22 22 22 22 22 22 22 22 22 22 22 22 22 22 22
8 9 9 9 9 9 9 10 10 11 12 13 13 13 14 14 15 15 15 16 16 16 16 17 18 20 20 20 20 19 19 19 21 21 21 21 21 21 21 21 22 22 22 22 22 22 22 22 22 22 22 22 22 22 22 22 22 22 22 22 22 22 22
7 9 9 9 9 9 9 9 10 10 11 12 13 13 13 14 14 15 15 15 15 15 16 17 18 18 19 20 20 20 20 20 21 21 21 21 22 22 22 22 22 22 22 23 23 23 23 22 22 23 23 23 23 23 22 22 22 23 23 22 22 22 22
7 8 9 9 9 9 9 9 10 10 10 11 13 13 13 14 14 14 14 15 15 15 15 17 17 17 18 19 20 20 21 21 21 21 21 21 22 22 22 22 22 23 23 24 24 24 24 24 24 24 24 24 24 24 23 23 23 24 24 23 23 23 23
6 7 8 9 9 9 9 9 9 10 10 11 12 13 13 14 14 14 14 14 14 14 15 16 17 17 17 18 19 19 20 20 21 21 21 21 22 23 23 23 23 23 23 24 24 25 25 25 25 25 25 25 25 24 24 24 25 25 24 24 23 23 23
6 6 7 8 8 8 9 9 9 10 10 10 11 12 13 13 14 14 14 14 14 14 15 16 17 17 16 17 18 18 19 20 20 21 21 21 22 22 23 24 24 24 23 23 23 24 25 25 25 25 25 24 24 24 24 24 24 24 24 23 23 23 23
5 6 6 7 7 8 8 9 9 10 10 10 10 11 12 13 13 13 13 13 14 14 15 16 16 16 16 16 17 18 18 19 20 20 21 21 22 22 23 23 23 23 23 23 23 23 24 24 25 24 24 24 24 24 24 24 24 23 23 23 23 22 22

ECMWFFLT1_850_temp_072.txt.gz
Temp
22 22 22 22 22 22 22 22 22 22 22 22 22 22 22 22 22 22 22 22 22 22 22 22 22 22 21 21 21 21 20 21 21 22 22 21 22 22 21 21 21 20 20 21 21 21 21 21 21 20 20 20 20 20 20 20 20 19 19 19 19 19 19
22 22 22 22 22 22 22 22 22 22 22 22 22 22 22 22 22 22 22 22 22 22 22 22 22 22 22 22 21 21 21 21 21 21 22 22 22 22 22 21 21 21 21 21 21 21 21 21 21 21 20 20 20 20 20 20 20 20 19 19 19 19 20
23 22 22 22 22 23 22 22 22 22 22 22 22 22 22 22 22 22 22 22 22 22 22 22 22 22 22 22 22 21 21 21 21 21 22 22 22 22 22 22 21 21 21 21 21 21 21 21 21 21 21 21 20 20 20 20 20 20 20 20 20 19 20
23 23 23 23 22 23 23 23 22 22 22 22 22 22 22 22 22 22 23 23 23 23 22 22 22 22 22 22 22 22 21 21 21 22 22 22 22 22 22 22 22 21 21 21 21 21 21 21 21 21 21 21 21 21 20 20 20 20 20 20 20 20 20
21 23 23 23 23 22 22 23 23 23 22 22 23 23 23 23 22 22 23 23 23 23 23 23 22 22 22 22 22 22 22 22 22 22 22 22 22 22 22 22 22 22 22 21 21 21 21 21 21 21 22 22 21 21 21 21 20 20 20 20 20 20 20
19 22 22 22 23 23 23 23 23 23 23 23 23 23 23 22 22 22 22 23 23 23 23 23 23 22 22 22 22 22 22 22 22 22 22 22 22 22 22 22 22 22 22 22 21 21 21 21 21 21 22 22 22 22 21 21 21 21 21 21 21 21 21
16 19 21 22 22 22 22 22 23 23 23 22 22 22 22 22 22 22 22 22 23 22 22 22 22 22 22 22 22 22 22 22 22 22 22 22 22 22 22 22 22 22 22 22 22 21 21 21 21 21 22 22 22 22 22 22 22 21 21 21 21 21 21
14 16 19 21 22 22 22 22 22 22 22 22 22 22 22 22 22 22 22 22 22 22 22 23 23 22 22 22 22 22 22 22 22 22 22 22 22 22 22 22 22 22 22 22 22 22 22 22 22 22 22 22 22 22 22 22 22 22 22 21 21 21 21
14 15 16 18 20 21 22 22 22 22 22 22 22 22 22 22 22 22 22 22 22 22 22 22 23 23 23 22 22 22 22 22 22 22 22 22 22 22 22 22 22 22 22 22 22 22 22 22 22 22 22 22 22 22 22 22 22 22 22 22 22 21 21
14 15 15 16 18 19 21 21 22 22 22 22 22 22 22 22 21 21 22 22 22 22 22 22 22 22 22 22 22 22 22 22 22 22 22 22 22 22 22 22 22 22 22 22 22 22 22 22 22 21 21 21 22 22 22 22 22 22 22 22 22 22 22
14 14 15 15 16 17 18 19 20 21 21 22 22 22 22 22 21 21 21 21 22 22 22 22 22 22 22 22 22 22 22 22 22 22 22 22 22 22 22 22 22 22 22 22 22 22 22 22 22 21 21 21 21 22 22 22 22 22 22 22 22 22 22
14 14 14 15 15 16 16 17 17 18 19 20 21 21 21 21 21 21 21 21 22 22 22 22 22 22 22 22 22 22 22 22 22 22 22 22 22 22 22 22 22 22 22 22 22 22 22 22 22 22 22 22 21 21 22 22 22 22 22 22 22 22 22
15 14 14 15 16 16 16 16 16 17 17 18 19 20 20 20 21 21 21 21 21 21 21 21 22 22 22 22 22 22 22 22 22 22 22 22 22 22 22 21 21 22 22 22 22 22 22 22 22 22 22 22 22 22 22 22 22 22 22 22 23 23 22
15 15 14 15 15 16 16 16 16 16 16 17 18 19 20 20 20 20 20 21 21 21 21 21 21 21 21 21 22 22 22 22 22 22 22 22 22 22 22 22 21 21 21 22 22 22 22 22 22 22 22 22 22 22 22 22 22 22 22 22 23 23 23
13 13 14 14 14 15 15 16 16 16 16 16 17 18 18 19 20 20 20 20 20 21 21 21 21 21 21 21 21 22 22 22 22 22 22 22 22 22 22 22 22 21 21 21 22 22 22 22 22 22 22 22 22 22 22 22 22 22 22 22 23 23 23
11 11 12 12 13 14 15 15 16 16 16 16 16 17 17 18 18 19 20 20 20 20 20 21 21 21 21 21 22 22 22 22 22 22 22 22 22 22 22 22 22 21 21 21 21 21 22 22 22 22 22 22 22 22 22 22 23 23 23 23 23 23 23
10 10 11 11 12 13 14 15 15 16 16 16 16 16 17 17 17 18 19 19 20 20 20 20 21 21 21 22 22 22 22 22 22 22 22 22 22 22 22 22 22 22 22 21 21 21 21 21 21 22 22 22 22 22 22 23 23 23 23 23 23 23 23
10 10 10 11 11 12 13 14 15 15 15 16 16 16 16 17 17 17 17 18 19 20 20 20 21 21 21 21 21 21 22 22 22 21 22 22 22 22 22 22 22 22 22 22 21 21 21 21 21 21 21 21 22 22 22 23 23 23 23 23 23 23 23
10 10 10 10 11 11 12 12 13 15 15 15 15 16 16 16 16 16 16 16 17 19 20 20 20 21 21 21 22 22 22 22 22 22 22 21 22 22 23 23 22 22 22 22 22 22 21 22 21 21 21 21 21 22 22 23 23 23 23 23 23 23 23
10 10 10 10 11 11 11 12 12 13 15 15 15 16 16 16 16 16 16 15 17 18 20 20 20 20 20 21 21 21 21 22 22 22 22 22 21 21 21 22 22 23 22 22 22 22 22 22 22 22 22 21 21 21 22 23 23 24 24 24 23 23 23
9 9 10 10 10 10 11 11 12 13 14 14 15 15 16 16 17 17 17 16 17 17 18 18 19 19 19 20 20 20 20 21 21 21 21 21 21 21 21 21 21 22 22 22 22 22 22 22 22 22 22 21 21 21 21 22 24 24 24 24 24 24 23
9 9 9 10 10 10 10 11 12 12 13 13 14 15 15 16 17 17 17 17 17 16 16 17 17 18 18 19 20 19 19 19 20 20 20 20 21 21 21 21 21 21 21 21 22 22 22 22 22 22 22 21 21 21 21 22 23 24 24 25 24 24 23
10 10 10 10 10 10 10 11 11 12 12 13 13 14 14 15 16 17 17 17 17 17 17 16 17 17 18 19 20 19 19 18 19 19 19 20 20 20 21 21 21 21 20 20 21 21 22 22 22 22 22 22 21 21 21 22 22 23 24 24 24 24 23
10 10 10 10 10 10 10 11 12 12 12 13 13 14 14 15 15 15 16 17 18 18 18 17 16 16 17 18 19 19 19 18 18 18 19 19 19 20 20 20 21 21 21 20 20 21 22 22 22 22 22 22 22 22 21 22 22 22 23 24 24 24 23
10 11 11 11 10 10 10 11 11 12 12 13 13 13 14 14 15 15 15 16 17 18 18 18 17 17 17 17 18 18 19 18 18 18 18 18 18 19 19 20 20 20 21 20 20 21 21 21 21 21 22 22 22 22 22 22 22 21 22 23 23 23 23
10 11 11 11 11 11 10 10 11 12 12 13 13 13 13 14 15 15 15 16 17 18 18 18 18 18 17 17 17 18 18 18 18 18 18 18 18 19 19 19 19 20 20 20 20 20 20 21 21 21 21 22 22 22 22 22 22 22 22 22 23 23 23
10 10 11 11 11 11 11 10 10 11 12 12 12 13 13 14 15 15 15 16 17 18 18 18 19 18 18 18 18 17 17 18 18 18 18 18 19 18 18 19 19 19 20 20 20 20 20 20 20 21 21 21 22 22 22 22 22 22 22 22 22 23 22
10 11 11 11 12 12 12 12 11 11 11 12 12 12 12 13 14 14 15 15 16 17 18 18 18 19 19 19 18 18 18 18 18 18 18 18 19 19 19 19 19 19 19 20 20 20 20 20 20 21 21 21 21 22 22 22 22 22 22 22 22 22 22
9 10 11 11 12 12 12 12 12 12 11 11 12 12 12 12 13 14 14 14 15 16 17 18 18 19 19 19 18 18 18 18 18 18 18 19 19 19 20 20 20 20 20 20 19 19 19 20 20 20 21 21 21 22 22 22 22 22 22 22 22 22 22
8 9 10 10 11 11 11 12 13 13 13 12 11 12 12 12 12 13 14 14 14 15 16 18 19 19 19 19 19 19 19 19 18 18 19 20 20 19 19 20 20 21 21 20 20 20 19 20 20 20 20 21 21 22 22 22 23 23 22 22 22 22 22
8 8 8 10 11 11 11 11 12 13 14 13 12 11 12 12 12 12 13 13 14 14 15 17 19 19 19 19 19 19 19 19 18 18 19 20 20 20 20 20 20 21 21 21 21 20 19 19 20 20 20 20 21 22 22 22 22 23 23 22 22 22 22
8 8 8 9 10 10 10 11 11 12 14 14 13 12 11 12 12 12 12 13 13 14 14 16 18 19 19 19 19 19 19 19 19 18 19 20 20 20 20 20 20 21 22 22 22 22 20 19 19 20 20 20 21 22 22 22 22 22 23 23 23 23 23
7 7 7 8 9 9 9 10 11 12 13 14 14 12 11 11 12 12 12 12 12 13 13 15 16 18 19 19 19 19 19 19 20 20 20 20 20 20 20 20 21 21 22 22 23 24 23 21 20 19 20 21 22 22 22 22 22 23 23 23 23 23 23
6 7 7 7 8 8 8 9 10 11 12 14 14 13 12 11 11 12 12 12 12 12 13 14 15 17 18 18 18 18 19 19 19 20 20 21 21 20 20 20 21 21 22 23 24 24 24 23 21 21 21 22 22 23 23 23 23 23 24 23 23 23 23
6 6 7 7 7 7 7 8 9 10 11 13 14 13 12 11 11 12 12 12 12 11 12 13 14 16 17 18 18 18 18 18 19 20 20 20 21 21 21 20 21 22 23 24 24 24 24 24 23 23 23 24 23 23 23 24 24 25 25 24 24 24 24
5 6 6 6 6 7 7 7 8 9 10 12 13 12 12 12 11 12 12 12 12 11 12 13 13 15 16 17 18 18 18 18 18 19 20 20 21 21 21 21 20 21 22 24 24 24 24 24 24 24 24 24 24 24 24 25 25 25 25 24 24 24 24
4 5 6 6 6 6 6 7 7 7 9 11 12 12 12 12 12 12 12 12 12 11 12 12 13 14 16 17 18 18 18 18 18 18 19 20 20 21 21 21 21 20 21 22 23 23 23 23 23 23 23 23 23 24 24 24 24 24 24 24 24 24 23
4 4 5 5 5 5 5 6 6 6 7 9 10 11 11 12 12 12 12 12 12 11 11 12 12 13 15 16 17 18 18 17 17 16 17 18 19 20 21 21 21 21 21 21 22 22 22 22 22 22 22 22 22 23 23 23 23 23 24 24 23 23 23

ECMWFFLT1_850_temp_075.txt.gz
Temp
23 22 22 21 21 21 21 21 21 21 21 21 22 21 21 21 21 22 22 22 22 22 22 22 22 21 21 21 21 21 21 21 21 21 21 21 21 21 21 21 20 20 20 20 20 20 20 20 20 20 20 20 20 20 20 19 19 19 19 19 19 19 19
22 23 22 22 22 21 21 21 21 21 21 21 22 22 21 21 22 22 22 22 22 22 22 22 22 22 22 21 21 21 21 21 21 21 21 21 21 21 21 21 21 20 20 20 20 20 20 20 20 20 20 20 20 20 20 20 20 20 20 19 19 19 19
20 21 23 22 22 22 21 21 21 21 22 22 22 22 22 22 22 22 22 22 22 23 23 22 22 22 22 22 21 21 21 21 21 21 21 21 21 21 21 21 21 21 20 20 20 20 20 20 20 20 20 20 20 20 20 20 20 20 20 20 19 19 19
18 20 22 23 22 22 22 22 22 21 21 22 22 22 22 22 22 22 22 22 23 23 23 23 22 22 22 22 22 22 22 22 22 22 22 22 22 21 21 21 21 21 21 21 20 20 20 20 20 21 21 20 20 20 20 20 20 20 20 20 20 20 19
16 18 21 22 22 22 22 22 22 21 21 21 21 22 22 22 22 22 22 22 23 23 23 23 23 23 22 22 22 22 22 22 22 22 22 22 22 22 21 21 21 21 21 21 21 21 20 20 20 20 21 21 21 21 20 20 20 20 20 20 20 20 20
16 16 18 20 22 22 22 22 22 22 22 22 22 21 21 22 22 22 22 22 22 22 23 23 23 23 23 23 22 22 22 22 22 22 22 22 22 22 22 22 22 21 21 21 21 21 21 21 21 21 21 21 21 21 21 20 20 20 20 20 20 20 20
15 15 16 18 20 22 22 22 22 22 22 22 22 21 21 21 21 21 21 21 22 22 23 23 23 23 23 23 23 22 22 22 22 22 22 22 22 22 22 22 22 22 22 22 21 21 21 21 21 21 21 21 21 21 21 21 21 21 21 21 21 21 21
14 14 15 16 18 20 21 22 22 22 22 22 22 22 22 21 21 21 20 20 21 21 22 22 23 23 23 23 23 23 23 22 22 22 22 22 22 22 22 22 22 22 22 22 22 22 21 21 21 21 21 21 21 21 21 21 21 21 21 21 21 21 21
14 14 14 15 16 18 19 20 21 21 21 21 21 21 22 21 21 21 20 20 20 20 20 21 22 23 23 23 23 23 23 22 22 22 22 22 22 22 22 22 22 22 22 22 22 22 22 22 22 22 22 22 21 21 21 21 21 21 21 21 21 21 21
13 13 14 14 15 16 17 18 20 20 20 20 20 20 21 21 22 21 20 20 20 20 20 20 21 22 23 23 23 23 23 23 23 22 22 22 22 22 22 22 22 22 22 22 22 22 22 22 22 22 22 22 22 22 22 22 21 21 21 21 21 21 21
12 13 13 14 15 15 16 17 17 18 18 19 19 19 20 20 21 21 21 21 21 20 20 20 21 22 22 22 23 23 23 23 22 22 22 22 22 22 22 22 22 22 22 22 22 22 22 22 22 22 22 22 22 22 22 22 22 22 22 22 22 22 22
12 12 13 13 14 15 15 15 16 16 17 18 18 19 19 19 20 20 20 21 21 20 19 20 21 21 22 22 22 22 22 22 22 22 22 22 22 22 22 22 22 22 22 22 22 22 22 22 22 22 23 23 23 23 22 22 22 22 22 22 22 22 22
12 12 12 13 14 14 15 15 15 15 16 16 17 18 18 19 19 19 19 20 20 19 19 19 20 21 21 21 21 22 22 22 22 22 23 23 23 23 22 22 22 22 22 22 22 22 22 22 22 22 23 23 23 23 23 23 22 22 22 22 22 22 22
11 12 12 13 13 14 14 14 15 15 16 16 16 16 17 17 18 18 19 19 19 19 19 19 20 21 21 21 21 21 22 22 22 22 22 23 23 23 23 22 22 22 22 22 22 22 22 22 22 23 23 23 23 23 23 23 23 23 23 22 22 22 22
11 11 11 12 12 13 13 14 14 14 15 16 16 16 17 17 17 17 18 18 18 19 19 19 19 20 21 21 21 22 22 22 22 22 22 22 22 23 23 22 22 22 22 22 22 22 22 22 22 22 22 22 23 23 23 23 23 23 23 23 23 23 23
11 11 10 11 11 12 12 13 13 14 14 15 16 16 17 17 17 17 17 17 18 18 19 19 19 19 20 20 21 21 22 22 22 22 22 22 22 22 22 22 22 22 22 22 22 22 22 21 21 21 22 22 22 23 23 23 23 23 23 23 23 23 23
11 11 10 10 10 11 12 12 13 13 14 14 15 16 16 17 17 17 17 17 18 18 18 19 19 19 19 20 20 21 21 21 21 22 22 22 22 22 22 22 22 22 22 22 22 22 22 21 21 21 21 22 22 23 23 23 24 24 24 23 23 23 23
10 10 10 10 10 10 11 11 12 12 13 14 15 15 16 17 17 17 17 17 17 18 18 18 19 19 19 19 20 20 20 21 21 21 22 22 22 22 22 22 22 22 22 22 22 22 22 22 21 21 21 21 22 22 23 23 24 24 24 24 24 24 23
10 10 10 10 10 10 10 11 11 11 12 13 14 15 16 17 17 17 17 17 17 17 18 18 18 19 19 19 19 19 20 20 20 21 21 21 21 21 21 21 21 22 22 22 22 22 21 21 21 22 21 21 21 22 22 23 24 24 24 24 24 24 24
9 9 9 9 10 10 10 10 11 11 11 12 13 14 15 16 16 16 17 17 17 17 17 18 18 18 19 19 19 19 19 19 19 20 20 21 21 21 21 21 21 21 21 21 21 22 22 21 21 21 21 21 21 21 21 22 23 23 24 24 24 24 23
9 9 9 9 10 10 10 10 10 11 11 12 13 14 14 15 16 16 16 17 17 17 17 17 17 17 17 18 18 19 19 19 19 19 19 20 20 20 20 20 20 21 20 20 20 21 21 21 21 21 21 21 21 21 21 21 22 22 23 23 23 23 23
9 9 9 9 9 10 10 10 10 10 11 11 12 13 14 15 15 16 16 16 17 17 17 17 17 17 17 17 17 18 18 18 18 18 18 19 19 19 19 20 20 20 20 20 20 20 20 21 21 21 21 21 21 21 21 21 22 22 22 22 23 22 21
8 9 9 9 10 10 10 11 11 11 11 11 11 12 13 14 15 16 16 16 16 18 18 17 17 17 17 17 17 17 17 17 18 18 18 18 19 19 19 19 19 20 20 20 19 19 19 20 21 21 21 21 21 21 21 21 22 22 22 22 22 21 21
9 9 9 10 10 10 10 11 11 11 11 11 11 11 12 14 15 15 15 16 16 18 18 18 18 17 17 17 17 17 17 17 17 17 18 18 18 18 18 18 19 19 19 19 19 19 19 20 20 20 21 21 21 21 21 22 22 22 22 22 22 21 21
10 9 10 10 10 10 11 11 11 12 12 12 12 11 12 13 14 14 15 15 16 17 18 18 18 18 17 17 17 17 17 17 17 17 18 18 18 18 18 18 18 18 18 18 18 19 19 19 19 20 20 21 21 21 22 22 22 22 22 22 22 21 21
10 10 10 10 10 11 11 11 11 12 12 12 12 12 11 12 13 13 14 14 14 16 17 18 18 18 18 17 17 17 17 17 17 18 18 18 18 18 18 18 18 18 19 19 18 18 18 18 18 19 20 20 21 21 22 22 22 22 22 22 22 21 21
10 10 10 10 10 11 11 11 12 12 12 12 12 13 12 12 12 13 13 13 13 14 16 18 18 18 18 18 18 18 18 18 18 18 18 17 17 17 18 18 19 19 19 19 18 18 18 18 18 19 19 20 20 21 21 22 22 22 22 22 22 21 21
10 11 11 11 11 11 11 11 12 12 12 12 12 13 12 12 12 12 13 13 13 13 15 17 18 19 19 19 19 19 18 18 19 19 19 18 18 18 18 19 19 19 19 19 19 19 19 19 19 19 19 19 19 20 21 22 22 22 22 22 22 22 21
8 10 10 11 11 11 11 11 11 12 12 12 13 13 12 12 12 12 12 13 13 12 13 15 17 18 18 19 20 19 19 18 18 19 19 19 19 19 19 20 19 19 19 19 19 19 20 20 20 20 19 19 19 19 20 22 22 22 22 22 22 22 22
7 8 9 10 11 11 11 11 11 12 12 12 13 13 13 12 12 12 12 13 13 12 12 14 16 17 18 19 20 20 19 19 19 19 19 19 19 19 20 20 19 18 18 19 19 19 20 20 20 20 19 19 19 19 20 21 22 23 23 22 22 22 22
6 7 7 8 9 10 10 10 11 12 12 12 12 13 13 13 12 12 12 12 12 12 12 13 15 16 18 18 19 19 19 19 19 19 18 19 20 20 20 20 19 18 18 19 20 20 20 20 20 20 19 19 19 19 20 21 22 23 23 23 23 23 23
6 6 7 7 8 9 9 10 11 11 12 12 12 12 13 13 13 13 13 12 12 12 12 12 13 15 17 18 18 19 19 20 20 19 19 19 19 20 21 20 19 18 18 19 19 20 20 21 20 20 19 19 19 19 20 22 23 23 23 23 23 23 23
6 6 6 7 7 7 8 9 10 11 12 12 12 11 12 13 13 13 13 13 12 12 12 11 12 13 15 16 17 18 19 20 20 20 20 19 19 20 20 20 19 18 18 18 19 19 19 20 20 20 19 19 19 19 20 21 23 24 24 24 24 24 23
6 6 7 7 7 7 7 7 8 9 11 12 13 11 11 12 13 13 13 13 12 12 11 11 11 12 13 14 16 17 18 19 20 20 20 20 20 20 20 20 20 18 18 18 18 19 19 19 19 19 19 20 20 20 20 22 24 24 24 24 24 24 24
6 6 7 7 7 7 7 7 8 8 9 11 12 12 11 11 12 12 12 13 12 12 11 11 11 11 12 13 14 16 17 18 19 20 20 20 20 20 20 20 20 19 19 19 19 19 19 19 19 19 19 19 20 20 20 22 24 25 25 25 24 24 24
6 6 6 7 7 7 7 7 7 8 8 9 11 12 11 11 11 11 11 11 12 11 11 11 11 11 11 12 13 14 16 17 18 19 20 20 20 21 20 21 21 20 20 21 21 20 20 20 20 20 20 19 19 19 20 22 23 24 24 24 24 24 24
5 4 5 5 5 5 5 6 6 7 8 9 9 11 11 11 10 10 10 10 11 11 11 11 11 11 11 11 12 13 15 16 17 18 19 19 20 21 21 21 21 21 21 21 21 21 20 20 21 21 21 20 21 21 20 21 21 22 22 23 23 23 23
3 3 4 4 4 4 4 4 4 5 7 8 9 10 11 10 10 9 10 10 10 10 10 10 10 11 11 11 12 12 13 15 16 17 18 19 20 20 21 21 21 22 22 21 20 20 20 21 21 21 21 21 21 21 21 21 21 21 22 22 22 22 22

ECMWFFLT1_850_temp_078.txt.gz
Temp
25 25 24 24 24 23 24 23 23 23 23 22 22 22 22 22 21 21 21 22 22 22 22 22 22 22 21 21 21 21 21 21 21 21 21 21 21 21 20 20 20 19 19 19 19 19 20 20 20 20 20 20 20 20 19 20 20 20 20 20 20 20 20
24 25 25 24 24 24 24 23 23 23 23 22 22 22 22 22 21 21 21 22 22 22 22 22 22 22 22 22 22 22 22 22 21 21 21 21 21 21 21 20 20 20 20 19 19 19 20 20 20 20 20 20 20 20 20 20 20 19 19 20 20 20 20
22 23 24 24 24 24 23 23 23 22 22 22 22 22 22 22 21 21 22 22 22 22 22 22 22 22 22 22 22 22 22 22 22 22 22 22 22 21 21 21 21 20 20 20 19 19 20 20 20 20 20 20 20 20 20 20 20 20 20 20 20 20 20
21 22 23 24 24 24 23 23 23 23 22 22 22 22 22 22 21 22 22 23 23 23 22 22 22 22 22 22 22 22 22 22 22 22 22 22 22 21 21 21 21 21 20 20 20 19 19 19 20 20 20 20 20 20 20 20 20 20 20 20 20 20 20
20 21 21 22 23 24 24 23 23 23 22 22 22 22 22 22 21 21 22 22 22 22 23 23 23 23 22 22 22 22 22 22 22 22 22 22 21 22 21 21 21 21 21 20 20 20 20 20 20 20 20 20 20 20 20 20 20 20 20 20 20 20 19
19 19 20 20 21 23 23 23 23 23 23 23 23 22 22 22 22 21 21 21 21 21 22 22 22 22 23 23 22 22 22 22 22 22 22 22 22 22 22 22 21 21 21 21 20 20 21 21 20 20 20 20 20 20 20 20 20 20 20 20 20 20 19
17 18 18 18 19 20 21 22 22 22 22 22 22 22 22 22 22 22 22 21 21 21 21 21 21 21 22 23 23 22 22 22 22 22 22 22 22 22 22 22 22 21 21 21 21 21 21 21 20 20 20 20 19 19 19 20 20 20 20 21 20 20 20
15 16 17 17 17 18 19 20 21 21 22 22 22 23 22 22 22 22 22 22 21 21 21 21 21 20 20 21 22 22 23 22 22 22 22 22 22 22 22 22 22 22 21 21 21 22 21 21 21 21 21 20 20 20 20 20 21 20 20 20 21 21 20
14 14 15 15 16 16 17 19 20 21 21 21 22 22 22 22 22 22 22 21 21 22 22 22 21 21 20 20 21 22 22 22 22 22 22 22 22 22 22 22 22 22 22 22 22 22 22 22 21 21 21 21 20 21 21 21 21 21 21 21 21 21 20
14 13 14 14 15 16 17 18 19 20 20 20 21 21 21 22 22 22 21 21 21 22 22 21 21 21 20 20 20 21 21 22 22 22 22 22 22 22 21 21 22 22 23 22 22 22 22 22 22 21 22 21 21 21 21 21 21 21 21 21 22 22 21
13 13 13 14 14 15 16 17 18 18 18 18 19 19 20 21 21 21 21 21 21 21 21 21 21 21 21 20 20 20 20 21 21 21 22 22 22 21 21 21 21 22 23 23 22 22 22 22 22 22 22 22 22 22 22 22 22 22 22 22 22 22 22
13 13 13 14 14 14 15 15 16 16 16 17 17 18 19 19 20 20 20 20 20 20 20 21 21 21 21 21 21 20 20 20 20 21 21 22 22 21 21 21 21 21 22 23 23 22 22 23 23 22 23 23 22 22 22 22 22 22 22 22 22 22 22
13 13 13 13 14 15 15 15 15 15 16 16 16 17 17 18 18 19 19 19 19 19 19 20 20 20 20 20 21 20 20 20 20 20 21 21 22 22 21 21 21 21 21 22 22 22 22 22 23 23 23 23 23 22 22 22 22 22 22 22 22 22 22
13 13 13 13 13 14 15 15 15 15 15 15 16 16 16 17 17 18 18 18 18 19 19 20 20 20 20 20 20 20 21 21 20 20 20 21 21 22 22 21 21 21 21 21 22 22 22 22 22 23 23 23 23 23 22 22 23 22 22 23 22 22 22
14 13 13 12 12 13 14 15 15 16 15 15 15 16 16 16 17 17 17 17 18 18 19 20 20 20 20 20 20 20 21 21 21 20 20 21 21 22 22 22 21 21 21 21 22 22 22 21 21 22 23 23 23 23 23 23 23 23 23 23 23 23 22
15 14 13 13 12 12 13 14 15 15 16 16 16 16 16 16 16 17 17 17 17 18 18 19 20 20 20 20 20 20 20 20 21 21 20 21 21 22 22 22 21 21 22 22 22 22 22 22 21 21 22 23 23 23 23 23 23 23 23 23 23 23 23
15 14 14 13 12 12 12 13 14 14 15 15 15 16 16 15 16 16 16 17 17 17 18 18 19 20 20 20 20 20 20 19 20 21 21 21 21 21 22 22 21 21 21 22 22 22 22 22 22 22 21 21 22 22 23 23 23 23 23 23 23 23 23
14 14 14 13 13 12 11 12 13 13 14 14 14 15 15 15 15 16 16 16 17 17 17 18 18 19 19 19 19 20 19 19 19 20 21 21 21 21 21 21 21 21 21 21 21 22 22 22 22 22 22 21 21 21 22 22 23 23 24 24 24 23 23
13 13 13 13 13 12 11 11 12 12 13 13 14 14 14 15 15 15 15 16 16 16 16 17 17 18 18 18 19 19 19 19 19 19 19 20 20 20 20 21 21 21 21 21 21 21 21 22 22 22 22 22 21 21 21 21 22 23 24 24 24 24 23
12 13 13 12 12 12 11 11 12 12 12 13 13 14 14 14 15 15 15 16 16 15 15 15 16 17 17 18 18 18 18 19 19 19 19 19 19 19 20 20 20 21 21 20 20 20 21 21 21 21 22 22 22 22 22 21 21 22 23 23 24 24 24
12 12 12 12 12 12 11 11 12 12 13 12 12 13 14 14 15 15 16 16 15 14 14 14 15 16 17 17 17 17 18 18 19 19 19 19 18 18 19 19 19 20 20 20 19 19 20 21 21 21 21 22 22 22 22 22 22 22 22 23 23 23 23
12 12 12 12 12 11 11 11 11 12 13 13 12 12 13 14 15 15 16 16 15 14 14 14 14 15 16 16 17 17 17 18 18 18 19 19 19 18 19 19 19 19 19 19 19 19 19 20 20 20 21 21 21 21 22 22 22 22 22 22 22 22 22
12 11 11 11 11 11 11 11 11 12 12 12 12 12 13 14 15 15 15 16 16 15 14 13 14 15 15 16 16 17 17 17 18 18 18 19 19 19 19 19 19 19 18 18 19 19 19 20 20 20 20 20 20 21 21 22 22 22 22 22 22 22 21
12 12 12 11 11 11 11 11 12 12 12 12 12 13 13 14 14 14 15 15 15 15 14 14 14 15 16 16 16 16 17 17 17 17 18 18 18 18 19 18 18 18 18 18 18 19 19 20 20 20 20 20 20 20 21 22 22 22 22 22 22 22 22
11 11 11 11 12 11 11 12 12 13 12 12 13 13 14 14 14 14 14 15 15 14 14 15 15 16 16 16 16 16 17 17 17 17 17 18 18 18 18 18 18 19 19 19 19 19 19 20 20 20 20 20 20 20 20 20 21 22 22 22 22 22 22
11 11 11 11 11 11 11 11 12 12 12 12 13 14 14 14 14 14 14 14 14 13 14 15 16 16 16 17 17 17 17 17 18 18 18 18 18 18 18 18 18 19 19 19 20 19 19 20 20 20 21 20 20 20 20 20 21 21 22 22 22 22 22
10 10 10 10 11 11 11 11 11 11 11 12 13 14 14 14 14 14 14 14 14 13 13 14 15 16 17 17 17 17 17 18 18 18 18 19 19 18 18 18 18 18 19 19 19 20 20 20 20 20 20 21 20 20 20 20 20 21 21 22 22 22 22
9 10 9 9 10 11 11 11 11 11 11 11 12 12 13 14 14 14 14 14 14 14 13 14 15 15 16 17 17 17 17 17 18 19 19 19 19 18 17 17 17 17 18 19 19 19 20 20 20 20 20 20 20 20 20 20 20 20 20 21 22 22 22
9 9 9 9 9 10 10 10 11 12 12 11 11 12 12 13 14 14 14 14 14 14 14 14 14 15 15 16 16 17 17 17 18 18 19 19 19 18 17 16 17 17 18 18 19 19 20 20 20 20 20 20 20 20 20 20 21 21 20 20 21 22 22
8 8 8 9 9 9 9 9 10 11 11 12 11 12 12 13 13 14 14 14 14 14 14 14 14 14 15 15 15 15 16 17 18 18 19 19 19 19 18 18 17 18 18 18 18 19 19 20 20 20 20 20 20 20 20 20 21 21 21 20 21 22 23
8 8 8 8 8 8 8 8 9 9 10 11 11 11 11 12 12 13 13 14 15 14 14 14 14 14 14 15 15 15 15 16 17 18 19 19 19 19 19 19 18 19 19 18 18 18 19 19 19 19 20 20 20 20 20 20 20 20 21 20 21 21 22
7 7 7 7 8 8 8 8 8 8 9 10 10 10 10 11 11 12 13 13 14 14 14 14 14 14 14 14 15 16 15 16 17 18 19 19 19 19 19 19 19 19 19 19 18 18 18 18 18 19 19 19 20 20 20 20 20 20 20 20 20 21 21
7 7 7 7 7 7 7 8 8 8 8 9 10 10 10 10 11 11 12 13 13 13 14 14 14 14 14 14 14 15 15 16 16 17 18 19 19 19 19 19 19 19 20 20 20 19 19 18 18 18 18 18 19 20 20 19 20 20 20 20 20 20 20
7 7 6 6 6 6 6 7 8 8 8 9 10 10 10 11 11 11 11 12 12 12 13 13 13 13 14 14 14 14 15 15 16 16 17 17 18 18 18 19 19 18 19 21 21 20 20 19 18 18 18 18 19 19 19 20 20 20 20 19 20 20 20
6 6 6 6 6 6 6 6 7 8 9 9 10 10 10 10 11 11 11 11 11 11 11 12 12 13 13 13 14 13 14 14 15 15 15 15 17 18 18 19 20 19 20 21 21 20 20 20 19 19 19 18 19 19 20 21 20 20 20 19 20 20 20
6 6 6 6 6 6 5 6 6 6 7 8 9 10 10 10 11 11 10 10 10 10 10 10 11 11 12 12 12 12 12 13 14 15 15 15 16 17 16 18 20 21 21 21 22 21 21 21 21 21 20 19 19 20 21 20 20 20 20 20 19 20 19
6 6 6 6 6 6 5 6 6 6 6 6 7 8 8 9 10 10 10 10 9 9 9 9 10 10 10 11 11 11 12 12 13 14 15 15 15 15 14 16 19 21 21 21 21 21 22 22 22 22 21 20 20 20 20 20 20 20 20 20 19 19 19
6 6 6 6 6 6 6 6 6 6 6 6 6 6 6 7 8 9 9 9 8 8 8 8 9 9 9 10 10 11 11 11 12 13 14 15 15 15 14 13 15 18 20 21 21 22 22 22 22 22 21 21 21 20 21 21 20 20 20 19 19 19 19

ECMWFFLT1_850_temp_081.txt.gz
Temp
24 23 23 23 23 22 23 23 23 23 23 23 23 24 24 23 23 23 22 21 22 22 22 22 22 21 21 21 21 22 22 21 21 21 21 20 20 20 20 20 20 20 20 20 20 20 20 20 20 19 20 20 20 20 20 20 20 20 20 20 19 19 19
24 24 23 23 23 22 22 22 22 22 22 23 23 23 24 23 23 23 21 21 22 22 22 22 22 22 22 21 21 22 22 22 21 21 21 20 20 20 20 20 20 20 20 20 20 20 20 20 20 20 20 20 20 20 20 20 20 20 19 20 20 20 20
23 23 23 22 22 22 22 22 22 22 22 23 23 23 23 23 23 22 21 21 21 22 22 22 22 22 22 22 22 22 22 22 22 22 21 21 20 20 20 20 20 20 20 20 20 20 20 20 20 20 20 20 20 20 20 20 20 20 20 20 20 20 21
21 22 22 22 22 22 22 22 22 23 22 23 23 23 23 23 22 22 21 21 21 21 22 22 22 22 22 22 22 22 22 22 22 21 21 21 21 21 20 20 20 20 20 20 20 20 20 20 20 20 21 20 20 20 20 20 20 20 21 21 20 20 21
21 21 22 22 22 22 22 22 22 22 22 22 23 22 22 22 22 22 21 21 21 22 22 22 22 22 22 22 22 22 22 22 22 21 21 21 21 21 21 21 20 20 20 20 20 20 20 20 20 20 21 21 20 20 20 20 20 21 21 21 20 20 20
21 21 21 22 21 21 22 22 22 22 21 21 22 22 22 22 22 22 21 21 21 21 22 22 21 22 22 22 22 21 22 22 22 22 21 20 21 21 21 21 21 21 21 21 21 20 20 20 20 20 20 20 20 20 20 20 20 20 21 21 21 20 20
20 20 20 21 21 21 20 21 21 21 21 21 21 21 21 21 21 21 21 21 21 21 21 21 22 22 22 22 22 21 22 22 22 22 21 21 21 21 21 21 21 21 21 21 21 21 20 20 20 20 20 20 20 20 20 20 20 20 20 21 21 21 20
18 19 19 19 20 20 19 19 20 20 20 20 21 20 20 21 21 21 21 21 21 21 21 21 22 22 22 22 22 21 21 21 22 22 22 21 21 21 21 21 21 21 21 21 21 21 21 20 20 20 20 20 20 20 20 20 20 20 20 20 21 21 20
16 17 17 18 18 18 18 18 18 19 19 19 20 20 20 21 21 21 21 21 20 20 21 21 22 22 22 21 21 21 21 21 21 22 21 21 21 21 21 21 21 21 21 21 21 21 21 21 21 20 20 20 20 20 20 20 20 20 20 20 21 21 21
16 16 16 17 17 16 17 17 18 18 18 19 19 20 20 21 21 21 21 20 20 20 21 22 23 23 22 21 21 21 21 21 21 21 21 22 22 22 22 22 22 21 21 22 22 22 21 21 21 21 20 20 20 20 20 20 20 20 20 20 21 21 21
16 15 15 15 15 16 16 17 17 17 18 18 18 18 19 19 20 20 21 21 21 21 21 22 23 23 23 22 22 22 21 21 22 22 22 22 22 22 23 23 22 22 21 22 22 22 22 21 21 21 20 20 21 21 21 21 21 21 21 20 20 21 21
16 15 15 15 15 15 15 16 16 17 17 17 18 18 18 18 19 20 20 20 21 21 21 22 22 23 23 22 22 22 22 22 22 22 22 22 22 23 23 23 23 23 22 22 22 22 22 22 21 21 21 21 21 21 21 22 22 22 22 21 21 21 21
16 16 15 14 14 14 15 15 16 16 16 16 17 18 18 18 19 19 20 20 20 20 20 20 21 21 22 23 22 22 22 22 22 22 22 22 22 23 23 23 23 23 23 22 22 22 23 22 22 22 22 23 23 22 21 22 22 22 22 22 21 21 21
17 17 15 15 14 14 14 15 15 16 16 16 17 17 18 18 18 19 20 20 20 20 20 20 20 20 21 22 22 22 22 22 22 22 22 22 22 22 22 23 23 24 23 23 22 22 23 23 22 22 22 23 23 23 22 22 22 22 23 23 22 21 21
18 17 16 15 14 14 14 14 14 15 16 16 17 17 17 17 18 18 18 19 20 20 20 20 20 20 21 21 21 21 22 22 22 22 22 22 22 22 22 22 23 23 23 23 23 22 23 23 23 22 22 22 23 23 22 22 22 22 22 23 23 22 22
18 17 17 15 15 14 14 13 14 14 15 16 16 16 17 17 17 17 18 18 19 19 20 20 20 20 20 20 20 20 21 21 21 21 21 21 21 21 21 21 22 22 22 23 23 22 22 23 23 23 22 22 22 22 22 22 22 22 22 23 23 23 22
18 17 17 16 15 15 14 14 13 13 14 15 15 16 16 16 17 17 17 17 17 18 19 19 20 20 19 19 19 19 20 20 20 20 20 20 21 21 20 21 21 21 22 22 22 22 22 22 22 23 23 22 22 22 22 22 22 22 22 22 23 23 22
17 17 17 16 15 15 14 14 14 13 13 13 14 15 15 16 16 16 16 16 16 17 18 18 19 19 19 19 18 19 20 20 20 20 20 20 20 20 20 20 20 20 21 21 21 21 21 21 21 22 22 23 23 22 22 22 23 22 22 22 23 23 23
17 17 16 16 16 15 14 14 14 14 13 13 13 14 14 15 15 15 16 15 15 16 16 16 17 17 18 18 18 18 19 20 19 20 20 20 20 20 20 19 20 20 20 20 21 21 21 21 21 21 21 22 22 22 23 23 23 23 22 22 22 23 23
16 16 16 16 16 15 14 14 14 14 14 13 14 14 14 14 15 15 16 16 15 15 15 16 16 16 17 18 18 18 19 19 19 19 19 19 19 19 19 19 19 20 20 20 20 20 20 20 20 20 21 21 22 22 22 22 23 23 22 22 22 22 23
15 16 16 15 15 14 14 14 14 14 14 14 14 14 14 14 14 14 15 16 15 15 15 15 15 16 16 17 18 18 18 18 19 19 19 18 19 19 19 19 19 19 19 19 20 20 20 20 20 20 20 21 21 22 22 22 22 22 22 22 22 22 22
15 15 15 15 15 14 14 14 14 14 14 14 15 14 14 15 15 14 14 15 15 15 15 14 14 14 15 15 16 17 17 17 18 18 18 18 18 19 19 19 19 19 19 19 20 20 20 20 20 20 20 20 21 21 21 22 22 22 22 22 22 22 22
15 14 15 15 15 14 14 14 14 14 14 15 15 15 14 14 15 14 14 15 15 15 15 14 14 15 15 15 15 15 16 16 17 17 18 18 18 18 19 19 19 20 20 20 21 21 20 20 20 20 20 21 20 21 21 21 22 22 22 22 22 22 22
15 15 15 14 14 15 14 14 14 14 14 15 15 14 14 14 14 14 14 14 15 15 15 15 15 16 16 16 16 16 15 15 16 16 17 17 17 18 18 18 19 19 20 20 21 20 20 21 21 20 21 21 21 21 21 21 21 22 22 22 22 22 22
15 14 14 14 14 14 13 14 14 14 14 15 14 14 14 14 14 14 14 15 15 15 15 15 16 17 17 17 17 16 15 15 15 15 16 16 17 17 17 18 18 19 19 20 20 20 20 21 21 20 21 21 21 21 21 21 21 21 22 22 22 22 22
14 14 14 14 14 13 13 13 14 14 14 14 14 14 14 14 14 14 14 15 15 14 14 14 16 17 17 17 17 17 16 15 15 15 15 15 16 17 17 17 18 19 19 19 19 19 19 20 20 20 20 21 21 21 21 21 21 21 21 22 22 22 22
13 13 13 13 13 12 12 13 13 13 14 14 13 14 14 14 13 14 15 15 14 14 14 14 15 16 17 17 17 17 17 17 16 16 15 15 16 17 17 17 18 18 18 18 19 19 19 19 19 19 20 20 21 21 21 21 22 21 21 21 22 22 22
13 12 12 12 12 12 12 13 13 13 13 13 13 13 13 13 13 13 14 15 14 14 14 14 15 16 16 17 17 16 17 17 17 17 16 16 16 17 17 17 17 17 17 18 18 18 18 19 19 19 20 20 20 21 21 21 21 22 21 21 21 21 21
12 12 12 12 12 12 12 12 12 12 12 12 13 13 13 12 12 13 14 14 14 14 14 15 16 16 16 16 17 17 17 17 17 17 17 17 17 17 17 17 18 18 18 18 18 18 18 19 19 19 19 20 20 20 20 20 21 21 21 21 21 21 21
11 11 11 11 12 11 11 11 11 11 11 12 12 12 12 12 12 12 12 13 13 14 14 15 16 16 16 16 16 17 17 16 17 17 17 17 17 18 18 18 18 18 18 18 18 18 18 18 19 19 19 19 20 20 20 20 20 20 21 21 21 21 21
11 11 11 11 11 10 10 10 10 11 11 11 11 11 11 11 11 11 11 11 12 12 13 14 14 15 15 15 16 16 17 17 16 17 17 17 17 17 18 19 18 18 19 19 18 19 19 18 19 19 19 19 19 19 19 20 20 20 20 20 20 20 21
10 10 10 10 10 9 9 10 10 10 11 11 11 11 11 11 11 11 11 11 11 11 12 12 12 13 13 14 15 15 16 16 16 16 16 15 16 17 17 18 18 18 18 19 18 18 19 19 19 19 19 19 19 19 19 20 20 20 21 20 20 20 20
9 9 9 9 9 9 9 9 9 10 10 10 11 11 10 10 11 10 10 11 11 11 11 11 12 12 12 12 13 13 14 15 16 17 16 16 16 16 17 17 16 16 17 18 18 18 18 19 19 19 19 19 19 19 19 20 20 20 20 20 19 19 20
9 9 9 8 8 8 8 8 8 9 9 10 11 11 10 10 11 11 11 11 11 10 10 11 11 12 12 12 12 12 13 14 15 16 16 17 16 16 16 16 16 16 16 16 16 17 18 18 18 18 19 18 18 19 20 20 20 19 20 20 19 19 19
9 9 9 8 8 8 8 8 8 8 8 9 10 10 10 10 11 10 10 10 10 10 10 10 10 11 11 12 12 12 12 13 14 14 15 16 16 15 16 17 17 17 17 17 17 17 18 18 18 19 18 18 18 19 20 19 19 19 19 19 19 18 18
9 9 9 8 8 8 8 8 8 8 7 8 8 8 9 10 10 10 9 9 10 10 10 10 9 10 10 11 12 12 13 13 14 14 15 15 15 15 15 16 17 18 18 18 18 18 18 18 18 19 18 18 19 20 19 19 20 20 20 19 19 19 19
9 8 8 8 8 8 8 8 7 7 7 8 8 8 8 8 9 9 9 9 9 9 9 9 9 10 10 10 11 11 12 12 13 13 13 13 13 14 14 15 16 17 18 18 18 18 18 18 18 18 17 17 19 20 21 20 21 21 20 20 20 20 19
8 8 8 7 7 7 7 7 7 7 7 7 7 7 8 8 8 8 8 9 9 9 9 9 9 9 10 10 10 10 10 11 11 12 12 12 12 12 13 14 15 16 17 18 18 18 18 18 18 18 18 17 18 20 21 21 21 21 21 21 21 20 19

ECMWFFLT1_850_temp_084.txt.gz
Temp
24 23 23 23 23 22 22 23 23 23 23 23 23 23 23 23 23 23 21 21 21 22 22 22 22 22 22 22 22 22 21 21 21 21 20 20 20 20 20 21 20 20 20 20 21 21 21 21 21 21 21 21 21 20 20 20 20 21 20 20 21 21 21
24 23 23 23 22 22 22 22 23 23 23 23 23 23 22 22 22 22 22 21 21 22 23 22 22 22 22 22 22 22 22 21 21 22 21 21 20 20 20 20 20 20 20 20 20 20 20 21 21 21 21 21 21 21 21 21 21 21 20 20 21 21 20
24 24 23 22 22 22 21 22 22 22 22 23 23 22 22 22 21 20 21 21 21 22 22 22 22 22 22 22 22 22 22 22 22 22 21 21 21 21 20 20 20 20 20 20 20 20 20 21 21 21 21 21 21 21 21 21 21 21 21 21 21 21 21
23 23 23 22 23 22 21 22 22 22 22 22 22 22 22 22 21 20 20 21 21 21 22 22 22 22 22 22 21 22 22 22 22 22 22 21 22 21 20 20 20 20 20 20 20 20 20 20 21 21 21 21 21 21 21 21 21 21 21 21 21 21 21
23 23 22 22 22 21 21 21 22 22 21 21 21 21 22 22 22 21 20 20 20 21 21 22 22 21 21 21 21 21 22 22 22 22 22 21 21 21 20 20 21 20 20 20 20 20 20 20 21 21 22 21 21 21 21 21 21 21 21 21 21 21 21
23 22 22 21 21 21 21 21 21 21 21 21 21 21 21 21 22 21 21 21 20 20 20 21 21 21 21 21 21 21 22 22 22 22 22 21 21 21 21 21 21 21 21 20 20 20 20 20 21 21 22 22 21 21 21 22 21 21 21 21 21 21 21
22 22 21 20 20 20 20 20 20 21 21 21 21 21 21 21 21 21 21 21 21 20 20 20 21 21 21 21 21 21 21 22 22 22 22 21 21 21 21 21 21 21 21 21 20 20 20 20 20 20 21 21 21 20 21 21 21 21 21 21 21 21 21
20 21 21 20 19 18 18 19 19 20 21 21 20 20 20 21 21 21 21 21 20 21 21 21 21 21 21 21 21 21 21 22 22 23 22 21 21 21 21 21 21 21 21 21 21 21 20 21 20 20 21 21 20 20 20 21 21 21 21 22 21 21 21
19 19 19 19 18 17 17 18 19 19 20 20 20 20 20 20 21 21 20 20 20 21 21 21 21 21 21 21 21 21 21 21 22 22 22 21 21 21 21 21 21 21 21 21 21 21 21 21 21 21 20 20 20 20 20 20 21 21 21 21 22 22 21
18 18 17 17 17 16 16 17 18 18 19 20 19 19 19 20 21 20 20 20 20 21 21 21 21 21 21 21 22 21 21 21 21 22 21 21 21 21 21 21 21 21 21 21 21 21 21 21 21 21 21 21 20 20 21 20 21 21 21 20 21 22 22
17 16 16 16 15 16 16 17 17 17 18 18 18 18 19 19 20 20 20 20 20 21 21 21 21 21 21 22 22 22 21 20 21 22 21 21 22 22 22 22 22 21 21 21 22 22 22 21 21 21 21 21 21 21 21 21 21 21 21 21 21 22 22
16 16 15 15 15 16 16 16 17 17 17 17 17 18 18 18 19 19 19 20 20 20 20 21 21 21 21 21 22 23 22 20 20 21 22 22 22 22 22 22 22 22 22 22 22 22 22 22 21 21 21 21 21 21 22 21 21 22 22 21 20 21 22
16 16 15 15 15 15 15 16 16 16 16 16 16 17 17 17 17 18 19 19 19 19 20 20 20 20 21 21 21 21 21 20 20 20 21 22 22 23 23 23 23 23 22 22 22 22 22 22 22 22 21 21 22 22 22 22 22 22 22 22 21 21 21
17 16 16 15 15 15 15 15 15 16 16 16 16 17 17 18 17 17 18 19 18 19 19 18 18 19 20 20 20 20 19 19 20 20 20 20 21 22 23 23 23 23 23 23 22 22 22 23 22 22 22 21 22 22 22 22 22 22 22 22 22 21 21
18 17 16 16 15 15 14 14 14 15 15 16 17 17 18 19 18 16 16 18 18 18 18 18 18 18 18 19 20 20 19 19 20 21 20 20 21 22 23 23 23 23 23 23 23 22 22 23 23 23 22 22 21 22 21 21 22 22 22 23 23 22 21
19 18 17 16 16 15 15 14 14 14 14 15 16 16 17 17 17 16 16 17 18 18 18 18 18 18 18 18 18 19 19 19 20 20 21 21 21 21 22 22 23 23 23 23 23 23 23 23 23 23 23 22 22 21 21 21 21 22 23 23 23 23 23
19 18 17 16 16 16 15 15 14 14 14 14 15 15 16 16 17 17 16 17 18 18 18 18 18 19 19 18 18 18 19 19 19 20 20 21 21 21 21 22 22 22 22 22 22 23 23 23 23 23 23 23 22 21 21 21 21 22 22 23 23 23 23
18 18 17 16 16 16 16 15 15 15 15 15 15 15 15 16 16 16 16 17 17 17 17 17 18 19 19 19 18 18 18 18 19 19 20 20 20 21 21 21 22 22 22 22 22 22 22 22 22 23 23 23 23 22 22 22 22 22 22 22 23 23 23
18 18 17 17 16 16 16 16 15 15 15 15 15 15 15 15 15 16 16 16 16 16 16 17 18 19 19 19 18 18 19 19 19 19 19 19 19 20 20 21 21 21 22 22 22 22 22 22 22 22 22 23 23 23 23 22 22 22 22 22 23 23 23
18 18 17 17 16 16 16 15 15 15 15 15 15 15 15 15 15 15 15 15 15 16 16 16 16 17 18 18 18 18 18 19 19 18 18 19 19 19 19 19 20 20 21 21 22 21 21 21 22 22 22 22 22 23 23 23 23 23 23 23 23 23 23
17 17 17 16 16 15 15 15 15 16 16 16 16 15 15 15 15 15 15 15 15 15 15 16 16 16 17 17 18 18 18 19 19 18 18 18 19 19 19 19 19 20 20 21 21 21 21 21 21 21 21 21 21 22 22 22 23 23 23 23 23 23 23
17 17 16 16 16 15 15 15 15 15 16 16 16 16 15 15 15 15 15 15 15 15 15 16 16 16 16 17 17 17 17 17 17 17 17 18 18 19 19 19 19 20 20 20 20 21 21 21 21 21 21 21 21 21 21 22 22 22 23 23 23 23 23
16 16 16 16 16 15 15 15 15 15 16 16 16 15 15 15 15 15 15 15 15 15 15 15 15 15 16 16 17 16 16 16 16 16 16 17 18 18 18 19 19 19 19 19 19 20 20 21 21 21 21 21 21 21 21 21 21 21 22 22 22 22 22
16 16 16 16 16 15 15 15 15 15 16 16 15 15 15 15 15 15 15 15 16 16 15 15 15 16 16 16 16 17 16 16 16 16 16 16 16 17 18 18 19 19 19 19 19 19 19 20 21 21 21 20 20 20 20 20 21 21 21 22 22 22 22
16 16 16 16 15 15 14 15 15 15 16 15 15 15 15 15 15 15 15 16 16 15 15 15 15 16 16 16 16 16 17 17 17 17 16 16 16 16 17 18 19 19 19 19 19 19 19 19 20 20 20 20 19 20 20 20 20 20 21 21 21 21 22
15 15 15 15 15 14 14 14 14 15 15 15 15 15 15 15 14 14 14 15 15 15 15 15 15 16 17 17 17 17 17 17 17 17 17 17 17 17 17 18 19 19 19 19 19 19 19 18 19 19 19 19 19 19 20 20 20 20 20 20 20 21 21
14 15 15 14 14 14 14 14 14 14 14 14 14 15 14 14 14 13 14 14 14 14 14 14 15 16 17 17 17 17 17 17 17 17 17 17 17 17 17 18 18 18 18 18 19 19 18 18 18 18 18 19 19 19 19 19 19 19 19 19 19 20 20
14 14 14 14 14 13 13 13 13 13 14 14 14 14 14 14 13 13 13 14 13 13 13 14 15 16 17 17 17 17 17 17 17 18 17 17 18 18 17 18 18 18 18 18 19 19 19 19 18 18 18 19 19 20 19 19 19 19 19 20 20 20 20
13 13 13 13 13 13 12 12 12 12 13 13 13 13 13 13 13 13 13 13 13 13 13 14 15 16 16 16 17 17 17 17 17 18 18 18 18 18 18 18 18 18 18 19 19 19 19 19 19 19 19 19 19 19 19 19 20 20 21 21 21 20 20
12 12 12 13 12 12 12 12 12 12 12 13 12 12 12 12 12 12 12 12 12 12 13 14 14 15 15 15 16 16 17 17 17 17 17 18 18 18 18 18 19 19 19 19 19 18 18 18 18 18 18 18 19 19 19 20 20 21 21 21 20 20 20
12 12 12 12 11 11 11 11 11 11 12 12 12 11 11 11 11 11 11 11 12 12 12 12 13 13 13 14 15 15 16 16 16 16 17 17 17 17 17 18 18 19 19 19 19 18 19 19 19 18 18 18 18 19 19 20 20 20 20 20 20 20 20
11 11 11 11 10 11 11 10 11 11 11 11 11 11 11 11 11 11 11 11 11 11 11 11 11 12 12 13 14 14 14 15 15 16 16 17 17 17 17 17 18 18 18 18 18 18 18 18 18 18 18 18 18 19 19 20 20 19 19 19 19 20 19
10 10 10 10 10 10 10 10 10 10 10 10 10 11 11 10 10 10 10 10 11 11 11 11 11 11 11 12 13 13 14 14 15 15 16 17 17 17 18 17 17 17 17 17 17 17 17 17 17 17 17 17 18 19 19 19 18 18 18 18 18 18 19
10 10 10 10 9 9 9 9 9 9 9 9 9 10 10 10 10 10 10 10 10 10 10 10 10 10 10 11 12 12 13 13 13 14 15 15 16 16 16 17 17 17 17 16 16 16 16 17 17 17 17 17 18 18 18 18 18 18 18 18 18 18 18
10 10 10 9 9 9 9 9 9 8 8 9 9 9 9 10 10 9 9 9 9 9 10 10 10 10 10 10 11 12 12 13 13 14 14 15 15 15 15 16 16 16 16 16 16 16 16 17 17 18 18 18 18 18 18 18 18 18 18 18 18 18 18
9 9 9 9 9 9 8 8 8 8 8 8 8 8 8 9 9 9 9 9 9 9 9 9 9 9 10 10 11 11 12 12 13 13 14 14 14 15 15 15 16 15 15 16 16 16 16 17 17 18 18 18 19 19 18 18 19 19 19 18 18 18 18
9 9 9 9 8 8 8 8 8 8 8 8 8 8 8 8 8 8 8 9 9 9 9 9 9 9 9 9 10 10 10 11 11 11 12 12 13 13 14 14 15 15 16 16 16 16 17 17 17 17 17 18 18 19 18 18 19 19 19 19 19 19 18
9 9 8 8 8 8 9 9 8 8 8 8 7 7 7 8 8 8 8 8 8 8 9 9 8 9 9 9 9 9 9 9 10 10 10 11 11 11 12 12 13 14 14 15 15 15 15 15 15 16 16 17 17 18 18 18 18 18 19 19 19 19 19

ECMWFFLT1_850_temp_087.txt.gz
Temp
22 23 23 23 23 22 22 23 23 24 24 23 23 23 23 23 23 22 22 22 21 21 21 21 22 22 22 22 22 21 21 21 21 20 20 20 20 20 20 20 20 20 20 21 21 20 20 21 21 20 20 20 20 20 20 20 20 20 20 20 20 20 20
23 23 23 23 23 22 22 23 23 23 23 23 23 23 23 23 22 22 22 22 21 21 21 21 22 22 22 22 21 21 21 21 21 20 20 20 20 20 20 21 21 21 21 21 20 20 20 20 21 20 21 21 20 20 20 20 20 20 20 20 20 20 20
23 22 23 23 23 23 22 23 23 23 23 23 22 23 23 23 22 22 22 22 21 21 20 21 22 22 22 22 21 21 21 21 21 21 20 20 20 20 21 21 21 21 21 21 21 20 20 20 20 20 21 21 21 21 21 20 20 20 20 20 20 20 20
22 21 22 22 23 22 22 22 21 21 22 22 22 22 23 23 22 22 22 22 22 21 21 20 21 22 22 22 22 22 22 21 21 21 21 20 20 20 21 21 21 21 21 21 21 20 20 20 20 20 21 21 21 21 21 21 21 20 21 21 21 21 20
19 19 20 21 22 21 20 20 20 20 21 22 21 21 22 22 22 22 22 22 22 22 22 21 20 21 22 22 22 22 22 21 21 22 21 21 21 20 20 21 21 21 21 21 20 20 20 20 20 21 21 21 21 21 21 21 21 21 21 21 21 21 21
18 18 19 21 20 20 20 21 21 21 21 21 21 21 22 22 22 22 22 22 22 22 22 22 21 21 21 21 22 22 22 22 21 22 22 21 21 21 20 21 21 21 21 21 20 20 20 20 20 21 21 21 21 21 21 21 21 21 21 21 21 21 21
18 18 18 20 19 19 19 20 20 20 21 21 21 22 22 22 22 22 22 22 22 22 22 22 22 21 21 21 21 21 22 22 22 22 22 21 21 21 21 20 20 21 21 21 21 20 20 20 20 21 21 21 21 21 21 21 21 21 21 21 21 21 21
18 17 17 18 18 18 18 19 19 19 20 20 21 21 21 21 22 22 22 22 22 22 22 22 22 22 21 21 21 21 21 22 22 22 22 21 21 21 21 20 20 20 21 21 21 21 20 20 20 20 21 21 21 21 22 22 21 21 21 21 21 21 21
17 16 17 17 17 16 17 18 19 19 19 19 20 20 20 21 21 21 21 21 21 21 21 21 21 21 21 21 20 20 20 21 21 21 22 22 21 20 20 21 20 21 21 21 21 21 21 21 20 20 21 21 21 21 21 21 21 21 21 21 21 21 21
16 16 16 17 16 16 17 17 18 18 18 19 19 19 20 20 20 20 20 20 21 20 20 21 21 21 21 20 20 20 20 20 20 20 21 21 21 20 20 20 21 21 21 21 21 21 21 21 21 21 21 21 21 21 21 21 21 21 21 22 22 21 21
15 15 16 16 16 16 16 17 18 18 18 18 18 18 19 19 19 19 19 19 19 19 19 19 19 20 19 19 20 20 20 20 20 20 20 20 20 20 20 20 21 21 21 21 21 21 21 21 21 21 21 21 21 21 21 21 21 21 21 21 22 22 22
15 15 15 15 15 15 15 16 17 17 17 17 18 18 18 18 18 18 18 19 18 18 18 18 18 20 20 20 20 20 20 20 20 20 20 20 20 20 20 21 21 21 21 21 21 21 21 21 21 21 21 21 22 22 21 21 21 21 21 21 22 22 22
14 14 15 15 15 15 15 15 16 17 17 17 17 17 17 18 18 18 18 18 18 18 18 18 18 19 20 20 20 20 20 20 21 21 21 20 20 20 21 21 21 21 21 21 21 21 21 21 21 21 22 22 22 22 21 21 21 21 21 22 22 22 22
14 14 14 15 15 15 15 15 16 16 16 17 17 17 17 17 17 17 17 17 18 18 18 18 18 19 19 19 20 20 20 20 20 21 21 21 21 21 21 21 21 21 22 22 22 22 22 22 22 22 22 22 22 22 22 22 21 21 21 22 22 22 22
15 14 14 14 14 15 15 15 15 16 16 16 17 16 17 17 17 17 17 17 18 18 18 18 18 19 19 19 19 20 20 20 20 21 21 21 21 21 21 21 21 22 22 22 22 22 22 22 22 22 22 22 22 22 22 22 22 22 22 22 23 23 23
16 15 15 14 14 14 15 15 15 15 16 16 16 16 16 16 16 16 16 16 17 17 17 18 19 19 19 19 19 20 20 20 20 20 20 20 21 21 21 21 21 22 22 22 22 22 22 22 22 22 22 22 22 22 22 22 23 23 23 23 23 23 23
16 16 15 15 15 15 14 15 15 15 15 16 16 16 16 16 16 16 16 16 16 17 17 18 19 19 18 18 19 19 20 19 19 20 20 20 20 21 21 21 21 22 22 22 22 22 22 22 22 22 22 22 22 22 22 22 22 23 23 23 23 23 23
16 16 16 15 15 15 15 15 15 14 15 15 15 15 16 16 16 16 16 16 16 17 17 18 18 19 18 18 18 18 19 19 19 20 20 21 21 21 21 21 21 21 21 22 22 22 22 22 22 22 22 22 22 22 23 23 23 23 23 23 23 23 23
16 16 16 16 15 15 15 16 16 15 15 15 15 15 15 15 15 15 15 15 16 17 17 18 18 18 18 18 18 18 19 19 19 19 20 20 21 21 21 21 21 21 21 21 22 22 22 22 22 22 22 22 22 22 22 22 22 22 22 22 22 22 22
16 16 16 16 15 15 16 16 16 16 16 15 15 15 15 15 15 15 15 15 15 15 16 17 18 18 18 18 18 18 19 19 19 19 19 20 20 20 21 21 21 21 21 21 21 21 22 22 22 22 22 22 22 22 21 21 21 22 22 22 22 22 22
16 16 15 15 15 15 15 16 16 16 16 15 15 15 15 15 15 15 15 15 15 15 15 16 16 17 17 18 17 17 18 18 18 18 19 19 20 20 20 20 21 21 21 21 21 21 21 22 22 22 22 22 22 22 22 22 21 21 21 21 21 21 22
16 16 15 15 15 15 15 16 16 16 16 15 15 15 15 15 15 15 15 15 15 15 15 15 15 15 16 17 17 16 16 17 18 18 19 19 19 19 19 20 20 20 20 20 21 21 21 21 21 21 22 22 22 22 22 22 22 22 21 21 21 21 21
16 16 15 15 15 15 15 15 16 16 15 15 15 15 15 15 15 15 15 15 15 15 15 15 15 15 15 16 16 16 16 17 17 18 18 18 18 18 18 19 19 19 19 20 20 20 20 20 21 21 21 21 21 21 21 21 22 22 22 22 22 22 21
16 16 15 15 15 15 15 15 15 15 15 15 15 15 15 15 15 16 15 15 15 15 15 15 16 16 16 16 16 16 16 16 17 17 17 17 17 17 18 18 18 19 19 19 20 20 20 20 20 20 20 21 21 21 20 20 21 21 21 22 22 22 22
16 15 15 15 15 15 15 15 15 15 15 15 15 15 15 15 15 15 15 15 15 15 15 15 16 16 16 16 16 17 17 17 17 16 16 16 16 16 17 17 18 18 19 19 19 19 20 20 20 20 20 20 20 20 20 20 20 21 21 21 21 21 21
15 14 14 14 14 14 14 15 15 14 14 15 14 14 14 14 14 15 15 15 15 14 14 15 16 16 16 16 17 17 17 17 17 17 17 16 16 16 16 17 17 18 18 19 19 19 19 19 19 19 19 19 19 19 19 19 20 21 21 21 20 20 20
14 14 14 14 14 14 14 14 14 14 14 14 14 14 14 14 14 14 14 14 14 14 14 15 16 16 16 16 17 17 17 17 18 18 18 17 17 17 17 16 16 17 17 17 18 18 18 18 18 18 19 19 18 18 19 19 20 20 21 20 20 20 20
14 14 14 13 13 13 13 13 13 13 13 13 13 13 13 13 13 13 13 13 13 13 14 14 15 16 17 17 17 17 17 17 17 18 18 18 18 18 18 17 17 17 17 17 17 17 17 17 18 18 18 18 18 18 19 19 19 20 20 20 20 20 20
14 14 13 13 12 13 13 13 13 13 12 12 12 12 12 12 12 12 12 12 13 13 13 14 14 14 15 16 17 17 17 17 17 18 18 18 18 18 18 18 18 18 18 18 18 18 17 17 17 18 18 18 18 19 19 19 19 19 19 19 20 20 20
13 13 13 12 12 12 12 12 12 12 12 12 12 12 12 12 12 12 11 12 12 12 12 12 12 13 14 15 16 17 17 17 18 18 18 18 18 18 18 18 18 18 18 18 18 18 18 18 18 18 18 18 18 19 19 19 19 19 19 19 19 19 19
12 12 12 11 12 12 12 11 11 11 11 12 12 12 12 12 12 11 11 12 12 12 11 11 12 12 13 14 15 16 16 17 17 17 18 18 18 18 18 18 18 18 18 18 18 17 17 17 17 17 17 17 18 18 18 18 18 18 18 18 18 18 18
11 12 11 11 11 11 11 11 11 11 11 11 12 12 12 12 12 11 12 12 12 11 10 11 12 12 13 14 14 15 15 15 16 16 17 17 17 17 17 18 17 17 17 17 17 16 16 16 16 16 16 17 17 17 17 17 17 17 17 17 18 18 18
11 11 11 10 10 10 10 10 10 10 10 10 11 11 11 11 11 11 10 11 11 10 10 11 11 12 13 13 14 14 14 14 14 14 15 15 15 15 15 16 16 16 16 16 16 15 15 15 16 16 16 17 17 17 18 18 18 18 18 18 17 17 17
10 10 10 10 9 9 9 9 9 9 9 9 9 10 10 10 10 9 9 10 10 10 10 10 10 11 12 12 13 13 13 12 12 13 13 13 14 14 15 15 15 15 15 15 15 15 15 16 16 16 17 17 18 18 18 19 19 19 19 19 19 18 18
10 10 9 9 9 9 9 9 9 9 9 8 8 9 9 9 9 9 9 9 9 9 9 10 10 10 10 11 11 12 11 12 12 13 13 13 14 14 14 15 15 15 15 15 15 15 15 15 16 16 17 17 17 17 18 18 18 18 18 19 19 19 19
9 9 9 9 9 9 9 9 8 8 8 8 8 8 8 8 8 8 8 9 9 9 9 9 9 9 9 9 10 10 10 11 12 12 13 13 14 14 15 15 15 15 15 15 15 15 15 15 15 16 16 16 17 17 17 17 18 18 18 18 19 19 19
9 9 9 9 9 9 8 8 8 8 8 8 7 7 7 7 7 7 8 8 8 8 8 8 8 8 8 8 8 8 9 9 10 11 11 12 12 13 13 14 15 15 15 15 15 15 15 15 15 15 15 16 16 16 16 16 16 16 17 18 18 18 19
9 9 9 9 9 8 8 8 8 8 8 7 7 7 7 7 7 7 7 7 7 7 7 7 7 8 8 8 8 8 8 8 8 9 9 10 10 11 11 12 13 14 15 15 15 15 15 14 14 14 15 15 15 15 15 15 15 15 16 17 17 18 18

ECMWFFLT1_850_temp_093.txt.gz
Temp
20 20 21 20 20 21 21 21 22 22 21 22 22 22 22 22 22 22 22 22 21 21 21 21 20 20 20 20 20 20 20 20 20 20 20 20 20 20 20 20 20 20 20 20 20 20 20 20 20 20 19 20 20 20 19 19 20 20 20 20 19 19 20
20 20 20 20 20 21 21 21 21 22 22 22 22 22 22 22 22 22 22 22 22 21 22 21 21 21 20 20 20 20 20 20 20 20 20 20 20 20 20 20 20 20 20 20 20 20 20 20 20 20 20 20 20 20 19 19 19 19 19 19 19 19 20
20 20 20 20 21 21 21 21 21 21 22 22 22 22 22 22 22 22 22 22 22 21 22 22 21 21 21 21 20 20 20 20 20 20 20 20 20 20 20 20 20 20 20 20 20 20 20 20 20 20 20 20 20 20 19 19 19 19 19 19 19 20 20
19 20 20 20 21 21 21 21 21 21 21 22 22 22 22 22 22 22 22 22 22 22 22 22 22 21 21 21 21 21 20 20 20 20 20 20 20 20 20 20 20 20 20 20 20 20 20 20 20 20 20 20 20 20 20 19 19 19 19 19 20 20 20
19 19 19 19 20 21 21 21 21 21 21 21 22 22 22 22 22 22 22 22 22 22 22 22 22 22 21 21 21 21 21 21 20 20 20 20 19 19 20 20 20 20 20 20 20 20 20 20 20 20 20 20 20 20 20 20 19 19 19 19 19 20 20
18 18 18 19 19 19 20 20 21 21 21 21 21 21 22 22 22 22 22 22 22 22 22 22 22 22 22 21 21 21 21 21 21 20 20 20 19 19 20 20 20 20 20 20 20 20 20 20 20 20 20 20 20 20 20 20 20 20 20 20 20 20 20
17 17 17 18 18 18 19 19 20 20 20 20 21 21 21 22 22 22 22 22 22 22 22 21 21 21 21 21 21 21 21 21 21 21 21 20 20 20 20 20 20 20 20 20 20 20 20 20 20 20 20 20 20 21 21 20 20 20 20 20 20 20 20
16 17 17 17 18 18 19 19 19 20 20 20 20 20 21 21 21 22 22 22 22 22 22 22 21 21 21 21 21 21 21 21 21 21 21 21 20 20 20 20 20 20 20 20 20 20 20 20 20 20 20 20 20 20 21 21 21 21 20 20 20 20 20
16 16 17 17 17 18 19 19 19 19 19 19 19 20 20 21 21 21 22 22 22 22 22 22 22 21 21 21 20 21 21 21 21 21 21 21 20 20 20 20 20 20 20 20 20 20 20 20 19 19 20 20 20 20 20 21 21 21 21 21 21 21 21
16 16 16 16 17 19 19 19 19 19 19 19 19 20 20 20 21 21 22 22 22 22 22 22 22 21 21 21 21 21 21 21 21 21 21 20 20 21 20 20 20 20 20 20 19 19 20 20 19 19 19 19 20 20 20 21 21 21 21 21 21 21 21
15 15 15 16 17 18 19 19 18 18 18 19 19 19 20 20 20 21 21 21 21 21 21 22 21 21 21 21 21 21 21 21 21 21 21 21 21 21 21 21 21 21 20 20 20 19 19 19 19 19 19 19 19 20 20 20 21 21 21 21 21 21 21
15 15 15 15 16 18 18 18 18 17 17 18 18 18 19 19 19 20 20 21 21 21 21 21 21 21 21 21 21 21 21 21 21 21 21 21 21 21 21 21 21 21 21 20 20 20 20 20 20 19 19 19 20 20 20 20 20 21 21 21 21 21 21
14 14 15 15 16 17 18 17 16 16 17 17 17 18 18 19 19 20 20 20 20 20 20 19 20 20 20 20 21 21 21 21 21 21 21 21 21 21 21 21 21 21 21 21 20 20 20 20 20 20 20 20 20 20 20 20 20 20 21 21 21 21 21
14 14 14 15 16 17 17 16 15 16 16 17 17 18 19 19 20 20 20 19 19 19 19 19 19 19 19 20 20 20 21 21 21 21 21 21 21 21 21 21 21 21 21 21 21 21 20 20 20 20 20 20 20 20 20 20 20 20 21 21 21 21 21
14 14 15 15 16 17 17 16 16 16 16 17 17 17 18 19 19 19 19 19 19 19 19 19 19 19 19 19 19 20 20 20 20 20 20 20 20 20 20 21 21 21 21 21 21 21 21 20 20 20 20 20 21 21 20 20 20 21 21 21 21 21 21
13 14 14 15 15 16 16 16 16 16 16 17 17 17 17 17 18 18 18 18 18 18 19 19 19 19 19 19 19 19 20 19 19 20 20 20 20 20 20 20 20 21 20 20 20 20 20 20 20 20 20 20 20 20 21 21 21 21 21 21 21 21 21
13 13 14 14 15 15 16 16 16 16 16 16 16 16 16 17 17 17 17 17 17 17 18 18 18 18 18 18 18 18 19 19 19 19 19 19 20 20 20 20 20 20 20 20 20 20 20 20 20 20 20 21 21 21 21 21 21 21 21 21 21 21 21
14 14 14 14 14 15 15 16 15 16 16 16 16 16 16 16 16 17 17 17 17 17 17 17 18 18 18 18 18 18 18 18 18 18 19 19 19 19 20 20 20 20 20 20 20 19 19 20 20 20 20 21 21 21 21 21 21 21 21 21 21 21 21
14 14 14 14 14 14 14 15 15 15 15 16 16 16 16 16 16 16 16 16 17 17 17 17 17 17 17 17 17 17 18 18 18 17 18 18 19 19 19 19 19 19 19 19 19 19 19 20 20 20 20 21 21 21 21 21 21 21 21 21 21 21 21
15 15 14 14 14 14 14 14 14 15 15 15 15 15 15 15 16 16 16 16 16 16 16 16 16 16 16 17 17 17 17 17 17 17 17 18 18 19 19 19 19 19 19 19 20 19 19 20 20 20 20 20 21 21 21 21 21 21 21 21 21 21 21
15 15 15 15 15 14 14 14 14 14 14 14 15 15 15 15 15 15 15 15 15 15 15 15 16 16 16 16 16 17 17 17 17 17 17 17 17 18 18 18 18 18 19 19 19 19 19 19 20 20 20 20 21 21 21 20 20 21 21 21 21 21 21
15 15 15 15 15 15 14 15 15 14 14 14 14 14 15 14 14 14 14 14 14 14 14 15 15 15 15 15 16 16 16 16 16 17 17 17 18 17 17 17 17 17 18 18 18 18 18 18 19 20 20 20 20 21 20 20 20 20 20 21 21 21 21
15 15 15 15 15 15 15 15 15 15 15 14 14 14 14 14 14 14 14 14 14 14 14 14 15 14 14 15 15 15 15 15 16 16 16 16 17 16 16 17 17 17 17 17 17 17 17 18 18 19 19 19 20 20 20 20 20 20 20 20 20 20 21
15 15 15 15 15 15 15 15 15 15 15 14 14 14 14 14 15 15 14 14 14 15 15 15 15 14 14 14 14 15 15 15 16 16 16 15 16 16 16 16 16 16 17 17 17 18 17 17 18 18 18 18 18 19 19 19 20 20 20 20 20 20 20
15 15 15 15 15 15 15 15 15 15 15 14 14 14 14 14 15 15 15 15 15 15 15 15 15 15 15 15 15 15 15 15 15 15 15 15 15 15 15 15 16 16 16 17 17 17 17 17 18 18 18 17 18 18 19 19 19 19 19 19 20 20 20
15 15 15 15 15 15 15 15 15 15 15 15 14 14 14 14 15 15 16 16 16 16 16 16 16 16 16 16 15 16 16 15 15 15 15 15 15 15 15 15 16 16 16 17 17 17 17 17 17 18 17 17 17 18 18 19 19 19 19 19 19 19 19
15 15 15 15 15 15 15 15 15 15 15 15 15 14 14 14 15 15 16 16 16 16 16 16 16 16 16 16 16 16 16 16 16 16 16 16 16 16 16 16 16 16 16 16 16 16 17 17 17 17 17 16 16 17 18 18 18 18 18 19 19 19 18
15 15 15 14 14 14 15 15 15 15 15 15 15 15 14 15 15 15 15 15 15 16 16 16 15 16 16 16 16 16 16 17 16 16 16 16 16 16 16 16 16 16 16 16 16 16 16 16 16 16 16 16 16 17 17 18 18 17 17 18 18 18 18
15 15 15 15 14 14 15 15 15 15 15 14 14 14 14 14 14 14 15 15 15 15 16 16 15 15 15 15 15 16 16 16 16 16 17 17 17 17 17 16 16 16 16 16 16 16 15 15 16 16 15 15 16 16 17 17 17 17 17 17 17 17 18
15 14 14 14 14 14 14 14 15 14 14 14 14 14 14 14 14 14 14 14 14 14 15 15 15 15 15 15 15 15 15 16 16 16 16 16 16 17 17 16 16 16 17 17 16 16 16 15 15 16 16 15 15 15 15 15 16 16 16 16 17 17 17
14 14 14 13 14 14 14 14 14 14 14 13 13 13 13 14 14 14 13 13 13 13 14 14 15 15 15 15 15 15 15 15 15 15 15 15 15 16 16 16 16 16 16 16 16 16 16 15 15 15 15 15 15 15 15 15 15 16 16 16 16 17 17
14 14 13 13 13 13 13 13 13 13 13 13 13 13 13 13 14 14 14 14 13 13 14 14 14 14 14 15 15 15 15 15 15 15 15 14 15 15 15 15 15 15 15 15 15 16 16 15 15 15 15 15 15 15 15 15 15 15 16 16 16 17 17
13 13 13 12 12 12 12 12 12 12 12 12 12 12 13 13 13 13 13 14 14 13 13 13 14 14 14 14 14 15 15 15 15 15 15 14 14 14 14 14 14 14 14 14 14 15 15 15 15 14 15 15 15 15 15 15 15 15 16 16 16 17 17
13 13 12 12 12 12 12 12 11 11 11 11 11 11 12 12 12 12 12 12 13 13 13 13 13 13 14 14 14 14 14 14 14 15 15 14 14 14 14 14 14 14 14 14 14 14 14 14 14 14 14 15 15 15 15 15 15 15 16 16 17 17 18
13 12 12 12 12 11 11 11 11 10 10 10 10 10 10 10 10 10 10 10 11 11 11 12 12 13 13 13 13 13 13 13 13 14 14 14 14 13 13 13 13 13 13 13 13 14 14 14 14 14 14 14 14 15 15 15 15 16 16 16 16 17 17
12 12 12 12 12 11 11 10 10 10 10 9 9 9 9 9 9 9 9 9 9 9 10 10 11 12 12 12 12 12 13 13 13 13 13 13 13 13 13 13 12 13 13 13 13 13 13 13 14 14 14 14 14 14 14 15 15 15 15 16 16 15 15
12 12 12 12 12 11 10 10 10 10 10 9 8 8 8 8 8 8 8 8 8 8 8 9 9 10 11 11 11 11 12 12 12 13 13 13 13 13 14 13 13 12 12 13 13 13 13 13 13 13 13 14 14 14 14 14 14 14 15 15 15 15 15
12 12 12 11 11 10 10 10 10 10 9 8 8 7 8 8 8 7 7 7 7 7 7 7 8 8 9 9 10 10 10 10 11 11 12 12 12 13 13 14 14 13 13 12 12 13 13 13 12 12 13 13 13 13 14 14 14 14 14 14 14 14 14

ECMWFFLT1_850_temp_096.txt.gz
Temp
20 20 20 20 20 21 21 21 21 21 21 22 22 22 22 22 22 21 21 21 21 21 20 20 20 20 20 20 20 20 20 20 19 19 19 19 19 19 19 19 19 19 19 19 20 19 19 19 19 19 19 19 19 19 19 19 19 19 19 19 19 19 19
20 20 20 20 20 20 21 21 21 21 21 21 21 22 22 22 22 22 22 21 21 21 21 20 20 20 20 20 20 20 20 20 20 19 19 19 19 19 19 19 19 19 19 19 19 19 19 19 19 19 19 19 19 19 19 19 19 19 19 19 19 19 19
19 20 20 20 20 20 20 21 21 21 21 21 21 21 22 22 22 22 22 22 21 21 21 21 20 20 20 20 20 21 20 20 20 20 20 19 19 19 19 19 19 19 19 19 19 19 19 19 19 19 19 19 19 19 20 20 20 19 19 19 19 19 19
19 19 20 20 19 20 20 20 21 21 21 21 21 21 22 22 22 22 22 22 22 21 21 21 21 21 21 21 21 21 21 21 20 20 20 20 19 19 19 19 19 19 19 19 19 19 19 19 19 19 19 20 19 19 20 20 20 20 20 19 19 19 19
19 19 19 18 18 19 19 20 20 20 20 20 21 21 21 21 22 22 22 22 22 22 21 21 21 21 21 21 21 21 21 21 21 20 20 20 20 20 19 19 19 19 19 19 19 19 19 19 19 19 19 20 20 20 20 20 20 20 20 20 20 19 19
18 18 18 18 18 19 20 20 20 20 20 20 20 20 20 21 21 21 22 22 22 21 21 21 21 21 21 21 21 21 21 21 21 21 21 20 20 20 20 20 20 20 19 19 19 19 19 19 19 19 19 19 20 20 20 20 20 20 20 20 20 20 20
17 17 18 18 19 19 20 20 19 19 20 19 20 20 20 20 21 21 21 22 22 21 21 21 21 21 21 21 21 21 21 21 21 21 21 21 20 20 20 20 20 20 20 19 19 19 19 19 19 19 19 19 20 20 20 20 20 19 19 19 20 20 20
17 17 17 18 19 19 19 20 20 19 19 19 19 20 20 20 21 21 21 21 21 21 22 22 21 21 21 21 21 21 21 21 21 21 21 21 20 20 20 20 20 20 20 20 20 19 19 19 19 19 19 19 19 19 19 20 20 19 19 19 20 20 20
17 17 17 17 18 18 19 19 20 20 20 20 19 19 20 20 21 21 21 21 21 21 22 22 22 21 21 21 21 21 21 21 21 21 21 21 20 20 20 21 21 20 20 20 20 20 20 20 19 19 19 19 19 19 19 19 19 19 19 20 20 20 20
16 17 17 17 17 18 18 18 19 19 19 19 19 19 19 20 20 21 21 21 21 21 21 21 21 21 21 21 21 21 21 21 21 21 21 20 20 21 21 21 20 20 20 20 20 20 20 20 19 19 19 19 19 19 19 19 19 19 19 19 20 20 20
16 16 16 16 17 17 18 18 18 19 19 19 20 20 20 20 20 20 20 21 21 21 20 20 20 20 20 21 21 21 21 21 20 20 21 21 21 21 21 20 20 20 20 20 20 20 20 20 19 19 19 19 19 19 19 19 19 19 19 19 20 20 20
15 15 16 16 16 17 18 18 19 19 19 20 20 20 20 20 20 20 20 20 20 20 20 20 20 20 20 20 20 20 20 20 20 20 21 21 21 21 21 21 20 20 20 20 20 20 20 20 20 19 19 19 19 19 19 19 19 19 19 19 19 20 20
15 15 15 15 16 17 17 18 18 19 19 20 20 20 20 19 19 20 20 20 20 20 20 20 20 20 20 20 20 20 20 20 20 20 20 21 21 21 21 21 21 20 20 20 20 20 20 20 20 19 19 19 19 19 19 20 20 20 20 20 20 20 20
15 15 15 15 16 17 17 17 18 18 18 18 18 18 18 18 18 19 19 19 20 20 20 20 20 20 19 19 20 20 20 20 19 19 19 20 20 20 20 20 20 20 20 20 20 20 20 20 20 19 19 19 20 20 20 20 20 20 20 20 20 20 20
15 15 15 15 15 16 17 17 17 17 17 17 17 17 17 17 18 18 19 19 19 19 19 19 20 19 19 19 19 19 19 19 19 19 19 19 19 19 20 20 20 20 20 20 20 20 20 20 20 19 19 19 20 20 20 20 20 20 20 20 20 20 20
14 15 15 15 15 16 16 16 16 16 16 16 16 17 17 17 17 17 18 18 18 18 18 19 19 19 19 19 19 19 19 19 20 20 20 19 19 18 19 19 19 19 19 20 20 20 20 20 20 19 19 19 20 20 20 20 20 20 20 20 20 20 20
14 15 15 15 15 15 15 15 16 16 16 16 16 16 16 17 17 17 17 17 17 17 17 18 18 18 18 18 19 19 19 18 19 20 20 20 19 19 19 18 18 19 19 19 19 20 20 20 20 20 20 19 20 20 20 20 20 20 20 20 20 20 20
14 14 14 14 15 15 15 15 15 15 16 16 16 16 16 16 17 17 17 17 17 17 17 17 17 17 18 18 18 19 19 18 19 19 20 19 19 19 19 19 18 18 18 18 18 19 19 19 19 19 19 20 20 20 20 20 20 20 20 21 21 20 20
14 14 14 14 14 15 15 15 15 15 15 15 15 16 16 16 16 17 16 16 16 16 16 17 17 17 17 17 18 18 18 18 19 19 19 19 19 19 19 19 19 18 17 17 17 18 18 18 18 19 19 19 20 20 20 20 21 21 21 21 21 21 21
14 14 14 14 14 14 15 15 14 14 14 15 15 15 15 15 16 16 16 15 16 16 16 16 16 16 17 17 17 17 17 18 18 18 18 18 19 19 18 19 19 19 18 18 18 18 18 18 18 19 19 19 19 20 20 20 21 21 21 21 21 21 21
14 14 14 14 14 14 15 15 14 14 14 14 14 15 15 15 15 16 16 16 15 15 15 15 16 16 16 16 17 17 17 17 17 17 17 17 18 18 18 19 19 19 19 19 19 19 19 19 19 18 19 19 19 20 20 20 20 21 21 21 21 21 21
14 15 15 15 15 15 14 15 15 15 15 14 14 14 14 14 14 14 15 15 15 15 15 15 15 16 16 16 16 16 16 16 16 16 17 17 17 18 18 18 18 18 18 19 19 19 19 19 19 19 19 19 19 19 20 20 20 20 21 21 21 21 21
15 15 15 15 15 15 14 15 15 15 15 14 14 14 14 14 14 14 14 14 15 15 14 14 14 14 15 15 15 15 16 16 16 16 16 17 17 17 17 17 17 18 18 18 18 18 18 18 18 18 18 19 19 19 19 19 20 20 20 20 20 20 21
15 15 15 15 15 15 15 15 14 14 15 15 15 14 14 14 14 14 14 14 14 14 14 14 14 14 14 14 14 15 15 15 16 16 16 16 16 16 16 17 17 17 18 18 17 17 17 17 17 18 18 18 18 18 18 19 19 19 19 19 20 20 20
15 15 15 15 15 15 15 15 15 14 15 15 15 14 14 14 15 15 15 14 14 14 14 14 13 13 14 14 14 14 14 15 15 16 16 16 16 16 16 16 16 17 17 17 17 17 17 16 16 17 17 17 18 18 18 18 18 19 19 19 19 19 19
15 15 15 15 15 15 15 15 15 15 15 15 14 14 14 14 15 15 15 15 15 15 14 14 13 14 14 14 13 14 14 14 15 15 15 16 16 16 16 16 16 16 17 17 17 17 16 16 16 16 16 16 17 18 18 18 18 18 18 18 18 18 18
15 15 15 15 15 15 15 15 15 15 15 14 14 14 14 14 15 15 15 15 15 15 14 14 13 14 14 14 14 14 14 14 14 14 14 15 15 15 16 16 16 16 16 16 16 16 16 15 15 16 16 16 16 17 17 18 18 18 18 18 17 17 18
15 15 15 15 15 15 15 15 15 15 15 14 14 14 14 14 15 15 15 15 15 15 14 14 14 14 14 14 15 15 15 15 15 15 14 14 14 15 16 16 16 17 17 16 16 16 15 15 15 15 15 16 16 16 17 17 17 17 17 17 17 17 17
15 15 15 15 15 15 15 15 15 15 15 15 15 14 14 14 15 15 15 15 15 15 14 14 14 14 14 14 15 15 15 15 15 15 15 14 14 15 15 16 16 16 16 16 16 15 15 15 15 15 15 15 16 16 15 15 16 16 16 16 16 16 16
15 15 15 15 15 15 15 15 15 15 15 15 15 15 15 15 15 15 14 14 14 14 14 14 14 14 14 14 14 15 15 15 15 15 15 15 15 15 15 15 15 15 15 15 15 15 15 15 15 15 15 15 15 15 15 15 15 15 15 16 16 16 16
15 15 15 15 15 15 15 15 15 15 15 15 15 15 15 15 15 15 14 14 14 14 14 14 14 14 14 14 14 14 14 14 14 15 15 15 15 14 15 15 15 15 15 15 15 15 15 15 16 16 15 15 15 15 15 15 15 15 15 16 16 16 16
14 14 15 15 15 15 15 15 15 14 14 14 14 15 15 14 14 14 14 14 14 14 14 14 14 14 14 14 14 14 13 13 13 13 14 14 14 14 14 14 14 15 15 15 15 15 15 14 15 15 15 15 15 15 15 15 15 15 15 15 15 15 16
14 14 14 14 14 14 14 14 14 14 14 14 14 14 14 14 14 14 13 13 13 13 13 13 13 13 13 13 13 13 13 13 13 13 13 13 14 14 14 14 14 14 14 14 14 14 14 14 14 14 14 14 14 15 15 14 14 15 15 15 15 15 15
14 14 14 14 14 13 13 13 13 13 14 14 14 13 13 13 13 13 13 13 13 13 13 13 13 13 12 12 12 12 12 13 13 13 13 13 13 13 13 13 13 14 14 14 14 14 14 14 13 13 13 14 14 14 14 14 14 14 14 15 15 15 15
13 13 13 13 13 13 13 13 13 13 13 13 13 13 13 13 13 13 12 12 12 12 12 12 12 12 11 11 11 11 11 12 12 12 12 12 12 12 13 13 13 13 13 13 14 14 14 14 14 14 14 14 14 14 14 14 14 14 14 15 15 15 16
13 13 13 13 12 12 12 12 12 12 12 12 12 12 12 12 12 12 12 12 11 11 11 11 11 11 11 10 10 10 10 10 11 11 11 11 11 11 11 12 12 12 12 13 13 13 13 13 14 14 14 14 14 14 14 14 15 15 15 15 15 15 15
13 13 13 13 12 12 12 12 12 12 11 11 11 11 11 11 11 11 11 11 11 11 10 10 10 10 10 10 10 10 10 10 10 10 10 11 11 11 11 11 11 11 11 12 12 12 12 12 13 13 13 14 14 14 14 14 14 15 15 15 15 15 15
13 13 12 12 12 12 12 12 12 11 11 10 10 10 10 10 10 10 10 10 10 10 10 9 9 9 9 10 10 9 9 9 10 10 10 10 10 10 11 11 11 10 11 11 11 11 11 12 12 12 12 13 13 13 13 13 14 14 14 14 15 15 14

ECMWFFLT1_850_temp_102.txt.gz
Temp
19 19 20 21 22 22 23 23 22 22 22 21 21 21 21 21 21 20 21 21 21 21 21 20 20 20 20 20 20 20 20 20 20 20 19 19 19 18 18 18 19 19 19 19 19 19 19 19 19 19 19 19 19 19 19 19 20 20 20 20 20 20 20
20 19 20 20 21 22 22 22 22 22 22 22 21 21 21 21 21 21 21 22 22 21 21 21 20 20 20 20 20 20 20 20 20 20 19 19 19 19 19 18 19 19 19 19 18 19 19 20 19 19 19 19 19 19 19 19 20 20 20 20 20 20 20
20 19 20 20 21 21 22 22 22 22 22 22 22 21 21 21 21 22 22 22 22 22 21 21 20 20 20 20 20 20 20 20 20 20 19 19 19 19 19 19 19 19 19 19 19 19 19 19 20 19 19 19 19 19 19 19 19 19 19 20 20 19 20
21 20 19 20 20 20 21 21 21 21 22 22 22 21 21 21 22 22 22 22 22 22 21 21 21 20 20 20 20 20 20 20 20 20 19 19 19 19 19 19 19 19 18 19 19 19 19 19 19 20 20 19 19 19 19 19 19 19 19 19 19 19 19
21 20 20 19 20 20 21 21 21 21 21 22 21 21 21 21 22 22 22 22 22 22 21 21 20 20 20 20 20 20 20 20 20 20 19 19 19 19 19 19 19 19 19 19 19 19 19 19 19 19 20 20 19 19 19 19 19 19 19 19 19 18 19
21 21 21 20 19 20 21 21 20 20 20 21 21 20 20 21 22 22 22 22 22 22 21 21 20 20 20 20 19 19 19 20 20 20 20 19 19 19 19 19 19 19 19 19 19 19 19 19 19 19 19 19 19 19 19 19 19 18 19 19 19 18 19
22 22 21 20 19 20 20 20 20 20 20 21 21 20 20 20 21 22 21 21 22 22 22 21 20 20 20 20 20 19 19 20 20 20 20 19 19 19 19 19 19 19 19 19 19 19 19 19 19 19 19 19 19 19 18 19 19 19 19 19 19 19 19
22 21 21 20 19 19 20 20 20 20 20 21 20 20 19 20 20 20 20 20 20 21 22 22 21 20 20 20 20 20 20 20 20 20 20 19 19 19 19 19 19 19 19 19 19 19 19 19 19 19 19 19 19 19 19 19 20 19 18 19 19 19 19
22 21 21 20 19 19 20 20 20 20 20 20 20 20 19 19 20 20 20 20 20 20 21 22 21 20 20 20 20 20 20 20 19 19 20 19 19 20 20 20 19 19 19 19 19 19 19 19 19 19 19 19 19 20 20 20 20 19 19 19 19 19 19
21 21 20 20 20 19 19 19 20 20 19 20 20 20 20 20 20 20 20 20 20 20 20 21 21 20 20 21 21 20 20 19 19 20 20 20 20 20 20 20 20 19 19 19 20 20 19 19 19 19 20 20 20 20 20 20 20 20 19 19 20 20 20
19 19 19 20 19 19 18 18 19 19 19 19 20 20 20 20 20 20 20 20 20 20 20 20 20 20 20 20 21 21 20 19 19 20 20 20 20 20 20 20 20 20 20 20 20 20 20 19 19 19 20 20 19 20 20 20 20 20 20 19 19 20 19
17 17 18 19 19 18 18 18 18 18 18 18 19 19 19 19 20 20 20 20 20 19 19 20 20 20 20 20 20 20 20 20 20 20 20 20 20 20 20 20 20 20 20 20 20 20 20 19 19 19 19 20 19 19 19 20 20 20 20 19 19 19 19
16 16 17 17 18 17 18 18 17 17 17 18 18 18 18 18 19 19 20 20 19 19 19 20 20 20 20 20 19 20 20 20 20 20 20 19 20 20 20 20 20 20 20 20 20 20 20 20 19 19 19 19 19 19 19 20 20 20 20 20 19 19 19
16 16 16 17 17 17 17 17 17 17 17 17 18 18 18 18 18 19 19 19 19 19 19 19 19 20 20 20 19 19 20 20 19 20 20 19 19 19 20 20 20 20 20 20 20 20 20 20 20 19 19 19 19 19 19 20 20 20 21 20 20 19 19
18 18 17 17 16 16 16 16 16 17 17 17 18 18 18 18 18 18 18 18 18 18 19 19 19 20 20 20 19 20 20 20 20 20 20 20 20 20 19 19 19 19 19 19 19 19 20 20 20 20 19 19 19 19 19 20 20 20 20 20 20 20 19
19 18 18 17 16 16 16 16 16 16 16 17 17 18 18 18 18 18 18 18 18 18 18 18 19 19 19 19 19 19 20 20 20 20 20 20 20 20 20 19 19 19 19 19 19 19 19 20 20 20 20 19 19 19 19 20 20 20 20 20 20 19 19
19 18 18 17 16 15 15 15 16 16 16 16 17 17 18 18 18 18 18 17 18 18 18 18 18 19 19 19 19 19 19 20 20 20 20 20 20 19 20 20 19 19 20 20 20 19 19 19 19 20 20 20 20 20 20 20 20 20 20 20 20 20 19
19 18 17 16 15 15 15 15 16 16 17 17 16 17 17 17 17 17 17 17 18 18 18 18 18 18 18 18 18 18 19 19 19 19 19 19 19 19 19 20 19 19 20 20 20 20 20 20 20 20 20 20 20 20 20 20 20 20 20 20 20 20 20
18 17 16 15 15 15 15 15 16 16 16 16 16 17 17 17 17 17 17 17 17 17 17 17 17 17 17 17 17 17 18 18 19 19 19 19 19 19 19 19 19 19 19 20 20 20 20 20 20 20 20 20 20 20 20 20 20 20 20 20 20 20 20
17 16 15 15 15 15 15 15 15 15 16 16 16 16 16 16 16 17 17 17 17 17 17 17 17 17 17 17 17 17 17 18 18 18 18 18 18 18 18 19 19 19 19 19 19 19 19 19 19 19 20 20 19 20 20 20 20 20 20 20 20 20 20
16 15 14 14 14 14 14 14 15 15 14 14 15 15 15 15 15 16 16 16 16 16 16 16 17 17 17 17 17 17 17 17 17 18 18 18 18 18 18 18 18 18 18 18 18 18 18 18 18 18 19 19 20 19 19 20 20 20 20 20 20 20 20
15 14 14 14 14 14 15 15 15 14 14 14 15 15 15 15 14 15 15 15 15 15 16 16 16 16 16 16 16 17 17 17 17 17 17 17 17 17 18 18 18 18 18 18 18 18 18 18 18 18 18 18 19 19 19 20 20 20 20 20 20 20 20
15 15 15 14 14 15 15 14 14 14 14 14 15 15 14 14 14 14 14 14 15 15 15 16 16 16 16 16 16 16 16 17 17 17 17 17 17 17 17 18 18 18 18 18 18 18 18 18 18 18 18 18 18 18 19 20 20 20 20 20 20 20 20
16 15 15 14 14 14 14 14 14 14 14 14 14 14 14 14 14 14 14 14 14 14 15 15 16 16 15 16 16 16 15 16 16 16 17 17 17 17 17 17 18 18 18 18 18 18 18 18 17 17 18 18 17 18 18 19 19 19 20 20 20 20 20
16 15 15 15 15 14 14 14 14 14 14 14 14 14 14 15 15 14 14 14 14 15 15 15 15 15 15 15 16 15 15 15 15 15 16 16 16 16 16 17 17 17 17 17 18 18 18 17 17 17 17 17 17 18 18 18 19 19 19 19 20 19 19
16 15 15 15 15 14 14 14 14 14 14 14 14 14 14 15 15 16 15 15 15 16 16 15 15 15 15 15 16 16 15 15 15 15 15 15 15 15 16 16 16 16 16 17 17 17 17 17 17 17 17 17 18 18 18 18 19 19 19 19 19 19 19
16 16 15 15 14 14 14 14 14 14 14 14 14 14 14 14 15 16 15 15 16 16 16 15 15 15 15 15 15 16 16 15 15 15 15 15 15 15 15 15 15 15 16 16 16 16 16 17 17 17 17 18 18 18 18 18 18 18 18 18 18 18 18
15 16 15 14 14 14 14 14 14 14 14 13 13 13 14 15 15 15 15 16 16 15 15 15 15 15 15 15 15 15 16 16 15 15 15 15 15 15 15 15 15 15 15 15 15 15 15 15 16 16 17 17 17 17 17 17 17 17 17 17 17 17 17
15 15 14 14 14 14 14 14 13 13 13 13 13 14 14 14 15 15 15 15 15 15 15 15 15 14 15 15 15 15 15 15 15 15 15 16 16 15 15 15 15 15 15 14 14 14 14 15 15 15 16 16 16 16 16 16 16 16 16 16 16 16 16
15 14 14 14 14 14 14 14 14 13 14 14 14 14 14 14 15 15 15 15 14 14 15 15 15 14 14 14 14 14 15 15 15 15 15 15 15 15 15 15 15 15 15 14 14 14 14 14 14 14 15 15 15 15 15 15 15 15 15 16 16 16 16
14 14 14 14 14 13 13 14 14 14 14 15 15 14 15 14 14 14 14 14 14 14 14 14 14 14 14 14 14 14 14 14 14 15 15 14 14 15 15 15 15 15 15 14 13 13 14 14 14 14 14 14 14 14 14 15 15 15 15 15 16 15 15
14 14 14 14 14 13 13 13 14 14 14 14 14 14 14 14 14 14 14 14 14 14 14 13 13 13 14 14 14 14 13 13 13 13 13 13 13 13 14 14 14 14 14 13 13 13 13 14 14 14 14 14 14 14 14 14 15 15 15 15 16 15 15
14 13 13 14 14 14 13 13 14 14 14 14 14 13 14 14 14 14 13 13 13 13 14 13 13 13 13 13 13 14 14 13 13 12 12 12 12 12 13 13 13 13 13 13 13 13 12 12 12 12 13 13 13 13 14 14 15 15 15 15 15 15 15
14 13 13 14 14 13 13 13 14 14 14 14 14 13 13 13 13 13 12 12 12 13 13 13 13 12 12 12 12 13 13 13 13 12 12 12 13 13 13 13 13 13 13 13 13 13 12 12 12 12 12 12 13 13 13 13 14 14 14 14 14 14 14
14 14 14 14 14 13 13 13 14 14 14 14 14 13 13 13 13 13 12 12 13 13 13 13 13 12 11 11 11 11 11 11 11 11 11 12 13 14 14 14 13 13 13 13 13 13 13 13 13 12 12 13 13 13 12 12 13 14 14 14 14 14 14
14 14 14 13 13 13 13 13 13 13 13 13 13 13 13 12 12 12 12 12 12 12 12 12 12 10 10 10 10 10 10 10 10 11 11 11 11 12 13 13 14 13 13 13 13 13 13 13 13 13 13 13 13 13 12 12 13 14 13 13 14 14 14
14 14 14 13 13 13 13 13 13 13 13 13 13 13 13 12 12 11 11 11 11 11 12 12 11 10 10 10 11 11 11 10 10 11 11 11 11 11 11 11 12 13 13 13 13 13 13 13 13 13 13 13 13 13 13 13 13 13 13 14 14 14 14
13 14 14 13 13 13 13 13 13 13 13 13 12 12 12 12 12 11 11 10 10 10 11 11 10 9 9 10 11 12 11 10 10 10 11 11 12 12 11 10 10 11 13 13 13 13 13 13 13 13 13 13 13 13 13 14 14 14 14 14 14 14 14

ECMWFFLT1_850_temp_105.txt.gz
Temp
20 21 23 24 24 25 24 24 24 24 23 23 23 23 23 23 23 23 22 21 20 20 21 21 20 20 20 20 20 20 20 19 19 19 19 19 19 19 19 19 20 19 20 20 19 19 19 19 19 19 19 20 20 20 20 20 20 20 20 20 20 20 20
21 21 22 23 24 24 24 24 24 24 23 23 23 23 23 23 22 22 22 21 21 20 20 21 21 20 20 20 20 20 20 19 19 19 19 19 19 19 19 19 20 20 20 20 20 19 19 19 19 19 19 20 20 20 20 20 20 20 19 20 20 20 20
21 21 21 22 23 24 24 24 24 24 23 23 23 22 23 23 22 22 22 21 21 21 20 20 20 20 20 20 19 20 20 20 19 19 19 19 19 19 19 19 19 20 20 20 19 19 19 19 19 19 19 19 19 20 20 20 20 20 19 20 20 20 20
22 22 21 21 22 22 24 24 24 24 23 23 23 22 22 22 22 22 22 21 21 21 21 20 20 20 20 20 20 20 20 19 20 20 20 20 20 20 20 19 19 20 20 20 20 20 20 19 19 19 20 20 19 19 20 20 20 20 20 20 20 19 20
22 22 21 21 21 22 23 23 23 23 23 23 23 22 22 22 22 22 21 21 21 21 21 21 21 21 20 20 20 20 20 19 20 20 20 20 20 20 20 20 20 20 20 20 20 20 20 19 19 19 20 20 19 19 20 20 20 20 20 20 20 20 19
22 22 21 21 21 21 22 22 23 23 23 23 23 21 22 22 22 22 21 21 21 21 21 21 21 21 21 20 20 20 20 20 20 20 20 20 20 20 20 20 20 20 20 20 20 20 19 19 19 19 19 20 20 19 19 19 19 19 20 20 20 20 20
22 22 21 21 21 21 21 22 22 22 22 23 22 21 22 22 22 22 22 21 21 21 21 21 21 21 21 21 21 20 20 20 20 20 20 20 20 20 20 20 20 21 20 20 20 20 20 19 19 19 19 19 20 20 20 19 19 19 20 20 20 20 20
21 22 21 21 21 21 21 21 22 21 21 22 21 21 21 22 21 21 21 22 21 21 21 21 21 21 21 21 21 21 21 20 20 20 20 20 20 20 20 20 20 20 20 20 20 20 20 20 20 20 20 20 20 20 20 19 20 20 20 19 20 20 20
21 22 22 21 21 20 21 21 21 20 21 21 21 21 21 21 21 21 21 21 21 21 21 21 21 21 21 21 21 21 21 21 21 21 20 21 21 21 21 21 20 20 20 21 21 20 20 20 20 20 20 20 20 20 19 19 20 20 19 19 19 20 20
21 22 22 22 21 21 20 19 20 20 20 20 21 21 21 20 20 20 21 21 21 21 20 20 21 21 21 21 21 21 21 21 21 21 21 21 21 21 21 21 21 21 20 21 21 21 20 20 20 20 20 20 19 20 20 20 20 20 19 19 19 20 20
22 21 21 21 21 21 19 19 19 20 20 20 20 21 20 20 20 20 20 20 20 20 20 20 20 20 21 20 20 20 21 21 21 21 21 21 21 22 22 22 22 21 21 21 21 21 21 21 20 20 20 20 19 19 20 20 20 20 20 19 20 20 20
21 21 21 21 20 20 19 18 18 19 19 19 20 20 20 21 21 20 20 20 20 20 19 19 20 20 20 20 20 20 20 21 21 21 21 21 21 22 22 22 22 22 21 21 21 21 21 21 20 20 20 20 20 19 20 20 20 20 20 20 20 20 20
20 20 20 20 20 19 19 19 18 19 19 20 20 20 20 20 20 20 20 20 20 20 19 19 19 20 20 20 20 20 20 20 20 21 21 21 21 22 22 22 22 22 22 21 21 21 21 21 21 20 20 20 20 20 20 20 20 20 20 20 20 20 20
19 20 19 19 19 19 19 19 18 19 19 20 20 20 20 20 20 19 19 20 20 20 20 19 19 19 20 20 19 19 20 20 20 20 20 21 21 21 22 22 22 22 22 22 21 21 21 21 21 21 20 20 20 20 20 20 20 20 20 20 20 20 20
19 19 19 19 18 18 18 18 18 18 18 19 19 19 20 19 19 19 19 19 19 19 19 19 19 19 20 20 19 19 19 19 19 20 20 20 20 20 21 21 21 21 21 21 21 21 21 21 21 21 21 20 20 20 20 20 20 20 20 20 20 20 20
19 19 18 18 17 18 18 17 18 18 18 18 18 19 19 19 19 19 19 19 20 20 20 19 19 19 19 19 19 19 19 19 19 20 20 20 20 20 20 20 20 21 21 21 21 21 21 21 21 21 21 21 21 20 20 20 20 20 20 20 20 20 20
19 18 18 18 17 17 17 17 18 18 18 18 18 18 18 18 18 19 18 19 19 19 19 19 19 19 19 19 19 19 19 19 19 19 20 20 20 20 20 20 20 20 20 20 20 20 20 20 21 21 21 21 21 21 21 21 21 21 20 20 21 20 20
19 18 18 18 17 17 17 17 17 17 17 17 17 18 18 18 18 18 18 18 18 18 19 18 19 19 18 19 19 19 19 18 18 18 19 19 20 20 20 20 19 19 19 19 20 20 20 20 20 20 21 21 21 21 21 21 21 21 21 21 21 20 20
18 18 18 18 17 17 16 16 16 16 16 16 16 17 17 17 17 18 18 18 18 18 18 18 18 18 18 18 19 19 19 19 18 18 18 19 19 19 19 19 19 19 19 19 19 19 19 20 20 20 20 20 21 21 21 20 21 21 21 21 21 21 20
18 18 17 17 17 16 16 15 15 16 16 16 16 16 17 17 17 17 17 17 17 18 18 18 18 18 18 18 19 19 18 18 18 18 18 18 18 19 19 19 19 19 19 19 19 19 19 19 19 20 20 20 20 20 20 20 20 21 21 20 20 20 20
18 17 17 16 16 16 15 15 15 15 15 16 16 16 16 16 17 17 17 16 17 17 17 17 17 17 17 18 18 18 18 18 18 18 18 18 18 18 18 18 19 19 19 19 19 19 19 19 20 20 19 19 19 19 19 19 20 20 20 20 20 20 20
17 17 16 16 16 16 16 16 16 16 16 16 16 16 16 15 16 16 16 15 16 17 17 17 18 17 17 18 18 17 17 17 18 18 17 17 17 18 18 18 19 19 18 19 19 18 19 19 19 19 19 19 19 18 18 19 19 19 20 20 20 20 20
16 16 16 16 16 16 16 17 17 17 17 17 16 16 15 15 15 15 15 15 15 15 16 16 17 17 17 17 17 17 17 18 17 17 17 17 17 17 17 18 18 18 18 18 18 18 18 18 18 18 19 19 19 19 19 19 19 19 20 19 19 20 20
16 16 16 16 16 16 16 17 17 17 17 17 16 16 16 16 15 15 15 15 14 14 14 14 15 15 15 15 16 16 16 17 17 17 17 17 17 17 17 17 17 18 18 18 18 18 18 18 18 18 18 19 19 19 20 20 20 20 20 20 20 20 20
17 16 16 16 16 16 16 16 16 16 16 16 16 16 16 16 16 15 15 15 14 14 14 14 13 14 14 14 14 15 15 16 16 16 16 17 17 17 17 17 17 17 17 17 17 17 17 17 17 18 18 18 18 19 20 20 20 20 20 20 19 19 19
17 17 17 16 16 16 16 16 16 16 16 16 16 16 16 15 15 15 15 15 15 14 14 15 14 14 14 13 13 14 14 15 15 15 15 15 16 16 16 16 17 17 17 17 17 17 17 17 17 17 17 17 18 19 19 19 20 20 20 19 19 19 19
17 17 17 16 16 17 17 16 16 16 16 15 15 15 15 15 14 14 14 14 14 14 14 15 15 15 15 14 14 14 14 15 15 15 14 14 15 15 15 16 16 16 16 16 16 16 16 17 17 17 17 17 18 18 19 19 19 20 19 19 19 19 18
16 16 16 16 16 16 16 16 16 16 16 15 15 15 15 14 14 14 14 14 14 13 14 14 15 16 15 15 15 15 15 15 15 15 15 14 14 14 14 15 15 15 15 15 16 15 16 16 16 16 16 17 18 18 19 18 19 19 19 19 19 18 18
16 16 15 15 16 16 16 16 16 16 16 15 15 15 14 15 15 15 14 14 13 13 13 14 14 15 15 15 16 15 15 15 15 15 15 15 14 13 13 14 15 15 15 15 15 15 15 15 15 15 16 16 16 17 17 17 17 17 18 18 18 17 17
16 16 16 16 16 16 15 15 15 15 15 15 14 14 14 15 15 15 15 15 14 14 14 15 14 13 13 14 15 15 15 16 16 15 15 15 15 14 14 14 13 13 14 14 14 14 14 14 14 14 15 15 15 15 16 16 16 16 17 17 16 16 16
16 16 16 16 16 15 15 15 15 15 14 14 14 15 15 15 15 15 16 15 15 15 15 15 15 14 13 13 13 14 14 15 15 15 15 15 15 15 15 15 14 13 13 14 14 13 13 13 14 14 14 14 14 14 15 15 15 15 15 15 15 15 16
16 17 17 16 15 15 15 15 15 15 14 14 14 14 14 14 15 15 15 15 15 15 15 15 15 15 14 14 13 13 14 14 14 14 14 15 15 14 14 14 14 13 13 13 13 13 13 13 13 13 14 14 14 14 14 14 15 15 15 15 15 15 15
16 16 16 15 15 15 15 15 15 15 14 14 13 13 13 14 14 14 14 13 14 15 15 15 15 15 15 15 14 14 14 14 14 14 14 14 14 13 13 13 13 13 13 13 13 13 13 13 13 14 14 13 13 13 13 13 14 14 15 15 15 15 15
15 15 15 15 14 15 15 15 15 14 14 14 13 13 13 13 13 13 13 13 13 14 15 15 14 14 14 14 14 14 14 14 14 14 13 13 14 14 13 12 12 13 13 13 13 13 13 12 13 13 13 13 13 13 12 13 14 14 14 14 14 14 14
14 14 14 14 14 14 14 14 14 14 14 14 14 14 14 14 13 13 14 14 14 14 14 14 13 13 13 13 14 14 13 13 13 13 13 13 14 14 14 13 13 13 13 13 13 13 13 12 13 13 12 12 13 13 13 13 13 14 14 14 14 14 14
14 14 13 13 13 13 13 13 14 14 14 14 14 14 14 14 13 13 13 14 14 14 14 13 12 12 13 13 13 13 13 13 13 13 13 13 13 13 14 14 14 14 14 13 13 13 13 13 13 13 12 13 13 13 13 13 13 13 13 13 14 14 14
14 14 14 13 13 13 13 13 14 14 14 14 14 14 14 13 13 13 13 13 14 14 14 13 12 12 12 12 12 13 13 12 12 12 12 13 12 12 12 13 14 14 14 13 13 13 13 13 13 13 13 13 13 13 13 13 13 13 13 13 14 14 14
13 13 13 13 14 13 13 14 13 13 13 13 14 14 13 12 13 13 12 13 13 13 14 13 12 11 11 11 12 13 12 11 11 12 12 12 13 12 11 12 12 13 13 13 13 13 13 13 13 13 13 13 13 13 13 13 13 13 14 14 14 14 14

ECMWFFLT1_850_temp_108.txt.gz
Temp
22 23 23 24 25 25 25 24 24 24 24 24 24 24 23 23 22 22 21 21 21 21 21 21 21 21 21 21 21 21 21 21 21 21 20 20 20 20 20 20 20 20 20 20 20 19 19 20 19 19 20 20 21 21 21 21 21 21 21 21 20 20 20
22 23 23 23 24 25 24 24 24 24 24 24 24 24 23 23 22 22 22 21 21 21 21 21 21 21 21 21 20 21 21 21 21 20 20 20 20 20 20 20 20 20 20 20 20 20 20 20 20 19 19 20 21 21 21 21 21 21 21 21 21 21 21
21 22 23 23 24 24 24 24 24 24 24 24 24 24 24 23 22 22 22 21 21 21 21 21 21 21 21 20 20 20 21 21 21 21 20 20 21 20 20 20 20 20 20 20 20 20 20 20 20 20 20 20 20 21 21 21 21 21 21 21 21 21 21
20 22 22 23 24 24 24 24 24 24 24 24 24 24 24 23 23 22 22 21 21 21 21 21 21 21 21 21 20 20 21 20 20 21 20 20 20 20 20 20 20 20 20 20 20 20 20 20 20 20 20 20 20 20 21 21 21 21 21 21 21 21 21
20 22 22 23 23 24 24 24 24 24 24 24 24 23 23 23 22 22 22 21 21 21 21 21 21 21 21 21 20 20 21 20 20 20 20 20 20 20 20 20 20 20 20 20 20 20 20 20 20 20 21 21 20 20 20 21 21 21 21 21 21 21 21
21 22 22 22 22 23 24 24 24 24 24 24 23 23 23 22 22 22 22 21 21 21 21 21 21 21 20 20 20 20 21 21 20 20 20 20 20 20 20 20 20 20 20 20 20 20 20 20 20 20 20 21 20 20 20 20 21 21 21 21 21 21 21
22 22 22 22 22 22 23 24 23 23 23 23 23 22 22 22 22 22 22 22 21 21 21 21 21 21 20 20 21 21 20 20 20 20 20 20 20 20 20 20 20 20 20 20 20 20 20 20 20 20 20 20 20 20 20 20 20 20 20 21 21 21 21
22 22 22 22 22 22 23 23 23 23 23 23 22 23 22 22 22 22 22 21 20 21 22 21 21 21 21 21 21 21 21 20 20 20 20 20 20 20 20 20 20 20 20 20 20 20 20 20 20 20 20 20 20 20 20 20 20 20 20 20 21 21 21
22 22 22 22 22 22 22 23 23 23 23 23 22 23 22 22 22 22 22 21 20 20 21 21 22 21 21 21 21 21 21 21 21 20 20 21 21 21 21 21 21 21 21 20 20 21 21 20 20 20 20 20 20 20 20 20 20 20 20 20 21 21 20
22 22 22 22 22 22 22 22 22 22 22 22 22 22 22 22 22 22 22 21 20 20 21 21 21 21 21 21 21 21 21 21 21 21 21 21 21 21 21 21 21 21 21 21 21 21 21 20 20 20 20 20 20 20 20 20 21 21 21 20 21 21 21
21 21 21 22 22 21 22 22 22 22 22 22 22 22 21 21 21 21 21 21 20 21 21 21 21 21 21 21 21 21 21 21 21 21 21 21 21 22 22 22 22 21 21 21 21 21 21 21 21 20 20 20 20 20 20 20 20 21 21 20 20 21 21
20 20 20 21 21 21 21 21 21 21 21 21 21 21 21 21 21 21 21 20 20 21 21 20 20 21 21 21 21 21 21 21 22 22 22 22 22 22 22 22 22 22 22 21 21 21 21 21 21 20 20 21 20 20 20 20 20 20 21 20 20 20 20
19 20 20 21 21 20 20 21 21 21 20 20 20 20 20 20 21 21 21 21 20 20 20 20 20 20 21 21 21 21 21 21 21 22 22 22 22 22 22 22 22 22 22 22 21 21 21 21 21 21 21 21 21 20 20 21 20 20 21 21 20 20 20
19 19 20 20 20 20 20 20 21 20 20 20 20 20 20 20 21 21 21 21 21 20 20 20 20 20 20 21 20 20 20 21 21 21 21 21 22 22 22 22 22 22 22 22 22 21 21 21 21 21 21 21 21 21 20 20 20 20 21 21 21 20 20
18 19 19 19 19 19 19 19 19 19 19 19 20 20 20 20 20 20 20 20 20 20 20 20 20 20 20 20 20 20 20 20 20 20 20 21 21 21 21 22 22 22 22 22 22 22 22 22 21 21 21 21 21 21 20 20 20 20 21 21 21 21 21
17 18 18 18 19 19 18 18 18 18 18 18 19 20 20 20 20 20 20 20 20 20 20 19 19 20 20 20 20 20 20 20 20 20 20 21 21 21 21 21 21 21 21 21 22 22 21 21 21 21 21 21 21 20 20 20 20 20 20 21 21 21 21
17 17 17 17 18 17 17 18 18 18 18 18 18 19 19 20 20 19 19 20 20 19 19 19 19 20 20 20 19 19 19 20 20 20 20 20 21 21 21 21 21 21 21 21 21 21 21 21 21 21 21 21 21 20 20 20 20 20 20 21 21 21 21
17 18 17 17 17 17 17 17 17 17 18 18 18 18 18 19 19 19 19 19 19 19 19 19 19 19 19 19 19 19 19 19 19 19 20 20 20 21 21 21 21 21 21 20 20 20 20 21 21 21 21 21 21 21 20 20 20 20 20 20 21 21 21
17 18 17 17 17 17 16 17 17 17 17 17 18 18 18 18 18 18 18 18 18 18 18 18 18 19 19 19 19 19 19 19 19 19 19 19 19 20 20 21 21 22 21 21 20 19 19 20 20 20 20 21 20 20 20 20 20 20 20 20 21 21 21
17 17 17 17 16 16 16 16 16 16 16 17 17 17 17 18 18 18 18 18 18 18 18 18 18 18 18 18 19 19 19 19 19 19 19 19 19 19 20 20 20 20 21 21 21 20 19 20 20 20 20 20 20 20 20 20 20 20 20 20 21 20 20
17 17 17 16 16 16 16 17 16 16 16 16 16 16 16 17 17 17 17 17 17 17 17 18 18 18 18 18 18 18 19 19 19 19 19 19 19 19 19 19 19 19 19 20 20 19 19 19 19 19 20 20 20 19 19 20 20 20 20 20 20 20 20
17 17 16 17 16 16 17 17 17 17 16 16 16 16 16 16 16 16 16 17 17 17 17 17 17 17 17 18 18 18 18 18 18 18 18 18 18 18 18 18 18 18 18 19 19 19 19 18 18 19 19 20 20 19 19 19 20 20 20 20 20 20 20
17 17 17 17 17 17 17 17 17 17 17 16 16 16 16 15 15 15 15 16 16 16 16 16 16 17 17 17 18 18 18 18 18 17 17 17 18 18 18 18 18 18 18 18 18 18 18 18 18 18 18 19 19 19 19 19 19 20 20 20 20 20 20
17 17 17 17 17 17 17 17 17 17 17 17 16 16 16 16 16 16 15 16 16 15 15 15 15 15 16 16 16 17 17 17 17 17 17 17 17 17 17 17 17 17 17 18 18 18 18 18 18 18 18 18 19 19 19 19 19 19 19 20 20 19 19
17 17 18 18 17 17 17 17 17 17 17 17 17 17 17 16 16 16 16 16 16 15 14 14 14 15 15 15 15 15 15 15 16 16 16 17 17 17 17 17 17 17 17 17 17 17 18 18 18 18 18 18 18 19 19 19 19 19 19 20 20 19 19
17 17 17 17 17 17 17 18 17 17 17 17 17 17 16 16 16 15 15 15 15 14 14 15 15 15 14 14 14 14 14 14 14 15 15 15 16 16 17 17 17 17 17 17 17 17 17 17 17 18 17 17 18 18 18 19 19 19 19 19 19 19 19
18 17 17 17 17 17 17 17 17 17 16 16 16 16 15 15 15 15 15 15 15 14 14 14 15 15 15 15 14 13 14 14 14 14 14 14 15 15 15 16 16 16 16 16 16 17 17 17 17 17 17 17 17 18 18 18 18 19 19 19 19 19 19
17 17 17 17 17 17 17 17 17 17 16 16 15 15 15 15 14 14 14 14 14 14 14 14 15 15 15 15 15 14 14 14 14 14 14 14 14 14 14 15 15 15 15 16 16 16 16 16 16 17 17 17 17 17 17 18 18 18 18 18 18 19 18
17 17 17 17 17 17 17 17 17 16 16 16 15 15 15 15 15 15 14 14 14 13 13 14 14 15 15 15 15 15 16 15 14 14 14 14 14 14 14 14 15 15 15 15 15 15 15 15 15 16 16 16 16 16 16 16 17 17 17 17 17 17 17
17 17 17 17 17 17 16 16 16 15 15 15 16 16 16 17 16 16 16 15 15 14 14 14 13 14 14 15 15 15 16 16 15 15 15 15 15 14 13 13 14 14 14 14 14 14 14 15 15 15 15 15 15 15 15 15 15 16 16 16 16 16 16
17 17 17 16 16 16 16 16 15 15 15 15 16 17 17 17 17 16 16 16 16 15 15 15 14 14 14 14 14 14 15 15 16 15 15 15 15 14 14 14 14 14 14 14 14 13 13 14 14 14 14 14 14 14 15 14 15 15 15 15 16 16 16
17 17 16 16 16 16 16 16 15 15 15 15 15 16 16 17 17 16 16 16 16 16 16 16 15 15 15 14 14 14 14 15 15 15 15 14 14 14 14 13 14 14 14 14 13 13 13 13 13 14 14 14 14 14 14 14 14 14 15 15 15 15 15
17 16 16 16 16 16 16 16 15 15 15 14 14 15 15 16 16 16 15 14 15 16 16 15 15 15 15 15 15 15 15 15 15 14 14 14 14 13 13 13 13 14 14 14 14 13 13 13 13 13 13 13 14 14 13 14 14 14 14 14 14 15 15
16 16 15 15 16 16 16 15 15 14 14 14 14 14 15 15 15 16 15 15 15 16 16 15 15 15 15 15 15 15 15 15 15 14 14 14 14 14 14 14 14 14 14 14 14 14 13 13 14 13 13 13 13 13 13 13 14 14 14 14 14 14 15
16 15 15 15 15 15 15 15 14 14 15 15 15 15 15 16 16 16 16 16 16 16 16 16 15 14 14 14 15 15 15 15 14 14 13 14 14 14 14 15 15 14 14 13 13 14 13 13 14 13 13 13 13 13 13 13 14 14 14 14 14 14 14
15 15 15 15 15 14 14 14 14 14 15 15 15 15 15 15 16 16 16 16 15 15 15 15 14 14 14 14 14 14 14 14 14 13 13 12 13 13 14 14 14 14 14 13 13 13 13 13 13 13 13 13 13 13 13 13 13 14 14 14 14 14 14
15 14 14 14 14 14 14 14 14 15 15 15 15 15 15 15 15 15 16 16 15 15 15 15 14 13 13 14 14 14 14 13 13 13 13 12 12 12 13 13 13 13 13 13 13 13 13 13 13 13 13 13 13 13 13 13 13 13 13 13 14 14 14
14 14 14 14 14 14 14 14 15 15 15 15 15 14 15 15 15 15 15 15 15 15 15 14 13 13 13 14 14 14 14 13 13 13 13 13 12 12 12 12 12 12 12 13 13 13 13 13 13 13 13 13 13 14 13 13 13 13 13 14 14 14 14

ECMWFFLT1_850_temp_111.txt.gz
Temp
23 23 24 24 24 24 24 25 24 24 24 24 23 23 22 22 22 21 21 21 22 21 21 21 21 21 21 21 21 21 21 20 20 20 20 20 20 20 20 20 20 20 20 20 20 20 20 20 20 21 21 20 20 21 21 21 21 21 21 21 20 20 20
23 23 23 24 24 24 24 24 24 24 24 24 23 23 23 22 22 22 21 21 22 22 21 21 21 21 21 21 21 21 21 21 21 20 20 20 20 20 20 20 20 20 20 20 20 20 20 20 19 20 20 20 20 20 21 21 21 21 21 21 21 20 20
23 23 23 23 24 24 23 24 24 23 23 24 23 23 23 22 22 22 22 22 22 22 21 21 21 21 21 21 21 21 21 21 21 21 20 21 20 20 20 20 20 20 20 20 20 20 20 20 20 19 19 20 20 21 21 21 21 21 21 21 21 21 21
23 23 23 23 24 24 24 24 24 23 23 23 23 23 23 22 22 22 22 22 22 22 21 21 21 21 21 21 21 21 21 21 21 21 21 21 20 20 20 20 20 20 20 20 20 20 20 20 20 20 20 20 20 21 21 21 21 21 21 21 21 21 21
22 22 23 23 23 24 23 23 23 23 23 23 23 23 23 23 22 22 22 22 22 22 22 21 21 21 21 21 21 21 21 21 21 21 21 21 20 20 20 20 20 20 20 20 20 20 20 20 20 20 20 20 20 21 21 21 21 21 21 21 21 21 21
22 22 23 23 23 23 23 23 22 22 22 23 24 23 23 23 22 22 22 22 22 22 22 21 21 21 21 21 21 21 20 21 21 21 21 21 20 20 20 20 21 21 20 20 20 20 20 20 20 20 20 20 20 20 20 20 21 21 21 21 21 21 21
22 22 22 23 23 22 23 23 22 22 22 23 23 23 23 23 22 22 22 22 22 21 21 21 21 21 21 21 21 21 21 21 21 21 21 20 20 20 21 21 21 21 20 20 20 20 20 20 20 20 20 20 20 20 20 20 20 21 21 21 21 21 21
22 22 21 22 22 22 23 23 23 23 22 23 23 23 22 22 22 22 22 21 21 21 21 20 20 20 20 20 20 20 21 21 21 21 20 20 20 20 20 20 20 21 20 20 20 20 20 20 20 20 20 20 20 20 20 20 20 20 20 21 21 21 21
22 22 22 21 21 22 23 23 24 23 23 23 23 23 22 22 22 21 22 21 21 21 21 20 20 20 20 20 20 20 20 20 20 20 20 20 20 20 20 20 20 20 20 20 20 20 20 20 20 20 20 20 20 20 20 20 20 20 20 20 21 21 20
21 21 21 20 20 21 22 23 24 23 23 23 23 23 22 22 21 22 22 22 21 21 21 21 21 20 20 20 20 20 20 20 20 20 20 20 20 20 20 20 21 20 20 20 20 20 20 20 20 20 20 20 20 20 20 20 20 20 20 20 20 20 20
21 21 21 20 19 21 22 23 23 23 23 23 23 23 22 22 22 22 21 22 21 21 21 21 21 21 20 20 21 21 20 20 20 20 20 20 20 20 21 21 21 21 21 21 21 21 21 20 20 20 20 20 20 20 20 20 20 20 20 20 20 20 20
20 20 20 20 20 21 22 22 23 23 23 23 23 22 22 22 22 22 21 21 21 21 21 21 21 21 21 20 20 21 21 21 21 20 21 21 21 21 21 21 21 21 21 21 21 21 21 20 21 20 20 20 20 20 20 20 20 20 20 20 20 20 20
19 18 18 19 20 21 21 21 20 20 20 21 22 22 22 22 22 22 21 21 21 21 21 21 21 22 21 20 20 21 21 21 21 21 21 21 21 21 21 21 21 21 21 21 21 21 21 21 21 21 21 21 20 20 20 20 20 20 20 20 20 20 20
17 16 17 17 18 19 20 19 18 18 18 19 20 21 22 22 21 21 21 21 21 21 21 21 21 22 21 20 20 21 20 20 21 21 21 21 21 21 21 21 21 21 21 21 21 21 21 21 21 21 21 21 21 20 20 20 20 20 20 20 20 20 20
17 17 17 17 17 18 19 19 19 19 19 20 21 21 21 21 21 21 21 21 21 21 21 21 21 21 20 20 21 21 20 20 20 21 21 21 21 21 21 21 21 22 21 21 21 21 21 21 21 21 21 21 21 21 20 20 20 20 20 20 20 20 20
17 17 17 18 18 17 17 19 19 19 19 21 21 21 20 21 21 21 21 20 20 20 20 20 20 20 20 20 21 21 21 20 20 21 21 21 21 21 21 21 21 22 21 21 21 21 21 21 20 20 20 20 21 21 21 20 20 20 20 20 20 20 20
17 17 18 18 18 17 16 17 18 18 18 19 19 19 19 19 19 19 19 19 19 19 20 20 20 20 19 20 20 20 20 20 20 21 21 21 21 21 21 21 21 22 21 21 22 21 21 21 21 20 20 20 20 20 20 20 20 20 20 20 20 20 20
16 16 17 17 17 16 16 16 17 17 18 18 19 19 18 19 19 18 18 18 18 19 19 19 19 19 19 19 19 19 19 20 20 20 21 21 21 21 21 21 21 21 21 21 21 21 21 21 21 21 20 20 20 20 20 20 20 20 20 20 20 20 20
16 16 16 16 16 16 16 16 16 17 18 18 18 19 19 19 19 19 19 18 18 18 18 18 19 19 19 20 19 19 20 20 20 20 20 20 20 20 21 21 21 21 21 21 21 21 21 21 21 21 21 21 20 20 20 20 20 20 20 20 20 20 20
16 16 16 16 16 16 16 16 16 17 17 17 18 18 18 18 18 18 19 18 18 18 18 18 19 19 20 20 19 19 20 19 19 19 19 20 20 20 20 20 20 20 21 21 20 21 21 21 21 21 20 20 20 20 20 20 20 20 20 20 20 20 20
16 16 17 17 17 16 16 17 17 16 16 16 17 17 17 17 17 18 18 18 18 18 18 18 18 18 19 19 19 19 19 19 19 19 19 19 19 19 19 20 20 20 20 20 20 20 20 21 21 21 20 20 20 20 20 20 20 20 20 20 20 20 20
16 16 16 16 17 17 16 16 17 17 16 16 16 16 17 17 17 17 17 17 18 18 18 17 17 17 18 18 18 18 19 19 19 19 19 19 19 19 19 19 19 19 19 19 19 19 19 19 20 20 20 20 20 20 20 20 20 20 20 20 20 20 20
16 16 16 16 16 16 16 16 17 17 17 16 16 16 16 17 17 17 17 17 16 16 16 16 16 17 17 17 18 18 18 18 18 18 18 18 18 18 19 19 19 19 18 18 18 18 19 19 19 19 19 19 19 20 20 20 20 20 20 20 20 20 20
16 16 16 16 16 16 16 16 17 17 16 16 16 16 16 16 16 16 16 15 15 15 15 15 16 16 16 17 17 17 17 17 18 18 18 18 18 18 18 18 18 18 18 18 18 18 18 18 18 18 18 19 19 19 19 20 20 20 20 20 20 20 19
16 16 16 16 16 16 16 16 16 16 16 15 15 16 15 15 15 15 15 15 15 15 15 15 15 15 15 16 16 16 16 17 17 17 17 17 17 17 17 17 17 17 17 17 17 17 18 18 18 18 18 18 19 19 19 19 19 19 19 19 19 19 19
16 16 16 16 16 16 16 16 16 16 16 15 15 15 15 15 15 15 15 15 15 14 15 15 14 15 15 15 15 15 15 15 15 16 16 16 16 16 16 16 17 17 17 17 17 17 17 17 17 17 18 18 18 18 18 18 19 19 19 19 19 19 19
17 17 17 17 16 16 16 16 16 16 16 15 15 15 15 15 15 15 15 15 15 14 14 14 14 15 15 15 15 14 14 14 14 14 15 15 15 15 15 16 16 17 17 17 17 17 17 17 17 17 17 17 17 17 18 18 18 18 18 18 18 19 19
17 17 17 17 17 16 16 16 16 15 15 15 15 15 15 15 15 14 14 14 14 15 15 15 15 15 15 15 15 15 15 14 14 14 14 14 14 15 15 16 16 16 17 17 17 16 16 16 16 16 17 17 17 17 17 17 17 17 17 18 18 18 18
17 17 17 17 16 16 16 16 15 15 15 15 15 15 15 15 15 14 14 14 14 14 14 15 15 16 15 15 15 16 15 15 15 14 14 14 14 14 15 15 15 16 16 15 15 15 16 16 16 16 16 16 16 16 16 16 16 16 17 17 17 17 17
17 17 17 16 16 16 16 15 15 15 15 15 15 15 15 16 16 15 15 15 14 14 14 14 14 14 14 14 15 15 15 15 15 15 14 14 14 14 14 14 15 15 14 14 14 15 15 15 15 15 15 15 15 15 15 15 15 15 15 16 16 16 16
17 16 16 16 16 16 16 16 16 15 15 16 16 16 16 16 16 16 16 16 15 15 15 15 14 14 14 14 14 14 15 15 14 14 14 14 14 14 14 14 14 14 14 14 14 14 14 14 14 14 14 14 14 15 15 14 14 14 14 15 15 16 16
16 16 16 16 16 16 16 15 15 15 16 16 16 16 16 16 16 16 16 16 16 16 16 16 16 15 14 14 14 14 14 14 14 13 14 14 14 14 14 14 14 14 14 14 14 13 14 14 14 14 14 14 14 14 14 14 14 14 14 14 15 15 15
16 16 16 16 16 15 15 15 14 14 15 15 15 15 15 16 16 16 16 16 16 16 16 16 16 16 15 15 14 14 14 14 14 13 14 14 14 15 14 14 14 14 14 14 13 13 13 13 13 13 13 14 14 14 14 14 14 14 14 14 14 14 14
16 16 16 16 16 16 15 15 15 15 15 15 15 15 15 16 16 16 16 16 16 16 16 16 16 15 15 15 15 15 14 14 14 14 14 13 14 14 15 14 14 13 14 14 13 13 13 13 13 13 13 14 14 14 14 14 14 14 14 14 14 14 14
16 16 16 16 16 15 15 15 15 15 15 15 15 15 16 16 16 16 16 16 16 16 16 15 15 14 14 14 15 14 14 14 14 14 14 14 14 14 15 15 14 14 14 13 13 13 13 13 13 13 13 14 14 14 14 14 14 14 14 14 14 14 14
16 16 15 15 15 15 15 15 15 15 15 15 15 15 16 16 16 16 16 15 15 16 16 15 15 14 14 14 14 14 14 14 14 14 14 14 14 14 14 14 14 14 14 13 13 13 13 13 13 13 13 13 13 13 13 14 14 14 14 14 14 14 15
15 15 15 15 15 15 15 15 15 15 15 15 15 15 15 16 16 16 16 16 15 15 15 15 15 15 14 14 14 14 14 14 14 14 13 13 13 13 13 13 13 13 13 13 13 13 13 13 13 13 13 12 12 13 13 13 14 14 14 14 14 15 15
15 15 15 15 15 15 15 15 15 15 15 15 15 15 15 15 15 16 16 16 16 15 15 15 15 15 15 14 14 14 14 14 14 14 13 12 12 13 13 12 12 12 13 13 13 13 13 13 13 13 13 13 13 13 13 14 14 14 14 14 14 15 15

ECMWFFLT1_850_temp_114.txt.gz
Temp
22 23 23 24 24 24 23 23 23 22 22 22 22 21 21 21 21 21 21 21 21 21 21 20 20 21 21 20 20 20 20 20 20 20 20 20 20 20 20 20 20 20 20 20 20 21 21 21 20 20 20 20 20 20 20 20 20 21 21 20 20 21 21
22 23 23 24 24 24 23 23 23 23 22 22 22 22 22 21 21 21 21 21 21 21 21 21 21 21 21 21 20 20 20 20 20 20 20 20 20 20 20 20 20 20 20 20 20 20 20 20 20 20 20 20 20 20 20 20 21 21 21 20 20 20 21
22 22 23 24 24 24 23 23 23 23 23 23 22 22 22 22 22 22 21 21 21 21 21 21 21 21 21 21 21 20 20 20 20 20 20 20 20 20 20 20 20 20 20 20 20 20 20 20 20 20 20 20 20 20 21 21 21 21 21 21 21 21 21
22 22 23 23 24 24 23 23 23 23 23 23 22 22 22 22 22 22 22 22 21 21 21 21 21 21 21 21 21 21 21 20 20 20 20 20 20 20 20 20 20 20 20 20 20 20 20 20 20 20 20 20 20 20 21 21 21 21 21 21 21 21 21
22 22 23 23 24 24 24 23 23 23 23 23 23 22 22 22 22 22 22 22 22 22 22 21 21 21 21 21 21 21 21 21 20 20 20 20 20 20 20 20 20 20 20 20 20 20 20 20 20 19 20 20 20 20 21 21 21 21 21 21 21 21 21
22 22 22 23 23 24 24 24 23 23 23 23 23 22 22 22 22 22 22 22 22 22 22 22 21 21 21 21 21 21 21 21 21 20 20 20 20 20 20 20 20 20 20 20 20 20 20 20 20 20 20 20 20 20 21 21 21 21 21 21 21 21 21
22 22 22 22 23 24 24 24 23 23 23 23 23 22 22 22 22 22 22 22 22 22 22 22 21 21 21 21 21 21 21 21 21 21 20 20 20 20 20 20 20 20 20 20 20 20 20 20 20 20 20 20 20 20 21 21 21 21 21 21 21 21 21
22 22 22 22 23 23 23 23 23 23 23 23 23 22 22 22 22 23 22 22 22 22 22 22 21 21 21 21 21 21 21 21 21 21 20 20 20 20 20 20 20 20 20 20 20 20 20 20 20 20 20 20 20 20 20 20 20 20 20 21 21 21 21
22 22 22 22 23 23 23 23 23 23 23 23 23 22 22 21 22 23 23 22 22 22 22 22 22 21 21 21 21 21 21 21 21 21 20 20 20 20 20 20 20 20 20 20 20 20 20 20 20 20 20 20 20 20 20 20 20 20 20 20 20 20 20
22 22 22 22 22 23 23 22 22 23 23 23 23 22 22 21 21 22 22 22 22 22 22 22 21 21 21 21 21 21 21 21 21 21 21 20 20 20 20 20 20 20 20 20 20 20 20 20 20 20 20 20 20 20 20 20 20 20 20 20 20 20 20
21 21 21 20 20 21 21 21 21 22 22 22 22 22 22 21 21 22 23 22 22 22 21 21 21 21 21 21 21 21 21 21 20 20 21 21 20 20 20 20 20 20 20 20 20 20 20 20 20 20 20 20 20 20 20 20 20 20 20 20 20 20 20
20 20 19 18 19 19 19 19 20 21 22 22 22 22 22 21 22 22 22 22 22 22 21 21 21 21 21 20 20 20 20 20 20 20 20 20 21 20 20 20 20 20 20 20 20 21 20 20 20 20 20 20 20 20 20 20 20 20 20 20 20 20 20
20 19 19 19 19 19 19 20 20 21 22 22 22 22 22 22 22 23 22 22 22 21 21 21 20 20 20 20 20 20 20 20 21 20 20 20 21 21 20 20 20 21 21 21 21 21 21 21 21 21 21 20 20 20 20 20 20 20 20 20 20 20 20
19 18 18 18 18 19 20 20 20 20 20 20 20 20 20 19 20 20 21 21 21 21 21 21 20 20 20 20 20 20 20 20 21 21 20 20 20 20 20 20 20 21 21 21 21 21 21 21 21 21 21 21 21 21 20 20 20 20 20 20 20 20 20
17 17 17 17 17 18 18 19 19 19 19 18 18 18 18 18 18 19 19 19 19 19 19 20 20 20 20 20 20 20 20 20 20 20 20 20 20 20 20 20 20 21 21 21 21 21 21 21 21 21 21 21 21 21 20 20 20 20 20 20 20 20 20
16 17 17 17 17 17 18 18 18 19 19 19 18 18 18 18 19 20 20 20 20 19 19 19 19 20 20 20 20 20 20 20 20 20 20 20 20 20 20 20 20 21 21 21 21 21 21 21 21 21 21 21 21 20 20 20 20 20 20 20 20 20 20
16 16 17 17 17 17 17 18 18 18 19 19 19 19 19 19 19 20 20 20 20 20 19 19 19 20 20 20 20 20 20 20 20 20 20 20 20 21 21 21 21 21 21 21 21 21 21 21 21 21 21 21 21 20 20 20 20 20 20 20 20 20 20
16 16 16 17 17 17 17 18 18 18 19 19 19 19 20 20 20 19 20 20 20 20 20 20 20 20 20 19 19 19 19 20 20 20 20 20 20 21 21 21 21 21 21 21 21 21 21 21 21 21 21 21 21 21 20 20 20 20 20 20 20 20 19
15 16 16 17 16 16 17 17 17 18 18 18 18 19 19 20 20 19 19 20 20 20 20 20 20 21 21 20 20 19 19 19 19 20 20 20 20 20 21 21 21 21 21 21 21 21 21 21 21 21 21 21 21 21 21 20 20 20 20 20 20 20 19
15 15 16 16 16 16 16 16 17 17 17 17 17 18 18 19 19 20 19 19 19 19 20 20 20 20 20 20 20 20 19 19 19 19 19 19 19 20 20 20 20 21 21 21 21 21 21 21 21 21 21 21 21 21 21 21 21 20 20 20 20 20 19
15 15 15 15 15 15 16 16 17 17 17 18 18 18 17 17 18 18 18 18 18 18 18 19 19 19 19 20 20 20 20 20 19 19 19 19 19 20 20 20 20 20 20 20 20 20 20 20 20 20 20 20 20 20 20 20 20 20 20 20 20 20 20
15 15 15 15 15 15 16 16 16 16 16 17 17 17 16 17 17 17 17 17 17 17 17 17 18 18 19 19 19 19 19 19 19 19 19 19 19 19 19 19 20 20 20 20 20 20 20 20 20 20 20 20 20 20 20 20 20 20 20 20 20 20 20
15 15 15 15 15 15 15 15 16 16 16 16 16 16 16 16 17 17 17 17 17 17 17 17 17 17 18 18 19 19 19 18 18 18 18 19 19 19 19 19 19 19 20 20 20 20 20 19 19 19 20 20 20 20 20 20 20 20 20 20 20 20 20
15 15 15 15 15 15 15 15 15 15 15 15 15 15 16 16 16 16 17 16 16 16 16 16 16 16 17 17 18 18 18 18 17 17 18 19 19 19 19 19 19 19 19 19 19 19 19 18 18 19 19 19 19 19 19 19 19 19 19 19 19 20 20
15 15 15 15 16 16 15 15 15 15 15 16 15 15 15 15 15 15 16 16 16 15 16 16 16 16 16 16 17 17 18 18 17 16 17 18 18 18 18 18 18 18 18 18 18 18 18 17 17 18 18 19 18 18 18 18 19 19 19 19 19 19 20
15 15 15 15 15 15 15 15 15 15 15 15 15 15 14 14 15 15 14 14 15 15 15 15 15 15 15 15 15 16 17 18 16 15 16 17 17 17 17 17 17 17 17 17 17 17 17 17 17 17 18 18 18 18 17 17 18 18 19 19 19 19 19
15 15 15 15 15 15 15 15 15 15 15 15 15 14 14 14 14 14 14 14 14 14 15 15 15 15 15 15 15 16 16 16 15 15 15 16 16 16 16 16 16 16 17 17 17 17 17 17 17 17 17 17 17 17 17 17 17 17 18 18 18 18 18
15 15 15 15 15 15 15 15 15 15 15 15 14 14 14 15 15 14 14 14 14 14 14 15 15 15 15 15 15 14 14 14 14 14 15 15 15 15 16 16 16 16 16 16 16 17 17 17 17 17 17 17 17 17 17 17 17 17 17 17 17 17 18
15 15 15 15 16 16 16 15 15 15 15 15 15 14 15 15 16 15 15 15 15 15 15 15 15 15 15 15 14 14 14 14 14 14 14 14 15 15 15 15 15 16 16 16 16 16 16 16 16 16 16 16 16 16 16 16 16 16 16 16 17 17 17
16 16 16 16 16 16 16 16 15 15 14 14 15 15 15 16 16 16 16 16 15 15 15 15 15 15 15 15 15 15 14 14 14 14 14 14 14 15 15 15 15 15 15 15 15 15 15 15 15 15 15 15 15 15 15 15 16 16 16 16 16 16 17
16 16 16 16 16 16 16 16 15 15 15 15 14 14 15 15 15 16 15 15 15 15 15 15 14 14 14 14 14 14 14 15 15 15 15 14 14 14 14 14 15 15 15 14 14 14 15 15 15 15 15 15 15 16 16 15 16 16 16 15 15 15 16
16 16 16 16 16 15 16 16 16 16 16 15 15 15 15 15 15 15 15 14 14 14 14 14 14 14 14 14 14 14 14 15 15 15 15 15 14 14 14 14 14 14 14 14 14 14 15 15 15 15 15 15 15 15 15 15 15 16 15 14 14 15 15
16 16 16 16 16 16 16 16 16 16 16 16 16 16 16 16 16 16 15 15 15 14 14 14 14 14 14 14 14 14 14 14 14 14 15 15 14 14 14 13 13 14 14 14 14 14 14 14 14 14 14 14 14 14 15 15 15 14 14 14 14 14 14
16 16 15 15 16 16 16 16 16 16 16 16 16 16 16 16 16 16 16 16 15 15 15 14 14 14 14 14 14 14 14 14 14 14 14 15 15 14 14 13 13 13 13 14 14 14 14 14 14 14 14 14 13 13 14 14 14 14 14 14 14 14 14
16 16 15 15 15 16 16 16 16 16 16 16 16 16 16 16 16 16 16 16 16 16 16 15 15 14 14 14 14 14 14 14 14 14 14 14 15 15 15 14 13 13 13 13 13 13 13 13 13 13 13 13 13 13 13 13 13 13 13 14 14 14 14
16 16 15 15 15 15 15 15 15 16 15 15 15 15 16 16 16 16 16 16 16 16 16 16 15 15 14 14 14 14 14 14 14 14 14 14 14 15 15 15 14 14 13 13 13 13 13 13 13 13 13 13 13 13 13 13 13 13 13 13 14 14 14
16 16 15 15 15 15 15 15 15 15 15 15 15 15 15 15 15 16 16 15 15 16 16 16 15 15 15 15 14 14 14 14 14 14 14 14 14 14 15 15 15 14 14 14 13 13 13 13 13 13 13 13 13 13 13 14 14 14 14 14 14 14 14
15 15 15 15 15 15 15 15 15 15 15 15 15 15 15 15 15 15 15 15 15 15 16 16 15 15 14 14 14 14 14 14 14 14 14 14 14 14 14 14 14 14 14 14 14 13 13 13 13 13 13 13 13 14 14 14 14 14 14 14 14 14 15

ECMWFFLT1_850_temp_117.txt.gz
Temp
22 22 22 23 22 22 22 22 22 22 22 22 22 22 22 22 22 21 21 21 21 21 21 21 21 20 20 19 19 19 19 19 19 19 20 20 20 20 20 20 20 20 20 20 20 20 20 20 20 20 20 20 20 20 20 20 20 20 20 20 20 20 20
22 22 22 22 22 22 22 22 22 22 22 22 22 22 22 22 22 21 21 21 21 21 21 21 21 20 20 20 19 19 19 19 19 19 19 19 19 19 20 20 20 20 20 20 20 20 20 20 20 20 20 20 20 20 20 20 20 20 20 20 20 20 20
22 22 22 22 22 22 22 22 22 22 22 22 22 22 22 22 22 22 22 21 21 21 21 21 21 21 20 20 20 20 20 20 19 19 19 19 19 19 19 19 19 19 19 19 19 19 19 19 19 20 20 20 19 20 20 20 20 20 20 20 20 20 20
21 22 22 22 22 22 22 22 22 22 22 22 23 23 22 22 22 22 22 22 21 21 21 21 21 21 20 20 20 20 20 20 20 20 19 19 20 19 19 19 19 19 19 19 19 19 20 19 19 19 20 20 19 19 19 19 19 20 20 20 20 21 21
21 22 22 22 22 23 23 22 22 22 22 22 23 23 23 22 22 22 22 21 21 21 21 21 21 21 21 21 21 20 20 20 20 20 20 20 20 19 19 19 19 19 19 19 19 19 20 20 19 19 19 19 19 19 19 19 19 20 20 20 20 20 21
21 22 22 22 22 23 23 23 23 23 22 22 22 23 23 22 22 22 22 22 21 21 21 21 21 21 21 21 21 21 20 20 20 20 20 20 19 19 19 19 19 19 19 19 19 19 20 20 20 20 19 19 19 19 19 19 19 19 20 20 20 20 20
21 21 22 22 22 22 23 23 23 23 23 23 22 22 22 22 22 22 22 22 21 21 21 21 21 21 21 21 21 21 20 20 20 20 20 20 20 20 20 19 19 19 19 19 19 19 19 20 20 20 19 19 19 19 19 19 19 19 20 20 20 20 20
22 21 22 22 22 22 23 23 23 23 23 22 22 22 22 22 22 22 22 22 22 21 21 21 21 21 21 21 21 21 21 20 20 20 20 20 20 20 20 20 20 20 20 20 19 19 19 20 20 19 19 19 19 19 19 19 19 19 19 20 20 20 20
22 21 22 22 21 22 22 22 22 22 22 22 22 22 22 22 22 22 23 23 22 22 22 21 21 22 22 21 21 21 21 20 20 20 20 20 20 20 20 20 20 20 20 20 19 19 19 20 19 19 19 19 19 19 19 19 20 19 19 20 20 20 20
21 21 21 21 21 21 21 21 21 21 22 22 22 22 22 22 22 22 22 22 22 22 22 22 22 22 22 22 21 21 21 20 20 20 20 20 20 20 20 20 20 20 20 20 20 20 20 20 19 19 19 19 19 19 19 20 20 20 19 20 20 20 20
21 21 21 21 21 21 21 21 21 21 21 22 22 22 22 22 22 22 23 23 22 22 22 22 22 22 22 22 22 21 21 21 20 20 20 20 20 20 20 20 20 20 20 20 20 20 20 19 19 19 19 19 19 20 20 20 20 20 20 20 20 20 20
21 21 20 20 20 20 20 21 21 21 21 21 20 20 20 20 20 21 22 22 21 21 21 22 22 22 22 22 21 21 21 21 21 20 20 20 20 20 20 20 20 20 20 20 20 20 20 20 20 20 20 20 20 20 20 20 20 20 20 20 20 20 20
19 19 19 20 21 20 20 21 21 21 21 20 20 20 20 19 19 19 19 19 19 19 19 19 20 21 21 21 21 21 21 21 21 21 21 20 20 20 20 20 20 20 20 20 20 20 20 20 20 20 20 20 20 20 20 20 20 20 20 20 20 20 20
17 17 18 19 20 20 20 20 20 20 20 20 20 21 21 20 20 20 19 19 20 20 20 20 20 20 20 21 21 21 21 21 21 21 21 21 20 20 20 20 20 20 20 20 20 20 20 20 20 20 20 20 20 20 20 20 20 20 20 20 20 20 20
17 17 18 17 18 19 19 19 19 19 20 20 20 20 20 20 20 21 20 20 21 21 21 21 21 20 20 20 20 20 20 20 20 20 20 20 20 20 20 20 20 20 20 20 20 20 20 20 20 20 20 20 20 20 20 20 20 20 20 20 20 20 20
17 18 18 17 18 18 18 18 19 18 18 19 20 20 20 20 20 21 21 21 21 21 21 21 21 21 21 20 20 20 20 19 19 19 19 19 19 20 20 20 20 20 20 20 20 20 20 20 20 20 20 20 20 20 20 20 20 20 20 20 20 20 20
16 17 17 16 17 17 17 17 18 18 17 18 19 19 19 19 20 20 20 20 21 21 21 21 21 21 20 20 21 20 20 20 19 19 18 18 18 19 19 20 20 20 20 20 20 20 20 20 20 20 20 20 20 20 20 20 20 20 20 20 20 20 20
16 16 16 16 16 16 16 16 17 17 17 17 18 18 18 19 19 20 20 20 20 21 21 21 21 21 20 20 20 20 20 20 20 20 19 19 18 18 19 20 20 20 20 20 20 20 20 21 21 21 21 20 20 20 20 20 20 20 20 20 20 20 20
15 16 16 16 16 16 16 16 16 16 17 17 17 18 18 18 19 20 19 19 20 20 20 20 19 19 19 19 20 20 20 20 20 20 20 20 19 19 19 19 20 19 20 20 20 20 21 21 21 21 21 21 21 20 20 20 20 20 20 20 20 20 20
15 15 15 15 16 16 16 16 16 16 16 16 17 17 18 18 19 19 19 19 19 20 20 20 18 17 18 18 18 19 19 19 19 19 19 20 20 19 19 19 20 20 20 20 20 20 20 21 21 21 21 21 21 20 20 20 20 20 20 20 20 20 20
15 15 15 15 16 16 16 16 16 16 16 16 16 17 17 17 17 18 18 19 19 19 19 19 18 17 18 18 18 18 19 19 18 18 19 19 19 20 19 19 20 20 20 20 20 20 19 19 20 20 21 20 20 20 20 20 20 20 20 20 20 20 20
15 15 15 15 15 15 15 15 16 16 16 16 16 16 16 16 17 17 18 18 18 18 18 17 18 18 18 18 18 18 18 18 18 18 19 19 19 20 20 20 19 19 19 20 20 20 19 18 18 19 20 20 20 20 20 20 20 20 20 20 20 20 20
15 15 15 15 15 15 15 15 15 16 16 15 16 16 16 16 16 17 17 17 17 17 17 17 18 18 18 18 18 18 18 19 18 18 18 19 19 19 19 19 19 19 19 19 19 18 18 18 18 19 19 20 20 20 20 20 20 20 20 20 20 20 20
15 15 15 15 15 15 15 15 15 15 15 15 15 16 16 16 16 16 16 16 16 16 17 17 18 18 18 18 18 18 18 18 18 17 17 19 19 19 19 19 19 19 19 19 18 17 17 18 19 19 19 19 19 19 19 19 19 19 19 19 19 20 20
16 16 15 15 15 15 15 15 15 15 15 15 15 15 16 16 16 16 16 16 16 16 17 17 17 18 18 18 18 18 18 18 18 17 18 19 19 19 19 19 19 18 18 18 17 17 17 18 18 18 18 18 19 19 19 19 19 19 19 19 19 19 19
15 15 15 15 15 15 15 15 15 15 15 15 15 15 15 15 15 15 15 15 15 16 16 16 16 16 16 17 17 17 17 17 18 18 18 18 18 18 19 18 18 18 17 17 17 17 17 18 18 17 17 18 18 18 18 18 18 19 19 19 19 19 19
15 15 15 15 14 15 15 15 15 15 14 14 14 14 14 15 15 15 15 14 14 15 15 15 15 15 15 16 16 16 16 17 17 17 18 18 18 17 17 17 17 17 17 17 17 17 17 18 17 17 17 17 17 17 17 17 18 18 18 18 18 18 18
15 15 15 15 14 15 15 15 15 15 14 14 13 13 14 14 14 14 14 14 14 14 14 14 14 14 15 15 15 16 16 16 16 16 17 17 16 16 16 16 16 16 16 16 16 17 17 17 17 17 17 17 17 17 17 17 17 17 17 17 17 17 17
15 15 15 15 14 14 14 14 15 15 14 14 14 13 13 14 14 14 14 14 14 14 14 14 14 14 14 14 14 15 15 15 14 15 15 15 15 15 15 16 16 16 15 15 16 16 16 16 17 17 17 16 16 16 16 16 16 16 16 16 16 16 17
15 15 15 15 14 14 14 14 14 14 14 14 14 14 14 14 14 15 15 14 14 14 14 14 14 14 14 14 14 14 14 14 14 14 14 15 15 15 15 16 16 16 15 15 15 15 15 16 16 16 16 15 15 16 16 16 16 16 16 16 16 16 16
15 15 15 15 14 14 14 14 13 13 13 13 13 13 13 14 14 15 14 14 14 14 14 14 14 14 14 15 15 14 14 14 14 14 14 14 15 15 15 15 15 15 15 14 14 14 15 15 15 15 15 15 15 15 15 15 15 15 15 15 15 15 15
15 15 15 15 15 15 15 14 14 14 14 14 14 14 13 13 14 14 14 13 14 14 14 14 14 14 14 14 15 14 14 14 14 14 14 14 14 14 15 15 15 14 14 14 14 14 14 14 14 14 15 15 15 15 15 15 14 14 14 14 14 14 14
16 16 16 16 16 16 16 16 15 15 15 15 15 15 14 14 14 14 14 14 14 14 14 14 14 14 14 14 14 14 14 14 14 15 15 15 15 15 14 14 14 14 14 14 14 14 14 14 14 14 14 14 14 14 14 14 14 14 14 13 13 14 14
16 16 16 16 16 16 16 16 16 16 16 15 15 15 15 15 15 15 15 15 15 15 14 14 14 14 14 14 14 14 14 14 14 14 14 14 14 14 14 14 14 13 13 14 14 14 14 13 14 14 13 13 13 13 13 13 13 13 13 13 13 13 14
16 16 16 15 15 15 16 16 16 16 16 16 15 15 15 15 15 16 15 15 15 15 15 14 14 14 14 14 14 14 14 14 14 14 14 14 14 14 14 14 14 13 13 13 13 13 13 13 13 13 13 13 13 13 13 13 13 13 13 13 13 13 13
15 15 15 15 15 15 15 15 16 16 15 15 15 15 15 15 15 15 15 15 15 15 15 15 15 14 14 14 14 14 14 14 14 14 14 14 14 14 14 14 13 13 13 13 13 13 13 13 13 13 14 14 14 13 13 13 13 13 13 13 13 13 13
15 15 15 15 15 15 15 15 15 15 15 15 15 15 15 15 15 15 15 15 15 15 15 15 15 15 14 14 14 14 14 13 13 14 14 14 14 15 15 14 14 13 13 13 13 12 12 12 13 13 13 14 14 14 14 14 14 14 14 14 14 14 14
15 15 14 14 14 14 14 14 14 14 14 14 14 14 15 15 15 15 15 15 15 15 15 15 15 15 14 14 14 14 13 13 13 13 13 14 14 14 14 14 14 14 13 13 13 13 13 13 13 13 13 14 14 14 14 15 15 15 15 15 15 15 15

ECMWFFLT1_850_temp_123.txt.gz
Temp
21 21 21 21 22 22 22 22 23 23 23 23 23 22 22 21 21 21 21 20 20 20 20 20 20 20 20 20 20 20 20 20 19 19 19 19 19 19 19 19 19 19 19 19 20 20 20 19 19 19 19 19 19 19 19 19 19 19 19 19 19 19 19
20 21 21 21 22 22 22 23 23 23 23 23 23 22 22 22 22 21 21 21 20 20 20 20 20 20 20 20 20 20 20 20 19 19 19 19 19 19 19 19 19 19 19 19 19 19 19 19 19 19 19 19 19 19 19 19 19 19 19 19 19 19 19
21 20 21 21 22 22 22 22 22 23 23 23 23 22 22 22 22 22 22 21 21 20 20 20 20 21 21 20 20 20 20 20 19 19 19 19 19 19 19 19 19 19 19 19 19 19 19 19 19 19 19 19 19 19 19 19 19 19 19 19 19 19 19
21 21 21 22 22 22 22 22 23 23 23 23 23 23 23 23 23 22 22 22 21 21 21 21 21 21 21 21 21 20 20 20 20 19 19 19 19 19 19 19 19 19 19 19 19 19 19 19 19 19 19 19 19 19 19 19 19 19 19 19 19 19 19
20 21 21 21 22 22 22 22 23 23 23 23 23 23 23 23 23 22 22 22 22 21 21 21 20 20 21 21 21 21 21 20 20 19 19 19 19 19 19 19 19 19 19 19 19 19 19 19 19 19 19 19 19 19 19 19 19 19 19 19 19 19 19
20 20 20 21 21 22 22 22 23 23 23 23 23 23 23 23 23 22 22 22 22 21 21 21 20 20 21 21 21 21 21 21 20 20 19 19 19 19 19 19 19 19 19 19 19 19 19 19 19 19 19 19 19 19 19 19 19 19 19 19 19 19 19
20 20 20 21 21 21 22 22 22 23 23 23 23 23 23 23 23 23 22 22 22 22 21 21 21 20 21 21 21 21 21 21 20 20 20 20 19 19 19 19 20 19 19 19 19 19 19 19 19 19 19 19 19 19 19 19 19 19 19 19 19 19 19
20 20 20 21 21 21 22 22 22 22 22 23 23 23 23 23 23 23 23 23 22 22 22 21 21 21 20 20 21 21 21 21 21 20 20 20 19 19 19 19 20 20 19 19 19 19 19 19 19 19 19 19 19 19 19 19 19 19 19 19 19 19 19
20 20 20 20 21 21 22 22 22 22 22 22 23 23 23 23 23 23 23 23 23 22 22 22 21 21 21 20 21 21 21 21 21 20 20 20 19 19 19 19 20 19 19 19 19 19 19 19 19 19 19 19 19 19 19 19 19 19 19 19 19 19 19
20 20 20 20 20 21 21 21 21 22 22 22 22 23 23 23 23 23 23 23 22 22 22 22 21 21 21 21 21 21 21 21 21 20 20 20 20 20 19 19 19 19 19 19 19 19 19 19 19 19 19 19 19 19 19 19 19 19 18 19 19 19 19
20 20 20 20 20 20 20 21 21 21 21 21 21 21 21 21 21 22 22 22 22 22 22 22 22 21 21 21 21 21 21 21 21 20 20 20 20 20 20 19 19 19 19 19 19 19 19 19 19 19 19 19 19 19 19 19 19 19 18 18 19 19 19
19 19 19 20 20 20 20 20 20 20 20 21 20 20 20 20 20 20 20 21 21 22 22 22 22 21 21 20 20 20 20 20 20 20 20 20 20 20 20 20 20 20 20 20 20 20 19 19 19 19 19 19 19 19 19 19 19 19 18 18 18 19 19
17 18 18 18 19 19 20 20 20 20 21 21 21 21 21 21 21 21 20 20 19 19 20 21 22 22 21 21 21 20 20 20 20 20 20 20 20 20 20 20 20 20 20 20 20 19 19 19 19 20 20 19 19 19 19 19 19 19 19 19 18 18 19
17 17 17 18 18 19 19 20 20 20 21 21 21 21 21 21 21 21 21 21 20 20 20 19 20 20 21 21 21 21 21 21 20 20 20 20 20 20 20 20 20 20 20 19 19 19 19 19 19 19 19 19 19 19 19 19 19 19 19 19 19 18 19
17 17 18 18 18 19 19 19 20 20 20 20 21 21 21 21 21 21 21 21 21 21 21 20 19 19 20 20 21 21 21 21 21 20 20 20 20 20 20 20 20 20 20 20 20 19 19 19 19 19 19 19 19 19 19 19 19 19 19 19 19 18 18
17 17 18 18 18 18 19 19 19 19 19 20 20 20 20 21 21 21 20 20 20 21 21 21 20 19 19 19 20 21 21 21 21 21 20 20 20 20 20 20 20 20 20 20 20 20 20 20 19 19 19 19 19 19 19 19 19 19 19 19 19 18 18
16 16 16 16 17 17 18 18 18 18 18 19 19 19 19 19 20 20 20 19 19 19 20 20 20 20 19 19 19 19 20 20 21 20 20 20 21 20 20 20 20 20 20 20 20 20 20 20 20 19 19 19 19 19 19 19 19 19 19 19 19 19 19
16 16 16 16 16 17 17 17 17 18 18 18 18 18 18 19 19 19 19 19 19 19 19 19 19 19 20 20 19 19 18 19 19 20 20 20 20 20 20 20 20 20 20 20 20 20 20 20 20 20 19 19 19 19 20 20 20 20 19 20 19 19 19
15 15 15 15 16 16 17 17 17 18 17 17 17 17 17 18 18 18 18 18 18 18 18 18 19 18 18 19 19 19 18 18 18 19 19 20 20 20 20 20 20 20 20 20 20 20 20 20 20 20 20 20 20 20 20 20 20 20 20 20 20 19 19
15 15 15 15 15 16 16 16 17 17 17 17 17 17 17 17 17 17 17 17 17 17 17 18 18 18 18 18 18 18 18 18 19 19 19 19 20 19 19 19 20 20 20 20 20 20 20 20 19 19 20 20 20 20 20 20 20 20 20 20 20 20 20
15 15 15 15 15 15 15 16 16 16 16 16 17 17 17 17 17 17 16 16 16 16 17 17 17 17 18 18 18 18 18 18 18 18 18 18 18 18 18 19 19 19 19 19 19 19 19 19 19 19 20 20 20 20 20 20 20 20 20 20 20 20 20
15 15 15 15 15 15 15 15 15 15 16 16 16 16 16 17 16 16 16 16 16 16 16 17 17 17 17 17 18 18 18 18 18 18 18 18 18 18 18 18 18 19 19 19 19 19 19 19 19 19 20 20 20 20 20 20 20 20 20 21 20 20 20
15 15 15 15 15 14 14 15 15 15 15 15 16 16 16 16 16 16 16 16 16 16 16 16 16 17 17 17 17 18 18 18 18 18 18 17 17 17 17 17 17 17 18 19 19 19 19 19 19 19 19 20 20 20 20 20 20 20 20 20 20 20 20
15 15 15 14 14 14 14 14 14 14 15 15 15 15 15 16 16 16 16 16 16 16 16 16 16 16 16 17 17 17 17 17 18 18 17 17 17 17 16 17 17 17 17 18 18 18 18 19 19 19 19 19 19 19 19 20 20 20 20 20 20 20 20
15 15 14 14 14 14 14 14 15 15 15 15 15 15 15 15 15 15 16 16 16 16 16 16 16 16 16 16 16 16 16 16 17 17 17 17 17 17 17 17 17 17 17 17 17 17 17 17 18 18 18 18 19 19 19 19 19 19 19 19 20 20 20
15 14 14 14 14 14 14 14 14 14 14 14 14 14 14 15 15 15 15 15 15 15 15 15 15 15 15 15 15 16 16 16 16 16 17 17 17 17 16 16 16 17 17 17 17 17 16 17 17 18 18 18 18 18 19 19 18 19 19 19 19 19 19
14 14 14 14 14 14 14 14 14 14 14 14 14 14 14 14 15 14 14 14 14 14 14 14 14 14 14 15 15 15 15 15 15 16 16 16 16 16 16 16 16 16 17 17 17 17 17 17 17 18 18 18 18 18 18 18 17 18 18 18 18 18 18
14 14 14 14 14 15 15 14 14 14 14 14 14 14 14 15 14 14 13 13 13 13 13 13 13 13 13 14 14 14 14 14 15 15 15 15 16 16 15 15 16 16 17 17 17 17 17 17 17 17 17 17 17 17 17 17 17 17 17 17 17 17 17
14 14 14 14 14 14 15 15 15 14 14 14 14 14 14 14 14 14 13 13 13 13 13 12 12 13 13 13 13 13 14 14 14 14 14 14 15 15 15 15 15 15 16 16 16 16 16 16 16 16 16 16 16 16 16 16 16 16 16 16 16 16 16
14 14 14 14 14 14 14 14 14 14 14 14 14 14 14 14 14 14 14 14 13 13 13 13 13 13 13 13 13 13 13 13 13 13 13 14 14 14 14 14 14 14 15 15 15 15 15 15 15 15 15 15 15 15 15 15 15 15 15 15 15 15 15
14 14 14 14 14 14 14 14 14 13 14 13 13 13 14 14 14 14 14 14 14 13 13 13 13 13 12 13 13 13 13 13 13 13 13 13 14 14 14 14 14 14 15 15 15 15 15 14 14 14 14 14 14 14 14 15 15 15 15 15 15 15 15
14 14 14 14 14 14 14 14 14 13 13 13 13 13 13 13 13 13 13 13 13 13 13 13 13 13 13 13 13 13 13 13 13 13 14 14 14 14 14 14 14 14 14 14 14 14 14 14 14 13 13 14 14 14 14 14 14 14 14 14 15 15 15
14 14 14 14 14 14 14 14 14 14 14 14 14 14 14 14 14 13 13 13 13 13 13 14 13 13 13 13 13 13 13 13 13 13 14 14 13 13 13 13 14 14 14 14 14 13 13 13 13 13 13 13 13 14 13 13 13 13 13 14 14 14 15
15 14 14 14 14 14 14 14 14 14 14 14 14 15 15 14 14 14 14 14 13 13 14 14 14 14 14 13 14 14 13 13 13 13 14 14 13 13 13 13 13 13 13 13 13 13 13 13 13 13 13 13 13 13 13 13 13 13 13 14 14 14 14
14 14 14 14 14 14 14 14 14 14 14 14 14 15 15 15 15 15 15 14 14 14 14 14 14 14 14 14 14 13 13 13 13 13 13 13 13 13 14 13 13 13 13 13 13 13 13 13 13 13 13 13 13 13 13 13 13 14 14 14 14 14 14
14 14 14 14 14 14 14 14 14 14 14 14 14 14 14 14 14 15 15 15 15 14 14 14 14 14 14 13 13 13 13 13 13 13 13 13 13 13 13 13 13 13 13 13 13 13 13 13 13 14 14 14 14 14 14 14 14 14 15 15 15 15 15
14 14 14 14 13 14 14 13 13 13 13 13 13 14 14 14 14 14 14 14 15 15 15 15 14 14 13 13 13 13 12 12 12 12 12 12 12 13 13 13 13 13 13 13 13 13 13 13 13 14 14 14 14 14 14 15 15 15 15 15 15 15 15
14 14 13 13 13 13 13 13 13 13 13 13 13 13 13 13 14 14 14 14 14 14 14 14 14 14 14 13 13 13 12 12 12 12 12 12 12 12 12 12 12 13 13 12 12 12 12 13 13 13 13 13 14 14 14 14 15 15 15 15 15 15 15

ECMWFFLT1_850_temp_129.txt.gz
Temp
23 24 24 25 26 26 25 25 25 25 24 24 24 24 23 23 23 22 21 20 20 20 20 20 20 20 20 20 19 20 20 20 20 20 19 19 19 20 20 20 20 20 20 20 20 20 20 20 20 20 19 20 20 20 20 20 20 20 20 20 20 20 20
23 24 24 24 25 26 25 25 25 24 24 24 24 24 24 23 23 22 22 21 20 20 20 20 20 20 20 20 19 20 20 20 19 19 19 19 19 19 20 20 20 20 20 20 20 20 20 20 20 20 19 20 20 20 20 21 21 20 20 19 20 20 20
24 25 24 24 25 25 25 25 25 25 24 24 24 24 24 23 23 22 22 21 20 20 20 20 20 20 20 20 19 20 20 20 19 19 19 20 20 20 20 20 20 20 20 20 20 20 20 20 20 20 20 20 20 20 20 20 20 21 20 20 20 20 20
23 24 24 24 25 25 25 25 25 24 24 24 24 23 23 23 23 22 22 21 21 20 20 20 20 20 20 20 19 19 20 20 20 20 20 20 20 20 20 20 20 20 20 20 20 20 20 20 20 20 20 20 20 20 20 20 20 20 20 21 20 20 20
23 23 23 24 24 25 25 25 25 24 24 24 24 23 23 23 23 23 22 22 21 21 21 21 21 20 20 20 20 20 20 20 20 20 20 20 20 20 20 20 20 20 20 20 20 20 20 20 20 20 20 20 20 20 20 21 20 20 20 21 21 20 20
21 22 23 24 23 24 24 24 24 24 24 24 24 23 23 23 23 23 22 22 21 21 21 21 21 21 21 21 21 21 20 20 20 20 20 20 20 21 21 21 21 21 21 20 20 20 20 20 20 20 20 20 20 20 20 20 20 20 20 20 21 20 20
20 21 23 23 23 23 24 24 24 24 24 24 24 24 23 24 23 23 23 23 22 22 22 22 22 22 21 21 21 21 21 21 20 20 20 20 21 21 21 21 21 21 21 21 21 21 20 20 20 20 20 20 20 20 20 20 20 20 20 20 20 21 20
20 20 22 23 23 23 23 24 24 23 23 24 24 24 23 23 23 23 23 23 22 22 22 22 22 22 22 22 21 21 21 21 21 21 21 21 21 21 21 21 21 21 21 21 21 21 21 20 20 20 20 20 20 20 21 20 20 20 20 20 20 20 20
20 20 20 22 22 23 23 23 23 23 23 23 23 24 24 23 24 23 23 23 23 22 22 22 23 22 22 22 21 21 21 21 21 21 21 21 21 21 21 21 21 21 21 21 21 21 21 21 21 20 20 20 20 20 20 20 20 20 20 20 20 20 20
20 20 20 21 21 22 22 23 22 22 22 22 23 23 23 23 23 23 23 23 23 22 22 22 23 22 22 22 22 21 21 21 21 22 21 21 22 22 22 22 21 21 21 21 21 21 21 21 21 21 20 20 20 20 20 20 20 20 20 20 20 20 20
20 20 20 20 20 20 20 21 22 22 22 22 23 23 22 22 22 22 22 22 22 22 22 22 22 22 22 22 22 21 21 21 21 21 21 22 22 22 22 22 22 22 21 21 21 21 21 21 21 21 20 20 20 20 20 20 20 20 20 20 20 20 20
18 18 19 19 20 19 19 20 21 21 21 21 22 22 22 21 22 22 21 21 22 22 21 21 22 22 22 22 22 21 21 21 21 21 21 21 21 21 22 22 22 22 22 22 21 21 21 22 21 21 20 20 20 20 20 20 19 20 20 20 20 20 20
18 18 18 18 18 18 18 19 20 21 21 21 21 21 21 21 21 21 21 21 21 21 21 21 22 22 22 21 21 21 21 20 20 21 21 21 21 21 21 22 22 22 22 22 22 21 21 22 21 21 21 20 20 20 20 20 20 19 19 20 20 20 20
18 18 18 18 18 18 18 19 20 20 20 20 20 20 20 20 20 20 20 20 21 21 20 21 21 21 21 21 21 21 20 20 20 21 21 21 21 22 22 21 21 22 22 22 22 22 21 21 21 21 21 21 20 20 20 20 20 20 19 19 20 20 20
17 17 18 18 18 18 18 19 19 20 20 20 20 20 20 20 20 20 20 20 20 20 20 20 20 21 21 21 21 20 20 20 21 22 21 21 21 22 22 22 21 21 21 21 21 21 21 21 21 21 21 21 20 20 20 20 20 20 20 19 19 19 20
16 16 17 17 18 18 18 18 18 19 19 20 20 19 20 20 20 20 20 20 20 20 20 20 20 20 20 21 21 21 20 20 21 21 21 21 21 21 21 22 21 21 21 21 20 21 20 20 20 21 21 21 21 20 20 20 20 20 20 20 19 19 19
16 16 16 16 17 17 17 17 18 18 18 19 19 19 20 20 20 20 20 20 20 20 20 20 20 20 20 20 20 20 20 20 20 20 20 20 21 21 21 21 21 21 22 22 21 21 20 20 20 21 21 21 21 21 21 20 20 20 20 20 20 20 19
15 15 15 16 16 16 17 17 17 17 18 18 18 18 19 19 19 19 19 19 19 19 19 19 20 20 20 20 20 20 19 19 20 20 20 20 20 20 20 21 21 21 21 21 21 21 21 20 19 20 20 21 21 21 20 20 20 20 20 20 21 20 19
15 14 14 15 15 15 16 16 16 17 17 17 17 17 18 18 18 18 18 18 18 18 18 19 19 19 19 19 19 19 19 19 19 19 19 19 19 19 20 20 20 20 20 21 21 21 21 21 20 19 19 20 20 19 19 19 19 20 20 19 20 20 19
14 14 14 15 15 15 15 16 16 16 16 16 17 17 17 17 18 18 18 18 18 18 18 19 19 19 19 19 19 19 19 18 19 19 19 19 19 19 19 19 20 20 20 20 20 20 21 21 21 20 20 19 19 18 18 19 19 20 20 20 20 19 19
15 14 14 15 16 15 15 16 16 16 16 16 16 16 16 17 17 17 17 18 18 18 19 19 19 19 19 19 19 19 18 18 18 19 19 19 19 19 19 19 19 19 19 19 20 20 20 20 20 20 20 20 19 19 19 20 19 19 19 19 19 19 19
15 15 15 15 15 15 15 15 15 16 16 16 16 16 16 16 17 17 17 17 17 18 18 18 18 18 18 18 18 18 18 18 18 18 18 18 18 18 19 19 19 19 19 19 19 19 19 20 20 20 20 20 19 19 19 19 19 19 19 19 19 19 19
15 15 15 15 15 15 15 14 15 15 15 15 15 16 16 16 16 17 17 17 17 17 17 17 17 18 18 18 18 18 17 17 17 17 17 17 18 18 18 18 19 19 18 18 18 18 19 19 19 19 19 19 19 19 18 19 20 20 20 19 19 19 19
16 15 15 15 15 14 15 14 14 15 15 15 15 15 16 16 16 16 16 17 17 17 17 17 17 17 17 17 17 17 17 17 17 17 17 17 17 17 17 18 18 18 18 18 18 18 18 19 19 19 19 19 19 18 18 19 19 19 19 19 19 19 19
16 15 15 15 15 14 14 14 14 14 14 14 14 15 15 15 16 16 16 16 17 17 17 17 17 17 17 17 17 17 17 17 17 17 17 17 17 17 17 17 17 17 18 17 17 17 17 18 18 18 18 18 18 18 18 19 19 19 19 19 19 19 19
16 15 16 16 15 14 14 14 14 14 14 14 14 14 14 15 15 15 15 16 16 16 16 16 16 17 17 17 17 17 17 17 16 16 16 16 17 17 17 17 17 17 17 17 17 17 17 17 17 18 18 18 18 18 18 18 18 18 18 18 18 19 19
16 16 17 17 16 15 15 14 14 14 14 14 14 14 14 14 15 14 15 15 15 15 15 15 16 16 16 16 16 16 16 16 16 16 16 16 16 16 16 16 16 17 17 17 17 17 17 17 17 17 18 18 18 18 18 18 18 18 18 18 18 18 18
16 17 17 17 17 16 16 16 15 15 14 14 14 14 14 14 14 14 14 14 14 14 14 14 15 15 15 15 15 15 15 15 15 15 15 15 16 16 15 15 16 16 16 16 16 16 16 16 17 17 17 17 17 17 17 18 18 18 18 18 18 18 17
17 18 18 17 17 17 17 17 16 16 15 15 14 14 13 14 14 14 14 14 13 13 14 14 14 14 14 15 15 15 15 15 15 15 15 15 15 15 15 15 15 15 16 16 16 16 16 16 16 17 17 17 17 17 17 17 17 17 17 17 17 17 17
17 18 18 17 17 17 17 16 16 16 16 15 14 14 14 14 14 14 14 14 14 14 14 14 14 14 14 14 14 14 14 14 15 15 14 14 14 14 15 15 15 15 15 15 15 15 15 15 15 16 16 16 16 16 16 17 17 17 17 17 17 17 17
17 17 17 17 17 17 17 16 16 16 16 15 15 15 14 14 14 13 13 13 14 14 14 14 14 14 14 14 14 14 14 14 14 14 14 14 14 14 14 14 14 15 15 14 14 15 15 15 15 15 15 15 15 15 16 16 16 16 16 16 16 16 16
16 16 17 17 17 17 17 16 16 16 16 16 16 15 15 15 15 14 14 13 13 14 14 14 14 14 14 14 14 14 14 14 14 14 14 14 14 14 14 14 14 14 14 14 14 14 14 14 14 14 14 14 14 14 15 15 15 15 15 15 16 16 15
16 16 16 16 16 16 16 16 16 16 16 15 15 15 15 15 15 15 15 14 14 14 14 14 14 14 14 14 14 13 14 14 14 14 14 14 14 14 14 14 14 14 14 14 13 13 14 14 14 14 14 14 14 14 14 14 14 14 14 14 15 15 15
15 15 15 15 15 15 15 15 15 15 15 15 15 15 15 15 15 15 15 14 14 14 14 14 14 14 14 14 14 14 13 13 13 14 14 14 14 14 14 14 14 14 14 14 13 13 13 13 13 14 13 14 14 14 14 14 14 14 14 14 14 15 15
15 15 15 15 14 14 14 14 14 14 14 14 14 14 14 14 14 14 14 14 14 14 14 14 14 14 14 14 14 14 13 13 13 13 13 14 14 14 14 14 14 14 14 14 14 14 13 13 13 13 13 14 14 14 14 14 14 14 14 15 15 15 16
14 14 14 14 14 14 14 14 14 14 14 14 14 14 14 14 14 14 14 14 14 14 14 14 15 15 15 15 15 14 14 13 13 13 13 13 14 14 14 14 14 14 14 14 14 14 14 14 13 14 14 14 15 14 14 14 14 15 15 15 16 16 16
14 14 14 14 14 14 14 14 14 14 14 13 14 14 14 14 14 14 14 14 14 14 14 14 15 15 15 14 14 14 14 13 13 13 13 14 14 14 14 14 14 14 14 14 14 14 14 14 14 15 15 15 15 15 15 15 15 15 15 15 15 15 15
14 14 14 14 14 14 14 14 14 14 13 13 13 13 13 13 13 14 14 13 13 13 13 14 14 14 14 14 14 13 13 13 13 13 13 14 14 14 13 13 13 14 14 14 14 14 14 14 14 14 15 15 15 15 15 15 15 15 15 15 15 15 15

ECMWFFLT1_850_temp_132.txt.gz
Temp
23 23 24 24 26 26 26 26 25 25 24 24 24 23 23 23 23 22 21 20 21 21 21 21 21 21 21 21 21 21 21 21 21 21 20 20 20 20 20 20 20 20 20 20 20 20 20 20 20 20 20 20 21 21 21 21 21 21 21 21 21 21 21
22 23 23 23 25 26 26 26 25 25 24 24 24 24 23 23 23 22 21 20 20 21 21 21 21 21 21 21 21 21 21 21 21 21 21 20 20 20 20 20 20 20 20 20 21 20 20 20 20 20 20 20 20 21 21 21 21 21 21 21 21 21 21
22 23 23 23 24 25 25 25 25 25 24 24 24 24 23 23 23 22 22 21 20 21 21 21 21 21 21 21 21 21 21 21 21 21 21 21 21 20 20 20 20 20 20 20 20 21 21 20 20 20 20 20 20 21 21 21 21 21 21 21 21 21 21
22 23 23 23 24 24 24 25 25 25 24 24 24 24 24 23 23 22 22 21 21 21 21 21 21 21 21 21 21 21 21 21 21 21 21 21 21 20 20 20 20 20 20 20 20 21 21 21 20 20 20 20 20 20 20 21 21 21 21 21 21 21 21
22 23 23 23 23 23 24 25 25 25 25 24 24 24 24 23 23 23 22 21 21 21 21 21 21 20 20 21 21 21 21 21 21 21 20 20 20 20 20 20 20 20 20 20 20 21 21 21 21 20 20 21 21 20 20 20 21 21 21 21 21 21 21
22 22 23 23 23 23 23 24 25 25 25 24 24 24 24 23 23 22 22 21 21 21 21 21 21 20 20 20 20 20 20 21 21 21 20 20 20 20 20 20 20 20 20 20 21 21 21 21 21 21 20 20 21 20 20 20 20 20 20 20 21 21 21
21 22 22 22 22 22 23 23 24 25 25 25 24 23 24 23 23 23 22 22 21 21 21 21 21 21 21 20 20 20 20 20 21 20 20 20 21 21 21 21 21 21 21 21 21 21 21 21 21 21 21 20 20 20 20 20 20 20 20 20 20 21 21
20 21 21 22 22 22 23 24 24 24 25 25 23 23 23 23 23 23 23 22 22 22 22 22 22 22 21 21 21 21 21 21 20 20 20 21 21 21 21 21 21 21 21 21 21 21 21 21 20 20 20 20 20 20 21 21 21 20 20 20 20 20 20
19 20 21 21 21 22 23 23 23 22 23 24 24 23 23 23 23 23 23 23 22 22 22 22 22 22 22 21 21 21 21 21 21 21 21 21 21 21 21 21 21 21 21 21 21 21 21 21 21 21 21 21 21 21 21 21 21 20 20 20 20 20 20
19 19 20 20 20 21 22 22 22 21 20 21 23 23 23 23 23 23 23 23 22 22 22 22 22 22 22 22 22 22 22 22 22 21 21 21 21 22 22 22 22 22 21 21 21 21 21 21 21 21 21 21 21 21 20 20 20 20 20 20 20 20 20
20 19 19 20 20 20 20 21 22 22 21 20 20 22 23 23 23 23 23 23 22 22 22 22 22 22 22 22 22 22 22 22 22 22 22 22 22 22 22 22 22 22 22 21 21 21 21 21 21 21 21 21 21 21 20 20 20 20 20 20 20 20 20
19 19 19 19 19 20 20 20 20 21 21 20 20 20 22 23 23 23 23 22 22 22 22 22 22 22 22 22 22 22 22 22 22 22 22 22 22 22 22 22 22 22 22 22 21 21 21 21 21 21 21 21 21 21 21 20 20 20 20 20 20 20 20
19 19 19 19 19 20 20 19 20 20 20 20 20 20 21 22 23 22 22 22 21 22 22 22 22 22 22 22 22 22 22 22 22 22 22 22 22 22 22 22 22 22 22 22 21 21 21 21 21 21 20 20 20 20 20 20 20 20 20 20 20 20 20
18 18 18 18 19 19 19 18 19 20 19 19 20 20 20 21 21 21 21 21 20 20 21 22 22 22 22 22 21 21 22 21 21 22 22 22 22 22 22 22 22 22 22 22 21 21 21 21 21 21 20 20 20 19 20 20 20 20 20 20 20 20 20
17 17 17 17 17 17 18 17 17 18 18 18 19 19 19 19 19 19 19 20 20 19 20 20 21 21 21 21 21 21 21 21 21 21 21 22 22 22 22 22 22 22 22 22 21 21 21 21 21 21 21 21 20 19 19 19 20 20 20 20 20 20 20
16 16 16 16 16 17 17 17 17 17 17 18 19 19 19 19 20 19 19 20 20 20 20 20 20 20 20 21 21 21 21 21 21 21 21 21 22 22 22 22 22 22 22 22 21 21 21 21 21 21 21 21 20 20 19 20 20 20 20 20 20 20 20
15 15 16 16 16 16 17 17 17 17 18 18 19 19 19 20 20 20 19 20 20 20 20 21 20 20 20 21 21 21 20 20 20 20 20 20 21 21 21 21 21 21 22 22 21 21 21 21 21 21 20 20 21 21 20 20 20 20 20 20 20 20 20
15 15 15 15 16 16 16 16 17 17 18 18 18 18 18 19 19 19 19 19 20 20 20 20 20 20 20 20 20 20 20 19 19 20 19 20 20 20 20 20 21 21 21 21 21 21 21 21 21 21 21 20 21 21 20 21 21 20 20 20 20 20 20
15 15 15 16 17 16 15 16 16 17 17 17 17 17 18 18 19 18 18 18 19 19 19 20 20 20 19 20 19 20 19 19 19 20 20 20 20 20 20 20 20 20 20 20 20 21 21 21 21 21 20 20 20 20 20 20 21 20 20 20 20 20 20
15 15 15 16 17 17 16 15 16 16 17 17 17 17 17 18 18 18 19 19 19 19 19 19 20 20 19 19 19 19 19 19 20 20 20 20 20 20 20 20 20 20 20 20 20 20 20 21 20 20 20 20 20 20 20 20 20 20 20 20 20 20 20
15 15 16 16 16 16 15 15 15 16 16 16 16 16 17 17 18 18 18 18 18 18 18 18 19 19 19 19 18 19 19 19 19 19 19 19 19 19 19 19 19 20 20 20 20 20 20 20 20 20 20 20 20 20 20 20 20 21 21 21 21 20 20
15 15 16 16 16 16 15 15 15 15 15 16 16 16 16 17 17 17 18 18 18 18 18 18 18 18 18 18 18 18 18 18 18 18 18 18 18 18 18 18 19 19 19 20 20 20 20 20 20 20 20 20 20 19 19 20 20 20 21 21 21 20 20
15 15 16 16 16 16 15 15 15 15 15 15 15 16 16 16 17 17 17 17 17 17 17 17 17 18 18 18 18 18 18 18 18 18 18 18 18 18 18 18 18 18 19 19 19 20 20 20 19 19 19 19 19 19 19 19 20 20 20 21 20 20 19
15 15 15 16 15 15 15 15 15 15 14 15 15 15 15 16 16 17 17 17 17 17 17 17 17 17 17 17 17 17 18 18 18 17 18 18 18 18 18 18 18 18 18 18 18 19 19 19 19 18 19 19 18 18 19 19 19 19 20 20 20 20 19
16 15 15 16 15 15 15 15 14 14 14 14 14 14 15 15 16 16 16 16 16 16 17 17 17 17 17 17 17 17 17 17 17 17 17 17 17 17 17 17 17 17 17 17 18 18 18 18 18 18 18 18 18 18 19 19 19 19 19 19 19 19 19
16 16 15 15 15 15 15 15 14 14 14 14 14 14 15 15 16 16 16 16 16 16 17 16 16 16 16 17 17 17 17 17 17 17 17 17 17 17 17 17 17 17 17 17 17 17 17 17 17 17 17 17 18 18 18 18 18 18 19 19 19 19 19
16 16 16 16 16 16 15 15 15 15 15 14 14 14 15 15 16 15 15 16 16 16 16 16 16 16 15 15 16 16 16 16 16 16 16 16 16 17 17 17 17 17 17 17 17 17 17 17 17 17 17 17 17 18 18 18 18 18 18 18 18 18 18
17 17 17 16 16 16 15 15 16 15 15 14 14 15 15 15 15 15 15 15 15 14 14 15 15 15 15 15 15 15 15 15 15 16 16 16 16 16 16 16 16 16 16 16 16 17 17 17 17 17 17 17 17 17 17 17 17 17 18 18 18 17 18
17 17 17 17 17 16 16 16 16 15 15 14 14 15 15 15 15 14 14 14 14 14 14 14 14 14 15 15 15 15 15 15 15 16 15 15 15 15 15 15 15 15 15 15 16 16 16 16 16 16 16 16 16 16 16 16 16 17 17 17 17 17 17
18 18 18 17 17 17 17 16 15 15 15 15 14 14 15 15 15 14 14 14 14 14 14 14 14 14 14 14 15 15 15 15 15 15 15 15 15 15 15 15 15 15 15 15 15 15 15 15 15 15 15 15 16 16 16 16 16 16 16 16 16 16 16
18 18 18 18 17 17 17 17 16 16 16 16 15 15 14 15 15 14 14 14 14 15 15 15 14 14 14 14 14 14 14 15 15 15 14 14 15 15 15 14 15 15 15 15 15 15 15 15 14 14 14 15 15 15 15 15 15 15 16 15 15 15 15
18 18 18 18 18 17 17 17 17 17 16 16 16 15 15 15 14 14 14 14 14 14 15 15 15 15 15 15 14 14 14 15 15 15 15 14 14 15 14 14 15 15 14 14 14 14 14 14 14 14 14 14 15 15 15 15 15 15 15 14 14 14 14
17 18 18 17 17 17 17 17 17 17 16 16 16 16 15 15 15 14 14 14 14 14 15 15 16 16 15 15 15 15 15 15 15 15 15 15 15 15 15 15 15 15 15 15 14 14 13 13 14 14 14 14 14 14 14 14 14 14 14 14 14 14 14
16 16 16 16 16 16 16 16 15 15 15 15 15 15 15 15 15 14 14 14 14 14 15 15 15 15 15 15 15 15 15 15 15 15 15 15 15 15 15 15 15 15 15 15 15 15 14 13 14 14 14 14 14 14 14 14 14 14 14 14 14 14 14
15 15 15 15 15 15 15 15 15 15 15 15 15 15 15 15 15 14 14 14 14 14 15 15 16 16 15 15 15 14 14 14 14 15 14 14 15 15 15 15 15 15 15 15 15 15 15 15 15 15 14 14 14 14 14 14 14 14 15 14 15 15 15
15 15 15 15 14 14 14 14 14 14 14 14 15 14 14 14 14 14 14 14 14 15 15 15 15 15 15 15 15 14 14 13 14 14 14 14 15 15 15 15 15 15 15 15 15 15 15 15 15 15 15 15 15 15 15 15 15 15 15 15 15 15 15
14 14 14 14 14 14 14 14 14 14 14 14 14 14 14 14 14 14 14 14 14 15 15 15 15 15 14 14 14 14 14 13 14 14 14 14 14 14 14 14 14 14 14 14 14 15 15 15 15 15 15 15 15 15 15 15 15 15 15 15 15 14 14
14 14 14 14 14 14 14 14 14 14 14 14 14 14 14 14 14 14 14 14 14 14 14 15 15 14 14 14 14 13 13 13 13 13 13 13 14 14 13 14 14 14 14 14 14 14 14 14 14 15 15 15 15 15 15 15 15 15 15 15 14 14 13

ECMWFFLT1_850_temp_135.txt.gz
Temp
22 22 23 23 24 24 25 25 24 24 24 23 23 23 23 23 22 22 21 21 22 21 21 22 21 21 21 21 21 21 20 20 20 20 20 19 20 20 20 20 21 21 21 20 20 20 20 20 20 20 20 20 20 21 21 21 21 21 21 21 21 21 21
22 22 23 23 23 24 24 25 24 24 24 24 23 23 23 23 22 22 22 21 22 22 22 22 22 21 21 21 21 21 21 21 21 20 20 19 19 19 20 21 21 20 20 20 21 20 20 20 20 20 20 20 20 21 21 21 21 21 21 21 21 21 21
22 22 23 23 23 24 24 24 24 24 24 24 24 23 23 23 23 22 22 22 22 22 21 22 22 22 21 21 21 21 21 21 21 21 21 20 20 19 19 20 20 20 20 20 20 20 20 20 20 20 20 20 20 20 21 21 21 21 21 21 21 21 21
22 23 23 23 23 23 24 24 24 24 24 24 24 23 23 23 23 22 22 22 22 22 22 22 22 22 21 21 21 21 21 21 21 21 21 21 21 20 20 19 20 20 20 20 20 20 20 20 20 20 20 20 20 20 21 21 21 21 21 21 21 21 21
21 22 22 23 23 23 24 24 24 24 24 24 24 24 23 23 23 23 22 22 22 22 22 22 22 22 22 21 21 21 21 21 21 22 21 21 21 21 20 20 20 20 20 20 20 20 20 20 20 20 20 20 20 20 21 21 21 21 21 21 21 21 21
21 21 22 22 23 23 23 23 24 24 24 24 24 24 24 23 23 23 22 22 22 22 22 22 22 22 22 22 21 21 22 22 21 22 22 21 21 21 21 21 20 20 20 20 20 20 20 21 21 20 20 20 20 20 20 21 21 21 21 21 21 21 21
20 21 21 22 22 22 22 23 23 24 24 23 23 23 23 23 23 23 22 22 22 22 22 21 21 22 22 22 22 21 22 22 22 22 21 21 21 21 21 21 20 20 20 20 20 20 20 21 21 21 20 20 20 20 20 20 20 20 20 20 20 21 20
19 20 21 21 22 22 22 23 23 23 23 23 23 22 22 22 22 22 22 22 22 22 22 21 21 21 21 21 21 21 21 21 22 22 21 21 20 20 20 20 20 20 20 20 20 20 20 20 21 21 21 20 20 20 20 20 20 20 20 20 20 20 20
17 18 19 20 21 22 22 23 23 23 23 23 23 22 22 21 21 21 21 21 22 22 21 21 21 20 20 20 21 21 20 20 21 21 21 21 20 20 20 20 20 20 20 21 21 21 21 21 21 21 21 21 20 20 20 20 20 20 20 20 20 20 20
17 16 17 18 20 21 22 22 23 23 23 22 23 23 22 21 21 20 20 20 21 21 21 21 20 20 20 20 20 20 20 20 20 21 21 21 21 20 20 20 21 21 21 21 21 21 21 21 21 21 21 21 20 20 20 20 20 20 20 20 20 20 20
18 17 17 17 18 19 21 22 22 22 22 22 22 22 22 22 21 21 20 19 19 20 21 21 21 21 21 21 21 21 20 20 20 21 21 21 21 20 21 21 21 21 21 21 21 21 21 21 21 21 21 21 20 20 20 20 20 20 20 19 19 20 20
18 18 18 17 17 17 19 21 21 21 21 21 21 21 22 21 21 21 21 20 18 19 20 21 21 21 21 21 22 21 21 21 21 21 21 21 21 21 21 21 21 22 22 21 21 21 21 21 21 21 21 21 20 20 20 20 20 21 21 21 20 20 19
17 18 18 18 18 17 17 19 20 21 21 21 21 21 21 21 21 21 21 20 19 18 19 21 21 21 20 20 21 21 21 21 21 21 21 21 21 21 21 21 21 22 22 22 22 21 21 21 21 21 21 21 21 20 20 20 20 20 21 21 20 20 20
16 17 17 17 17 18 17 18 19 20 20 21 21 20 20 20 21 21 20 20 20 18 19 21 21 21 21 20 21 21 20 20 21 21 21 21 22 21 21 21 21 21 22 22 22 22 21 21 21 21 21 21 21 21 20 20 20 20 20 20 20 20 20
16 16 16 17 17 17 17 17 18 18 19 19 20 20 20 20 20 21 20 20 21 19 19 21 21 21 21 21 21 20 19 19 20 21 21 21 21 21 21 21 21 21 22 22 22 21 21 21 21 21 21 21 21 21 21 21 20 20 20 20 20 20 20
15 15 16 16 16 16 17 17 17 18 18 18 18 19 20 20 20 20 20 20 21 20 20 21 21 21 20 20 20 20 20 20 20 21 21 21 21 21 21 21 21 21 21 22 22 21 21 21 21 21 21 21 21 21 21 21 20 20 20 20 20 20 20
15 15 16 16 16 16 16 17 17 17 17 17 17 18 19 20 20 20 20 20 20 20 20 21 21 20 20 20 20 20 20 21 21 21 21 21 21 21 21 21 21 21 21 21 21 21 21 21 21 21 21 21 21 21 21 21 20 20 20 20 20 20 20
15 15 16 15 15 16 16 16 17 17 17 17 17 17 18 19 19 19 19 20 21 20 20 20 20 20 19 20 20 20 21 21 21 20 20 21 21 21 21 21 21 21 21 21 21 21 21 21 20 20 20 20 21 21 21 20 20 20 20 20 20 20 20
15 15 15 15 15 16 16 16 16 16 17 17 17 18 18 18 18 18 19 20 21 21 20 21 21 20 19 20 20 21 21 21 20 20 20 20 20 20 20 20 20 21 21 21 20 20 20 20 20 20 20 20 21 21 21 20 20 20 20 20 20 20 20
15 14 15 15 15 15 15 15 15 16 17 17 17 18 18 18 18 18 18 19 20 20 20 21 21 20 19 19 19 20 21 20 20 20 20 20 20 20 20 20 20 20 20 20 20 20 20 20 20 20 20 20 20 20 20 20 20 20 20 20 20 20 20
15 15 14 15 15 15 15 15 16 16 17 17 17 17 18 18 19 19 19 19 20 19 19 20 19 19 18 18 18 19 19 19 19 19 19 19 19 19 19 19 19 19 19 19 19 19 19 19 19 19 19 19 20 20 20 20 20 20 20 20 20 20 20
15 15 15 15 14 15 15 15 15 16 17 17 17 16 17 17 18 19 19 19 19 19 19 19 19 18 18 18 18 18 18 18 19 19 19 19 19 18 18 18 19 19 19 19 19 19 19 19 19 19 19 19 19 20 20 20 20 20 20 20 20 20 19
15 15 15 15 14 14 14 14 15 15 16 16 16 16 17 17 17 18 18 18 17 18 18 18 19 19 19 19 18 18 18 18 18 18 19 19 18 18 18 18 18 18 19 19 19 19 19 19 19 19 18 18 19 19 19 19 20 20 20 20 20 20 19
14 14 15 14 14 14 14 14 15 15 15 15 15 16 16 16 16 17 17 17 17 17 17 18 18 19 19 18 18 18 18 18 18 18 18 18 18 18 18 18 18 18 18 18 18 18 18 18 18 18 18 18 18 18 19 19 20 20 20 20 20 19 19
14 14 14 14 14 14 14 14 15 15 15 15 15 15 15 16 16 16 16 16 16 16 16 17 17 17 17 17 17 18 17 17 17 17 17 18 18 18 17 17 18 18 18 18 18 18 17 17 17 17 17 18 18 18 18 18 19 19 19 19 19 19 19
15 15 15 15 15 14 15 15 15 15 15 15 15 15 15 15 16 16 16 15 15 15 15 15 15 16 16 16 16 17 17 17 16 16 17 17 17 17 17 17 17 17 18 18 17 17 17 17 17 17 18 18 18 18 18 18 18 18 19 19 19 19 19
15 15 15 15 15 15 15 15 15 15 14 14 14 15 15 15 16 15 15 15 15 14 14 14 14 15 15 15 16 16 16 16 16 16 16 16 16 17 17 17 17 17 17 17 17 17 17 17 17 17 17 17 17 17 17 17 18 18 18 18 18 18 18
15 16 16 16 15 15 15 15 15 15 15 15 15 14 15 15 15 14 14 14 14 14 14 14 14 14 15 15 15 15 15 16 16 16 16 16 16 16 16 16 16 16 16 16 16 16 16 17 17 17 17 17 17 17 17 17 17 18 18 18 18 18 17
16 16 16 16 16 16 16 15 15 15 15 15 15 15 15 15 15 14 14 14 14 14 14 14 14 14 14 14 14 14 14 14 15 15 15 15 15 15 15 15 15 15 15 15 15 16 16 16 16 16 16 16 16 16 16 16 16 17 17 17 17 17 17
17 16 16 16 16 16 16 15 15 15 15 15 15 15 15 15 15 15 15 15 14 14 14 14 14 13 13 13 13 13 14 14 14 14 14 14 14 15 15 15 15 15 14 15 15 15 15 15 15 15 15 15 15 15 15 15 15 16 16 16 16 16 17
17 17 17 17 17 17 16 15 15 15 15 14 14 15 15 15 15 15 15 15 15 15 15 15 14 14 14 14 14 14 14 14 14 14 15 15 15 15 15 15 15 14 14 14 14 14 14 14 14 14 14 15 15 15 14 14 15 15 15 15 16 16 16
17 18 17 17 17 16 16 15 15 15 15 15 14 14 14 14 14 15 15 15 15 15 15 15 15 15 15 15 15 15 15 15 15 15 15 15 15 15 15 14 15 14 14 14 14 14 14 14 14 14 14 14 14 14 14 14 14 14 15 15 15 15 15
17 17 17 17 16 16 16 15 15 15 15 15 14 14 14 14 14 14 14 14 15 15 15 15 15 15 15 15 15 15 15 15 15 15 15 15 15 15 15 15 15 15 15 15 15 15 14 14 14 14 14 14 14 14 14 14 14 14 14 15 15 15 15
16 16 16 17 17 16 16 15 15 15 15 15 15 15 14 14 14 14 14 14 14 14 14 14 14 14 15 15 16 16 16 15 15 16 16 15 16 16 16 15 15 15 15 15 15 15 15 15 15 15 14 14 15 15 15 15 15 15 15 15 15 15 14
15 15 15 16 16 16 16 15 15 15 15 15 15 14 14 14 14 14 15 15 15 14 14 14 14 14 14 14 15 15 15 15 15 15 15 15 16 16 16 16 15 15 15 15 15 15 15 15 15 15 15 15 15 15 15 15 15 15 15 15 15 15 15
15 15 15 15 15 15 15 15 15 15 14 14 14 14 14 14 14 14 15 15 15 15 15 14 15 14 14 14 14 14 15 15 14 15 15 15 15 15 15 15 15 15 15 15 15 15 15 15 15 15 15 15 15 15 16 15 15 15 15 15 15 14 14
15 15 14 14 14 14 14 14 14 14 14 14 14 14 14 14 14 14 15 15 15 15 15 15 15 15 14 14 14 14 14 14 14 14 14 14 14 14 14 15 15 15 15 15 15 15 15 15 15 15 15 15 15 15 15 15 15 15 15 14 14 13 13
14 14 14 14 14 14 14 14 14 14 14 14 14 14 14 14 14 14 14 14 14 15 15 15 15 14 14 14 14 13 13 13 13 13 13 13 13 13 14 14 14 14 14 14 14 14 14 14 15 15 15 15 15 15 15 15 15 14 14 13 13 13 13

ECMWFFLT1_850_temp_138.txt.gz
Temp
22 23 23 23 23 23 23 23 22 22 23 22 22 22 22 21 21 21 21 21 21 21 21 20 20 20 20 20 19 19 20 20 20 20 20 19 19 19 19 19 20 20 20 20 20 20 20 20 20 20 20 20 20 20 20 20 20 20 20 20 20 20 20
21 22 22 23 23 23 23 23 23 23 23 22 22 22 22 22 22 22 22 22 21 21 21 21 21 20 20 20 20 19 19 20 20 19 19 19 19 19 19 19 20 20 20 20 20 20 20 20 20 19 19 20 20 20 20 20 20 20 20 20 20 20 20
20 20 21 22 23 23 23 23 23 23 23 23 22 22 22 22 22 22 22 22 22 22 22 22 22 21 21 20 20 20 19 20 20 19 19 19 20 19 19 19 19 20 20 20 20 20 20 20 20 19 19 19 20 20 20 20 20 20 20 20 21 20 20
20 20 20 20 20 21 22 23 23 23 23 23 23 22 22 22 22 22 22 22 22 22 22 22 22 22 21 21 21 20 20 20 20 20 20 20 20 20 19 19 19 20 20 20 20 20 20 20 20 20 19 19 19 20 20 20 20 20 20 20 20 21 21
20 20 20 20 19 18 19 22 23 23 23 23 23 23 23 22 22 22 22 22 22 22 22 22 22 22 21 21 21 21 20 20 20 20 20 20 20 20 20 20 20 20 20 20 20 20 20 20 20 20 20 20 20 20 20 20 20 20 20 20 20 21 21
20 20 20 20 20 20 19 19 21 22 22 23 23 23 23 22 22 22 22 22 22 22 22 22 22 22 22 21 21 21 21 21 20 20 20 20 20 20 21 21 21 20 20 20 20 20 20 20 20 20 20 20 20 20 20 20 20 20 20 20 20 21 21
19 19 20 20 21 21 20 19 19 20 22 23 23 23 22 22 22 21 21 21 21 22 22 22 22 22 22 21 21 21 21 21 21 21 21 20 20 20 21 21 21 21 20 20 20 20 20 20 20 20 20 20 20 20 20 20 20 20 20 21 20 21 21
18 18 18 19 20 21 20 19 19 19 20 22 23 23 22 23 22 21 20 20 20 20 20 21 22 22 22 22 21 21 21 21 21 21 21 21 21 21 21 21 21 21 20 20 20 20 20 20 20 20 20 20 20 20 20 20 20 20 20 20 20 20 20
17 17 17 17 18 19 20 20 19 19 19 20 22 23 23 23 22 21 21 21 20 20 20 19 20 20 21 22 22 21 21 21 21 21 21 21 21 21 21 21 21 20 20 20 20 20 20 20 20 20 20 20 20 20 20 20 20 20 20 20 20 20 20
17 17 17 17 17 18 18 19 20 20 19 19 20 21 22 23 22 21 21 21 20 20 20 20 20 19 20 21 21 21 21 21 21 21 21 21 21 21 21 21 20 20 20 20 20 20 20 20 20 20 20 20 20 20 20 20 20 20 20 20 20 20 20
16 16 17 17 17 17 17 18 19 20 20 19 19 20 21 22 22 22 21 21 21 21 20 21 21 21 20 19 20 21 21 21 21 21 21 21 21 21 21 21 20 20 20 20 20 20 20 20 20 20 20 21 20 20 20 20 20 20 20 20 20 20 20
16 16 17 17 17 17 17 18 18 19 20 20 19 19 20 21 22 22 21 21 21 21 21 20 21 21 21 19 19 19 20 20 20 20 20 20 21 21 21 20 20 20 20 20 20 21 21 21 20 20 20 21 21 20 20 20 20 20 20 20 20 20 20
15 16 16 16 16 16 16 17 18 18 19 20 19 19 20 20 21 22 21 21 21 21 21 21 20 21 21 21 20 19 19 19 19 19 20 20 20 20 20 20 20 20 20 20 21 21 21 21 20 20 20 20 21 20 20 20 20 20 20 20 20 20 20
16 16 16 16 16 16 16 16 17 18 18 18 19 19 19 20 20 21 21 21 22 21 21 20 20 20 21 21 21 19 18 19 20 20 20 20 20 20 20 20 20 20 20 20 21 21 21 20 20 20 20 20 20 21 21 20 20 20 20 20 20 20 20
15 15 15 16 16 16 16 16 17 17 18 18 18 19 19 19 20 20 21 21 21 21 20 19 20 20 20 21 22 20 19 19 20 20 20 20 20 20 20 21 20 20 20 21 21 21 21 20 20 20 20 20 20 20 20 20 20 20 20 20 20 20 20
15 15 15 15 15 16 16 16 16 17 18 18 18 18 18 18 19 20 20 21 21 20 20 20 20 20 20 21 21 20 19 19 20 20 20 20 20 20 20 20 20 20 20 21 21 21 21 20 20 20 20 21 20 20 20 20 20 20 20 20 20 20 20
15 15 15 15 15 15 16 16 16 16 17 17 17 17 18 17 18 19 20 20 20 19 20 20 20 20 20 21 21 20 19 19 20 20 20 20 20 20 20 20 20 20 20 20 21 21 20 20 20 20 21 21 21 20 20 21 20 20 21 20 20 20 20
15 15 15 15 15 15 15 16 16 16 17 17 17 19 19 18 17 18 19 19 19 19 19 19 19 20 20 21 21 20 19 20 20 20 20 20 20 20 20 20 20 20 20 20 20 20 20 20 20 20 20 20 20 20 21 21 21 21 21 21 20 20 20
15 15 15 15 15 15 15 16 16 16 16 17 17 18 19 17 17 18 18 18 19 19 18 18 18 19 20 20 20 20 20 20 20 20 20 20 20 20 19 20 20 20 20 20 20 20 20 20 20 20 20 20 20 20 20 20 21 21 21 21 20 20 20
15 15 15 15 15 15 15 15 15 15 16 17 17 17 17 16 17 18 18 18 18 18 18 18 18 18 19 19 20 20 20 20 20 20 20 20 20 20 20 20 20 20 20 20 20 20 20 20 20 20 20 20 20 20 20 20 20 21 21 20 20 20 20
15 15 15 15 15 15 15 15 15 15 16 16 17 17 17 17 17 17 18 18 18 18 18 18 18 18 18 19 19 19 20 20 20 20 20 20 20 20 20 20 20 19 19 20 20 20 20 20 20 20 19 19 19 20 20 20 20 20 20 20 20 20 20
15 15 15 15 16 15 15 15 15 15 16 16 16 17 17 18 18 17 17 17 17 18 18 18 18 18 18 19 19 19 20 20 20 20 20 20 20 20 20 19 19 19 19 19 19 19 19 19 19 19 19 19 19 19 19 19 20 20 20 20 20 20 20
14 14 15 15 15 15 15 14 15 15 15 16 16 16 17 17 18 17 17 17 17 18 18 18 18 19 19 19 20 19 19 20 20 19 19 19 19 19 19 19 19 18 18 19 19 19 19 19 18 18 18 18 19 19 19 19 19 19 19 19 19 19 19
14 14 15 15 15 15 14 14 15 15 15 16 16 16 16 17 17 17 17 17 17 18 18 18 18 19 19 19 19 19 19 19 19 19 18 18 18 18 18 18 18 18 18 18 18 18 18 18 18 18 18 18 18 18 18 18 18 18 18 19 19 19 19
14 14 14 15 15 14 14 14 14 15 15 15 15 15 16 16 16 16 16 16 16 17 18 18 18 18 18 18 18 18 18 18 18 18 18 18 18 18 18 18 18 18 18 18 18 17 17 17 17 17 17 17 17 18 18 18 18 18 18 18 18 18 19
14 14 14 14 14 14 14 14 14 15 15 15 15 15 15 15 16 16 15 15 16 16 16 16 17 17 17 17 18 18 18 18 18 18 17 17 17 17 17 17 17 17 17 17 17 17 17 17 17 17 17 17 17 17 17 17 17 17 18 18 18 18 18
14 14 14 14 14 14 14 14 14 15 14 14 14 15 15 15 16 15 15 15 15 15 15 15 15 16 16 16 17 17 17 16 17 17 17 17 16 16 16 16 16 16 17 17 17 17 17 17 17 17 17 17 17 17 17 17 17 17 17 17 17 17 18
14 14 14 14 14 14 14 14 14 14 14 14 14 14 15 15 15 15 14 14 14 14 14 14 14 15 15 15 15 16 16 16 16 16 16 15 16 16 16 16 15 15 16 16 16 16 16 16 16 16 16 17 17 17 17 17 17 17 17 17 17 17 17
14 14 14 14 14 14 14 14 14 14 14 14 14 14 15 15 15 14 14 14 14 14 14 14 14 14 15 15 15 15 15 15 16 16 15 15 15 16 16 16 15 15 15 15 15 15 15 15 14 14 15 16 16 16 16 16 16 16 16 16 17 17 16
15 14 15 14 14 14 14 14 14 14 14 14 14 15 15 15 15 14 14 14 14 14 14 14 14 14 15 15 15 15 15 15 15 15 15 15 15 15 15 15 15 14 14 14 14 15 15 14 14 14 14 15 15 15 15 15 15 15 16 16 16 16 16
15 15 14 14 14 14 14 14 14 14 14 14 14 14 15 15 15 14 14 14 14 14 14 14 15 15 15 15 15 14 14 14 14 15 15 15 15 15 15 14 14 14 14 14 14 15 15 14 14 14 14 14 14 15 15 15 15 15 16 16 15 15 16
15 15 14 14 14 14 14 14 14 14 14 14 14 14 14 14 14 14 14 14 14 14 15 15 15 15 15 15 15 15 15 15 15 15 15 15 15 15 15 15 15 15 14 14 14 14 14 14 15 15 15 14 14 14 14 14 14 15 15 15 15 15 15
15 15 14 14 14 14 14 14 14 14 14 14 14 14 14 14 14 14 14 14 14 14 15 15 15 15 15 15 15 15 15 15 15 16 16 16 16 16 15 16 16 16 15 15 15 15 15 15 15 15 15 15 14 14 14 14 14 14 14 14 14 15 15
15 15 14 14 14 14 14 14 14 14 14 14 14 14 14 14 14 14 13 13 13 14 14 15 15 15 15 15 15 15 15 15 15 15 16 16 16 16 15 15 16 16 16 16 15 15 15 15 15 15 15 15 15 14 14 14 14 14 14 14 14 14 14
15 15 15 15 14 14 15 14 14 14 14 14 14 14 15 15 14 14 14 14 14 14 15 15 15 15 15 15 15 15 15 15 15 15 15 15 15 16 15 15 15 15 15 15 15 15 15 15 15 15 15 15 15 15 15 14 14 14 14 14 14 13 13
15 15 14 14 14 14 15 14 14 14 14 14 14 14 14 14 14 14 14 14 14 14 15 15 15 15 14 14 14 14 14 14 14 14 14 15 15 15 15 15 15 15 15 15 15 15 15 15 15 15 15 15 15 15 15 14 14 14 14 14 14 14 14
14 14 14 14 14 14 14 14 14 14 14 14 14 14 14 14 14 14 14 14 14 14 15 15 15 14 14 14 14 14 14 13 13 13 14 14 14 14 14 14 14 14 14 14 14 15 15 15 15 15 15 15 15 15 14 14 14 13 13 13 13 13 14
14 15 14 14 14 14 14 14 14 14 14 14 14 14 14 14 14 14 14 14 14 14 14 14 14 14 14 14 14 14 14 13 13 13 13 13 13 13 13 14 14 14 14 14 14 14 14 14 15 15 15 15 15 15 14 14 13 13 13 13 13 13 13